<?xml version="1.0" encoding="UTF-8" standalone="no" ?>
<gpx xmlns="http://www.topografix.com/GPX/1/1" xmlns:xsi="http://www.w3.org/2001/XMLSchema-instance" xsi:schemaLocation="http://www.topografix.com/GPX/1/1 http://www.topografix.com/GPX/1/1/gpx.xsd" version="1.1" creator="VisuGPX - https://www.visugpx.com">
  <metadata>
    <name>Beaurainville/aix en issart/recques/attin/montreuil</name>
  </metadata>
  <trk>
    <name><![CDATA[Beaurainville/aix en issart/recques/attin/montreuil_1]]></name>
    <trkseg>
      <trkpt lat="50.423" lon="1.90177">
        <ele>-7</ele>
        <time>2019-08-11T07:37:12Z</time>
      </trkpt>
      <trkpt lat="50.42306" lon="1.90173">
        <ele>-7</ele>
        <time>2019-08-11T07:37:14Z</time>
      </trkpt>
      <trkpt lat="50.4231" lon="1.9017">
        <ele>-7</ele>
        <time>2019-08-11T07:37:16Z</time>
      </trkpt>
      <trkpt lat="50.42315" lon="1.90166">
        <ele>-7</ele>
        <time>2019-08-11T07:37:18Z</time>
      </trkpt>
      <trkpt lat="50.42323" lon="1.9016">
        <ele>-7</ele>
        <time>2019-08-11T07:37:21Z</time>
      </trkpt>
      <trkpt lat="50.42328" lon="1.90155">
        <ele>-6</ele>
        <time>2019-08-11T07:37:23Z</time>
      </trkpt>
      <trkpt lat="50.42336" lon="1.90148">
        <ele>-6</ele>
        <time>2019-08-11T07:37:26Z</time>
      </trkpt>
      <trkpt lat="50.42341" lon="1.90145">
        <ele>-7</ele>
        <time>2019-08-11T07:37:28Z</time>
      </trkpt>
      <trkpt lat="50.42346" lon="1.9014">
        <ele>-7</ele>
        <time>2019-08-11T07:37:30Z</time>
      </trkpt>
      <trkpt lat="50.42351" lon="1.90137">
        <ele>-7</ele>
        <time>2019-08-11T07:37:32Z</time>
      </trkpt>
      <trkpt lat="50.42352" lon="1.90131">
        <ele>-7</ele>
        <time>2019-08-11T07:37:35Z</time>
      </trkpt>
      <trkpt lat="50.42314" lon="1.90169">
        <ele>-7</ele>
        <time>2019-08-11T07:37:38Z</time>
      </trkpt>
      <trkpt lat="50.42323" lon="1.90162">
        <ele>-8</ele>
        <time>2019-08-11T07:37:41Z</time>
      </trkpt>
      <trkpt lat="50.42332" lon="1.90154">
        <ele>-7</ele>
        <time>2019-08-11T07:37:44Z</time>
      </trkpt>
      <trkpt lat="50.42338" lon="1.90148">
        <ele>-8</ele>
        <time>2019-08-11T07:37:46Z</time>
      </trkpt>
      <trkpt lat="50.42344" lon="1.90143">
        <ele>-7</ele>
        <time>2019-08-11T07:37:48Z</time>
      </trkpt>
      <trkpt lat="50.42351" lon="1.90137">
        <ele>-7</ele>
        <time>2019-08-11T07:37:50Z</time>
      </trkpt>
      <trkpt lat="50.42362" lon="1.90128">
        <ele>-8</ele>
        <time>2019-08-11T07:37:53Z</time>
      </trkpt>
      <trkpt lat="50.4237" lon="1.90122">
        <ele>-8</ele>
        <time>2019-08-11T07:37:56Z</time>
      </trkpt>
      <trkpt lat="50.42378" lon="1.90116">
        <ele>-8</ele>
        <time>2019-08-11T07:37:58Z</time>
      </trkpt>
      <trkpt lat="50.4239" lon="1.90106">
        <ele>-7</ele>
        <time>2019-08-11T07:38:00Z</time>
      </trkpt>
      <trkpt lat="50.42397" lon="1.90098">
        <ele>-7</ele>
        <time>2019-08-11T07:38:02Z</time>
      </trkpt>
      <trkpt lat="50.42405" lon="1.90091">
        <ele>-7</ele>
        <time>2019-08-11T07:38:04Z</time>
      </trkpt>
      <trkpt lat="50.42412" lon="1.90082">
        <ele>-7</ele>
        <time>2019-08-11T07:38:07Z</time>
      </trkpt>
      <trkpt lat="50.42419" lon="1.90074">
        <ele>-7</ele>
        <time>2019-08-11T07:38:09Z</time>
      </trkpt>
      <trkpt lat="50.4243" lon="1.90063">
        <ele>-6</ele>
        <time>2019-08-11T07:38:11Z</time>
      </trkpt>
      <trkpt lat="50.42438" lon="1.90062">
        <ele>-6</ele>
        <time>2019-08-11T07:38:13Z</time>
      </trkpt>
      <trkpt lat="50.42445" lon="1.90059">
        <ele>-6</ele>
        <time>2019-08-11T07:38:15Z</time>
      </trkpt>
      <trkpt lat="50.42451" lon="1.90051">
        <ele>-6</ele>
        <time>2019-08-11T07:38:17Z</time>
      </trkpt>
      <trkpt lat="50.42456" lon="1.90041">
        <ele>-6</ele>
        <time>2019-08-11T07:38:19Z</time>
      </trkpt>
      <trkpt lat="50.4246" lon="1.90029">
        <ele>-7</ele>
        <time>2019-08-11T07:38:22Z</time>
      </trkpt>
      <trkpt lat="50.42465" lon="1.9001">
        <ele>-7</ele>
        <time>2019-08-11T07:38:24Z</time>
      </trkpt>
      <trkpt lat="50.42468" lon="1.89997">
        <ele>-7</ele>
        <time>2019-08-11T07:38:26Z</time>
      </trkpt>
      <trkpt lat="50.42471" lon="1.89985">
        <ele>-7</ele>
        <time>2019-08-11T07:38:28Z</time>
      </trkpt>
      <trkpt lat="50.42479" lon="1.89979">
        <ele>-7</ele>
        <time>2019-08-11T07:38:31Z</time>
      </trkpt>
      <trkpt lat="50.42491" lon="1.89983">
        <ele>-7</ele>
        <time>2019-08-11T07:38:33Z</time>
      </trkpt>
      <trkpt lat="50.425" lon="1.89988">
        <ele>-7</ele>
        <time>2019-08-11T07:38:35Z</time>
      </trkpt>
      <trkpt lat="50.42509" lon="1.89991">
        <ele>-7</ele>
        <time>2019-08-11T07:38:37Z</time>
      </trkpt>
      <trkpt lat="50.42518" lon="1.89996">
        <ele>-7</ele>
        <time>2019-08-11T07:38:39Z</time>
      </trkpt>
      <trkpt lat="50.42527" lon="1.89999">
        <ele>-8</ele>
        <time>2019-08-11T07:38:42Z</time>
      </trkpt>
      <trkpt lat="50.4254" lon="1.90005">
        <ele>-8</ele>
        <time>2019-08-11T07:38:44Z</time>
      </trkpt>
      <trkpt lat="50.4255" lon="1.90009">
        <ele>-8</ele>
        <time>2019-08-11T07:38:46Z</time>
      </trkpt>
      <trkpt lat="50.42559" lon="1.90014">
        <ele>-8</ele>
        <time>2019-08-11T07:38:48Z</time>
      </trkpt>
      <trkpt lat="50.42569" lon="1.90018">
        <ele>-8</ele>
        <time>2019-08-11T07:38:50Z</time>
      </trkpt>
      <trkpt lat="50.42579" lon="1.90024">
        <ele>-7</ele>
        <time>2019-08-11T07:38:52Z</time>
      </trkpt>
      <trkpt lat="50.42588" lon="1.9003">
        <ele>-7</ele>
        <time>2019-08-11T07:38:55Z</time>
      </trkpt>
      <trkpt lat="50.42601" lon="1.90039">
        <ele>-7</ele>
        <time>2019-08-11T07:38:57Z</time>
      </trkpt>
      <trkpt lat="50.42609" lon="1.90045">
        <ele>-8</ele>
        <time>2019-08-11T07:39:00Z</time>
      </trkpt>
      <trkpt lat="50.42623" lon="1.90055">
        <ele>-8</ele>
        <time>2019-08-11T07:39:02Z</time>
      </trkpt>
      <trkpt lat="50.42631" lon="1.90061">
        <ele>-8</ele>
        <time>2019-08-11T07:39:04Z</time>
      </trkpt>
      <trkpt lat="50.4264" lon="1.90068">
        <ele>-7</ele>
        <time>2019-08-11T07:39:06Z</time>
      </trkpt>
      <trkpt lat="50.42652" lon="1.90075">
        <ele>-7</ele>
        <time>2019-08-11T07:39:09Z</time>
      </trkpt>
      <trkpt lat="50.4266" lon="1.90071">
        <ele>-7</ele>
        <time>2019-08-11T07:39:11Z</time>
      </trkpt>
      <trkpt lat="50.42667" lon="1.90066">
        <ele>-8</ele>
        <time>2019-08-11T07:39:13Z</time>
      </trkpt>
      <trkpt lat="50.42675" lon="1.9005">
        <ele>-7</ele>
        <time>2019-08-11T07:39:16Z</time>
      </trkpt>
      <trkpt lat="50.42679" lon="1.90038">
        <ele>-8</ele>
        <time>2019-08-11T07:39:19Z</time>
      </trkpt>
      <trkpt lat="50.42684" lon="1.90018">
        <ele>-8</ele>
        <time>2019-08-11T07:39:21Z</time>
      </trkpt>
      <trkpt lat="50.42688" lon="1.89998">
        <ele>-7</ele>
        <time>2019-08-11T07:39:24Z</time>
      </trkpt>
      <trkpt lat="50.42691" lon="1.89985">
        <ele>-7</ele>
        <time>2019-08-11T07:39:26Z</time>
      </trkpt>
      <trkpt lat="50.42693" lon="1.8997">
        <ele>-7</ele>
        <time>2019-08-11T07:39:28Z</time>
      </trkpt>
      <trkpt lat="50.42697" lon="1.8995">
        <ele>-7</ele>
        <time>2019-08-11T07:39:31Z</time>
      </trkpt>
      <trkpt lat="50.427" lon="1.89936">
        <ele>-6</ele>
        <time>2019-08-11T07:39:33Z</time>
      </trkpt>
      <trkpt lat="50.42702" lon="1.89923">
        <ele>-6</ele>
        <time>2019-08-11T07:39:35Z</time>
      </trkpt>
      <trkpt lat="50.42704" lon="1.89908">
        <ele>-6</ele>
        <time>2019-08-11T07:39:37Z</time>
      </trkpt>
      <trkpt lat="50.42706" lon="1.89893">
        <ele>-6</ele>
        <time>2019-08-11T07:39:39Z</time>
      </trkpt>
      <trkpt lat="50.42707" lon="1.89872">
        <ele>-7</ele>
        <time>2019-08-11T07:39:42Z</time>
      </trkpt>
      <trkpt lat="50.42707" lon="1.89857">
        <ele>-7</ele>
        <time>2019-08-11T07:39:44Z</time>
      </trkpt>
      <trkpt lat="50.42708" lon="1.89842">
        <ele>-7</ele>
        <time>2019-08-11T07:39:46Z</time>
      </trkpt>
      <trkpt lat="50.42708" lon="1.89828">
        <ele>-7</ele>
        <time>2019-08-11T07:39:48Z</time>
      </trkpt>
      <trkpt lat="50.42708" lon="1.89806">
        <ele>-6</ele>
        <time>2019-08-11T07:39:51Z</time>
      </trkpt>
      <trkpt lat="50.42706" lon="1.89792">
        <ele>-6</ele>
        <time>2019-08-11T07:39:53Z</time>
      </trkpt>
      <trkpt lat="50.42704" lon="1.89769">
        <ele>-6</ele>
        <time>2019-08-11T07:39:56Z</time>
      </trkpt>
      <trkpt lat="50.42702" lon="1.89755">
        <ele>-6</ele>
        <time>2019-08-11T07:39:58Z</time>
      </trkpt>
      <trkpt lat="50.42702" lon="1.8974">
        <ele>-6</ele>
        <time>2019-08-11T07:40:01Z</time>
      </trkpt>
      <trkpt lat="50.42709" lon="1.89721">
        <ele>-7</ele>
        <time>2019-08-11T07:40:03Z</time>
      </trkpt>
      <trkpt lat="50.42716" lon="1.89711">
        <ele>-7</ele>
        <time>2019-08-11T07:40:05Z</time>
      </trkpt>
      <trkpt lat="50.4273" lon="1.89699">
        <ele>-8</ele>
        <time>2019-08-11T07:40:08Z</time>
      </trkpt>
      <trkpt lat="50.42741" lon="1.89691">
        <ele>-8</ele>
        <time>2019-08-11T07:40:10Z</time>
      </trkpt>
      <trkpt lat="50.42753" lon="1.89683">
        <ele>-9</ele>
        <time>2019-08-11T07:40:12Z</time>
      </trkpt>
      <trkpt lat="50.42765" lon="1.89674">
        <ele>-9</ele>
        <time>2019-08-11T07:40:14Z</time>
      </trkpt>
      <trkpt lat="50.42784" lon="1.89666">
        <ele>-10</ele>
        <time>2019-08-11T07:40:17Z</time>
      </trkpt>
      <trkpt lat="50.42804" lon="1.89665">
        <ele>-10</ele>
        <time>2019-08-11T07:40:20Z</time>
      </trkpt>
      <trkpt lat="50.42817" lon="1.89666">
        <ele>-10</ele>
        <time>2019-08-11T07:40:22Z</time>
      </trkpt>
      <trkpt lat="50.42829" lon="1.89667">
        <ele>-10</ele>
        <time>2019-08-11T07:40:24Z</time>
      </trkpt>
      <trkpt lat="50.42841" lon="1.89667">
        <ele>-11</ele>
        <time>2019-08-11T07:40:26Z</time>
      </trkpt>
      <trkpt lat="50.42854" lon="1.89664">
        <ele>-11</ele>
        <time>2019-08-11T07:40:29Z</time>
      </trkpt>
      <trkpt lat="50.42872" lon="1.89658">
        <ele>-11</ele>
        <time>2019-08-11T07:40:32Z</time>
      </trkpt>
      <trkpt lat="50.42889" lon="1.89649">
        <ele>-11</ele>
        <time>2019-08-11T07:40:34Z</time>
      </trkpt>
      <trkpt lat="50.429" lon="1.89641">
        <ele>-11</ele>
        <time>2019-08-11T07:40:36Z</time>
      </trkpt>
      <trkpt lat="50.42917" lon="1.8963">
        <ele>-11</ele>
        <time>2019-08-11T07:40:39Z</time>
      </trkpt>
      <trkpt lat="50.42934" lon="1.89619">
        <ele>-12</ele>
        <time>2019-08-11T07:40:42Z</time>
      </trkpt>
      <trkpt lat="50.4295" lon="1.89605">
        <ele>-11</ele>
        <time>2019-08-11T07:40:45Z</time>
      </trkpt>
      <trkpt lat="50.42965" lon="1.8959">
        <ele>-11</ele>
        <time>2019-08-11T07:40:48Z</time>
      </trkpt>
      <trkpt lat="50.42974" lon="1.89579">
        <ele>-11</ele>
        <time>2019-08-11T07:40:50Z</time>
      </trkpt>
      <trkpt lat="50.42987" lon="1.89562">
        <ele>-11</ele>
        <time>2019-08-11T07:40:53Z</time>
      </trkpt>
      <trkpt lat="50.42996" lon="1.89551">
        <ele>-11</ele>
        <time>2019-08-11T07:40:55Z</time>
      </trkpt>
      <trkpt lat="50.43008" lon="1.89533">
        <ele>-11</ele>
        <time>2019-08-11T07:40:58Z</time>
      </trkpt>
      <trkpt lat="50.43016" lon="1.8952">
        <ele>-11</ele>
        <time>2019-08-11T07:41:01Z</time>
      </trkpt>
      <trkpt lat="50.43028" lon="1.89501">
        <ele>-11</ele>
        <time>2019-08-11T07:41:03Z</time>
      </trkpt>
      <trkpt lat="50.43041" lon="1.89483">
        <ele>-11</ele>
        <time>2019-08-11T07:41:06Z</time>
      </trkpt>
      <trkpt lat="50.4305" lon="1.89472">
        <ele>-11</ele>
        <time>2019-08-11T07:41:08Z</time>
      </trkpt>
      <trkpt lat="50.43063" lon="1.89458">
        <ele>-11</ele>
        <time>2019-08-11T07:41:11Z</time>
      </trkpt>
      <trkpt lat="50.43073" lon="1.89451">
        <ele>-11</ele>
        <time>2019-08-11T07:41:13Z</time>
      </trkpt>
      <trkpt lat="50.43083" lon="1.89446">
        <ele>-10</ele>
        <time>2019-08-11T07:41:15Z</time>
      </trkpt>
      <trkpt lat="50.43094" lon="1.89441">
        <ele>-11</ele>
        <time>2019-08-11T07:41:18Z</time>
      </trkpt>
      <trkpt lat="50.43111" lon="1.89435">
        <ele>-11</ele>
        <time>2019-08-11T07:41:20Z</time>
      </trkpt>
      <trkpt lat="50.43121" lon="1.8943">
        <ele>-11</ele>
        <time>2019-08-11T07:41:22Z</time>
      </trkpt>
      <trkpt lat="50.43137" lon="1.89423">
        <ele>-11</ele>
        <time>2019-08-11T07:41:25Z</time>
      </trkpt>
      <trkpt lat="50.43152" lon="1.89412">
        <ele>-11</ele>
        <time>2019-08-11T07:41:28Z</time>
      </trkpt>
      <trkpt lat="50.43166" lon="1.894">
        <ele>-10</ele>
        <time>2019-08-11T07:41:31Z</time>
      </trkpt>
      <trkpt lat="50.43176" lon="1.89391">
        <ele>-11</ele>
        <time>2019-08-11T07:41:34Z</time>
      </trkpt>
      <trkpt lat="50.43191" lon="1.89378">
        <ele>-11</ele>
        <time>2019-08-11T07:41:36Z</time>
      </trkpt>
      <trkpt lat="50.43201" lon="1.89371">
        <ele>-10</ele>
        <time>2019-08-11T07:41:38Z</time>
      </trkpt>
      <trkpt lat="50.43216" lon="1.8936">
        <ele>-11</ele>
        <time>2019-08-11T07:41:41Z</time>
      </trkpt>
      <trkpt lat="50.43226" lon="1.89354">
        <ele>-11</ele>
        <time>2019-08-11T07:41:43Z</time>
      </trkpt>
      <trkpt lat="50.43235" lon="1.89348">
        <ele>-11</ele>
        <time>2019-08-11T07:41:45Z</time>
      </trkpt>
      <trkpt lat="50.43249" lon="1.89342">
        <ele>-11</ele>
        <time>2019-08-11T07:41:48Z</time>
      </trkpt>
      <trkpt lat="50.43257" lon="1.89346">
        <ele>-11</ele>
        <time>2019-08-11T07:41:51Z</time>
      </trkpt>
      <trkpt lat="50.43265" lon="1.89358">
        <ele>-11</ele>
        <time>2019-08-11T07:41:53Z</time>
      </trkpt>
      <trkpt lat="50.43272" lon="1.89372">
        <ele>-10</ele>
        <time>2019-08-11T07:41:56Z</time>
      </trkpt>
      <trkpt lat="50.43277" lon="1.89383">
        <ele>-10</ele>
        <time>2019-08-11T07:41:58Z</time>
      </trkpt>
      <trkpt lat="50.43286" lon="1.89401">
        <ele>-10</ele>
        <time>2019-08-11T07:42:01Z</time>
      </trkpt>
      <trkpt lat="50.43291" lon="1.89412">
        <ele>-10</ele>
        <time>2019-08-11T07:42:03Z</time>
      </trkpt>
      <trkpt lat="50.43299" lon="1.89429">
        <ele>-9</ele>
        <time>2019-08-11T07:42:06Z</time>
      </trkpt>
      <trkpt lat="50.43304" lon="1.8944">
        <ele>-10</ele>
        <time>2019-08-11T07:42:08Z</time>
      </trkpt>
      <trkpt lat="50.43309" lon="1.89451">
        <ele>-10</ele>
        <time>2019-08-11T07:42:10Z</time>
      </trkpt>
      <trkpt lat="50.43316" lon="1.89466">
        <ele>-9</ele>
        <time>2019-08-11T07:42:13Z</time>
      </trkpt>
      <trkpt lat="50.4332" lon="1.89476">
        <ele>-9</ele>
        <time>2019-08-11T07:42:15Z</time>
      </trkpt>
      <trkpt lat="50.43325" lon="1.89485">
        <ele>-9</ele>
        <time>2019-08-11T07:42:17Z</time>
      </trkpt>
      <trkpt lat="50.4333" lon="1.89497">
        <ele>-9</ele>
        <time>2019-08-11T07:42:20Z</time>
      </trkpt>
      <trkpt lat="50.43334" lon="1.89505">
        <ele>-8</ele>
        <time>2019-08-11T07:42:22Z</time>
      </trkpt>
      <trkpt lat="50.43339" lon="1.89516">
        <ele>-8</ele>
        <time>2019-08-11T07:42:25Z</time>
      </trkpt>
      <trkpt lat="50.43343" lon="1.89523">
        <ele>-7</ele>
        <time>2019-08-11T07:42:27Z</time>
      </trkpt>
      <trkpt lat="50.43347" lon="1.89535">
        <ele>-7</ele>
        <time>2019-08-11T07:42:30Z</time>
      </trkpt>
      <trkpt lat="50.43351" lon="1.89542">
        <ele>-6</ele>
        <time>2019-08-11T07:42:32Z</time>
      </trkpt>
      <trkpt lat="50.43358" lon="1.8955">
        <ele>-6</ele>
        <time>2019-08-11T07:42:35Z</time>
      </trkpt>
      <trkpt lat="50.43363" lon="1.89552">
        <ele>-6</ele>
        <time>2019-08-11T07:42:37Z</time>
      </trkpt>
      <trkpt lat="50.4337" lon="1.8955">
        <ele>-5</ele>
        <time>2019-08-11T07:42:40Z</time>
      </trkpt>
      <trkpt lat="50.43378" lon="1.89544">
        <ele>-4</ele>
        <time>2019-08-11T07:42:43Z</time>
      </trkpt>
      <trkpt lat="50.43384" lon="1.89541">
        <ele>-4</ele>
        <time>2019-08-11T07:42:45Z</time>
      </trkpt>
      <trkpt lat="50.4339" lon="1.89536">
        <ele>-3</ele>
        <time>2019-08-11T07:42:47Z</time>
      </trkpt>
      <trkpt lat="50.43398" lon="1.8953">
        <ele>-3</ele>
        <time>2019-08-11T07:42:50Z</time>
      </trkpt>
      <trkpt lat="50.43403" lon="1.89526">
        <ele>-3</ele>
        <time>2019-08-11T07:42:52Z</time>
      </trkpt>
      <trkpt lat="50.4341" lon="1.89519">
        <ele>-2</ele>
        <time>2019-08-11T07:42:55Z</time>
      </trkpt>
      <trkpt lat="50.43417" lon="1.89512">
        <ele>-1</ele>
        <time>2019-08-11T07:42:58Z</time>
      </trkpt>
      <trkpt lat="50.43422" lon="1.89507">
        <ele>-1</ele>
        <time>2019-08-11T07:43:00Z</time>
      </trkpt>
      <trkpt lat="50.43427" lon="1.89503">
        <ele>21.5</ele>
        <time>2019-08-11T07:43:03Z</time>
      </trkpt>
      <trkpt lat="50.43435" lon="1.89496">
        <ele>22.3</ele>
        <time>2019-08-11T07:43:05Z</time>
      </trkpt>
      <trkpt lat="50.43443" lon="1.89489">
        <ele>22.9</ele>
        <time>2019-08-11T07:43:08Z</time>
      </trkpt>
      <trkpt lat="50.43447" lon="1.89484">
        <ele>23.3</ele>
        <time>2019-08-11T07:43:10Z</time>
      </trkpt>
      <trkpt lat="50.43454" lon="1.89476">
        <ele>1</ele>
        <time>2019-08-11T07:43:13Z</time>
      </trkpt>
      <trkpt lat="50.43459" lon="1.8947">
        <ele>2</ele>
        <time>2019-08-11T07:43:15Z</time>
      </trkpt>
      <trkpt lat="50.43466" lon="1.89462">
        <ele>2</ele>
        <time>2019-08-11T07:43:18Z</time>
      </trkpt>
      <trkpt lat="50.43473" lon="1.89454">
        <ele>2</ele>
        <time>2019-08-11T07:43:21Z</time>
      </trkpt>
      <trkpt lat="50.43477" lon="1.89448">
        <ele>3</ele>
        <time>2019-08-11T07:43:23Z</time>
      </trkpt>
      <trkpt lat="50.43484" lon="1.89438">
        <ele>3</ele>
        <time>2019-08-11T07:43:26Z</time>
      </trkpt>
      <trkpt lat="50.4349" lon="1.89429">
        <ele>4</ele>
        <time>2019-08-11T07:43:30Z</time>
      </trkpt>
      <trkpt lat="50.43496" lon="1.89419">
        <ele>5</ele>
        <time>2019-08-11T07:43:32Z</time>
      </trkpt>
      <trkpt lat="50.43499" lon="1.89412">
        <ele>5</ele>
        <time>2019-08-11T07:43:34Z</time>
      </trkpt>
      <trkpt lat="50.43504" lon="1.894">
        <ele>5</ele>
        <time>2019-08-11T07:43:37Z</time>
      </trkpt>
      <trkpt lat="50.4351" lon="1.89388">
        <ele>6</ele>
        <time>2019-08-11T07:43:40Z</time>
      </trkpt>
      <trkpt lat="50.43513" lon="1.89379">
        <ele>6</ele>
        <time>2019-08-11T07:43:42Z</time>
      </trkpt>
      <trkpt lat="50.43517" lon="1.8937">
        <ele>7</ele>
        <time>2019-08-11T07:43:45Z</time>
      </trkpt>
      <trkpt lat="50.43523" lon="1.89355">
        <ele>7</ele>
        <time>2019-08-11T07:43:47Z</time>
      </trkpt>
      <trkpt lat="50.43528" lon="1.89339">
        <ele>7</ele>
        <time>2019-08-11T07:43:50Z</time>
      </trkpt>
      <trkpt lat="50.43533" lon="1.89327">
        <ele>7</ele>
        <time>2019-08-11T07:43:52Z</time>
      </trkpt>
      <trkpt lat="50.4354" lon="1.89307">
        <ele>7</ele>
        <time>2019-08-11T07:43:55Z</time>
      </trkpt>
      <trkpt lat="50.43545" lon="1.89293">
        <ele>7</ele>
        <time>2019-08-11T07:43:57Z</time>
      </trkpt>
      <trkpt lat="50.43553" lon="1.89269">
        <ele>7</ele>
        <time>2019-08-11T07:44:01Z</time>
      </trkpt>
      <trkpt lat="50.43562" lon="1.89243">
        <ele>6</ele>
        <time>2019-08-11T07:44:03Z</time>
      </trkpt>
      <trkpt lat="50.43569" lon="1.89224">
        <ele>5</ele>
        <time>2019-08-11T07:44:05Z</time>
      </trkpt>
      <trkpt lat="50.43575" lon="1.89205">
        <ele>5</ele>
        <time>2019-08-11T07:44:07Z</time>
      </trkpt>
      <trkpt lat="50.43585" lon="1.89174">
        <ele>4</ele>
        <time>2019-08-11T07:44:10Z</time>
      </trkpt>
      <trkpt lat="50.43592" lon="1.89153">
        <ele>3</ele>
        <time>2019-08-11T07:44:12Z</time>
      </trkpt>
      <trkpt lat="50.43604" lon="1.8912">
        <ele>3</ele>
        <time>2019-08-11T07:44:15Z</time>
      </trkpt>
      <trkpt lat="50.43615" lon="1.89086">
        <ele>2</ele>
        <time>2019-08-11T07:44:18Z</time>
      </trkpt>
      <trkpt lat="50.43623" lon="1.89063">
        <ele>1</ele>
        <time>2019-08-11T07:44:20Z</time>
      </trkpt>
      <trkpt lat="50.43635" lon="1.89028">
        <ele>22.3</ele>
        <time>2019-08-11T07:44:23Z</time>
      </trkpt>
      <trkpt lat="50.43647" lon="1.88994">
        <ele>21.7</ele>
        <time>2019-08-11T07:44:26Z</time>
      </trkpt>
      <trkpt lat="50.43655" lon="1.88971">
        <ele>22</ele>
        <time>2019-08-11T07:44:29Z</time>
      </trkpt>
      <trkpt lat="50.43669" lon="1.88937">
        <ele>21.3</ele>
        <time>2019-08-11T07:44:31Z</time>
      </trkpt>
      <trkpt lat="50.43683" lon="1.88903">
        <ele>-1</ele>
        <time>2019-08-11T07:44:34Z</time>
      </trkpt>
      <trkpt lat="50.43693" lon="1.88882">
        <ele>-2</ele>
        <time>2019-08-11T07:44:36Z</time>
      </trkpt>
      <trkpt lat="50.43707" lon="1.88849">
        <ele>-3</ele>
        <time>2019-08-11T07:44:39Z</time>
      </trkpt>
      <trkpt lat="50.43716" lon="1.88829">
        <ele>-3</ele>
        <time>2019-08-11T07:44:42Z</time>
      </trkpt>
      <trkpt lat="50.4373" lon="1.88799">
        <ele>-3</ele>
        <time>2019-08-11T07:44:44Z</time>
      </trkpt>
      <trkpt lat="50.43744" lon="1.88768">
        <ele>-4</ele>
        <time>2019-08-11T07:44:47Z</time>
      </trkpt>
      <trkpt lat="50.43757" lon="1.88739">
        <ele>-5</ele>
        <time>2019-08-11T07:44:50Z</time>
      </trkpt>
      <trkpt lat="50.43766" lon="1.88719">
        <ele>-4</ele>
        <time>2019-08-11T07:44:52Z</time>
      </trkpt>
      <trkpt lat="50.43774" lon="1.887">
        <ele>-5</ele>
        <time>2019-08-11T07:44:55Z</time>
      </trkpt>
      <trkpt lat="50.43786" lon="1.88671">
        <ele>-5</ele>
        <time>2019-08-11T07:44:57Z</time>
      </trkpt>
      <trkpt lat="50.43798" lon="1.88643">
        <ele>-5</ele>
        <time>2019-08-11T07:45:00Z</time>
      </trkpt>
      <trkpt lat="50.43806" lon="1.88625">
        <ele>-5</ele>
        <time>2019-08-11T07:45:02Z</time>
      </trkpt>
      <trkpt lat="50.43818" lon="1.88598">
        <ele>-4</ele>
        <time>2019-08-11T07:45:05Z</time>
      </trkpt>
      <trkpt lat="50.43826" lon="1.88579">
        <ele>-4</ele>
        <time>2019-08-11T07:45:07Z</time>
      </trkpt>
      <trkpt lat="50.43838" lon="1.88549">
        <ele>-5</ele>
        <time>2019-08-11T07:45:10Z</time>
      </trkpt>
      <trkpt lat="50.43846" lon="1.88527">
        <ele>-5</ele>
        <time>2019-08-11T07:45:12Z</time>
      </trkpt>
      <trkpt lat="50.43858" lon="1.88491">
        <ele>-6</ele>
        <time>2019-08-11T07:45:15Z</time>
      </trkpt>
      <trkpt lat="50.43864" lon="1.88466">
        <ele>-6</ele>
        <time>2019-08-11T07:45:17Z</time>
      </trkpt>
      <trkpt lat="50.43873" lon="1.88429">
        <ele>-7</ele>
        <time>2019-08-11T07:45:20Z</time>
      </trkpt>
      <trkpt lat="50.43879" lon="1.88406">
        <ele>-7</ele>
        <time>2019-08-11T07:45:23Z</time>
      </trkpt>
      <trkpt lat="50.43886" lon="1.88373">
        <ele>-8</ele>
        <time>2019-08-11T07:45:25Z</time>
      </trkpt>
      <trkpt lat="50.43891" lon="1.88353">
        <ele>-8</ele>
        <time>2019-08-11T07:45:27Z</time>
      </trkpt>
      <trkpt lat="50.43897" lon="1.88324">
        <ele>-9</ele>
        <time>2019-08-11T07:45:30Z</time>
      </trkpt>
      <trkpt lat="50.43901" lon="1.88307">
        <ele>-8</ele>
        <time>2019-08-11T07:45:32Z</time>
      </trkpt>
      <trkpt lat="50.43907" lon="1.88282">
        <ele>-8</ele>
        <time>2019-08-11T07:45:35Z</time>
      </trkpt>
      <trkpt lat="50.43912" lon="1.88258">
        <ele>-8</ele>
        <time>2019-08-11T07:45:38Z</time>
      </trkpt>
      <trkpt lat="50.43917" lon="1.88234">
        <ele>-8</ele>
        <time>2019-08-11T07:45:41Z</time>
      </trkpt>
      <trkpt lat="50.43922" lon="1.8821">
        <ele>-7</ele>
        <time>2019-08-11T07:45:44Z</time>
      </trkpt>
      <trkpt lat="50.43927" lon="1.88186">
        <ele>-7</ele>
        <time>2019-08-11T07:45:47Z</time>
      </trkpt>
      <trkpt lat="50.43932" lon="1.8817">
        <ele>-7</ele>
        <time>2019-08-11T07:45:50Z</time>
      </trkpt>
      <trkpt lat="50.4394" lon="1.88148">
        <ele>-6</ele>
        <time>2019-08-11T07:45:52Z</time>
      </trkpt>
      <trkpt lat="50.43947" lon="1.88127">
        <ele>-6</ele>
        <time>2019-08-11T07:45:55Z</time>
      </trkpt>
      <trkpt lat="50.43953" lon="1.88114">
        <ele>-6</ele>
        <time>2019-08-11T07:45:57Z</time>
      </trkpt>
      <trkpt lat="50.43964" lon="1.88095">
        <ele>-5</ele>
        <time>2019-08-11T07:46:00Z</time>
      </trkpt>
      <trkpt lat="50.43974" lon="1.88074">
        <ele>-6</ele>
        <time>2019-08-11T07:46:03Z</time>
      </trkpt>
      <trkpt lat="50.43985" lon="1.88053">
        <ele>-6</ele>
        <time>2019-08-11T07:46:07Z</time>
      </trkpt>
      <trkpt lat="50.43995" lon="1.88031">
        <ele>-5</ele>
        <time>2019-08-11T07:46:09Z</time>
      </trkpt>
      <trkpt lat="50.44001" lon="1.88017">
        <ele>-5</ele>
        <time>2019-08-11T07:46:11Z</time>
      </trkpt>
      <trkpt lat="50.44007" lon="1.88002">
        <ele>-5</ele>
        <time>2019-08-11T07:46:13Z</time>
      </trkpt>
      <trkpt lat="50.44016" lon="1.87978">
        <ele>-5</ele>
        <time>2019-08-11T07:46:16Z</time>
      </trkpt>
      <trkpt lat="50.44021" lon="1.87962">
        <ele>-5</ele>
        <time>2019-08-11T07:46:18Z</time>
      </trkpt>
      <trkpt lat="50.44029" lon="1.87937">
        <ele>-5</ele>
        <time>2019-08-11T07:46:21Z</time>
      </trkpt>
      <trkpt lat="50.44033" lon="1.8792">
        <ele>-5</ele>
        <time>2019-08-11T07:46:23Z</time>
      </trkpt>
      <trkpt lat="50.4404" lon="1.87897">
        <ele>-5</ele>
        <time>2019-08-11T07:46:26Z</time>
      </trkpt>
      <trkpt lat="50.44044" lon="1.87881">
        <ele>-5</ele>
        <time>2019-08-11T07:46:28Z</time>
      </trkpt>
      <trkpt lat="50.44051" lon="1.87859">
        <ele>-4</ele>
        <time>2019-08-11T07:46:31Z</time>
      </trkpt>
      <trkpt lat="50.44054" lon="1.87845">
        <ele>-4</ele>
        <time>2019-08-11T07:46:34Z</time>
      </trkpt>
      <trkpt lat="50.4406" lon="1.87825">
        <ele>-3</ele>
        <time>2019-08-11T07:46:36Z</time>
      </trkpt>
      <trkpt lat="50.44064" lon="1.87812">
        <ele>-3</ele>
        <time>2019-08-11T07:46:38Z</time>
      </trkpt>
      <trkpt lat="50.44072" lon="1.87792">
        <ele>-3</ele>
        <time>2019-08-11T07:46:41Z</time>
      </trkpt>
      <trkpt lat="50.4408" lon="1.87771">
        <ele>-3</ele>
        <time>2019-08-11T07:46:44Z</time>
      </trkpt>
      <trkpt lat="50.44086" lon="1.87758">
        <ele>-3</ele>
        <time>2019-08-11T07:46:46Z</time>
      </trkpt>
      <trkpt lat="50.44097" lon="1.87735">
        <ele>-3</ele>
        <time>2019-08-11T07:46:49Z</time>
      </trkpt>
      <trkpt lat="50.44109" lon="1.87714">
        <ele>-4</ele>
        <time>2019-08-11T07:46:52Z</time>
      </trkpt>
      <trkpt lat="50.44117" lon="1.87698">
        <ele>-4</ele>
        <time>2019-08-11T07:46:54Z</time>
      </trkpt>
      <trkpt lat="50.4413" lon="1.87673">
        <ele>-4</ele>
        <time>2019-08-11T07:46:57Z</time>
      </trkpt>
      <trkpt lat="50.44139" lon="1.87656">
        <ele>-5</ele>
        <time>2019-08-11T07:46:59Z</time>
      </trkpt>
      <trkpt lat="50.44153" lon="1.87631">
        <ele>-5</ele>
        <time>2019-08-11T07:47:02Z</time>
      </trkpt>
      <trkpt lat="50.44164" lon="1.87616">
        <ele>-6</ele>
        <time>2019-08-11T07:47:04Z</time>
      </trkpt>
      <trkpt lat="50.44179" lon="1.87593">
        <ele>-6</ele>
        <time>2019-08-11T07:47:07Z</time>
      </trkpt>
      <trkpt lat="50.44189" lon="1.87578">
        <ele>-6</ele>
        <time>2019-08-11T07:47:09Z</time>
      </trkpt>
      <trkpt lat="50.44204" lon="1.87555">
        <ele>-6</ele>
        <time>2019-08-11T07:47:12Z</time>
      </trkpt>
      <trkpt lat="50.44214" lon="1.8754">
        <ele>-6</ele>
        <time>2019-08-11T07:47:14Z</time>
      </trkpt>
      <trkpt lat="50.4423" lon="1.87518">
        <ele>-6</ele>
        <time>2019-08-11T07:47:17Z</time>
      </trkpt>
      <trkpt lat="50.4424" lon="1.87503">
        <ele>-6</ele>
        <time>2019-08-11T07:47:19Z</time>
      </trkpt>
      <trkpt lat="50.44255" lon="1.87481">
        <ele>-7</ele>
        <time>2019-08-11T07:47:22Z</time>
      </trkpt>
      <trkpt lat="50.44265" lon="1.87466">
        <ele>-7</ele>
        <time>2019-08-11T07:47:24Z</time>
      </trkpt>
      <trkpt lat="50.44279" lon="1.87445">
        <ele>-8</ele>
        <time>2019-08-11T07:47:27Z</time>
      </trkpt>
      <trkpt lat="50.44295" lon="1.87424">
        <ele>-8</ele>
        <time>2019-08-11T07:47:30Z</time>
      </trkpt>
      <trkpt lat="50.44312" lon="1.87406">
        <ele>-8</ele>
        <time>2019-08-11T07:47:33Z</time>
      </trkpt>
      <trkpt lat="50.44324" lon="1.87396">
        <ele>-8</ele>
        <time>2019-08-11T07:47:35Z</time>
      </trkpt>
      <trkpt lat="50.44343" lon="1.87386">
        <ele>-8</ele>
        <time>2019-08-11T07:47:38Z</time>
      </trkpt>
      <trkpt lat="50.44355" lon="1.87382">
        <ele>-8</ele>
        <time>2019-08-11T07:47:40Z</time>
      </trkpt>
      <trkpt lat="50.44373" lon="1.87379">
        <ele>-7</ele>
        <time>2019-08-11T07:47:43Z</time>
      </trkpt>
      <trkpt lat="50.44389" lon="1.87377">
        <ele>-7</ele>
        <time>2019-08-11T07:47:46Z</time>
      </trkpt>
      <trkpt lat="50.444" lon="1.87375">
        <ele>-7</ele>
        <time>2019-08-11T07:47:48Z</time>
      </trkpt>
      <trkpt lat="50.44418" lon="1.87374">
        <ele>-6</ele>
        <time>2019-08-11T07:47:51Z</time>
      </trkpt>
      <trkpt lat="50.44434" lon="1.87376">
        <ele>-6</ele>
        <time>2019-08-11T07:47:54Z</time>
      </trkpt>
      <trkpt lat="50.44445" lon="1.87379">
        <ele>-6</ele>
        <time>2019-08-11T07:47:56Z</time>
      </trkpt>
      <trkpt lat="50.44462" lon="1.87385">
        <ele>-6</ele>
        <time>2019-08-11T07:47:59Z</time>
      </trkpt>
      <trkpt lat="50.44474" lon="1.87391">
        <ele>-6</ele>
        <time>2019-08-11T07:48:01Z</time>
      </trkpt>
      <trkpt lat="50.44485" lon="1.87396">
        <ele>-7</ele>
        <time>2019-08-11T07:48:03Z</time>
      </trkpt>
      <trkpt lat="50.44503" lon="1.87405">
        <ele>-7</ele>
        <time>2019-08-11T07:48:06Z</time>
      </trkpt>
      <trkpt lat="50.44516" lon="1.87409">
        <ele>-6</ele>
        <time>2019-08-11T07:48:08Z</time>
      </trkpt>
      <trkpt lat="50.44529" lon="1.87413">
        <ele>-6</ele>
        <time>2019-08-11T07:48:10Z</time>
      </trkpt>
      <trkpt lat="50.44547" lon="1.87416">
        <ele>-6</ele>
        <time>2019-08-11T07:48:13Z</time>
      </trkpt>
      <trkpt lat="50.44566" lon="1.87412">
        <ele>-6</ele>
        <time>2019-08-11T07:48:16Z</time>
      </trkpt>
      <trkpt lat="50.44576" lon="1.874">
        <ele>-6</ele>
        <time>2019-08-11T07:48:18Z</time>
      </trkpt>
      <trkpt lat="50.44584" lon="1.87386">
        <ele>-6</ele>
        <time>2019-08-11T07:48:20Z</time>
      </trkpt>
      <trkpt lat="50.4459" lon="1.8737">
        <ele>-6</ele>
        <time>2019-08-11T07:48:22Z</time>
      </trkpt>
      <trkpt lat="50.44593" lon="1.87352">
        <ele>-6</ele>
        <time>2019-08-11T07:48:24Z</time>
      </trkpt>
      <trkpt lat="50.44595" lon="1.87334">
        <ele>-6</ele>
        <time>2019-08-11T07:48:26Z</time>
      </trkpt>
      <trkpt lat="50.44596" lon="1.87317">
        <ele>-6</ele>
        <time>2019-08-11T07:48:28Z</time>
      </trkpt>
      <trkpt lat="50.44598" lon="1.87291">
        <ele>-6</ele>
        <time>2019-08-11T07:48:31Z</time>
      </trkpt>
      <trkpt lat="50.44599" lon="1.87274">
        <ele>-6</ele>
        <time>2019-08-11T07:48:34Z</time>
      </trkpt>
      <trkpt lat="50.44601" lon="1.87249">
        <ele>-6</ele>
        <time>2019-08-11T07:48:36Z</time>
      </trkpt>
      <trkpt lat="50.44602" lon="1.87224">
        <ele>-6</ele>
        <time>2019-08-11T07:48:39Z</time>
      </trkpt>
      <trkpt lat="50.44603" lon="1.87207">
        <ele>-6</ele>
        <time>2019-08-11T07:48:41Z</time>
      </trkpt>
      <trkpt lat="50.44604" lon="1.8719">
        <ele>-6</ele>
        <time>2019-08-11T07:48:43Z</time>
      </trkpt>
      <trkpt lat="50.44604" lon="1.87166">
        <ele>-6</ele>
        <time>2019-08-11T07:48:46Z</time>
      </trkpt>
      <trkpt lat="50.44606" lon="1.87151">
        <ele>-6</ele>
        <time>2019-08-11T07:48:48Z</time>
      </trkpt>
      <trkpt lat="50.44607" lon="1.87135">
        <ele>-5</ele>
        <time>2019-08-11T07:48:50Z</time>
      </trkpt>
      <trkpt lat="50.44608" lon="1.87111">
        <ele>-5</ele>
        <time>2019-08-11T07:48:53Z</time>
      </trkpt>
      <trkpt lat="50.44608" lon="1.87096">
        <ele>-5</ele>
        <time>2019-08-11T07:48:55Z</time>
      </trkpt>
      <trkpt lat="50.44609" lon="1.87073">
        <ele>-5</ele>
        <time>2019-08-11T07:48:58Z</time>
      </trkpt>
      <trkpt lat="50.4461" lon="1.8705">
        <ele>-5</ele>
        <time>2019-08-11T07:49:01Z</time>
      </trkpt>
      <trkpt lat="50.44611" lon="1.87035">
        <ele>-4</ele>
        <time>2019-08-11T07:49:03Z</time>
      </trkpt>
      <trkpt lat="50.44611" lon="1.87012">
        <ele>-4</ele>
        <time>2019-08-11T07:49:06Z</time>
      </trkpt>
      <trkpt lat="50.44611" lon="1.86996">
        <ele>-4</ele>
        <time>2019-08-11T07:49:08Z</time>
      </trkpt>
      <trkpt lat="50.44611" lon="1.86982">
        <ele>-3</ele>
        <time>2019-08-11T07:49:10Z</time>
      </trkpt>
      <trkpt lat="50.4461" lon="1.86968">
        <ele>-3</ele>
        <time>2019-08-11T07:49:12Z</time>
      </trkpt>
      <trkpt lat="50.44608" lon="1.86945">
        <ele>-3</ele>
        <time>2019-08-11T07:49:15Z</time>
      </trkpt>
      <trkpt lat="50.44607" lon="1.86929">
        <ele>-3</ele>
        <time>2019-08-11T07:49:17Z</time>
      </trkpt>
      <trkpt lat="50.44606" lon="1.86913">
        <ele>-3</ele>
        <time>2019-08-11T07:49:19Z</time>
      </trkpt>
      <trkpt lat="50.44604" lon="1.86889">
        <ele>-3</ele>
        <time>2019-08-11T07:49:22Z</time>
      </trkpt>
      <trkpt lat="50.44603" lon="1.86873">
        <ele>-4</ele>
        <time>2019-08-11T07:49:24Z</time>
      </trkpt>
      <trkpt lat="50.44602" lon="1.8685">
        <ele>-4</ele>
        <time>2019-08-11T07:49:27Z</time>
      </trkpt>
      <trkpt lat="50.44601" lon="1.86836">
        <ele>-3</ele>
        <time>2019-08-11T07:49:29Z</time>
      </trkpt>
      <trkpt lat="50.446" lon="1.86822">
        <ele>-3</ele>
        <time>2019-08-11T07:49:31Z</time>
      </trkpt>
      <trkpt lat="50.446" lon="1.86811">
        <ele>-2</ele>
        <time>2019-08-11T07:49:33Z</time>
      </trkpt>
      <trkpt lat="50.446" lon="1.86793">
        <ele>-2</ele>
        <time>2019-08-11T07:49:36Z</time>
      </trkpt>
      <trkpt lat="50.446" lon="1.86775">
        <ele>21.9</ele>
        <time>2019-08-11T07:49:39Z</time>
      </trkpt>
      <trkpt lat="50.44601" lon="1.86758">
        <ele>22.6</ele>
        <time>2019-08-11T07:49:42Z</time>
      </trkpt>
      <trkpt lat="50.44602" lon="1.86741">
        <ele>23.1</ele>
        <time>2019-08-11T07:49:45Z</time>
      </trkpt>
      <trkpt lat="50.44602" lon="1.86724">
        <ele>23.3</ele>
        <time>2019-08-11T07:49:48Z</time>
      </trkpt>
      <trkpt lat="50.44603" lon="1.86712">
        <ele>1</ele>
        <time>2019-08-11T07:49:50Z</time>
      </trkpt>
      <trkpt lat="50.44603" lon="1.86694">
        <ele>1</ele>
        <time>2019-08-11T07:49:53Z</time>
      </trkpt>
      <trkpt lat="50.44604" lon="1.86682">
        <ele>2</ele>
        <time>2019-08-11T07:49:55Z</time>
      </trkpt>
      <trkpt lat="50.44605" lon="1.8667">
        <ele>2</ele>
        <time>2019-08-11T07:49:57Z</time>
      </trkpt>
      <trkpt lat="50.44607" lon="1.86651">
        <ele>2</ele>
        <time>2019-08-11T07:50:00Z</time>
      </trkpt>
      <trkpt lat="50.44609" lon="1.86637">
        <ele>3</ele>
        <time>2019-08-11T07:50:02Z</time>
      </trkpt>
      <trkpt lat="50.44612" lon="1.86616">
        <ele>3</ele>
        <time>2019-08-11T07:50:05Z</time>
      </trkpt>
      <trkpt lat="50.44614" lon="1.86593">
        <ele>3</ele>
        <time>2019-08-11T07:50:08Z</time>
      </trkpt>
      <trkpt lat="50.44616" lon="1.86577">
        <ele>2</ele>
        <time>2019-08-11T07:50:10Z</time>
      </trkpt>
      <trkpt lat="50.44618" lon="1.86553">
        <ele>2</ele>
        <time>2019-08-11T07:50:13Z</time>
      </trkpt>
      <trkpt lat="50.4462" lon="1.8653">
        <ele>2</ele>
        <time>2019-08-11T07:50:16Z</time>
      </trkpt>
      <trkpt lat="50.44622" lon="1.86515">
        <ele>3</ele>
        <time>2019-08-11T07:50:18Z</time>
      </trkpt>
      <trkpt lat="50.44624" lon="1.86492">
        <ele>4</ele>
        <time>2019-08-11T07:50:21Z</time>
      </trkpt>
      <trkpt lat="50.44629" lon="1.86468">
        <ele>4</ele>
        <time>2019-08-11T07:50:24Z</time>
      </trkpt>
      <trkpt lat="50.44632" lon="1.86452">
        <ele>4</ele>
        <time>2019-08-11T07:50:26Z</time>
      </trkpt>
      <trkpt lat="50.44636" lon="1.86436">
        <ele>4</ele>
        <time>2019-08-11T07:50:28Z</time>
      </trkpt>
      <trkpt lat="50.4464" lon="1.86421">
        <ele>3</ele>
        <time>2019-08-11T07:50:30Z</time>
      </trkpt>
      <trkpt lat="50.44648" lon="1.86401">
        <ele>3</ele>
        <time>2019-08-11T07:50:33Z</time>
      </trkpt>
      <trkpt lat="50.44652" lon="1.86388">
        <ele>3</ele>
        <time>2019-08-11T07:50:35Z</time>
      </trkpt>
      <trkpt lat="50.44659" lon="1.86368">
        <ele>3</ele>
        <time>2019-08-11T07:50:38Z</time>
      </trkpt>
      <trkpt lat="50.44665" lon="1.86349">
        <ele>4</ele>
        <time>2019-08-11T07:50:41Z</time>
      </trkpt>
      <trkpt lat="50.44669" lon="1.86336">
        <ele>4</ele>
        <time>2019-08-11T07:50:43Z</time>
      </trkpt>
      <trkpt lat="50.44671" lon="1.86323">
        <ele>5</ele>
        <time>2019-08-11T07:50:45Z</time>
      </trkpt>
      <trkpt lat="50.44676" lon="1.86302">
        <ele>5</ele>
        <time>2019-08-11T07:50:48Z</time>
      </trkpt>
      <trkpt lat="50.4468" lon="1.86278">
        <ele>5</ele>
        <time>2019-08-11T07:50:51Z</time>
      </trkpt>
      <trkpt lat="50.44685" lon="1.86254">
        <ele>5</ele>
        <time>2019-08-11T07:50:54Z</time>
      </trkpt>
      <trkpt lat="50.44687" lon="1.86238">
        <ele>5</ele>
        <time>2019-08-11T07:50:56Z</time>
      </trkpt>
      <trkpt lat="50.4469" lon="1.86221">
        <ele>5</ele>
        <time>2019-08-11T07:50:58Z</time>
      </trkpt>
      <trkpt lat="50.44694" lon="1.86196">
        <ele>5</ele>
        <time>2019-08-11T07:51:01Z</time>
      </trkpt>
      <trkpt lat="50.44697" lon="1.8618">
        <ele>5</ele>
        <time>2019-08-11T07:51:03Z</time>
      </trkpt>
      <trkpt lat="50.44699" lon="1.86164">
        <ele>5</ele>
        <time>2019-08-11T07:51:05Z</time>
      </trkpt>
      <trkpt lat="50.44704" lon="1.8614">
        <ele>5</ele>
        <time>2019-08-11T07:51:08Z</time>
      </trkpt>
      <trkpt lat="50.44707" lon="1.86125">
        <ele>5</ele>
        <time>2019-08-11T07:51:10Z</time>
      </trkpt>
      <trkpt lat="50.44711" lon="1.86109">
        <ele>5</ele>
        <time>2019-08-11T07:51:12Z</time>
      </trkpt>
      <trkpt lat="50.44715" lon="1.86093">
        <ele>5</ele>
        <time>2019-08-11T07:51:14Z</time>
      </trkpt>
      <trkpt lat="50.4472" lon="1.86077">
        <ele>5</ele>
        <time>2019-08-11T07:51:16Z</time>
      </trkpt>
      <trkpt lat="50.44728" lon="1.86054">
        <ele>4</ele>
        <time>2019-08-11T07:51:19Z</time>
      </trkpt>
      <trkpt lat="50.44733" lon="1.86038">
        <ele>4</ele>
        <time>2019-08-11T07:51:21Z</time>
      </trkpt>
      <trkpt lat="50.44738" lon="1.86022">
        <ele>3</ele>
        <time>2019-08-11T07:51:23Z</time>
      </trkpt>
      <trkpt lat="50.44743" lon="1.86006">
        <ele>4</ele>
        <time>2019-08-11T07:51:25Z</time>
      </trkpt>
      <trkpt lat="50.44747" lon="1.85982">
        <ele>4</ele>
        <time>2019-08-11T07:51:28Z</time>
      </trkpt>
      <trkpt lat="50.44749" lon="1.85965">
        <ele>4</ele>
        <time>2019-08-11T07:51:30Z</time>
      </trkpt>
      <trkpt lat="50.44751" lon="1.85939">
        <ele>5</ele>
        <time>2019-08-11T07:51:33Z</time>
      </trkpt>
      <trkpt lat="50.44753" lon="1.85914">
        <ele>4</ele>
        <time>2019-08-11T07:51:37Z</time>
      </trkpt>
      <trkpt lat="50.44755" lon="1.85891">
        <ele>4</ele>
        <time>2019-08-11T07:51:39Z</time>
      </trkpt>
      <trkpt lat="50.44756" lon="1.85868">
        <ele>3</ele>
        <time>2019-08-11T07:51:42Z</time>
      </trkpt>
      <trkpt lat="50.44757" lon="1.85845">
        <ele>4</ele>
        <time>2019-08-11T07:51:45Z</time>
      </trkpt>
      <trkpt lat="50.44759" lon="1.85829">
        <ele>4</ele>
        <time>2019-08-11T07:51:47Z</time>
      </trkpt>
      <trkpt lat="50.4476" lon="1.85814">
        <ele>4</ele>
        <time>2019-08-11T07:51:49Z</time>
      </trkpt>
      <trkpt lat="50.44762" lon="1.8579">
        <ele>4</ele>
        <time>2019-08-11T07:51:52Z</time>
      </trkpt>
      <trkpt lat="50.44765" lon="1.85767">
        <ele>3</ele>
        <time>2019-08-11T07:51:55Z</time>
      </trkpt>
      <trkpt lat="50.44767" lon="1.85751">
        <ele>3</ele>
        <time>2019-08-11T07:51:57Z</time>
      </trkpt>
      <trkpt lat="50.4477" lon="1.85735">
        <ele>4</ele>
        <time>2019-08-11T07:51:59Z</time>
      </trkpt>
      <trkpt lat="50.44774" lon="1.8571">
        <ele>5</ele>
        <time>2019-08-11T07:52:02Z</time>
      </trkpt>
      <trkpt lat="50.44777" lon="1.85694">
        <ele>5</ele>
        <time>2019-08-11T07:52:04Z</time>
      </trkpt>
      <trkpt lat="50.44781" lon="1.85672">
        <ele>5</ele>
        <time>2019-08-11T07:52:07Z</time>
      </trkpt>
      <trkpt lat="50.44783" lon="1.85658">
        <ele>5</ele>
        <time>2019-08-11T07:52:09Z</time>
      </trkpt>
      <trkpt lat="50.44786" lon="1.8564">
        <ele>4</ele>
        <time>2019-08-11T07:52:12Z</time>
      </trkpt>
      <trkpt lat="50.44788" lon="1.85628">
        <ele>4</ele>
        <time>2019-08-11T07:52:14Z</time>
      </trkpt>
      <trkpt lat="50.44791" lon="1.85612">
        <ele>5</ele>
        <time>2019-08-11T07:52:17Z</time>
      </trkpt>
      <trkpt lat="50.44793" lon="1.85602">
        <ele>5</ele>
        <time>2019-08-11T07:52:19Z</time>
      </trkpt>
      <trkpt lat="50.44796" lon="1.85586">
        <ele>5</ele>
        <time>2019-08-11T07:52:22Z</time>
      </trkpt>
      <trkpt lat="50.44797" lon="1.85575">
        <ele>5</ele>
        <time>2019-08-11T07:52:24Z</time>
      </trkpt>
      <trkpt lat="50.44799" lon="1.85557">
        <ele>6</ele>
        <time>2019-08-11T07:52:27Z</time>
      </trkpt>
      <trkpt lat="50.44801" lon="1.85546">
        <ele>6</ele>
        <time>2019-08-11T07:52:29Z</time>
      </trkpt>
      <trkpt lat="50.44803" lon="1.85527">
        <ele>6</ele>
        <time>2019-08-11T07:52:32Z</time>
      </trkpt>
      <trkpt lat="50.44804" lon="1.85515">
        <ele>6</ele>
        <time>2019-08-11T07:52:34Z</time>
      </trkpt>
      <trkpt lat="50.44805" lon="1.85497">
        <ele>6</ele>
        <time>2019-08-11T07:52:37Z</time>
      </trkpt>
      <trkpt lat="50.44806" lon="1.85479">
        <ele>6</ele>
        <time>2019-08-11T07:52:40Z</time>
      </trkpt>
      <trkpt lat="50.44806" lon="1.85468">
        <ele>6</ele>
        <time>2019-08-11T07:52:42Z</time>
      </trkpt>
      <trkpt lat="50.44808" lon="1.85449">
        <ele>7</ele>
        <time>2019-08-11T07:52:45Z</time>
      </trkpt>
      <trkpt lat="50.44811" lon="1.8543">
        <ele>6</ele>
        <time>2019-08-11T07:52:48Z</time>
      </trkpt>
      <trkpt lat="50.44813" lon="1.85414">
        <ele>7</ele>
        <time>2019-08-11T07:52:50Z</time>
      </trkpt>
      <trkpt lat="50.44818" lon="1.85385">
        <ele>6</ele>
        <time>2019-08-11T07:52:53Z</time>
      </trkpt>
      <trkpt lat="50.44823" lon="1.85354">
        <ele>5</ele>
        <time>2019-08-11T07:52:56Z</time>
      </trkpt>
      <trkpt lat="50.44828" lon="1.85332">
        <ele>5</ele>
        <time>2019-08-11T07:52:58Z</time>
      </trkpt>
      <trkpt lat="50.44836" lon="1.85299">
        <ele>4</ele>
        <time>2019-08-11T07:53:01Z</time>
      </trkpt>
      <trkpt lat="50.44843" lon="1.85276">
        <ele>3</ele>
        <time>2019-08-11T07:53:03Z</time>
      </trkpt>
      <trkpt lat="50.44857" lon="1.85242">
        <ele>2</ele>
        <time>2019-08-11T07:53:06Z</time>
      </trkpt>
      <trkpt lat="50.44874" lon="1.85209">
        <ele>21.7</ele>
        <time>2019-08-11T07:53:09Z</time>
      </trkpt>
      <trkpt lat="50.44888" lon="1.85187">
        <ele>20.7</ele>
        <time>2019-08-11T07:53:11Z</time>
      </trkpt>
      <trkpt lat="50.4491" lon="1.85156">
        <ele>-2</ele>
        <time>2019-08-11T07:53:14Z</time>
      </trkpt>
      <trkpt lat="50.44931" lon="1.85122">
        <ele>-3</ele>
        <time>2019-08-11T07:53:17Z</time>
      </trkpt>
      <trkpt lat="50.44943" lon="1.85093">
        <ele>-5</ele>
        <time>2019-08-11T07:53:19Z</time>
      </trkpt>
      <trkpt lat="50.44953" lon="1.85062">
        <ele>-6</ele>
        <time>2019-08-11T07:53:21Z</time>
      </trkpt>
      <trkpt lat="50.44961" lon="1.85034">
        <ele>-7</ele>
        <time>2019-08-11T07:53:23Z</time>
      </trkpt>
      <trkpt lat="50.44967" lon="1.85013">
        <ele>-8</ele>
        <time>2019-08-11T07:53:26Z</time>
      </trkpt>
      <trkpt lat="50.44974" lon="1.85012">
        <ele>-9</ele>
        <time>2019-08-11T07:53:29Z</time>
      </trkpt>
      <trkpt lat="50.44977" lon="1.85014">
        <ele>-10</ele>
        <time>2019-08-11T07:53:31Z</time>
      </trkpt>
      <trkpt lat="50.44982" lon="1.85015">
        <ele>-10</ele>
        <time>2019-08-11T07:53:34Z</time>
      </trkpt>
      <trkpt lat="50.44986" lon="1.85017">
        <ele>-10</ele>
        <time>2019-08-11T07:53:36Z</time>
      </trkpt>
      <trkpt lat="50.4499" lon="1.85021">
        <ele>-9</ele>
        <time>2019-08-11T07:53:38Z</time>
      </trkpt>
      <trkpt lat="50.44995" lon="1.85029">
        <ele>-9</ele>
        <time>2019-08-11T07:53:41Z</time>
      </trkpt>
      <trkpt lat="50.45" lon="1.85037">
        <ele>-9</ele>
        <time>2019-08-11T07:53:44Z</time>
      </trkpt>
      <trkpt lat="50.45004" lon="1.85046">
        <ele>-9</ele>
        <time>2019-08-11T07:53:47Z</time>
      </trkpt>
      <trkpt lat="50.45008" lon="1.85056">
        <ele>-9</ele>
        <time>2019-08-11T07:53:50Z</time>
      </trkpt>
      <trkpt lat="50.45011" lon="1.85067">
        <ele>-8</ele>
        <time>2019-08-11T07:53:53Z</time>
      </trkpt>
      <trkpt lat="50.45015" lon="1.85078">
        <ele>-8</ele>
        <time>2019-08-11T07:53:56Z</time>
      </trkpt>
      <trkpt lat="50.45019" lon="1.85087">
        <ele>-8</ele>
        <time>2019-08-11T07:53:59Z</time>
      </trkpt>
      <trkpt lat="50.45022" lon="1.85094">
        <ele>-8</ele>
        <time>2019-08-11T07:54:01Z</time>
      </trkpt>
      <trkpt lat="50.45024" lon="1.85101">
        <ele>-8</ele>
        <time>2019-08-11T07:54:03Z</time>
      </trkpt>
      <trkpt lat="50.45027" lon="1.85111">
        <ele>-8</ele>
        <time>2019-08-11T07:54:06Z</time>
      </trkpt>
      <trkpt lat="50.4503" lon="1.85123">
        <ele>-7</ele>
        <time>2019-08-11T07:54:09Z</time>
      </trkpt>
      <trkpt lat="50.45032" lon="1.85131">
        <ele>-7</ele>
        <time>2019-08-11T07:54:11Z</time>
      </trkpt>
      <trkpt lat="50.45035" lon="1.85144">
        <ele>-6</ele>
        <time>2019-08-11T07:54:14Z</time>
      </trkpt>
      <trkpt lat="50.45036" lon="1.85154">
        <ele>-6</ele>
        <time>2019-08-11T07:54:16Z</time>
      </trkpt>
      <trkpt lat="50.45038" lon="1.85167">
        <ele>-6</ele>
        <time>2019-08-11T07:54:19Z</time>
      </trkpt>
      <trkpt lat="50.4504" lon="1.8518">
        <ele>-5</ele>
        <time>2019-08-11T07:54:22Z</time>
      </trkpt>
      <trkpt lat="50.45042" lon="1.85188">
        <ele>-5</ele>
        <time>2019-08-11T07:54:24Z</time>
      </trkpt>
      <trkpt lat="50.45044" lon="1.85197">
        <ele>-5</ele>
        <time>2019-08-11T07:54:26Z</time>
      </trkpt>
      <trkpt lat="50.45048" lon="1.85209">
        <ele>-5</ele>
        <time>2019-08-11T07:54:29Z</time>
      </trkpt>
      <trkpt lat="50.45049" lon="1.85217">
        <ele>-5</ele>
        <time>2019-08-11T07:54:31Z</time>
      </trkpt>
      <trkpt lat="50.45052" lon="1.85225">
        <ele>-4</ele>
        <time>2019-08-11T07:54:33Z</time>
      </trkpt>
      <trkpt lat="50.45055" lon="1.85238">
        <ele>-4</ele>
        <time>2019-08-11T07:54:36Z</time>
      </trkpt>
      <trkpt lat="50.45057" lon="1.85247">
        <ele>-4</ele>
        <time>2019-08-11T07:54:38Z</time>
      </trkpt>
      <trkpt lat="50.45059" lon="1.85255">
        <ele>-3</ele>
        <time>2019-08-11T07:54:40Z</time>
      </trkpt>
      <trkpt lat="50.45063" lon="1.85268">
        <ele>-3</ele>
        <time>2019-08-11T07:54:43Z</time>
      </trkpt>
      <trkpt lat="50.45066" lon="1.85282">
        <ele>-3</ele>
        <time>2019-08-11T07:54:46Z</time>
      </trkpt>
      <trkpt lat="50.45069" lon="1.85291">
        <ele>-3</ele>
        <time>2019-08-11T07:54:48Z</time>
      </trkpt>
      <trkpt lat="50.45072" lon="1.85302">
        <ele>-2</ele>
        <time>2019-08-11T07:54:51Z</time>
      </trkpt>
      <trkpt lat="50.45074" lon="1.85309">
        <ele>-2</ele>
        <time>2019-08-11T07:54:53Z</time>
      </trkpt>
      <trkpt lat="50.45078" lon="1.85319">
        <ele>-2</ele>
        <time>2019-08-11T07:54:56Z</time>
      </trkpt>
      <trkpt lat="50.45082" lon="1.85329">
        <ele>-1</ele>
        <time>2019-08-11T07:54:59Z</time>
      </trkpt>
      <trkpt lat="50.45085" lon="1.85336">
        <ele>-1</ele>
        <time>2019-08-11T07:55:01Z</time>
      </trkpt>
      <trkpt lat="50.45087" lon="1.85344">
        <ele>22.9</ele>
        <time>2019-08-11T07:55:03Z</time>
      </trkpt>
      <trkpt lat="50.45091" lon="1.85353">
        <ele>23.7</ele>
        <time>2019-08-11T07:55:07Z</time>
      </trkpt>
      <trkpt lat="50.45095" lon="1.85363">
        <ele>24.2</ele>
        <time>2019-08-11T07:55:09Z</time>
      </trkpt>
      <trkpt lat="50.45099" lon="1.85374">
        <ele>24.5</ele>
        <time>2019-08-11T07:55:12Z</time>
      </trkpt>
      <trkpt lat="50.45103" lon="1.85385">
        <ele>24.6</ele>
        <time>2019-08-11T07:55:15Z</time>
      </trkpt>
      <trkpt lat="50.45106" lon="1.85392">
        <ele>24.7</ele>
        <time>2019-08-11T07:55:17Z</time>
      </trkpt>
      <trkpt lat="50.45111" lon="1.85401">
        <ele>1</ele>
        <time>2019-08-11T07:55:20Z</time>
      </trkpt>
      <trkpt lat="50.45113" lon="1.85408">
        <ele>25.2</ele>
        <time>2019-08-11T07:55:22Z</time>
      </trkpt>
      <trkpt lat="50.45117" lon="1.85418">
        <ele>25.4</ele>
        <time>2019-08-11T07:55:25Z</time>
      </trkpt>
      <trkpt lat="50.4512" lon="1.85425">
        <ele>25.7</ele>
        <time>2019-08-11T07:55:27Z</time>
      </trkpt>
      <trkpt lat="50.45123" lon="1.85432">
        <ele>25.9</ele>
        <time>2019-08-11T07:55:29Z</time>
      </trkpt>
      <trkpt lat="50.45127" lon="1.85443">
        <ele>1</ele>
        <time>2019-08-11T07:55:32Z</time>
      </trkpt>
      <trkpt lat="50.45131" lon="1.85451">
        <ele>1</ele>
        <time>2019-08-11T07:55:34Z</time>
      </trkpt>
      <trkpt lat="50.45134" lon="1.85458">
        <ele>2</ele>
        <time>2019-08-11T07:55:36Z</time>
      </trkpt>
      <trkpt lat="50.45137" lon="1.85464">
        <ele>2</ele>
        <time>2019-08-11T07:55:38Z</time>
      </trkpt>
      <trkpt lat="50.4514" lon="1.85473">
        <ele>2</ele>
        <time>2019-08-11T07:55:41Z</time>
      </trkpt>
      <trkpt lat="50.45145" lon="1.85484">
        <ele>3</ele>
        <time>2019-08-11T07:55:44Z</time>
      </trkpt>
      <trkpt lat="50.45147" lon="1.8549">
        <ele>3</ele>
        <time>2019-08-11T07:55:46Z</time>
      </trkpt>
      <trkpt lat="50.4515" lon="1.85495">
        <ele>3</ele>
        <time>2019-08-11T07:55:49Z</time>
      </trkpt>
      <trkpt lat="50.4515" lon="1.85495">
        <ele>3</ele>
        <time>2019-08-11T07:55:52Z</time>
      </trkpt>
      <trkpt lat="50.4515" lon="1.85496">
        <ele>3</ele>
        <time>2019-08-11T07:55:54Z</time>
      </trkpt>
      <trkpt lat="50.4515" lon="1.85496">
        <ele>3</ele>
        <time>2019-08-11T07:55:57Z</time>
      </trkpt>
      <trkpt lat="50.4515" lon="1.85495">
        <ele>2</ele>
        <time>2019-08-11T07:55:59Z</time>
      </trkpt>
      <trkpt lat="50.45149" lon="1.85494">
        <ele>2</ele>
        <time>2019-08-11T07:56:01Z</time>
      </trkpt>
      <trkpt lat="50.45147" lon="1.85488">
        <ele>2</ele>
        <time>2019-08-11T07:56:04Z</time>
      </trkpt>
      <trkpt lat="50.45143" lon="1.85479">
        <ele>3</ele>
        <time>2019-08-11T07:56:07Z</time>
      </trkpt>
      <trkpt lat="50.4514" lon="1.85472">
        <ele>3</ele>
        <time>2019-08-11T07:56:09Z</time>
      </trkpt>
      <trkpt lat="50.45134" lon="1.85459">
        <ele>3</ele>
        <time>2019-08-11T07:56:12Z</time>
      </trkpt>
      <trkpt lat="50.45127" lon="1.85444">
        <ele>3</ele>
        <time>2019-08-11T07:56:15Z</time>
      </trkpt>
      <trkpt lat="50.45123" lon="1.85434">
        <ele>3</ele>
        <time>2019-08-11T07:56:17Z</time>
      </trkpt>
      <trkpt lat="50.45119" lon="1.85424">
        <ele>3</ele>
        <time>2019-08-11T07:56:19Z</time>
      </trkpt>
      <trkpt lat="50.45111" lon="1.85406">
        <ele>3</ele>
        <time>2019-08-11T07:56:22Z</time>
      </trkpt>
      <trkpt lat="50.45107" lon="1.85395">
        <ele>2</ele>
        <time>2019-08-11T07:56:24Z</time>
      </trkpt>
      <trkpt lat="50.451" lon="1.85377">
        <ele>2</ele>
        <time>2019-08-11T07:56:27Z</time>
      </trkpt>
      <trkpt lat="50.45095" lon="1.85366">
        <ele>2</ele>
        <time>2019-08-11T07:56:29Z</time>
      </trkpt>
      <trkpt lat="50.45089" lon="1.85349">
        <ele>2</ele>
        <time>2019-08-11T07:56:32Z</time>
      </trkpt>
      <trkpt lat="50.45084" lon="1.85337">
        <ele>2</ele>
        <time>2019-08-11T07:56:34Z</time>
      </trkpt>
      <trkpt lat="50.45077" lon="1.85318">
        <ele>1</ele>
        <time>2019-08-11T07:56:37Z</time>
      </trkpt>
      <trkpt lat="50.45072" lon="1.85303">
        <ele>21.4</ele>
        <time>2019-08-11T07:56:39Z</time>
      </trkpt>
      <trkpt lat="50.45068" lon="1.85286">
        <ele>-1</ele>
        <time>2019-08-11T07:56:41Z</time>
      </trkpt>
      <trkpt lat="50.45062" lon="1.85264">
        <ele>-2</ele>
        <time>2019-08-11T07:56:44Z</time>
      </trkpt>
      <trkpt lat="50.45058" lon="1.85251">
        <ele>-2</ele>
        <time>2019-08-11T07:56:46Z</time>
      </trkpt>
      <trkpt lat="50.45052" lon="1.85228">
        <ele>-3</ele>
        <time>2019-08-11T07:56:49Z</time>
      </trkpt>
      <trkpt lat="50.45046" lon="1.85205">
        <ele>-3</ele>
        <time>2019-08-11T07:56:52Z</time>
      </trkpt>
      <trkpt lat="50.45042" lon="1.85189">
        <ele>-4</ele>
        <time>2019-08-11T07:56:54Z</time>
      </trkpt>
      <trkpt lat="50.45038" lon="1.85166">
        <ele>-4</ele>
        <time>2019-08-11T07:56:57Z</time>
      </trkpt>
      <trkpt lat="50.45035" lon="1.85151">
        <ele>-5</ele>
        <time>2019-08-11T07:56:59Z</time>
      </trkpt>
      <trkpt lat="50.4503" lon="1.85129">
        <ele>-5</ele>
        <time>2019-08-11T07:57:02Z</time>
      </trkpt>
      <trkpt lat="50.45026" lon="1.85116">
        <ele>-5</ele>
        <time>2019-08-11T07:57:04Z</time>
      </trkpt>
      <trkpt lat="50.45022" lon="1.85102">
        <ele>-6</ele>
        <time>2019-08-11T07:57:06Z</time>
      </trkpt>
      <trkpt lat="50.45016" lon="1.85089">
        <ele>-6</ele>
        <time>2019-08-11T07:57:08Z</time>
      </trkpt>
      <trkpt lat="50.45009" lon="1.85067">
        <ele>-7</ele>
        <time>2019-08-11T07:57:11Z</time>
      </trkpt>
      <trkpt lat="50.45004" lon="1.85053">
        <ele>-7</ele>
        <time>2019-08-11T07:57:13Z</time>
      </trkpt>
      <trkpt lat="50.44995" lon="1.85034">
        <ele>-9</ele>
        <time>2019-08-11T07:57:16Z</time>
      </trkpt>
      <trkpt lat="50.44985" lon="1.8502">
        <ele>-9</ele>
        <time>2019-08-11T07:57:19Z</time>
      </trkpt>
      <trkpt lat="50.44979" lon="1.85014">
        <ele>-9</ele>
        <time>2019-08-11T07:57:21Z</time>
      </trkpt>
      <trkpt lat="50.44973" lon="1.85009">
        <ele>-9</ele>
        <time>2019-08-11T07:57:23Z</time>
      </trkpt>
      <trkpt lat="50.44971" lon="1.84995">
        <ele>-10</ele>
        <time>2019-08-11T07:57:26Z</time>
      </trkpt>
      <trkpt lat="50.44974" lon="1.84986">
        <ele>-10</ele>
        <time>2019-08-11T07:57:28Z</time>
      </trkpt>
      <trkpt lat="50.44977" lon="1.84975">
        <ele>-10</ele>
        <time>2019-08-11T07:57:30Z</time>
      </trkpt>
      <trkpt lat="50.44983" lon="1.84956">
        <ele>-10</ele>
        <time>2019-08-11T07:57:33Z</time>
      </trkpt>
      <trkpt lat="50.44986" lon="1.84943">
        <ele>-9</ele>
        <time>2019-08-11T07:57:35Z</time>
      </trkpt>
      <trkpt lat="50.44992" lon="1.84923">
        <ele>-10</ele>
        <time>2019-08-11T07:57:38Z</time>
      </trkpt>
      <trkpt lat="50.44996" lon="1.84909">
        <ele>-10</ele>
        <time>2019-08-11T07:57:40Z</time>
      </trkpt>
      <trkpt lat="50.45002" lon="1.84888">
        <ele>-10</ele>
        <time>2019-08-11T07:57:43Z</time>
      </trkpt>
      <trkpt lat="50.45009" lon="1.84868">
        <ele>-10</ele>
        <time>2019-08-11T07:57:46Z</time>
      </trkpt>
      <trkpt lat="50.45017" lon="1.84846">
        <ele>-10</ele>
        <time>2019-08-11T07:57:49Z</time>
      </trkpt>
      <trkpt lat="50.45023" lon="1.8483">
        <ele>-10</ele>
        <time>2019-08-11T07:57:51Z</time>
      </trkpt>
      <trkpt lat="50.45034" lon="1.84803">
        <ele>-10</ele>
        <time>2019-08-11T07:57:54Z</time>
      </trkpt>
      <trkpt lat="50.45042" lon="1.84786">
        <ele>-10</ele>
        <time>2019-08-11T07:57:56Z</time>
      </trkpt>
      <trkpt lat="50.45055" lon="1.8476">
        <ele>-11</ele>
        <time>2019-08-11T07:57:59Z</time>
      </trkpt>
      <trkpt lat="50.45068" lon="1.84737">
        <ele>-11</ele>
        <time>2019-08-11T07:58:02Z</time>
      </trkpt>
      <trkpt lat="50.45076" lon="1.84721">
        <ele>-12</ele>
        <time>2019-08-11T07:58:04Z</time>
      </trkpt>
      <trkpt lat="50.45089" lon="1.84698">
        <ele>-13</ele>
        <time>2019-08-11T07:58:07Z</time>
      </trkpt>
      <trkpt lat="50.45097" lon="1.84683">
        <ele>-13</ele>
        <time>2019-08-11T07:58:09Z</time>
      </trkpt>
      <trkpt lat="50.45109" lon="1.84661">
        <ele>-13</ele>
        <time>2019-08-11T07:58:12Z</time>
      </trkpt>
      <trkpt lat="50.45117" lon="1.84646">
        <ele>-12</ele>
        <time>2019-08-11T07:58:14Z</time>
      </trkpt>
      <trkpt lat="50.45127" lon="1.84624">
        <ele>-12</ele>
        <time>2019-08-11T07:58:17Z</time>
      </trkpt>
      <trkpt lat="50.45138" lon="1.84603">
        <ele>-13</ele>
        <time>2019-08-11T07:58:20Z</time>
      </trkpt>
      <trkpt lat="50.45148" lon="1.84582">
        <ele>-13</ele>
        <time>2019-08-11T07:58:23Z</time>
      </trkpt>
      <trkpt lat="50.45156" lon="1.84563">
        <ele>-14</ele>
        <time>2019-08-11T07:58:26Z</time>
      </trkpt>
      <trkpt lat="50.45164" lon="1.84558">
        <ele>-13</ele>
        <time>2019-08-11T07:58:29Z</time>
      </trkpt>
      <trkpt lat="50.45171" lon="1.84566">
        <ele>-13</ele>
        <time>2019-08-11T07:58:32Z</time>
      </trkpt>
      <trkpt lat="50.45179" lon="1.84574">
        <ele>-13</ele>
        <time>2019-08-11T07:58:35Z</time>
      </trkpt>
      <trkpt lat="50.45184" lon="1.84579">
        <ele>-13</ele>
        <time>2019-08-11T07:58:37Z</time>
      </trkpt>
      <trkpt lat="50.45189" lon="1.84585">
        <ele>-12</ele>
        <time>2019-08-11T07:58:39Z</time>
      </trkpt>
      <trkpt lat="50.45195" lon="1.84594">
        <ele>-12</ele>
        <time>2019-08-11T07:58:42Z</time>
      </trkpt>
      <trkpt lat="50.452" lon="1.846">
        <ele>-11</ele>
        <time>2019-08-11T07:58:44Z</time>
      </trkpt>
      <trkpt lat="50.45206" lon="1.84609">
        <ele>-10</ele>
        <time>2019-08-11T07:58:47Z</time>
      </trkpt>
      <trkpt lat="50.45211" lon="1.84614">
        <ele>-10</ele>
        <time>2019-08-11T07:58:49Z</time>
      </trkpt>
      <trkpt lat="50.45216" lon="1.84623">
        <ele>-9</ele>
        <time>2019-08-11T07:58:52Z</time>
      </trkpt>
      <trkpt lat="50.4522" lon="1.84627">
        <ele>-9</ele>
        <time>2019-08-11T07:58:54Z</time>
      </trkpt>
      <trkpt lat="50.45224" lon="1.84633">
        <ele>-8</ele>
        <time>2019-08-11T07:58:56Z</time>
      </trkpt>
      <trkpt lat="50.4523" lon="1.84641">
        <ele>-8</ele>
        <time>2019-08-11T07:58:59Z</time>
      </trkpt>
      <trkpt lat="50.45234" lon="1.84647">
        <ele>-7</ele>
        <time>2019-08-11T07:59:01Z</time>
      </trkpt>
      <trkpt lat="50.45237" lon="1.84652">
        <ele>-7</ele>
        <time>2019-08-11T07:59:03Z</time>
      </trkpt>
      <trkpt lat="50.45243" lon="1.84661">
        <ele>-7</ele>
        <time>2019-08-11T07:59:06Z</time>
      </trkpt>
      <trkpt lat="50.45249" lon="1.84669">
        <ele>-6</ele>
        <time>2019-08-11T07:59:09Z</time>
      </trkpt>
      <trkpt lat="50.45253" lon="1.84675">
        <ele>-6</ele>
        <time>2019-08-11T07:59:11Z</time>
      </trkpt>
      <trkpt lat="50.4526" lon="1.84682">
        <ele>-6</ele>
        <time>2019-08-11T07:59:14Z</time>
      </trkpt>
      <trkpt lat="50.45264" lon="1.84687">
        <ele>-5</ele>
        <time>2019-08-11T07:59:16Z</time>
      </trkpt>
      <trkpt lat="50.45268" lon="1.84693">
        <ele>-5</ele>
        <time>2019-08-11T07:59:18Z</time>
      </trkpt>
      <trkpt lat="50.45272" lon="1.84697">
        <ele>-5</ele>
        <time>2019-08-11T07:59:20Z</time>
      </trkpt>
      <trkpt lat="50.45279" lon="1.84704">
        <ele>-4</ele>
        <time>2019-08-11T07:59:23Z</time>
      </trkpt>
      <trkpt lat="50.45285" lon="1.8471">
        <ele>-4</ele>
        <time>2019-08-11T07:59:26Z</time>
      </trkpt>
      <trkpt lat="50.4529" lon="1.84714">
        <ele>-3</ele>
        <time>2019-08-11T07:59:28Z</time>
      </trkpt>
      <trkpt lat="50.45296" lon="1.84721">
        <ele>-3</ele>
        <time>2019-08-11T07:59:31Z</time>
      </trkpt>
      <trkpt lat="50.453" lon="1.84725">
        <ele>-2</ele>
        <time>2019-08-11T07:59:33Z</time>
      </trkpt>
      <trkpt lat="50.45307" lon="1.84732">
        <ele>-3</ele>
        <time>2019-08-11T07:59:36Z</time>
      </trkpt>
      <trkpt lat="50.45312" lon="1.84737">
        <ele>-2</ele>
        <time>2019-08-11T07:59:38Z</time>
      </trkpt>
      <trkpt lat="50.45318" lon="1.84744">
        <ele>-2</ele>
        <time>2019-08-11T07:59:41Z</time>
      </trkpt>
      <trkpt lat="50.45322" lon="1.84749">
        <ele>-2</ele>
        <time>2019-08-11T07:59:43Z</time>
      </trkpt>
      <trkpt lat="50.45329" lon="1.84756">
        <ele>-1</ele>
        <time>2019-08-11T07:59:46Z</time>
      </trkpt>
      <trkpt lat="50.45332" lon="1.8476">
        <ele>-1</ele>
        <time>2019-08-11T07:59:48Z</time>
      </trkpt>
      <trkpt lat="50.45338" lon="1.84767">
        <ele>23.7</ele>
        <time>2019-08-11T07:59:51Z</time>
      </trkpt>
      <trkpt lat="50.45342" lon="1.84772">
        <ele>23.9</ele>
        <time>2019-08-11T07:59:53Z</time>
      </trkpt>
      <trkpt lat="50.45348" lon="1.84779">
        <ele>24.1</ele>
        <time>2019-08-11T07:59:56Z</time>
      </trkpt>
      <trkpt lat="50.45354" lon="1.84786">
        <ele>24.5</ele>
        <time>2019-08-11T07:59:59Z</time>
      </trkpt>
      <trkpt lat="50.45358" lon="1.8479">
        <ele>24.8</ele>
        <time>2019-08-11T08:00:01Z</time>
      </trkpt>
      <trkpt lat="50.45363" lon="1.84797">
        <ele>25.4</ele>
        <time>2019-08-11T08:00:04Z</time>
      </trkpt>
      <trkpt lat="50.45367" lon="1.84801">
        <ele>1</ele>
        <time>2019-08-11T08:00:06Z</time>
      </trkpt>
      <trkpt lat="50.45372" lon="1.84808">
        <ele>1</ele>
        <time>2019-08-11T08:00:09Z</time>
      </trkpt>
      <trkpt lat="50.45376" lon="1.84812">
        <ele>1</ele>
        <time>2019-08-11T08:00:11Z</time>
      </trkpt>
      <trkpt lat="50.4538" lon="1.84817">
        <ele>1</ele>
        <time>2019-08-11T08:00:13Z</time>
      </trkpt>
      <trkpt lat="50.45385" lon="1.84824">
        <ele>2</ele>
        <time>2019-08-11T08:00:16Z</time>
      </trkpt>
      <trkpt lat="50.45391" lon="1.8483">
        <ele>2</ele>
        <time>2019-08-11T08:00:19Z</time>
      </trkpt>
      <trkpt lat="50.45395" lon="1.84836">
        <ele>2</ele>
        <time>2019-08-11T08:00:21Z</time>
      </trkpt>
      <trkpt lat="50.45401" lon="1.84843">
        <ele>3</ele>
        <time>2019-08-11T08:00:24Z</time>
      </trkpt>
      <trkpt lat="50.45407" lon="1.8485">
        <ele>3</ele>
        <time>2019-08-11T08:00:27Z</time>
      </trkpt>
      <trkpt lat="50.45411" lon="1.84854">
        <ele>3</ele>
        <time>2019-08-11T08:00:29Z</time>
      </trkpt>
      <trkpt lat="50.45415" lon="1.84859">
        <ele>4</ele>
        <time>2019-08-11T08:00:31Z</time>
      </trkpt>
      <trkpt lat="50.4542" lon="1.84865">
        <ele>4</ele>
        <time>2019-08-11T08:00:34Z</time>
      </trkpt>
      <trkpt lat="50.45425" lon="1.8487">
        <ele>5</ele>
        <time>2019-08-11T08:00:37Z</time>
      </trkpt>
      <trkpt lat="50.4543" lon="1.84876">
        <ele>5</ele>
        <time>2019-08-11T08:00:40Z</time>
      </trkpt>
      <trkpt lat="50.45435" lon="1.84882">
        <ele>5</ele>
        <time>2019-08-11T08:00:43Z</time>
      </trkpt>
      <trkpt lat="50.45441" lon="1.84888">
        <ele>6</ele>
        <time>2019-08-11T08:00:46Z</time>
      </trkpt>
      <trkpt lat="50.45446" lon="1.84894">
        <ele>6</ele>
        <time>2019-08-11T08:00:49Z</time>
      </trkpt>
      <trkpt lat="50.45451" lon="1.849">
        <ele>7</ele>
        <time>2019-08-11T08:00:52Z</time>
      </trkpt>
      <trkpt lat="50.45455" lon="1.84906">
        <ele>7</ele>
        <time>2019-08-11T08:00:55Z</time>
      </trkpt>
      <trkpt lat="50.45458" lon="1.84911">
        <ele>8</ele>
        <time>2019-08-11T08:00:57Z</time>
      </trkpt>
      <trkpt lat="50.45461" lon="1.84917">
        <ele>8</ele>
        <time>2019-08-11T08:00:59Z</time>
      </trkpt>
      <trkpt lat="50.45464" lon="1.84926">
        <ele>8</ele>
        <time>2019-08-11T08:01:02Z</time>
      </trkpt>
      <trkpt lat="50.45467" lon="1.84935">
        <ele>9</ele>
        <time>2019-08-11T08:01:05Z</time>
      </trkpt>
      <trkpt lat="50.45469" lon="1.84941">
        <ele>9</ele>
        <time>2019-08-11T08:01:07Z</time>
      </trkpt>
      <trkpt lat="50.45472" lon="1.8495">
        <ele>10</ele>
        <time>2019-08-11T08:01:10Z</time>
      </trkpt>
      <trkpt lat="50.45473" lon="1.84956">
        <ele>11</ele>
        <time>2019-08-11T08:01:12Z</time>
      </trkpt>
      <trkpt lat="50.45476" lon="1.84965">
        <ele>12</ele>
        <time>2019-08-11T08:01:15Z</time>
      </trkpt>
      <trkpt lat="50.45478" lon="1.8497">
        <ele>12</ele>
        <time>2019-08-11T08:01:17Z</time>
      </trkpt>
      <trkpt lat="50.4548" lon="1.84979">
        <ele>12</ele>
        <time>2019-08-11T08:01:20Z</time>
      </trkpt>
      <trkpt lat="50.45483" lon="1.84988">
        <ele>13</ele>
        <time>2019-08-11T08:01:23Z</time>
      </trkpt>
      <trkpt lat="50.45486" lon="1.84995">
        <ele>14</ele>
        <time>2019-08-11T08:01:26Z</time>
      </trkpt>
      <trkpt lat="50.45489" lon="1.85003">
        <ele>14</ele>
        <time>2019-08-11T08:01:29Z</time>
      </trkpt>
      <trkpt lat="50.45493" lon="1.85009">
        <ele>15</ele>
        <time>2019-08-11T08:01:32Z</time>
      </trkpt>
      <trkpt lat="50.45496" lon="1.85015">
        <ele>16</ele>
        <time>2019-08-11T08:01:35Z</time>
      </trkpt>
      <trkpt lat="50.45498" lon="1.8502">
        <ele>17</ele>
        <time>2019-08-11T08:01:37Z</time>
      </trkpt>
      <trkpt lat="50.455" lon="1.85024">
        <ele>16</ele>
        <time>2019-08-11T08:01:39Z</time>
      </trkpt>
      <trkpt lat="50.45503" lon="1.85031">
        <ele>16</ele>
        <time>2019-08-11T08:01:42Z</time>
      </trkpt>
      <trkpt lat="50.45505" lon="1.85036">
        <ele>16</ele>
        <time>2019-08-11T08:01:44Z</time>
      </trkpt>
      <trkpt lat="50.45508" lon="1.85042">
        <ele>17</ele>
        <time>2019-08-11T08:01:47Z</time>
      </trkpt>
      <trkpt lat="50.4551" lon="1.85047">
        <ele>17</ele>
        <time>2019-08-11T08:01:49Z</time>
      </trkpt>
      <trkpt lat="50.45512" lon="1.85051">
        <ele>18</ele>
        <time>2019-08-11T08:01:51Z</time>
      </trkpt>
      <trkpt lat="50.45515" lon="1.85058">
        <ele>19</ele>
        <time>2019-08-11T08:01:54Z</time>
      </trkpt>
      <trkpt lat="50.45517" lon="1.85062">
        <ele>19</ele>
        <time>2019-08-11T08:01:56Z</time>
      </trkpt>
      <trkpt lat="50.4552" lon="1.85069">
        <ele>19</ele>
        <time>2019-08-11T08:01:59Z</time>
      </trkpt>
      <trkpt lat="50.45522" lon="1.85073">
        <ele>20</ele>
        <time>2019-08-11T08:02:01Z</time>
      </trkpt>
      <trkpt lat="50.45525" lon="1.8508">
        <ele>20</ele>
        <time>2019-08-11T08:02:04Z</time>
      </trkpt>
      <trkpt lat="50.45528" lon="1.85087">
        <ele>21</ele>
        <time>2019-08-11T08:02:07Z</time>
      </trkpt>
      <trkpt lat="50.4553" lon="1.85091">
        <ele>21</ele>
        <time>2019-08-11T08:02:09Z</time>
      </trkpt>
      <trkpt lat="50.45532" lon="1.85096">
        <ele>22</ele>
        <time>2019-08-11T08:02:11Z</time>
      </trkpt>
      <trkpt lat="50.45535" lon="1.85102">
        <ele>22</ele>
        <time>2019-08-11T08:02:14Z</time>
      </trkpt>
      <trkpt lat="50.45538" lon="1.85108">
        <ele>22</ele>
        <time>2019-08-11T08:02:17Z</time>
      </trkpt>
      <trkpt lat="50.4554" lon="1.85113">
        <ele>23</ele>
        <time>2019-08-11T08:02:19Z</time>
      </trkpt>
      <trkpt lat="50.45543" lon="1.8512">
        <ele>23</ele>
        <time>2019-08-11T08:02:22Z</time>
      </trkpt>
      <trkpt lat="50.45546" lon="1.85126">
        <ele>24</ele>
        <time>2019-08-11T08:02:25Z</time>
      </trkpt>
      <trkpt lat="50.45549" lon="1.85131">
        <ele>24</ele>
        <time>2019-08-11T08:02:27Z</time>
      </trkpt>
      <trkpt lat="50.45552" lon="1.85138">
        <ele>25</ele>
        <time>2019-08-11T08:02:30Z</time>
      </trkpt>
      <trkpt lat="50.45555" lon="1.85145">
        <ele>25</ele>
        <time>2019-08-11T08:02:33Z</time>
      </trkpt>
      <trkpt lat="50.45558" lon="1.85152">
        <ele>25</ele>
        <time>2019-08-11T08:02:36Z</time>
      </trkpt>
      <trkpt lat="50.45562" lon="1.85158">
        <ele>26</ele>
        <time>2019-08-11T08:02:39Z</time>
      </trkpt>
      <trkpt lat="50.45564" lon="1.85162">
        <ele>27</ele>
        <time>2019-08-11T08:02:41Z</time>
      </trkpt>
      <trkpt lat="50.45566" lon="1.85166">
        <ele>27</ele>
        <time>2019-08-11T08:02:43Z</time>
      </trkpt>
      <trkpt lat="50.45568" lon="1.8517">
        <ele>27</ele>
        <time>2019-08-11T08:02:45Z</time>
      </trkpt>
      <trkpt lat="50.45571" lon="1.85174">
        <ele>28</ele>
        <time>2019-08-11T08:02:47Z</time>
      </trkpt>
      <trkpt lat="50.45573" lon="1.85178">
        <ele>28</ele>
        <time>2019-08-11T08:02:49Z</time>
      </trkpt>
      <trkpt lat="50.45576" lon="1.85184">
        <ele>29</ele>
        <time>2019-08-11T08:02:52Z</time>
      </trkpt>
      <trkpt lat="50.45579" lon="1.8519">
        <ele>29</ele>
        <time>2019-08-11T08:02:55Z</time>
      </trkpt>
      <trkpt lat="50.45581" lon="1.85195">
        <ele>29</ele>
        <time>2019-08-11T08:02:57Z</time>
      </trkpt>
      <trkpt lat="50.45583" lon="1.85198">
        <ele>30</ele>
        <time>2019-08-11T08:02:59Z</time>
      </trkpt>
      <trkpt lat="50.45584" lon="1.85201">
        <ele>30</ele>
        <time>2019-08-11T08:03:01Z</time>
      </trkpt>
      <trkpt lat="50.45587" lon="1.85207">
        <ele>30</ele>
        <time>2019-08-11T08:03:04Z</time>
      </trkpt>
      <trkpt lat="50.45589" lon="1.85211">
        <ele>30</ele>
        <time>2019-08-11T08:03:06Z</time>
      </trkpt>
      <trkpt lat="50.45591" lon="1.85217">
        <ele>30</ele>
        <time>2019-08-11T08:03:09Z</time>
      </trkpt>
      <trkpt lat="50.45593" lon="1.85221">
        <ele>31</ele>
        <time>2019-08-11T08:03:11Z</time>
      </trkpt>
      <trkpt lat="50.45596" lon="1.85227">
        <ele>31</ele>
        <time>2019-08-11T08:03:14Z</time>
      </trkpt>
      <trkpt lat="50.45598" lon="1.85231">
        <ele>31</ele>
        <time>2019-08-11T08:03:16Z</time>
      </trkpt>
      <trkpt lat="50.45601" lon="1.85237">
        <ele>32</ele>
        <time>2019-08-11T08:03:19Z</time>
      </trkpt>
      <trkpt lat="50.45603" lon="1.85242">
        <ele>33</ele>
        <time>2019-08-11T08:03:22Z</time>
      </trkpt>
      <trkpt lat="50.45605" lon="1.85247">
        <ele>33</ele>
        <time>2019-08-11T08:03:25Z</time>
      </trkpt>
      <trkpt lat="50.45607" lon="1.85251">
        <ele>33</ele>
        <time>2019-08-11T08:03:28Z</time>
      </trkpt>
      <trkpt lat="50.45609" lon="1.85255">
        <ele>33</ele>
        <time>2019-08-11T08:03:31Z</time>
      </trkpt>
      <trkpt lat="50.45612" lon="1.8526">
        <ele>34</ele>
        <time>2019-08-11T08:03:34Z</time>
      </trkpt>
      <trkpt lat="50.45613" lon="1.85264">
        <ele>34</ele>
        <time>2019-08-11T08:03:36Z</time>
      </trkpt>
      <trkpt lat="50.45615" lon="1.85267">
        <ele>34</ele>
        <time>2019-08-11T08:03:38Z</time>
      </trkpt>
      <trkpt lat="50.45618" lon="1.85272">
        <ele>35</ele>
        <time>2019-08-11T08:03:41Z</time>
      </trkpt>
      <trkpt lat="50.45621" lon="1.85278">
        <ele>34</ele>
        <time>2019-08-11T08:03:44Z</time>
      </trkpt>
      <trkpt lat="50.45623" lon="1.85281">
        <ele>34</ele>
        <time>2019-08-11T08:03:46Z</time>
      </trkpt>
      <trkpt lat="50.45625" lon="1.85285">
        <ele>34</ele>
        <time>2019-08-11T08:03:48Z</time>
      </trkpt>
      <trkpt lat="50.45627" lon="1.85289">
        <ele>34</ele>
        <time>2019-08-11T08:03:50Z</time>
      </trkpt>
      <trkpt lat="50.45629" lon="1.85292">
        <ele>35</ele>
        <time>2019-08-11T08:03:52Z</time>
      </trkpt>
      <trkpt lat="50.45631" lon="1.85295">
        <ele>35</ele>
        <time>2019-08-11T08:03:54Z</time>
      </trkpt>
      <trkpt lat="50.45633" lon="1.853">
        <ele>35</ele>
        <time>2019-08-11T08:03:57Z</time>
      </trkpt>
      <trkpt lat="50.45636" lon="1.85306">
        <ele>35</ele>
        <time>2019-08-11T08:04:00Z</time>
      </trkpt>
      <trkpt lat="50.45639" lon="1.85311">
        <ele>36</ele>
        <time>2019-08-11T08:04:03Z</time>
      </trkpt>
      <trkpt lat="50.4564" lon="1.85314">
        <ele>36</ele>
        <time>2019-08-11T08:04:05Z</time>
      </trkpt>
      <trkpt lat="50.45642" lon="1.85318">
        <ele>37</ele>
        <time>2019-08-11T08:04:07Z</time>
      </trkpt>
      <trkpt lat="50.45644" lon="1.85321">
        <ele>37</ele>
        <time>2019-08-11T08:04:09Z</time>
      </trkpt>
      <trkpt lat="50.45647" lon="1.85327">
        <ele>38</ele>
        <time>2019-08-11T08:04:12Z</time>
      </trkpt>
      <trkpt lat="50.45649" lon="1.85331">
        <ele>38</ele>
        <time>2019-08-11T08:04:14Z</time>
      </trkpt>
      <trkpt lat="50.45652" lon="1.85336">
        <ele>38</ele>
        <time>2019-08-11T08:04:17Z</time>
      </trkpt>
      <trkpt lat="50.45654" lon="1.8534">
        <ele>38</ele>
        <time>2019-08-11T08:04:19Z</time>
      </trkpt>
      <trkpt lat="50.45656" lon="1.85343">
        <ele>39</ele>
        <time>2019-08-11T08:04:21Z</time>
      </trkpt>
      <trkpt lat="50.45659" lon="1.85348">
        <ele>39</ele>
        <time>2019-08-11T08:04:24Z</time>
      </trkpt>
      <trkpt lat="50.45661" lon="1.85352">
        <ele>40</ele>
        <time>2019-08-11T08:04:26Z</time>
      </trkpt>
      <trkpt lat="50.45664" lon="1.85356">
        <ele>40</ele>
        <time>2019-08-11T08:04:29Z</time>
      </trkpt>
      <trkpt lat="50.45665" lon="1.8536">
        <ele>41</ele>
        <time>2019-08-11T08:04:31Z</time>
      </trkpt>
      <trkpt lat="50.45668" lon="1.85365">
        <ele>41</ele>
        <time>2019-08-11T08:04:34Z</time>
      </trkpt>
      <trkpt lat="50.4567" lon="1.85368">
        <ele>41</ele>
        <time>2019-08-11T08:04:36Z</time>
      </trkpt>
      <trkpt lat="50.45673" lon="1.85373">
        <ele>42</ele>
        <time>2019-08-11T08:04:39Z</time>
      </trkpt>
      <trkpt lat="50.45675" lon="1.85376">
        <ele>42</ele>
        <time>2019-08-11T08:04:41Z</time>
      </trkpt>
      <trkpt lat="50.45678" lon="1.8538">
        <ele>42</ele>
        <time>2019-08-11T08:04:44Z</time>
      </trkpt>
      <trkpt lat="50.4568" lon="1.85384">
        <ele>43</ele>
        <time>2019-08-11T08:04:46Z</time>
      </trkpt>
      <trkpt lat="50.45681" lon="1.85388">
        <ele>43</ele>
        <time>2019-08-11T08:04:48Z</time>
      </trkpt>
      <trkpt lat="50.45683" lon="1.85394">
        <ele>43</ele>
        <time>2019-08-11T08:04:51Z</time>
      </trkpt>
      <trkpt lat="50.45685" lon="1.854">
        <ele>44</ele>
        <time>2019-08-11T08:04:54Z</time>
      </trkpt>
      <trkpt lat="50.45688" lon="1.85406">
        <ele>44</ele>
        <time>2019-08-11T08:04:57Z</time>
      </trkpt>
      <trkpt lat="50.45692" lon="1.8541">
        <ele>45</ele>
        <time>2019-08-11T08:05:00Z</time>
      </trkpt>
      <trkpt lat="50.45695" lon="1.85414">
        <ele>45</ele>
        <time>2019-08-11T08:05:02Z</time>
      </trkpt>
      <trkpt lat="50.45699" lon="1.85418">
        <ele>46</ele>
        <time>2019-08-11T08:05:04Z</time>
      </trkpt>
      <trkpt lat="50.45702" lon="1.85422">
        <ele>46</ele>
        <time>2019-08-11T08:05:06Z</time>
      </trkpt>
      <trkpt lat="50.45708" lon="1.85429">
        <ele>46</ele>
        <time>2019-08-11T08:05:09Z</time>
      </trkpt>
      <trkpt lat="50.45712" lon="1.85433">
        <ele>46</ele>
        <time>2019-08-11T08:05:11Z</time>
      </trkpt>
      <trkpt lat="50.45718" lon="1.85441">
        <ele>47</ele>
        <time>2019-08-11T08:05:14Z</time>
      </trkpt>
      <trkpt lat="50.45724" lon="1.85448">
        <ele>47</ele>
        <time>2019-08-11T08:05:17Z</time>
      </trkpt>
      <trkpt lat="50.45729" lon="1.85454">
        <ele>48</ele>
        <time>2019-08-11T08:05:20Z</time>
      </trkpt>
      <trkpt lat="50.45732" lon="1.85458">
        <ele>48</ele>
        <time>2019-08-11T08:05:22Z</time>
      </trkpt>
      <trkpt lat="50.45738" lon="1.85465">
        <ele>48</ele>
        <time>2019-08-11T08:05:25Z</time>
      </trkpt>
      <trkpt lat="50.45742" lon="1.85469">
        <ele>48</ele>
        <time>2019-08-11T08:05:27Z</time>
      </trkpt>
      <trkpt lat="50.45745" lon="1.85473">
        <ele>49</ele>
        <time>2019-08-11T08:05:29Z</time>
      </trkpt>
      <trkpt lat="50.4575" lon="1.85478">
        <ele>49</ele>
        <time>2019-08-11T08:05:32Z</time>
      </trkpt>
      <trkpt lat="50.45754" lon="1.85482">
        <ele>50</ele>
        <time>2019-08-11T08:05:34Z</time>
      </trkpt>
      <trkpt lat="50.45758" lon="1.85486">
        <ele>50</ele>
        <time>2019-08-11T08:05:36Z</time>
      </trkpt>
      <trkpt lat="50.45761" lon="1.85491">
        <ele>50</ele>
        <time>2019-08-11T08:05:38Z</time>
      </trkpt>
      <trkpt lat="50.45767" lon="1.85496">
        <ele>50</ele>
        <time>2019-08-11T08:05:41Z</time>
      </trkpt>
      <trkpt lat="50.45772" lon="1.85503">
        <ele>50</ele>
        <time>2019-08-11T08:05:44Z</time>
      </trkpt>
      <trkpt lat="50.45778" lon="1.8551">
        <ele>51</ele>
        <time>2019-08-11T08:05:47Z</time>
      </trkpt>
      <trkpt lat="50.45784" lon="1.85517">
        <ele>51</ele>
        <time>2019-08-11T08:05:50Z</time>
      </trkpt>
      <trkpt lat="50.45788" lon="1.85521">
        <ele>52</ele>
        <time>2019-08-11T08:05:52Z</time>
      </trkpt>
      <trkpt lat="50.45794" lon="1.85529">
        <ele>52</ele>
        <time>2019-08-11T08:05:55Z</time>
      </trkpt>
      <trkpt lat="50.45798" lon="1.85535">
        <ele>52</ele>
        <time>2019-08-11T08:05:57Z</time>
      </trkpt>
      <trkpt lat="50.45805" lon="1.85544">
        <ele>52</ele>
        <time>2019-08-11T08:06:00Z</time>
      </trkpt>
      <trkpt lat="50.45813" lon="1.85553">
        <ele>52</ele>
        <time>2019-08-11T08:06:03Z</time>
      </trkpt>
      <trkpt lat="50.45818" lon="1.85558">
        <ele>52</ele>
        <time>2019-08-11T08:06:05Z</time>
      </trkpt>
      <trkpt lat="50.45823" lon="1.85564">
        <ele>52</ele>
        <time>2019-08-11T08:06:07Z</time>
      </trkpt>
      <trkpt lat="50.45829" lon="1.85573">
        <ele>53</ele>
        <time>2019-08-11T08:06:10Z</time>
      </trkpt>
      <trkpt lat="50.45834" lon="1.85579">
        <ele>53</ele>
        <time>2019-08-11T08:06:12Z</time>
      </trkpt>
      <trkpt lat="50.45841" lon="1.85587">
        <ele>53</ele>
        <time>2019-08-11T08:06:15Z</time>
      </trkpt>
      <trkpt lat="50.45847" lon="1.85595">
        <ele>54</ele>
        <time>2019-08-11T08:06:18Z</time>
      </trkpt>
      <trkpt lat="50.45852" lon="1.856">
        <ele>54</ele>
        <time>2019-08-11T08:06:20Z</time>
      </trkpt>
      <trkpt lat="50.45858" lon="1.85609">
        <ele>54</ele>
        <time>2019-08-11T08:06:23Z</time>
      </trkpt>
      <trkpt lat="50.45865" lon="1.85618">
        <ele>54</ele>
        <time>2019-08-11T08:06:26Z</time>
      </trkpt>
      <trkpt lat="50.4587" lon="1.85624">
        <ele>54</ele>
        <time>2019-08-11T08:06:28Z</time>
      </trkpt>
      <trkpt lat="50.45877" lon="1.85632">
        <ele>55</ele>
        <time>2019-08-11T08:06:31Z</time>
      </trkpt>
      <trkpt lat="50.45882" lon="1.85638">
        <ele>55</ele>
        <time>2019-08-11T08:06:33Z</time>
      </trkpt>
      <trkpt lat="50.45889" lon="1.85647">
        <ele>55</ele>
        <time>2019-08-11T08:06:36Z</time>
      </trkpt>
      <trkpt lat="50.45896" lon="1.85656">
        <ele>55</ele>
        <time>2019-08-11T08:06:39Z</time>
      </trkpt>
      <trkpt lat="50.45903" lon="1.85665">
        <ele>55</ele>
        <time>2019-08-11T08:06:42Z</time>
      </trkpt>
      <trkpt lat="50.45908" lon="1.85671">
        <ele>56</ele>
        <time>2019-08-11T08:06:44Z</time>
      </trkpt>
      <trkpt lat="50.45915" lon="1.8568">
        <ele>56</ele>
        <time>2019-08-11T08:06:47Z</time>
      </trkpt>
      <trkpt lat="50.45922" lon="1.85689">
        <ele>56</ele>
        <time>2019-08-11T08:06:50Z</time>
      </trkpt>
      <trkpt lat="50.45927" lon="1.85696">
        <ele>57</ele>
        <time>2019-08-11T08:06:52Z</time>
      </trkpt>
      <trkpt lat="50.45935" lon="1.85706">
        <ele>57</ele>
        <time>2019-08-11T08:06:55Z</time>
      </trkpt>
      <trkpt lat="50.4594" lon="1.85712">
        <ele>57</ele>
        <time>2019-08-11T08:06:57Z</time>
      </trkpt>
      <trkpt lat="50.45948" lon="1.85721">
        <ele>57</ele>
        <time>2019-08-11T08:07:00Z</time>
      </trkpt>
      <trkpt lat="50.45953" lon="1.85728">
        <ele>58</ele>
        <time>2019-08-11T08:07:02Z</time>
      </trkpt>
      <trkpt lat="50.4596" lon="1.85737">
        <ele>58</ele>
        <time>2019-08-11T08:07:05Z</time>
      </trkpt>
      <trkpt lat="50.45964" lon="1.85743">
        <ele>58</ele>
        <time>2019-08-11T08:07:07Z</time>
      </trkpt>
      <trkpt lat="50.45968" lon="1.8575">
        <ele>58</ele>
        <time>2019-08-11T08:07:09Z</time>
      </trkpt>
      <trkpt lat="50.45973" lon="1.85758">
        <ele>59</ele>
        <time>2019-08-11T08:07:11Z</time>
      </trkpt>
      <trkpt lat="50.45979" lon="1.85772">
        <ele>59</ele>
        <time>2019-08-11T08:07:14Z</time>
      </trkpt>
      <trkpt lat="50.45986" lon="1.85787">
        <ele>59</ele>
        <time>2019-08-11T08:07:17Z</time>
      </trkpt>
      <trkpt lat="50.45992" lon="1.85801">
        <ele>59</ele>
        <time>2019-08-11T08:07:20Z</time>
      </trkpt>
      <trkpt lat="50.46" lon="1.85817">
        <ele>59</ele>
        <time>2019-08-11T08:07:23Z</time>
      </trkpt>
      <trkpt lat="50.46007" lon="1.85832">
        <ele>59</ele>
        <time>2019-08-11T08:07:26Z</time>
      </trkpt>
      <trkpt lat="50.46014" lon="1.85848">
        <ele>60</ele>
        <time>2019-08-11T08:07:29Z</time>
      </trkpt>
      <trkpt lat="50.46019" lon="1.8586">
        <ele>60</ele>
        <time>2019-08-11T08:07:31Z</time>
      </trkpt>
      <trkpt lat="50.46027" lon="1.85877">
        <ele>60</ele>
        <time>2019-08-11T08:07:34Z</time>
      </trkpt>
      <trkpt lat="50.46035" lon="1.85894">
        <ele>61</ele>
        <time>2019-08-11T08:07:37Z</time>
      </trkpt>
      <trkpt lat="50.4604" lon="1.85905">
        <ele>61</ele>
        <time>2019-08-11T08:07:39Z</time>
      </trkpt>
      <trkpt lat="50.46048" lon="1.85923">
        <ele>61</ele>
        <time>2019-08-11T08:07:42Z</time>
      </trkpt>
      <trkpt lat="50.46053" lon="1.85935">
        <ele>61</ele>
        <time>2019-08-11T08:07:44Z</time>
      </trkpt>
      <trkpt lat="50.46062" lon="1.85953">
        <ele>61</ele>
        <time>2019-08-11T08:07:47Z</time>
      </trkpt>
      <trkpt lat="50.46071" lon="1.85971">
        <ele>61</ele>
        <time>2019-08-11T08:07:50Z</time>
      </trkpt>
      <trkpt lat="50.46079" lon="1.8599">
        <ele>62</ele>
        <time>2019-08-11T08:07:53Z</time>
      </trkpt>
      <trkpt lat="50.46088" lon="1.86009">
        <ele>62</ele>
        <time>2019-08-11T08:07:56Z</time>
      </trkpt>
      <trkpt lat="50.46093" lon="1.86021">
        <ele>62</ele>
        <time>2019-08-11T08:07:58Z</time>
      </trkpt>
      <trkpt lat="50.46101" lon="1.8604">
        <ele>62</ele>
        <time>2019-08-11T08:08:01Z</time>
      </trkpt>
      <trkpt lat="50.46107" lon="1.86052">
        <ele>62</ele>
        <time>2019-08-11T08:08:03Z</time>
      </trkpt>
      <trkpt lat="50.46116" lon="1.86072">
        <ele>63</ele>
        <time>2019-08-11T08:08:06Z</time>
      </trkpt>
      <trkpt lat="50.46122" lon="1.86084">
        <ele>63</ele>
        <time>2019-08-11T08:08:08Z</time>
      </trkpt>
      <trkpt lat="50.46128" lon="1.86098">
        <ele>63</ele>
        <time>2019-08-11T08:08:10Z</time>
      </trkpt>
      <trkpt lat="50.46135" lon="1.8611">
        <ele>63</ele>
        <time>2019-08-11T08:08:12Z</time>
      </trkpt>
      <trkpt lat="50.46144" lon="1.8613">
        <ele>63</ele>
        <time>2019-08-11T08:08:15Z</time>
      </trkpt>
      <trkpt lat="50.46153" lon="1.8615">
        <ele>63</ele>
        <time>2019-08-11T08:08:18Z</time>
      </trkpt>
      <trkpt lat="50.46162" lon="1.8617">
        <ele>64</ele>
        <time>2019-08-11T08:08:21Z</time>
      </trkpt>
      <trkpt lat="50.46169" lon="1.86183">
        <ele>64</ele>
        <time>2019-08-11T08:08:23Z</time>
      </trkpt>
      <trkpt lat="50.46177" lon="1.86202">
        <ele>64</ele>
        <time>2019-08-11T08:08:26Z</time>
      </trkpt>
      <trkpt lat="50.46186" lon="1.86221">
        <ele>64</ele>
        <time>2019-08-11T08:08:29Z</time>
      </trkpt>
      <trkpt lat="50.46195" lon="1.86241">
        <ele>64</ele>
        <time>2019-08-11T08:08:32Z</time>
      </trkpt>
      <trkpt lat="50.46201" lon="1.86254">
        <ele>64</ele>
        <time>2019-08-11T08:08:34Z</time>
      </trkpt>
      <trkpt lat="50.4621" lon="1.86275">
        <ele>64</ele>
        <time>2019-08-11T08:08:37Z</time>
      </trkpt>
      <trkpt lat="50.4622" lon="1.86295">
        <ele>64</ele>
        <time>2019-08-11T08:08:40Z</time>
      </trkpt>
      <trkpt lat="50.46229" lon="1.86315">
        <ele>64</ele>
        <time>2019-08-11T08:08:43Z</time>
      </trkpt>
      <trkpt lat="50.46235" lon="1.86328">
        <ele>64</ele>
        <time>2019-08-11T08:08:45Z</time>
      </trkpt>
      <trkpt lat="50.46244" lon="1.86348">
        <ele>64</ele>
        <time>2019-08-11T08:08:48Z</time>
      </trkpt>
      <trkpt lat="50.46253" lon="1.86367">
        <ele>65</ele>
        <time>2019-08-11T08:08:51Z</time>
      </trkpt>
      <trkpt lat="50.46258" lon="1.86378">
        <ele>65</ele>
        <time>2019-08-11T08:08:53Z</time>
      </trkpt>
      <trkpt lat="50.46263" lon="1.86388">
        <ele>65</ele>
        <time>2019-08-11T08:08:55Z</time>
      </trkpt>
      <trkpt lat="50.46269" lon="1.86403">
        <ele>65</ele>
        <time>2019-08-11T08:08:58Z</time>
      </trkpt>
      <trkpt lat="50.46274" lon="1.86417">
        <ele>65</ele>
        <time>2019-08-11T08:09:01Z</time>
      </trkpt>
      <trkpt lat="50.46278" lon="1.86425">
        <ele>65</ele>
        <time>2019-08-11T08:09:03Z</time>
      </trkpt>
      <trkpt lat="50.46289" lon="1.8643">
        <ele>64</ele>
        <time>2019-08-11T08:09:06Z</time>
      </trkpt>
      <trkpt lat="50.46296" lon="1.86433">
        <ele>64</ele>
        <time>2019-08-11T08:09:08Z</time>
      </trkpt>
      <trkpt lat="50.46305" lon="1.86436">
        <ele>64</ele>
        <time>2019-08-11T08:09:10Z</time>
      </trkpt>
      <trkpt lat="50.46319" lon="1.8644">
        <ele>64</ele>
        <time>2019-08-11T08:09:13Z</time>
      </trkpt>
      <trkpt lat="50.46329" lon="1.86442">
        <ele>64</ele>
        <time>2019-08-11T08:09:15Z</time>
      </trkpt>
      <trkpt lat="50.4634" lon="1.86445">
        <ele>64</ele>
        <time>2019-08-11T08:09:17Z</time>
      </trkpt>
      <trkpt lat="50.46351" lon="1.86448">
        <ele>64</ele>
        <time>2019-08-11T08:09:19Z</time>
      </trkpt>
      <trkpt lat="50.46363" lon="1.86452">
        <ele>64</ele>
        <time>2019-08-11T08:09:21Z</time>
      </trkpt>
      <trkpt lat="50.4638" lon="1.86459">
        <ele>63</ele>
        <time>2019-08-11T08:09:24Z</time>
      </trkpt>
      <trkpt lat="50.46392" lon="1.86467">
        <ele>63</ele>
        <time>2019-08-11T08:09:26Z</time>
      </trkpt>
      <trkpt lat="50.46411" lon="1.86482">
        <ele>62</ele>
        <time>2019-08-11T08:09:29Z</time>
      </trkpt>
      <trkpt lat="50.46433" lon="1.86498">
        <ele>61</ele>
        <time>2019-08-11T08:09:32Z</time>
      </trkpt>
      <trkpt lat="50.4645" lon="1.86505">
        <ele>61</ele>
        <time>2019-08-11T08:09:34Z</time>
      </trkpt>
      <trkpt lat="50.46476" lon="1.86512">
        <ele>60</ele>
        <time>2019-08-11T08:09:37Z</time>
      </trkpt>
      <trkpt lat="50.46494" lon="1.86515">
        <ele>59</ele>
        <time>2019-08-11T08:09:40Z</time>
      </trkpt>
      <trkpt lat="50.46519" lon="1.8652">
        <ele>58</ele>
        <time>2019-08-11T08:09:42Z</time>
      </trkpt>
      <trkpt lat="50.46534" lon="1.86522">
        <ele>58</ele>
        <time>2019-08-11T08:09:44Z</time>
      </trkpt>
      <trkpt lat="50.46556" lon="1.86527">
        <ele>58</ele>
        <time>2019-08-11T08:09:47Z</time>
      </trkpt>
      <trkpt lat="50.46577" lon="1.86531">
        <ele>57</ele>
        <time>2019-08-11T08:09:50Z</time>
      </trkpt>
      <trkpt lat="50.46598" lon="1.86536">
        <ele>57</ele>
        <time>2019-08-11T08:09:53Z</time>
      </trkpt>
      <trkpt lat="50.46613" lon="1.86539">
        <ele>57</ele>
        <time>2019-08-11T08:09:55Z</time>
      </trkpt>
      <trkpt lat="50.46635" lon="1.86547">
        <ele>57</ele>
        <time>2019-08-11T08:09:58Z</time>
      </trkpt>
      <trkpt lat="50.46658" lon="1.86557">
        <ele>56</ele>
        <time>2019-08-11T08:10:01Z</time>
      </trkpt>
      <trkpt lat="50.46679" lon="1.86572">
        <ele>56</ele>
        <time>2019-08-11T08:10:04Z</time>
      </trkpt>
      <trkpt lat="50.467" lon="1.86589">
        <ele>56</ele>
        <time>2019-08-11T08:10:07Z</time>
      </trkpt>
      <trkpt lat="50.4672" lon="1.86602">
        <ele>56</ele>
        <time>2019-08-11T08:10:10Z</time>
      </trkpt>
      <trkpt lat="50.46735" lon="1.86603">
        <ele>56</ele>
        <time>2019-08-11T08:10:12Z</time>
      </trkpt>
      <trkpt lat="50.46755" lon="1.86597">
        <ele>56</ele>
        <time>2019-08-11T08:10:15Z</time>
      </trkpt>
      <trkpt lat="50.46773" lon="1.86589">
        <ele>57</ele>
        <time>2019-08-11T08:10:18Z</time>
      </trkpt>
      <trkpt lat="50.46783" lon="1.86584">
        <ele>57</ele>
        <time>2019-08-11T08:10:20Z</time>
      </trkpt>
      <trkpt lat="50.468" lon="1.86578">
        <ele>58</ele>
        <time>2019-08-11T08:10:23Z</time>
      </trkpt>
      <trkpt lat="50.46811" lon="1.86575">
        <ele>58</ele>
        <time>2019-08-11T08:10:25Z</time>
      </trkpt>
      <trkpt lat="50.46823" lon="1.8657">
        <ele>57</ele>
        <time>2019-08-11T08:10:27Z</time>
      </trkpt>
      <trkpt lat="50.46842" lon="1.86563">
        <ele>57</ele>
        <time>2019-08-11T08:10:30Z</time>
      </trkpt>
      <trkpt lat="50.46856" lon="1.86556">
        <ele>56</ele>
        <time>2019-08-11T08:10:32Z</time>
      </trkpt>
      <trkpt lat="50.46878" lon="1.86541">
        <ele>55</ele>
        <time>2019-08-11T08:10:35Z</time>
      </trkpt>
      <trkpt lat="50.46902" lon="1.86521">
        <ele>53</ele>
        <time>2019-08-11T08:10:38Z</time>
      </trkpt>
      <trkpt lat="50.46929" lon="1.86497">
        <ele>51</ele>
        <time>2019-08-11T08:10:41Z</time>
      </trkpt>
      <trkpt lat="50.4696" lon="1.86469">
        <ele>48</ele>
        <time>2019-08-11T08:10:44Z</time>
      </trkpt>
      <trkpt lat="50.46993" lon="1.86441">
        <ele>44</ele>
        <time>2019-08-11T08:10:47Z</time>
      </trkpt>
      <trkpt lat="50.47024" lon="1.86409">
        <ele>42</ele>
        <time>2019-08-11T08:10:50Z</time>
      </trkpt>
      <trkpt lat="50.47044" lon="1.86384">
        <ele>39</ele>
        <time>2019-08-11T08:10:52Z</time>
      </trkpt>
      <trkpt lat="50.47071" lon="1.86338">
        <ele>36</ele>
        <time>2019-08-11T08:10:55Z</time>
      </trkpt>
      <trkpt lat="50.47088" lon="1.86305">
        <ele>34</ele>
        <time>2019-08-11T08:10:57Z</time>
      </trkpt>
      <trkpt lat="50.47105" lon="1.86272">
        <ele>33</ele>
        <time>2019-08-11T08:10:59Z</time>
      </trkpt>
      <trkpt lat="50.4713" lon="1.86222">
        <ele>31</ele>
        <time>2019-08-11T08:11:02Z</time>
      </trkpt>
      <trkpt lat="50.47145" lon="1.86189">
        <ele>27</ele>
        <time>2019-08-11T08:11:04Z</time>
      </trkpt>
      <trkpt lat="50.4716" lon="1.86159">
        <ele>23</ele>
        <time>2019-08-11T08:11:06Z</time>
      </trkpt>
      <trkpt lat="50.47174" lon="1.8613">
        <ele>21</ele>
        <time>2019-08-11T08:11:08Z</time>
      </trkpt>
      <trkpt lat="50.47194" lon="1.86089">
        <ele>19</ele>
        <time>2019-08-11T08:11:11Z</time>
      </trkpt>
      <trkpt lat="50.47206" lon="1.86064">
        <ele>17</ele>
        <time>2019-08-11T08:11:13Z</time>
      </trkpt>
      <trkpt lat="50.47224" lon="1.86027">
        <ele>15</ele>
        <time>2019-08-11T08:11:16Z</time>
      </trkpt>
      <trkpt lat="50.4724" lon="1.85992">
        <ele>13</ele>
        <time>2019-08-11T08:11:19Z</time>
      </trkpt>
      <trkpt lat="50.47251" lon="1.8597">
        <ele>12</ele>
        <time>2019-08-11T08:11:21Z</time>
      </trkpt>
      <trkpt lat="50.47263" lon="1.85949">
        <ele>12</ele>
        <time>2019-08-11T08:11:23Z</time>
      </trkpt>
      <trkpt lat="50.47281" lon="1.8592">
        <ele>10</ele>
        <time>2019-08-11T08:11:26Z</time>
      </trkpt>
      <trkpt lat="50.47299" lon="1.85891">
        <ele>9</ele>
        <time>2019-08-11T08:11:29Z</time>
      </trkpt>
      <trkpt lat="50.47313" lon="1.85873">
        <ele>8</ele>
        <time>2019-08-11T08:11:31Z</time>
      </trkpt>
      <trkpt lat="50.47336" lon="1.85845">
        <ele>8</ele>
        <time>2019-08-11T08:11:34Z</time>
      </trkpt>
      <trkpt lat="50.47349" lon="1.85821">
        <ele>7</ele>
        <time>2019-08-11T08:11:36Z</time>
      </trkpt>
      <trkpt lat="50.47363" lon="1.8579">
        <ele>5</ele>
        <time>2019-08-11T08:11:39Z</time>
      </trkpt>
      <trkpt lat="50.47369" lon="1.85776">
        <ele>3</ele>
        <time>2019-08-11T08:11:41Z</time>
      </trkpt>
      <trkpt lat="50.47373" lon="1.8577">
        <ele>2</ele>
        <time>2019-08-11T08:11:43Z</time>
      </trkpt>
      <trkpt lat="50.47378" lon="1.85768">
        <ele>2</ele>
        <time>2019-08-11T08:11:46Z</time>
      </trkpt>
      <trkpt lat="50.47382" lon="1.85766">
        <ele>1</ele>
        <time>2019-08-11T08:11:48Z</time>
      </trkpt>
      <trkpt lat="50.47386" lon="1.85761">
        <ele>1</ele>
        <time>2019-08-11T08:11:50Z</time>
      </trkpt>
      <trkpt lat="50.47391" lon="1.85754">
        <ele>1</ele>
        <time>2019-08-11T08:11:52Z</time>
      </trkpt>
      <trkpt lat="50.47396" lon="1.85744">
        <ele>25.9</ele>
        <time>2019-08-11T08:11:54Z</time>
      </trkpt>
      <trkpt lat="50.47404" lon="1.85733">
        <ele>24.9</ele>
        <time>2019-08-11T08:11:56Z</time>
      </trkpt>
      <trkpt lat="50.47413" lon="1.85724">
        <ele>23.5</ele>
        <time>2019-08-11T08:11:58Z</time>
      </trkpt>
      <trkpt lat="50.47425" lon="1.85724">
        <ele>22.9</ele>
        <time>2019-08-11T08:12:00Z</time>
      </trkpt>
      <trkpt lat="50.47446" lon="1.85719">
        <ele>21.9</ele>
        <time>2019-08-11T08:12:03Z</time>
      </trkpt>
      <trkpt lat="50.47463" lon="1.8571">
        <ele>-2</ele>
        <time>2019-08-11T08:12:06Z</time>
      </trkpt>
      <trkpt lat="50.47472" lon="1.85691">
        <ele>-3</ele>
        <time>2019-08-11T08:12:09Z</time>
      </trkpt>
      <trkpt lat="50.47483" lon="1.85684">
        <ele>-3</ele>
        <time>2019-08-11T08:12:12Z</time>
      </trkpt>
      <trkpt lat="50.47494" lon="1.85695">
        <ele>-4</ele>
        <time>2019-08-11T08:12:15Z</time>
      </trkpt>
      <trkpt lat="50.47506" lon="1.85703">
        <ele>-4</ele>
        <time>2019-08-11T08:12:18Z</time>
      </trkpt>
      <trkpt lat="50.47515" lon="1.85705">
        <ele>-4</ele>
        <time>2019-08-11T08:12:20Z</time>
      </trkpt>
      <trkpt lat="50.47528" lon="1.85704">
        <ele>-3</ele>
        <time>2019-08-11T08:12:23Z</time>
      </trkpt>
      <trkpt lat="50.47537" lon="1.85702">
        <ele>-3</ele>
        <time>2019-08-11T08:12:25Z</time>
      </trkpt>
      <trkpt lat="50.47551" lon="1.85699">
        <ele>-3</ele>
        <time>2019-08-11T08:12:28Z</time>
      </trkpt>
      <trkpt lat="50.47566" lon="1.85699">
        <ele>-4</ele>
        <time>2019-08-11T08:12:31Z</time>
      </trkpt>
      <trkpt lat="50.47575" lon="1.85703">
        <ele>-4</ele>
        <time>2019-08-11T08:12:33Z</time>
      </trkpt>
      <trkpt lat="50.47587" lon="1.85714">
        <ele>-4</ele>
        <time>2019-08-11T08:12:36Z</time>
      </trkpt>
      <trkpt lat="50.47599" lon="1.85724">
        <ele>-4</ele>
        <time>2019-08-11T08:12:39Z</time>
      </trkpt>
      <trkpt lat="50.47612" lon="1.85733">
        <ele>-4</ele>
        <time>2019-08-11T08:12:42Z</time>
      </trkpt>
      <trkpt lat="50.47624" lon="1.85742">
        <ele>-4</ele>
        <time>2019-08-11T08:12:45Z</time>
      </trkpt>
      <trkpt lat="50.47633" lon="1.85749">
        <ele>-4</ele>
        <time>2019-08-11T08:12:47Z</time>
      </trkpt>
      <trkpt lat="50.47644" lon="1.85759">
        <ele>-4</ele>
        <time>2019-08-11T08:12:50Z</time>
      </trkpt>
      <trkpt lat="50.4765" lon="1.85766">
        <ele>-4</ele>
        <time>2019-08-11T08:12:52Z</time>
      </trkpt>
      <trkpt lat="50.47656" lon="1.85772">
        <ele>-4</ele>
        <time>2019-08-11T08:12:54Z</time>
      </trkpt>
      <trkpt lat="50.47666" lon="1.85781">
        <ele>-4</ele>
        <time>2019-08-11T08:12:57Z</time>
      </trkpt>
      <trkpt lat="50.47674" lon="1.85785">
        <ele>-3</ele>
        <time>2019-08-11T08:12:59Z</time>
      </trkpt>
      <trkpt lat="50.47686" lon="1.85793">
        <ele>-3</ele>
        <time>2019-08-11T08:13:02Z</time>
      </trkpt>
      <trkpt lat="50.47698" lon="1.85803">
        <ele>-3</ele>
        <time>2019-08-11T08:13:05Z</time>
      </trkpt>
      <trkpt lat="50.47706" lon="1.8581">
        <ele>-3</ele>
        <time>2019-08-11T08:13:07Z</time>
      </trkpt>
      <trkpt lat="50.47719" lon="1.85821">
        <ele>-3</ele>
        <time>2019-08-11T08:13:10Z</time>
      </trkpt>
      <trkpt lat="50.47727" lon="1.85828">
        <ele>-3</ele>
        <time>2019-08-11T08:13:12Z</time>
      </trkpt>
      <trkpt lat="50.47739" lon="1.85839">
        <ele>-3</ele>
        <time>2019-08-11T08:13:15Z</time>
      </trkpt>
      <trkpt lat="50.47752" lon="1.85852">
        <ele>-3</ele>
        <time>2019-08-11T08:13:18Z</time>
      </trkpt>
      <trkpt lat="50.47763" lon="1.85865">
        <ele>-3</ele>
        <time>2019-08-11T08:13:21Z</time>
      </trkpt>
      <trkpt lat="50.47773" lon="1.85878">
        <ele>-3</ele>
        <time>2019-08-11T08:13:24Z</time>
      </trkpt>
      <trkpt lat="50.47784" lon="1.85891">
        <ele>-3</ele>
        <time>2019-08-11T08:13:27Z</time>
      </trkpt>
      <trkpt lat="50.4779" lon="1.859">
        <ele>-3</ele>
        <time>2019-08-11T08:13:29Z</time>
      </trkpt>
      <trkpt lat="50.478" lon="1.85912">
        <ele>-3</ele>
        <time>2019-08-11T08:13:32Z</time>
      </trkpt>
      <trkpt lat="50.47806" lon="1.85919">
        <ele>-3</ele>
        <time>2019-08-11T08:13:34Z</time>
      </trkpt>
      <trkpt lat="50.47812" lon="1.8592">
        <ele>-3</ele>
        <time>2019-08-11T08:13:36Z</time>
      </trkpt>
      <trkpt lat="50.47821" lon="1.85924">
        <ele>-3</ele>
        <time>2019-08-11T08:13:39Z</time>
      </trkpt>
      <trkpt lat="50.47827" lon="1.85931">
        <ele>-2</ele>
        <time>2019-08-11T08:13:41Z</time>
      </trkpt>
      <trkpt lat="50.47831" lon="1.85941">
        <ele>-2</ele>
        <time>2019-08-11T08:13:43Z</time>
      </trkpt>
      <trkpt lat="50.47834" lon="1.85952">
        <ele>-2</ele>
        <time>2019-08-11T08:13:45Z</time>
      </trkpt>
      <trkpt lat="50.47837" lon="1.85964">
        <ele>-2</ele>
        <time>2019-08-11T08:13:47Z</time>
      </trkpt>
      <trkpt lat="50.47837" lon="1.85977">
        <ele>-2</ele>
        <time>2019-08-11T08:13:49Z</time>
      </trkpt>
      <trkpt lat="50.47834" lon="1.85995">
        <ele>-2</ele>
        <time>2019-08-11T08:13:52Z</time>
      </trkpt>
      <trkpt lat="50.47831" lon="1.86015">
        <ele>-2</ele>
        <time>2019-08-11T08:13:55Z</time>
      </trkpt>
      <trkpt lat="50.47833" lon="1.86028">
        <ele>-2</ele>
        <time>2019-08-11T08:13:57Z</time>
      </trkpt>
      <trkpt lat="50.47839" lon="1.86045">
        <ele>-2</ele>
        <time>2019-08-11T08:14:00Z</time>
      </trkpt>
      <trkpt lat="50.47843" lon="1.86058">
        <ele>-2</ele>
        <time>2019-08-11T08:14:02Z</time>
      </trkpt>
      <trkpt lat="50.47849" lon="1.86077">
        <ele>-2</ele>
        <time>2019-08-11T08:14:05Z</time>
      </trkpt>
      <trkpt lat="50.47854" lon="1.8609">
        <ele>-2</ele>
        <time>2019-08-11T08:14:07Z</time>
      </trkpt>
      <trkpt lat="50.47859" lon="1.86101">
        <ele>-2</ele>
        <time>2019-08-11T08:14:09Z</time>
      </trkpt>
      <trkpt lat="50.47864" lon="1.86113">
        <ele>-2</ele>
        <time>2019-08-11T08:14:11Z</time>
      </trkpt>
      <trkpt lat="50.47869" lon="1.86124">
        <ele>-2</ele>
        <time>2019-08-11T08:14:13Z</time>
      </trkpt>
      <trkpt lat="50.47876" lon="1.8614">
        <ele>-2</ele>
        <time>2019-08-11T08:14:16Z</time>
      </trkpt>
      <trkpt lat="50.4788" lon="1.86151">
        <ele>-1</ele>
        <time>2019-08-11T08:14:18Z</time>
      </trkpt>
      <trkpt lat="50.47885" lon="1.86168">
        <ele>-1</ele>
        <time>2019-08-11T08:14:21Z</time>
      </trkpt>
      <trkpt lat="50.47891" lon="1.86183">
        <ele>-1</ele>
        <time>2019-08-11T08:14:24Z</time>
      </trkpt>
      <trkpt lat="50.47895" lon="1.86191">
        <ele>-1</ele>
        <time>2019-08-11T08:14:26Z</time>
      </trkpt>
      <trkpt lat="50.47901" lon="1.86201">
        <ele>-1</ele>
        <time>2019-08-11T08:14:29Z</time>
      </trkpt>
      <trkpt lat="50.47908" lon="1.86212">
        <ele>-1</ele>
        <time>2019-08-11T08:14:32Z</time>
      </trkpt>
      <trkpt lat="50.47912" lon="1.86219">
        <ele>24</ele>
        <time>2019-08-11T08:14:34Z</time>
      </trkpt>
      <trkpt lat="50.47919" lon="1.86227">
        <ele>24.3</ele>
        <time>2019-08-11T08:14:37Z</time>
      </trkpt>
      <trkpt lat="50.47924" lon="1.86232">
        <ele>24.5</ele>
        <time>2019-08-11T08:14:39Z</time>
      </trkpt>
      <trkpt lat="50.47932" lon="1.86239">
        <ele>24.8</ele>
        <time>2019-08-11T08:14:42Z</time>
      </trkpt>
      <trkpt lat="50.47938" lon="1.86242">
        <ele>24.9</ele>
        <time>2019-08-11T08:14:44Z</time>
      </trkpt>
      <trkpt lat="50.47946" lon="1.86246">
        <ele>25</ele>
        <time>2019-08-11T08:14:47Z</time>
      </trkpt>
      <trkpt lat="50.47952" lon="1.86249">
        <ele>25</ele>
        <time>2019-08-11T08:14:49Z</time>
      </trkpt>
      <trkpt lat="50.4796" lon="1.86252">
        <ele>25</ele>
        <time>2019-08-11T08:14:52Z</time>
      </trkpt>
      <trkpt lat="50.47965" lon="1.86257">
        <ele>-1</ele>
        <time>2019-08-11T08:14:54Z</time>
      </trkpt>
      <trkpt lat="50.47974" lon="1.86261">
        <ele>25</ele>
        <time>2019-08-11T08:14:57Z</time>
      </trkpt>
      <trkpt lat="50.47984" lon="1.86265">
        <ele>25</ele>
        <time>2019-08-11T08:15:00Z</time>
      </trkpt>
      <trkpt lat="50.47989" lon="1.86264">
        <ele>25</ele>
        <time>2019-08-11T08:15:02Z</time>
      </trkpt>
      <trkpt lat="50.47994" lon="1.86261">
        <ele>25</ele>
        <time>2019-08-11T08:15:04Z</time>
      </trkpt>
      <trkpt lat="50.48" lon="1.86256">
        <ele>25</ele>
        <time>2019-08-11T08:15:07Z</time>
      </trkpt>
      <trkpt lat="50.48003" lon="1.86252">
        <ele>25.1</ele>
        <time>2019-08-11T08:15:09Z</time>
      </trkpt>
      <trkpt lat="50.48006" lon="1.86247">
        <ele>25.2</ele>
        <time>2019-08-11T08:15:11Z</time>
      </trkpt>
      <trkpt lat="50.48009" lon="1.86242">
        <ele>25.3</ele>
        <time>2019-08-11T08:15:14Z</time>
      </trkpt>
      <trkpt lat="50.48011" lon="1.8624">
        <ele>25.4</ele>
        <time>2019-08-11T08:15:16Z</time>
      </trkpt>
      <trkpt lat="50.48015" lon="1.86234">
        <ele>25.5</ele>
        <time>2019-08-11T08:15:19Z</time>
      </trkpt>
      <trkpt lat="50.48016" lon="1.86231">
        <ele>25.6</ele>
        <time>2019-08-11T08:15:21Z</time>
      </trkpt>
      <trkpt lat="50.48018" lon="1.86229">
        <ele>25.7</ele>
        <time>2019-08-11T08:15:24Z</time>
      </trkpt>
      <trkpt lat="50.48021" lon="1.86225">
        <ele>25.8</ele>
        <time>2019-08-11T08:15:27Z</time>
      </trkpt>
      <trkpt lat="50.48024" lon="1.8622">
        <ele>25.9</ele>
        <time>2019-08-11T08:15:29Z</time>
      </trkpt>
      <trkpt lat="50.48027" lon="1.86215">
        <ele>26</ele>
        <time>2019-08-11T08:15:31Z</time>
      </trkpt>
      <trkpt lat="50.48032" lon="1.86206">
        <ele>26.2</ele>
        <time>2019-08-11T08:15:34Z</time>
      </trkpt>
      <trkpt lat="50.48037" lon="1.86197">
        <ele>26.3</ele>
        <time>2019-08-11T08:15:37Z</time>
      </trkpt>
      <trkpt lat="50.48041" lon="1.86191">
        <ele>26.6</ele>
        <time>2019-08-11T08:15:39Z</time>
      </trkpt>
      <trkpt lat="50.48048" lon="1.86185">
        <ele>27.1</ele>
        <time>2019-08-11T08:15:42Z</time>
      </trkpt>
      <trkpt lat="50.48052" lon="1.86186">
        <ele>27.2</ele>
        <time>2019-08-11T08:15:45Z</time>
      </trkpt>
      <trkpt lat="50.48056" lon="1.86191">
        <ele>27.1</ele>
        <time>2019-08-11T08:15:48Z</time>
      </trkpt>
      <trkpt lat="50.48059" lon="1.86195">
        <ele>27.1</ele>
        <time>2019-08-11T08:15:50Z</time>
      </trkpt>
      <trkpt lat="50.48064" lon="1.86202">
        <ele>27.2</ele>
        <time>2019-08-11T08:15:53Z</time>
      </trkpt>
      <trkpt lat="50.48068" lon="1.86205">
        <ele>27.3</ele>
        <time>2019-08-11T08:15:55Z</time>
      </trkpt>
      <trkpt lat="50.48073" lon="1.86213">
        <ele>27.2</ele>
        <time>2019-08-11T08:15:58Z</time>
      </trkpt>
      <trkpt lat="50.48076" lon="1.86217">
        <ele>27.1</ele>
        <time>2019-08-11T08:16:00Z</time>
      </trkpt>
      <trkpt lat="50.48079" lon="1.86223">
        <ele>27</ele>
        <time>2019-08-11T08:16:02Z</time>
      </trkpt>
      <trkpt lat="50.48082" lon="1.86228">
        <ele>27</ele>
        <time>2019-08-11T08:16:05Z</time>
      </trkpt>
      <trkpt lat="50.48083" lon="1.86229">
        <ele>27</ele>
        <time>2019-08-11T08:16:07Z</time>
      </trkpt>
      <trkpt lat="50.48086" lon="1.86232">
        <ele>27.2</ele>
        <time>2019-08-11T08:16:10Z</time>
      </trkpt>
      <trkpt lat="50.48089" lon="1.86236">
        <ele>27.5</ele>
        <time>2019-08-11T08:16:13Z</time>
      </trkpt>
      <trkpt lat="50.4809" lon="1.86237">
        <ele>27.6</ele>
        <time>2019-08-11T08:16:15Z</time>
      </trkpt>
      <trkpt lat="50.48092" lon="1.86239">
        <ele>1</ele>
        <time>2019-08-11T08:16:18Z</time>
      </trkpt>
      <trkpt lat="50.48094" lon="1.86241">
        <ele>1</ele>
        <time>2019-08-11T08:16:21Z</time>
      </trkpt>
      <trkpt lat="50.48097" lon="1.86244">
        <ele>1</ele>
        <time>2019-08-11T08:16:24Z</time>
      </trkpt>
      <trkpt lat="50.48099" lon="1.86246">
        <ele>1</ele>
        <time>2019-08-11T08:16:26Z</time>
      </trkpt>
      <trkpt lat="50.48102" lon="1.86253">
        <ele>1</ele>
        <time>2019-08-11T08:16:29Z</time>
      </trkpt>
      <trkpt lat="50.48106" lon="1.86259">
        <ele>1</ele>
        <time>2019-08-11T08:16:32Z</time>
      </trkpt>
      <trkpt lat="50.48109" lon="1.86264">
        <ele>1</ele>
        <time>2019-08-11T08:16:35Z</time>
      </trkpt>
      <trkpt lat="50.48113" lon="1.86268">
        <ele>1</ele>
        <time>2019-08-11T08:16:38Z</time>
      </trkpt>
      <trkpt lat="50.48115" lon="1.86271">
        <ele>1</ele>
        <time>2019-08-11T08:16:40Z</time>
      </trkpt>
      <trkpt lat="50.48119" lon="1.86275">
        <ele>1</ele>
        <time>2019-08-11T08:16:43Z</time>
      </trkpt>
      <trkpt lat="50.48121" lon="1.86276">
        <ele>1</ele>
        <time>2019-08-11T08:16:45Z</time>
      </trkpt>
      <trkpt lat="50.48125" lon="1.8628">
        <ele>2</ele>
        <time>2019-08-11T08:16:48Z</time>
      </trkpt>
      <trkpt lat="50.48127" lon="1.86283">
        <ele>2</ele>
        <time>2019-08-11T08:16:50Z</time>
      </trkpt>
      <trkpt lat="50.4813" lon="1.86291">
        <ele>2</ele>
        <time>2019-08-11T08:16:53Z</time>
      </trkpt>
      <trkpt lat="50.48133" lon="1.86299">
        <ele>3</ele>
        <time>2019-08-11T08:16:56Z</time>
      </trkpt>
      <trkpt lat="50.48135" lon="1.86302">
        <ele>3</ele>
        <time>2019-08-11T08:16:58Z</time>
      </trkpt>
      <trkpt lat="50.48137" lon="1.86305">
        <ele>3</ele>
        <time>2019-08-11T08:17:00Z</time>
      </trkpt>
      <trkpt lat="50.48139" lon="1.86308">
        <ele>3</ele>
        <time>2019-08-11T08:17:03Z</time>
      </trkpt>
      <trkpt lat="50.48141" lon="1.86312">
        <ele>3</ele>
        <time>2019-08-11T08:17:06Z</time>
      </trkpt>
      <trkpt lat="50.48141" lon="1.86313">
        <ele>3</ele>
        <time>2019-08-11T08:17:08Z</time>
      </trkpt>
      <trkpt lat="50.48143" lon="1.86316">
        <ele>3</ele>
        <time>2019-08-11T08:17:11Z</time>
      </trkpt>
      <trkpt lat="50.48144" lon="1.86317">
        <ele>3</ele>
        <time>2019-08-11T08:17:13Z</time>
      </trkpt>
      <trkpt lat="50.48146" lon="1.86319">
        <ele>3</ele>
        <time>2019-08-11T08:17:16Z</time>
      </trkpt>
      <trkpt lat="50.48147" lon="1.86322">
        <ele>3</ele>
        <time>2019-08-11T08:17:18Z</time>
      </trkpt>
      <trkpt lat="50.48148" lon="1.86324">
        <ele>3</ele>
        <time>2019-08-11T08:17:20Z</time>
      </trkpt>
      <trkpt lat="50.48149" lon="1.86326">
        <ele>3</ele>
        <time>2019-08-11T08:17:23Z</time>
      </trkpt>
      <trkpt lat="50.48151" lon="1.86328">
        <ele>3</ele>
        <time>2019-08-11T08:17:26Z</time>
      </trkpt>
      <trkpt lat="50.48152" lon="1.86331">
        <ele>3</ele>
        <time>2019-08-11T08:17:28Z</time>
      </trkpt>
      <trkpt lat="50.48155" lon="1.86337">
        <ele>3</ele>
        <time>2019-08-11T08:17:31Z</time>
      </trkpt>
      <trkpt lat="50.48156" lon="1.8634">
        <ele>3</ele>
        <time>2019-08-11T08:17:33Z</time>
      </trkpt>
      <trkpt lat="50.48161" lon="1.86345">
        <ele>3</ele>
        <time>2019-08-11T08:17:36Z</time>
      </trkpt>
      <trkpt lat="50.48163" lon="1.86349">
        <ele>3</ele>
        <time>2019-08-11T08:17:38Z</time>
      </trkpt>
      <trkpt lat="50.48165" lon="1.86352">
        <ele>3</ele>
        <time>2019-08-11T08:17:40Z</time>
      </trkpt>
      <trkpt lat="50.4817" lon="1.86359">
        <ele>3</ele>
        <time>2019-08-11T08:17:43Z</time>
      </trkpt>
      <trkpt lat="50.48176" lon="1.86366">
        <ele>4</ele>
        <time>2019-08-11T08:17:46Z</time>
      </trkpt>
      <trkpt lat="50.4818" lon="1.86371">
        <ele>4</ele>
        <time>2019-08-11T08:17:48Z</time>
      </trkpt>
      <trkpt lat="50.48185" lon="1.86376">
        <ele>4</ele>
        <time>2019-08-11T08:17:50Z</time>
      </trkpt>
      <trkpt lat="50.48188" lon="1.86381">
        <ele>4</ele>
        <time>2019-08-11T08:17:52Z</time>
      </trkpt>
      <trkpt lat="50.48193" lon="1.86386">
        <ele>4</ele>
        <time>2019-08-11T08:17:54Z</time>
      </trkpt>
      <trkpt lat="50.482" lon="1.86394">
        <ele>5</ele>
        <time>2019-08-11T08:17:57Z</time>
      </trkpt>
      <trkpt lat="50.48205" lon="1.86393">
        <ele>6</ele>
        <time>2019-08-11T08:17:59Z</time>
      </trkpt>
      <trkpt lat="50.48211" lon="1.86391">
        <ele>6</ele>
        <time>2019-08-11T08:18:02Z</time>
      </trkpt>
      <trkpt lat="50.48215" lon="1.86388">
        <ele>7</ele>
        <time>2019-08-11T08:18:04Z</time>
      </trkpt>
      <trkpt lat="50.48219" lon="1.86385">
        <ele>7</ele>
        <time>2019-08-11T08:18:06Z</time>
      </trkpt>
      <trkpt lat="50.48222" lon="1.86381">
        <ele>7</ele>
        <time>2019-08-11T08:18:08Z</time>
      </trkpt>
      <trkpt lat="50.48226" lon="1.86378">
        <ele>7</ele>
        <time>2019-08-11T08:18:10Z</time>
      </trkpt>
      <trkpt lat="50.48232" lon="1.86373">
        <ele>8</ele>
        <time>2019-08-11T08:18:13Z</time>
      </trkpt>
      <trkpt lat="50.48235" lon="1.8637">
        <ele>8</ele>
        <time>2019-08-11T08:18:15Z</time>
      </trkpt>
      <trkpt lat="50.4824" lon="1.86366">
        <ele>8</ele>
        <time>2019-08-11T08:18:18Z</time>
      </trkpt>
      <trkpt lat="50.48244" lon="1.86362">
        <ele>8</ele>
        <time>2019-08-11T08:18:21Z</time>
      </trkpt>
      <trkpt lat="50.48249" lon="1.86357">
        <ele>8</ele>
        <time>2019-08-11T08:18:24Z</time>
      </trkpt>
      <trkpt lat="50.48254" lon="1.86353">
        <ele>9</ele>
        <time>2019-08-11T08:18:27Z</time>
      </trkpt>
      <trkpt lat="50.48258" lon="1.86348">
        <ele>9</ele>
        <time>2019-08-11T08:18:30Z</time>
      </trkpt>
      <trkpt lat="50.48261" lon="1.86345">
        <ele>10</ele>
        <time>2019-08-11T08:18:32Z</time>
      </trkpt>
      <trkpt lat="50.48266" lon="1.8634">
        <ele>10</ele>
        <time>2019-08-11T08:18:35Z</time>
      </trkpt>
      <trkpt lat="50.48269" lon="1.86337">
        <ele>10</ele>
        <time>2019-08-11T08:18:37Z</time>
      </trkpt>
      <trkpt lat="50.48273" lon="1.86332">
        <ele>11</ele>
        <time>2019-08-11T08:18:40Z</time>
      </trkpt>
      <trkpt lat="50.48278" lon="1.86327">
        <ele>11</ele>
        <time>2019-08-11T08:18:43Z</time>
      </trkpt>
      <trkpt lat="50.4828" lon="1.86324">
        <ele>11</ele>
        <time>2019-08-11T08:18:45Z</time>
      </trkpt>
      <trkpt lat="50.48283" lon="1.8632">
        <ele>12</ele>
        <time>2019-08-11T08:18:47Z</time>
      </trkpt>
      <trkpt lat="50.48288" lon="1.86315">
        <ele>12</ele>
        <time>2019-08-11T08:18:50Z</time>
      </trkpt>
      <trkpt lat="50.48291" lon="1.86312">
        <ele>12</ele>
        <time>2019-08-11T08:18:52Z</time>
      </trkpt>
      <trkpt lat="50.48295" lon="1.86308">
        <ele>12</ele>
        <time>2019-08-11T08:18:55Z</time>
      </trkpt>
      <trkpt lat="50.483" lon="1.86303">
        <ele>12</ele>
        <time>2019-08-11T08:18:58Z</time>
      </trkpt>
      <trkpt lat="50.48303" lon="1.863">
        <ele>13</ele>
        <time>2019-08-11T08:19:00Z</time>
      </trkpt>
      <trkpt lat="50.48305" lon="1.86297">
        <ele>12</ele>
        <time>2019-08-11T08:19:02Z</time>
      </trkpt>
      <trkpt lat="50.48306" lon="1.86296">
        <ele>12</ele>
        <time>2019-08-11T08:19:05Z</time>
      </trkpt>
      <trkpt lat="50.48308" lon="1.86297">
        <ele>13</ele>
        <time>2019-08-11T08:19:08Z</time>
      </trkpt>
      <trkpt lat="50.48312" lon="1.86297">
        <ele>13</ele>
        <time>2019-08-11T08:19:11Z</time>
      </trkpt>
      <trkpt lat="50.48315" lon="1.86296">
        <ele>13</ele>
        <time>2019-08-11T08:19:13Z</time>
      </trkpt>
      <trkpt lat="50.48317" lon="1.86294">
        <ele>13</ele>
        <time>2019-08-11T08:19:15Z</time>
      </trkpt>
      <trkpt lat="50.4832" lon="1.86291">
        <ele>13</ele>
        <time>2019-08-11T08:19:18Z</time>
      </trkpt>
      <trkpt lat="50.48323" lon="1.86289">
        <ele>13</ele>
        <time>2019-08-11T08:19:20Z</time>
      </trkpt>
      <trkpt lat="50.48326" lon="1.86285">
        <ele>14</ele>
        <time>2019-08-11T08:19:23Z</time>
      </trkpt>
      <trkpt lat="50.48328" lon="1.86283">
        <ele>14</ele>
        <time>2019-08-11T08:19:25Z</time>
      </trkpt>
      <trkpt lat="50.4833" lon="1.8628">
        <ele>14</ele>
        <time>2019-08-11T08:19:27Z</time>
      </trkpt>
      <trkpt lat="50.48334" lon="1.86276">
        <ele>13</ele>
        <time>2019-08-11T08:19:30Z</time>
      </trkpt>
      <trkpt lat="50.48337" lon="1.86274">
        <ele>14</ele>
        <time>2019-08-11T08:19:33Z</time>
      </trkpt>
      <trkpt lat="50.48339" lon="1.86272">
        <ele>14</ele>
        <time>2019-08-11T08:19:35Z</time>
      </trkpt>
      <trkpt lat="50.48343" lon="1.86269">
        <ele>14</ele>
        <time>2019-08-11T08:19:38Z</time>
      </trkpt>
      <trkpt lat="50.48346" lon="1.86267">
        <ele>13</ele>
        <time>2019-08-11T08:19:41Z</time>
      </trkpt>
      <trkpt lat="50.48348" lon="1.86266">
        <ele>13</ele>
        <time>2019-08-11T08:19:43Z</time>
      </trkpt>
      <trkpt lat="50.48349" lon="1.86263">
        <ele>13</ele>
        <time>2019-08-11T08:19:45Z</time>
      </trkpt>
      <trkpt lat="50.48351" lon="1.86259">
        <ele>13</ele>
        <time>2019-08-11T08:19:48Z</time>
      </trkpt>
      <trkpt lat="50.48353" lon="1.86258">
        <ele>14</ele>
        <time>2019-08-11T08:19:51Z</time>
      </trkpt>
      <trkpt lat="50.48353" lon="1.86259">
        <ele>13</ele>
        <time>2019-08-11T08:19:54Z</time>
      </trkpt>
      <trkpt lat="50.48354" lon="1.86259">
        <ele>13</ele>
        <time>2019-08-11T08:19:59Z</time>
      </trkpt>
      <trkpt lat="50.48353" lon="1.86259">
        <ele>13</ele>
        <time>2019-08-11T08:20:02Z</time>
      </trkpt>
      <trkpt lat="50.48353" lon="1.86259">
        <ele>13</ele>
        <time>2019-08-11T08:20:04Z</time>
      </trkpt>
      <trkpt lat="50.48353" lon="1.86259">
        <ele>13</ele>
        <time>2019-08-11T08:20:07Z</time>
      </trkpt>
      <trkpt lat="50.48352" lon="1.86256">
        <ele>13</ele>
        <time>2019-08-11T08:20:09Z</time>
      </trkpt>
      <trkpt lat="50.48351" lon="1.86247">
        <ele>13</ele>
        <time>2019-08-11T08:20:12Z</time>
      </trkpt>
      <trkpt lat="50.4835" lon="1.8623">
        <ele>13</ele>
        <time>2019-08-11T08:20:15Z</time>
      </trkpt>
      <trkpt lat="50.48352" lon="1.86214">
        <ele>12</ele>
        <time>2019-08-11T08:20:18Z</time>
      </trkpt>
      <trkpt lat="50.48354" lon="1.86204">
        <ele>11</ele>
        <time>2019-08-11T08:20:20Z</time>
      </trkpt>
      <trkpt lat="50.48355" lon="1.86192">
        <ele>11</ele>
        <time>2019-08-11T08:20:23Z</time>
      </trkpt>
      <trkpt lat="50.48356" lon="1.86183">
        <ele>11</ele>
        <time>2019-08-11T08:20:25Z</time>
      </trkpt>
      <trkpt lat="50.48358" lon="1.86169">
        <ele>11</ele>
        <time>2019-08-11T08:20:28Z</time>
      </trkpt>
      <trkpt lat="50.4836" lon="1.86155">
        <ele>11</ele>
        <time>2019-08-11T08:20:31Z</time>
      </trkpt>
      <trkpt lat="50.48362" lon="1.86142">
        <ele>12</ele>
        <time>2019-08-11T08:20:34Z</time>
      </trkpt>
      <trkpt lat="50.48362" lon="1.86133">
        <ele>12</ele>
        <time>2019-08-11T08:20:36Z</time>
      </trkpt>
      <trkpt lat="50.48363" lon="1.86123">
        <ele>12</ele>
        <time>2019-08-11T08:20:38Z</time>
      </trkpt>
      <trkpt lat="50.48365" lon="1.86109">
        <ele>12</ele>
        <time>2019-08-11T08:20:41Z</time>
      </trkpt>
      <trkpt lat="50.48365" lon="1.86101">
        <ele>12</ele>
        <time>2019-08-11T08:20:43Z</time>
      </trkpt>
      <trkpt lat="50.48366" lon="1.86092">
        <ele>12</ele>
        <time>2019-08-11T08:20:45Z</time>
      </trkpt>
      <trkpt lat="50.48367" lon="1.86085">
        <ele>12</ele>
        <time>2019-08-11T08:20:47Z</time>
      </trkpt>
      <trkpt lat="50.48368" lon="1.86071">
        <ele>12</ele>
        <time>2019-08-11T08:20:50Z</time>
      </trkpt>
      <trkpt lat="50.48368" lon="1.86062">
        <ele>12</ele>
        <time>2019-08-11T08:20:52Z</time>
      </trkpt>
      <trkpt lat="50.48369" lon="1.86048">
        <ele>12</ele>
        <time>2019-08-11T08:20:55Z</time>
      </trkpt>
      <trkpt lat="50.4837" lon="1.86039">
        <ele>12</ele>
        <time>2019-08-11T08:20:57Z</time>
      </trkpt>
      <trkpt lat="50.4837" lon="1.86024">
        <ele>13</ele>
        <time>2019-08-11T08:21:00Z</time>
      </trkpt>
      <trkpt lat="50.48371" lon="1.86011">
        <ele>13</ele>
        <time>2019-08-11T08:21:03Z</time>
      </trkpt>
      <trkpt lat="50.48371" lon="1.86002">
        <ele>13</ele>
        <time>2019-08-11T08:21:05Z</time>
      </trkpt>
      <trkpt lat="50.48372" lon="1.85989">
        <ele>13</ele>
        <time>2019-08-11T08:21:08Z</time>
      </trkpt>
      <trkpt lat="50.48372" lon="1.8598">
        <ele>13</ele>
        <time>2019-08-11T08:21:10Z</time>
      </trkpt>
      <trkpt lat="50.48373" lon="1.85971">
        <ele>13</ele>
        <time>2019-08-11T08:21:12Z</time>
      </trkpt>
      <trkpt lat="50.48372" lon="1.85962">
        <ele>14</ele>
        <time>2019-08-11T08:21:14Z</time>
      </trkpt>
      <trkpt lat="50.48372" lon="1.85949">
        <ele>14</ele>
        <time>2019-08-11T08:21:17Z</time>
      </trkpt>
      <trkpt lat="50.48372" lon="1.85941">
        <ele>14</ele>
        <time>2019-08-11T08:21:19Z</time>
      </trkpt>
      <trkpt lat="50.48371" lon="1.85927">
        <ele>14</ele>
        <time>2019-08-11T08:21:22Z</time>
      </trkpt>
      <trkpt lat="50.4837" lon="1.85914">
        <ele>14</ele>
        <time>2019-08-11T08:21:25Z</time>
      </trkpt>
      <trkpt lat="50.48368" lon="1.859">
        <ele>14</ele>
        <time>2019-08-11T08:21:28Z</time>
      </trkpt>
      <trkpt lat="50.48366" lon="1.85887">
        <ele>14</ele>
        <time>2019-08-11T08:21:31Z</time>
      </trkpt>
      <trkpt lat="50.48365" lon="1.85879">
        <ele>14</ele>
        <time>2019-08-11T08:21:33Z</time>
      </trkpt>
      <trkpt lat="50.48363" lon="1.85866">
        <ele>14</ele>
        <time>2019-08-11T08:21:36Z</time>
      </trkpt>
      <trkpt lat="50.48362" lon="1.85858">
        <ele>14</ele>
        <time>2019-08-11T08:21:38Z</time>
      </trkpt>
      <trkpt lat="50.48361" lon="1.85847">
        <ele>15</ele>
        <time>2019-08-11T08:21:41Z</time>
      </trkpt>
      <trkpt lat="50.4836" lon="1.85839">
        <ele>15</ele>
        <time>2019-08-11T08:21:43Z</time>
      </trkpt>
      <trkpt lat="50.4836" lon="1.85827">
        <ele>16</ele>
        <time>2019-08-11T08:21:46Z</time>
      </trkpt>
      <trkpt lat="50.48359" lon="1.85819">
        <ele>16</ele>
        <time>2019-08-11T08:21:48Z</time>
      </trkpt>
      <trkpt lat="50.48359" lon="1.85811">
        <ele>17</ele>
        <time>2019-08-11T08:21:50Z</time>
      </trkpt>
      <trkpt lat="50.48359" lon="1.85802">
        <ele>17</ele>
        <time>2019-08-11T08:21:52Z</time>
      </trkpt>
      <trkpt lat="50.48358" lon="1.85789">
        <ele>17</ele>
        <time>2019-08-11T08:21:55Z</time>
      </trkpt>
      <trkpt lat="50.48357" lon="1.8578">
        <ele>17</ele>
        <time>2019-08-11T08:21:57Z</time>
      </trkpt>
      <trkpt lat="50.48357" lon="1.85772">
        <ele>17</ele>
        <time>2019-08-11T08:21:59Z</time>
      </trkpt>
      <trkpt lat="50.48357" lon="1.85759">
        <ele>17</ele>
        <time>2019-08-11T08:22:02Z</time>
      </trkpt>
      <trkpt lat="50.48356" lon="1.85751">
        <ele>18</ele>
        <time>2019-08-11T08:22:04Z</time>
      </trkpt>
      <trkpt lat="50.48355" lon="1.85743">
        <ele>18</ele>
        <time>2019-08-11T08:22:06Z</time>
      </trkpt>
      <trkpt lat="50.48353" lon="1.8573">
        <ele>18</ele>
        <time>2019-08-11T08:22:09Z</time>
      </trkpt>
      <trkpt lat="50.48352" lon="1.85723">
        <ele>18</ele>
        <time>2019-08-11T08:22:11Z</time>
      </trkpt>
      <trkpt lat="50.4835" lon="1.85715">
        <ele>18</ele>
        <time>2019-08-11T08:22:13Z</time>
      </trkpt>
      <trkpt lat="50.48348" lon="1.85705">
        <ele>18</ele>
        <time>2019-08-11T08:22:16Z</time>
      </trkpt>
      <trkpt lat="50.48344" lon="1.85693">
        <ele>18</ele>
        <time>2019-08-11T08:22:19Z</time>
      </trkpt>
      <trkpt lat="50.48341" lon="1.85681">
        <ele>18</ele>
        <time>2019-08-11T08:22:22Z</time>
      </trkpt>
      <trkpt lat="50.48338" lon="1.85669">
        <ele>19</ele>
        <time>2019-08-11T08:22:25Z</time>
      </trkpt>
      <trkpt lat="50.48337" lon="1.85662">
        <ele>19</ele>
        <time>2019-08-11T08:22:27Z</time>
      </trkpt>
      <trkpt lat="50.48335" lon="1.85655">
        <ele>20</ele>
        <time>2019-08-11T08:22:29Z</time>
      </trkpt>
      <trkpt lat="50.48333" lon="1.85648">
        <ele>20</ele>
        <time>2019-08-11T08:22:31Z</time>
      </trkpt>
      <trkpt lat="50.4833" lon="1.85641">
        <ele>20</ele>
        <time>2019-08-11T08:22:33Z</time>
      </trkpt>
      <trkpt lat="50.48327" lon="1.8563">
        <ele>20</ele>
        <time>2019-08-11T08:22:36Z</time>
      </trkpt>
      <trkpt lat="50.48324" lon="1.8562">
        <ele>21</ele>
        <time>2019-08-11T08:22:39Z</time>
      </trkpt>
      <trkpt lat="50.48322" lon="1.85613">
        <ele>21</ele>
        <time>2019-08-11T08:22:41Z</time>
      </trkpt>
      <trkpt lat="50.48319" lon="1.85603">
        <ele>21</ele>
        <time>2019-08-11T08:22:44Z</time>
      </trkpt>
      <trkpt lat="50.48315" lon="1.85593">
        <ele>21</ele>
        <time>2019-08-11T08:22:47Z</time>
      </trkpt>
      <trkpt lat="50.48313" lon="1.85588">
        <ele>21</ele>
        <time>2019-08-11T08:22:49Z</time>
      </trkpt>
      <trkpt lat="50.48311" lon="1.85582">
        <ele>22</ele>
        <time>2019-08-11T08:22:51Z</time>
      </trkpt>
      <trkpt lat="50.48309" lon="1.85573">
        <ele>23</ele>
        <time>2019-08-11T08:22:54Z</time>
      </trkpt>
      <trkpt lat="50.48307" lon="1.85565">
        <ele>23</ele>
        <time>2019-08-11T08:22:57Z</time>
      </trkpt>
      <trkpt lat="50.48306" lon="1.8556">
        <ele>24</ele>
        <time>2019-08-11T08:22:59Z</time>
      </trkpt>
      <trkpt lat="50.48304" lon="1.85553">
        <ele>24</ele>
        <time>2019-08-11T08:23:02Z</time>
      </trkpt>
      <trkpt lat="50.48302" lon="1.85546">
        <ele>25</ele>
        <time>2019-08-11T08:23:05Z</time>
      </trkpt>
      <trkpt lat="50.48301" lon="1.8554">
        <ele>25</ele>
        <time>2019-08-11T08:23:08Z</time>
      </trkpt>
      <trkpt lat="50.48299" lon="1.85537">
        <ele>26</ele>
        <time>2019-08-11T08:23:10Z</time>
      </trkpt>
      <trkpt lat="50.48297" lon="1.85533">
        <ele>26</ele>
        <time>2019-08-11T08:23:12Z</time>
      </trkpt>
      <trkpt lat="50.48295" lon="1.85527">
        <ele>27</ele>
        <time>2019-08-11T08:23:14Z</time>
      </trkpt>
      <trkpt lat="50.48293" lon="1.85517">
        <ele>27</ele>
        <time>2019-08-11T08:23:17Z</time>
      </trkpt>
      <trkpt lat="50.48293" lon="1.8551">
        <ele>27</ele>
        <time>2019-08-11T08:23:19Z</time>
      </trkpt>
      <trkpt lat="50.48294" lon="1.855">
        <ele>27</ele>
        <time>2019-08-11T08:23:22Z</time>
      </trkpt>
      <trkpt lat="50.48296" lon="1.8549">
        <ele>27</ele>
        <time>2019-08-11T08:23:25Z</time>
      </trkpt>
      <trkpt lat="50.48296" lon="1.85481">
        <ele>28</ele>
        <time>2019-08-11T08:23:28Z</time>
      </trkpt>
      <trkpt lat="50.48298" lon="1.85473">
        <ele>28</ele>
        <time>2019-08-11T08:23:31Z</time>
      </trkpt>
      <trkpt lat="50.48299" lon="1.85463">
        <ele>29</ele>
        <time>2019-08-11T08:23:34Z</time>
      </trkpt>
      <trkpt lat="50.48301" lon="1.85454">
        <ele>30</ele>
        <time>2019-08-11T08:23:37Z</time>
      </trkpt>
      <trkpt lat="50.48301" lon="1.85449">
        <ele>30</ele>
        <time>2019-08-11T08:23:39Z</time>
      </trkpt>
      <trkpt lat="50.48304" lon="1.85441">
        <ele>31</ele>
        <time>2019-08-11T08:23:42Z</time>
      </trkpt>
      <trkpt lat="50.48305" lon="1.85436">
        <ele>32</ele>
        <time>2019-08-11T08:23:44Z</time>
      </trkpt>
      <trkpt lat="50.48307" lon="1.8543">
        <ele>32</ele>
        <time>2019-08-11T08:23:46Z</time>
      </trkpt>
      <trkpt lat="50.48309" lon="1.85422">
        <ele>33</ele>
        <time>2019-08-11T08:23:49Z</time>
      </trkpt>
      <trkpt lat="50.48311" lon="1.85413">
        <ele>33</ele>
        <time>2019-08-11T08:23:52Z</time>
      </trkpt>
      <trkpt lat="50.48313" lon="1.85403">
        <ele>34</ele>
        <time>2019-08-11T08:23:55Z</time>
      </trkpt>
      <trkpt lat="50.48316" lon="1.85394">
        <ele>34</ele>
        <time>2019-08-11T08:23:58Z</time>
      </trkpt>
      <trkpt lat="50.48318" lon="1.85386">
        <ele>35</ele>
        <time>2019-08-11T08:24:01Z</time>
      </trkpt>
      <trkpt lat="50.48322" lon="1.85379">
        <ele>36</ele>
        <time>2019-08-11T08:24:04Z</time>
      </trkpt>
      <trkpt lat="50.48325" lon="1.85371">
        <ele>37</ele>
        <time>2019-08-11T08:24:07Z</time>
      </trkpt>
      <trkpt lat="50.48327" lon="1.85363">
        <ele>37</ele>
        <time>2019-08-11T08:24:10Z</time>
      </trkpt>
      <trkpt lat="50.48329" lon="1.85358">
        <ele>38</ele>
        <time>2019-08-11T08:24:12Z</time>
      </trkpt>
      <trkpt lat="50.48331" lon="1.85353">
        <ele>39</ele>
        <time>2019-08-11T08:24:14Z</time>
      </trkpt>
      <trkpt lat="50.48334" lon="1.85345">
        <ele>39</ele>
        <time>2019-08-11T08:24:17Z</time>
      </trkpt>
      <trkpt lat="50.48336" lon="1.85338">
        <ele>40</ele>
        <time>2019-08-11T08:24:20Z</time>
      </trkpt>
      <trkpt lat="50.48339" lon="1.8533">
        <ele>41</ele>
        <time>2019-08-11T08:24:23Z</time>
      </trkpt>
      <trkpt lat="50.48341" lon="1.85321">
        <ele>42</ele>
        <time>2019-08-11T08:24:26Z</time>
      </trkpt>
      <trkpt lat="50.48342" lon="1.85312">
        <ele>42</ele>
        <time>2019-08-11T08:24:29Z</time>
      </trkpt>
      <trkpt lat="50.48342" lon="1.85306">
        <ele>43</ele>
        <time>2019-08-11T08:24:31Z</time>
      </trkpt>
      <trkpt lat="50.48342" lon="1.85296">
        <ele>44</ele>
        <time>2019-08-11T08:24:34Z</time>
      </trkpt>
      <trkpt lat="50.48341" lon="1.85287">
        <ele>44</ele>
        <time>2019-08-11T08:24:37Z</time>
      </trkpt>
      <trkpt lat="50.48339" lon="1.85281">
        <ele>45</ele>
        <time>2019-08-11T08:24:39Z</time>
      </trkpt>
      <trkpt lat="50.48337" lon="1.85273">
        <ele>46</ele>
        <time>2019-08-11T08:24:42Z</time>
      </trkpt>
      <trkpt lat="50.48336" lon="1.85264">
        <ele>47</ele>
        <time>2019-08-11T08:24:45Z</time>
      </trkpt>
      <trkpt lat="50.48334" lon="1.85256">
        <ele>47</ele>
        <time>2019-08-11T08:24:48Z</time>
      </trkpt>
      <trkpt lat="50.48333" lon="1.8525">
        <ele>48</ele>
        <time>2019-08-11T08:24:50Z</time>
      </trkpt>
      <trkpt lat="50.48331" lon="1.85241">
        <ele>48</ele>
        <time>2019-08-11T08:24:53Z</time>
      </trkpt>
      <trkpt lat="50.48329" lon="1.85235">
        <ele>49</ele>
        <time>2019-08-11T08:24:55Z</time>
      </trkpt>
      <trkpt lat="50.48328" lon="1.85225">
        <ele>49</ele>
        <time>2019-08-11T08:24:58Z</time>
      </trkpt>
      <trkpt lat="50.48326" lon="1.85219">
        <ele>50</ele>
        <time>2019-08-11T08:25:00Z</time>
      </trkpt>
      <trkpt lat="50.48326" lon="1.85212">
        <ele>50</ele>
        <time>2019-08-11T08:25:02Z</time>
      </trkpt>
      <trkpt lat="50.48325" lon="1.85202">
        <ele>51</ele>
        <time>2019-08-11T08:25:05Z</time>
      </trkpt>
      <trkpt lat="50.48323" lon="1.85193">
        <ele>52</ele>
        <time>2019-08-11T08:25:08Z</time>
      </trkpt>
      <trkpt lat="50.48323" lon="1.85186">
        <ele>53</ele>
        <time>2019-08-11T08:25:10Z</time>
      </trkpt>
      <trkpt lat="50.48323" lon="1.85175">
        <ele>53</ele>
        <time>2019-08-11T08:25:13Z</time>
      </trkpt>
      <trkpt lat="50.48323" lon="1.85169">
        <ele>54</ele>
        <time>2019-08-11T08:25:15Z</time>
      </trkpt>
      <trkpt lat="50.48323" lon="1.8516">
        <ele>54</ele>
        <time>2019-08-11T08:25:18Z</time>
      </trkpt>
      <trkpt lat="50.48322" lon="1.85151">
        <ele>54</ele>
        <time>2019-08-11T08:25:21Z</time>
      </trkpt>
      <trkpt lat="50.48322" lon="1.85144">
        <ele>54</ele>
        <time>2019-08-11T08:25:23Z</time>
      </trkpt>
      <trkpt lat="50.48322" lon="1.85138">
        <ele>54</ele>
        <time>2019-08-11T08:25:25Z</time>
      </trkpt>
      <trkpt lat="50.48323" lon="1.85128">
        <ele>55</ele>
        <time>2019-08-11T08:25:28Z</time>
      </trkpt>
      <trkpt lat="50.48322" lon="1.85119">
        <ele>55</ele>
        <time>2019-08-11T08:25:31Z</time>
      </trkpt>
      <trkpt lat="50.48322" lon="1.85113">
        <ele>55</ele>
        <time>2019-08-11T08:25:33Z</time>
      </trkpt>
      <trkpt lat="50.48322" lon="1.85106">
        <ele>55</ele>
        <time>2019-08-11T08:25:35Z</time>
      </trkpt>
      <trkpt lat="50.48321" lon="1.85096">
        <ele>55</ele>
        <time>2019-08-11T08:25:38Z</time>
      </trkpt>
      <trkpt lat="50.48321" lon="1.85086">
        <ele>56</ele>
        <time>2019-08-11T08:25:41Z</time>
      </trkpt>
      <trkpt lat="50.48321" lon="1.85079">
        <ele>56</ele>
        <time>2019-08-11T08:25:43Z</time>
      </trkpt>
      <trkpt lat="50.4832" lon="1.85068">
        <ele>57</ele>
        <time>2019-08-11T08:25:46Z</time>
      </trkpt>
      <trkpt lat="50.4832" lon="1.85058">
        <ele>57</ele>
        <time>2019-08-11T08:25:49Z</time>
      </trkpt>
      <trkpt lat="50.4832" lon="1.85047">
        <ele>58</ele>
        <time>2019-08-11T08:25:52Z</time>
      </trkpt>
      <trkpt lat="50.4832" lon="1.85041">
        <ele>58</ele>
        <time>2019-08-11T08:25:54Z</time>
      </trkpt>
      <trkpt lat="50.48319" lon="1.85031">
        <ele>59</ele>
        <time>2019-08-11T08:25:57Z</time>
      </trkpt>
      <trkpt lat="50.48319" lon="1.85024">
        <ele>59</ele>
        <time>2019-08-11T08:25:59Z</time>
      </trkpt>
      <trkpt lat="50.48318" lon="1.85014">
        <ele>59</ele>
        <time>2019-08-11T08:26:02Z</time>
      </trkpt>
      <trkpt lat="50.48318" lon="1.85007">
        <ele>60</ele>
        <time>2019-08-11T08:26:04Z</time>
      </trkpt>
      <trkpt lat="50.48317" lon="1.84997">
        <ele>60</ele>
        <time>2019-08-11T08:26:07Z</time>
      </trkpt>
      <trkpt lat="50.48316" lon="1.84986">
        <ele>60</ele>
        <time>2019-08-11T08:26:10Z</time>
      </trkpt>
      <trkpt lat="50.48315" lon="1.84978">
        <ele>60</ele>
        <time>2019-08-11T08:26:12Z</time>
      </trkpt>
      <trkpt lat="50.48314" lon="1.84971">
        <ele>60</ele>
        <time>2019-08-11T08:26:14Z</time>
      </trkpt>
      <trkpt lat="50.48313" lon="1.84965">
        <ele>60</ele>
        <time>2019-08-11T08:26:16Z</time>
      </trkpt>
      <trkpt lat="50.48312" lon="1.84958">
        <ele>61</ele>
        <time>2019-08-11T08:26:18Z</time>
      </trkpt>
      <trkpt lat="50.48311" lon="1.84951">
        <ele>61</ele>
        <time>2019-08-11T08:26:20Z</time>
      </trkpt>
      <trkpt lat="50.48309" lon="1.8494">
        <ele>62</ele>
        <time>2019-08-11T08:26:23Z</time>
      </trkpt>
      <trkpt lat="50.48308" lon="1.84933">
        <ele>62</ele>
        <time>2019-08-11T08:26:25Z</time>
      </trkpt>
      <trkpt lat="50.48306" lon="1.84923">
        <ele>62</ele>
        <time>2019-08-11T08:26:28Z</time>
      </trkpt>
      <trkpt lat="50.48304" lon="1.84915">
        <ele>62</ele>
        <time>2019-08-11T08:26:30Z</time>
      </trkpt>
      <trkpt lat="50.48303" lon="1.84909">
        <ele>62</ele>
        <time>2019-08-11T08:26:32Z</time>
      </trkpt>
      <trkpt lat="50.48302" lon="1.84903">
        <ele>62</ele>
        <time>2019-08-11T08:26:34Z</time>
      </trkpt>
      <trkpt lat="50.483" lon="1.84893">
        <ele>62</ele>
        <time>2019-08-11T08:26:37Z</time>
      </trkpt>
      <trkpt lat="50.48299" lon="1.84887">
        <ele>63</ele>
        <time>2019-08-11T08:26:39Z</time>
      </trkpt>
      <trkpt lat="50.48298" lon="1.84881">
        <ele>63</ele>
        <time>2019-08-11T08:26:41Z</time>
      </trkpt>
      <trkpt lat="50.48297" lon="1.84875">
        <ele>63</ele>
        <time>2019-08-11T08:26:43Z</time>
      </trkpt>
      <trkpt lat="50.48297" lon="1.84868">
        <ele>63</ele>
        <time>2019-08-11T08:26:45Z</time>
      </trkpt>
      <trkpt lat="50.48299" lon="1.84858">
        <ele>64</ele>
        <time>2019-08-11T08:26:48Z</time>
      </trkpt>
      <trkpt lat="50.48302" lon="1.84848">
        <ele>64</ele>
        <time>2019-08-11T08:26:51Z</time>
      </trkpt>
      <trkpt lat="50.48304" lon="1.84838">
        <ele>64</ele>
        <time>2019-08-11T08:26:54Z</time>
      </trkpt>
      <trkpt lat="50.48307" lon="1.84826">
        <ele>64</ele>
        <time>2019-08-11T08:26:57Z</time>
      </trkpt>
      <trkpt lat="50.48311" lon="1.84814">
        <ele>65</ele>
        <time>2019-08-11T08:27:00Z</time>
      </trkpt>
      <trkpt lat="50.48314" lon="1.848">
        <ele>64</ele>
        <time>2019-08-11T08:27:03Z</time>
      </trkpt>
      <trkpt lat="50.48317" lon="1.84788">
        <ele>66</ele>
        <time>2019-08-11T08:27:06Z</time>
      </trkpt>
      <trkpt lat="50.48319" lon="1.84779">
        <ele>66</ele>
        <time>2019-08-11T08:27:08Z</time>
      </trkpt>
      <trkpt lat="50.48321" lon="1.84766">
        <ele>66</ele>
        <time>2019-08-11T08:27:11Z</time>
      </trkpt>
      <trkpt lat="50.48323" lon="1.84754">
        <ele>66</ele>
        <time>2019-08-11T08:27:14Z</time>
      </trkpt>
      <trkpt lat="50.48325" lon="1.84741">
        <ele>66</ele>
        <time>2019-08-11T08:27:17Z</time>
      </trkpt>
      <trkpt lat="50.48326" lon="1.84729">
        <ele>67</ele>
        <time>2019-08-11T08:27:20Z</time>
      </trkpt>
      <trkpt lat="50.48327" lon="1.8472">
        <ele>67</ele>
        <time>2019-08-11T08:27:22Z</time>
      </trkpt>
      <trkpt lat="50.48329" lon="1.84708">
        <ele>67</ele>
        <time>2019-08-11T08:27:25Z</time>
      </trkpt>
      <trkpt lat="50.48331" lon="1.84701">
        <ele>67</ele>
        <time>2019-08-11T08:27:27Z</time>
      </trkpt>
      <trkpt lat="50.48333" lon="1.84689">
        <ele>68</ele>
        <time>2019-08-11T08:27:30Z</time>
      </trkpt>
      <trkpt lat="50.48334" lon="1.84681">
        <ele>69</ele>
        <time>2019-08-11T08:27:32Z</time>
      </trkpt>
      <trkpt lat="50.48336" lon="1.84669">
        <ele>69</ele>
        <time>2019-08-11T08:27:35Z</time>
      </trkpt>
      <trkpt lat="50.48338" lon="1.84656">
        <ele>70</ele>
        <time>2019-08-11T08:27:38Z</time>
      </trkpt>
      <trkpt lat="50.4834" lon="1.84647">
        <ele>70</ele>
        <time>2019-08-11T08:27:40Z</time>
      </trkpt>
      <trkpt lat="50.48343" lon="1.84634">
        <ele>70</ele>
        <time>2019-08-11T08:27:43Z</time>
      </trkpt>
      <trkpt lat="50.48344" lon="1.84625">
        <ele>69</ele>
        <time>2019-08-11T08:27:45Z</time>
      </trkpt>
      <trkpt lat="50.48347" lon="1.84611">
        <ele>70</ele>
        <time>2019-08-11T08:27:48Z</time>
      </trkpt>
      <trkpt lat="50.48349" lon="1.84602">
        <ele>70</ele>
        <time>2019-08-11T08:27:50Z</time>
      </trkpt>
      <trkpt lat="50.48352" lon="1.84589">
        <ele>71</ele>
        <time>2019-08-11T08:27:53Z</time>
      </trkpt>
      <trkpt lat="50.48355" lon="1.84576">
        <ele>71</ele>
        <time>2019-08-11T08:27:56Z</time>
      </trkpt>
      <trkpt lat="50.4836" lon="1.84564">
        <ele>71</ele>
        <time>2019-08-11T08:27:59Z</time>
      </trkpt>
      <trkpt lat="50.48366" lon="1.84552">
        <ele>71</ele>
        <time>2019-08-11T08:28:02Z</time>
      </trkpt>
      <trkpt lat="50.48373" lon="1.84538">
        <ele>71</ele>
        <time>2019-08-11T08:28:05Z</time>
      </trkpt>
      <trkpt lat="50.4838" lon="1.84523">
        <ele>71</ele>
        <time>2019-08-11T08:28:08Z</time>
      </trkpt>
      <trkpt lat="50.48384" lon="1.84513">
        <ele>71</ele>
        <time>2019-08-11T08:28:10Z</time>
      </trkpt>
      <trkpt lat="50.48391" lon="1.845">
        <ele>72</ele>
        <time>2019-08-11T08:28:13Z</time>
      </trkpt>
      <trkpt lat="50.48395" lon="1.84492">
        <ele>71</ele>
        <time>2019-08-11T08:28:15Z</time>
      </trkpt>
      <trkpt lat="50.48399" lon="1.84483">
        <ele>71</ele>
        <time>2019-08-11T08:28:17Z</time>
      </trkpt>
      <trkpt lat="50.48404" lon="1.84471">
        <ele>71</ele>
        <time>2019-08-11T08:28:20Z</time>
      </trkpt>
      <trkpt lat="50.4841" lon="1.84458">
        <ele>71</ele>
        <time>2019-08-11T08:28:23Z</time>
      </trkpt>
      <trkpt lat="50.48414" lon="1.84449">
        <ele>71</ele>
        <time>2019-08-11T08:28:25Z</time>
      </trkpt>
      <trkpt lat="50.48421" lon="1.84435">
        <ele>72</ele>
        <time>2019-08-11T08:28:28Z</time>
      </trkpt>
      <trkpt lat="50.48427" lon="1.84421">
        <ele>72</ele>
        <time>2019-08-11T08:28:31Z</time>
      </trkpt>
      <trkpt lat="50.48432" lon="1.84411">
        <ele>72</ele>
        <time>2019-08-11T08:28:33Z</time>
      </trkpt>
      <trkpt lat="50.48436" lon="1.84402">
        <ele>72</ele>
        <time>2019-08-11T08:28:35Z</time>
      </trkpt>
      <trkpt lat="50.48443" lon="1.84387">
        <ele>72</ele>
        <time>2019-08-11T08:28:38Z</time>
      </trkpt>
      <trkpt lat="50.48448" lon="1.84376">
        <ele>72</ele>
        <time>2019-08-11T08:28:40Z</time>
      </trkpt>
      <trkpt lat="50.48453" lon="1.84366">
        <ele>72</ele>
        <time>2019-08-11T08:28:42Z</time>
      </trkpt>
      <trkpt lat="50.48461" lon="1.84348">
        <ele>72</ele>
        <time>2019-08-11T08:28:45Z</time>
      </trkpt>
      <trkpt lat="50.48469" lon="1.84331">
        <ele>72</ele>
        <time>2019-08-11T08:28:48Z</time>
      </trkpt>
      <trkpt lat="50.48474" lon="1.8432">
        <ele>72</ele>
        <time>2019-08-11T08:28:50Z</time>
      </trkpt>
      <trkpt lat="50.48481" lon="1.84305">
        <ele>72</ele>
        <time>2019-08-11T08:28:53Z</time>
      </trkpt>
      <trkpt lat="50.48486" lon="1.84295">
        <ele>73</ele>
        <time>2019-08-11T08:28:55Z</time>
      </trkpt>
      <trkpt lat="50.48493" lon="1.8428">
        <ele>73</ele>
        <time>2019-08-11T08:28:58Z</time>
      </trkpt>
      <trkpt lat="50.48498" lon="1.84269">
        <ele>73</ele>
        <time>2019-08-11T08:29:00Z</time>
      </trkpt>
      <trkpt lat="50.48505" lon="1.84253">
        <ele>73</ele>
        <time>2019-08-11T08:29:03Z</time>
      </trkpt>
      <trkpt lat="50.4851" lon="1.84243">
        <ele>73</ele>
        <time>2019-08-11T08:29:05Z</time>
      </trkpt>
      <trkpt lat="50.48515" lon="1.84233">
        <ele>74</ele>
        <time>2019-08-11T08:29:07Z</time>
      </trkpt>
      <trkpt lat="50.48521" lon="1.8422">
        <ele>74</ele>
        <time>2019-08-11T08:29:10Z</time>
      </trkpt>
      <trkpt lat="50.48528" lon="1.84205">
        <ele>75</ele>
        <time>2019-08-11T08:29:13Z</time>
      </trkpt>
      <trkpt lat="50.48533" lon="1.84195">
        <ele>75</ele>
        <time>2019-08-11T08:29:15Z</time>
      </trkpt>
      <trkpt lat="50.48538" lon="1.84184">
        <ele>75</ele>
        <time>2019-08-11T08:29:17Z</time>
      </trkpt>
      <trkpt lat="50.48542" lon="1.84174">
        <ele>75</ele>
        <time>2019-08-11T08:29:19Z</time>
      </trkpt>
      <trkpt lat="50.4855" lon="1.84159">
        <ele>75</ele>
        <time>2019-08-11T08:29:22Z</time>
      </trkpt>
      <trkpt lat="50.48554" lon="1.84149">
        <ele>75</ele>
        <time>2019-08-11T08:29:24Z</time>
      </trkpt>
      <trkpt lat="50.48559" lon="1.84138">
        <ele>76</ele>
        <time>2019-08-11T08:29:26Z</time>
      </trkpt>
      <trkpt lat="50.48563" lon="1.84128">
        <ele>76</ele>
        <time>2019-08-11T08:29:28Z</time>
      </trkpt>
      <trkpt lat="50.48568" lon="1.84118">
        <ele>76</ele>
        <time>2019-08-11T08:29:30Z</time>
      </trkpt>
      <trkpt lat="50.48572" lon="1.84109">
        <ele>76</ele>
        <time>2019-08-11T08:29:32Z</time>
      </trkpt>
      <trkpt lat="50.48577" lon="1.84099">
        <ele>76</ele>
        <time>2019-08-11T08:29:34Z</time>
      </trkpt>
      <trkpt lat="50.48584" lon="1.84083">
        <ele>77</ele>
        <time>2019-08-11T08:29:37Z</time>
      </trkpt>
      <trkpt lat="50.48591" lon="1.84069">
        <ele>77</ele>
        <time>2019-08-11T08:29:40Z</time>
      </trkpt>
      <trkpt lat="50.48595" lon="1.84059">
        <ele>77</ele>
        <time>2019-08-11T08:29:42Z</time>
      </trkpt>
      <trkpt lat="50.48602" lon="1.84044">
        <ele>77</ele>
        <time>2019-08-11T08:29:45Z</time>
      </trkpt>
      <trkpt lat="50.48608" lon="1.8403">
        <ele>78</ele>
        <time>2019-08-11T08:29:48Z</time>
      </trkpt>
      <trkpt lat="50.48613" lon="1.84021">
        <ele>78</ele>
        <time>2019-08-11T08:29:50Z</time>
      </trkpt>
      <trkpt lat="50.48619" lon="1.84007">
        <ele>79</ele>
        <time>2019-08-11T08:29:53Z</time>
      </trkpt>
      <trkpt lat="50.48624" lon="1.83997">
        <ele>79</ele>
        <time>2019-08-11T08:29:55Z</time>
      </trkpt>
      <trkpt lat="50.48631" lon="1.83982">
        <ele>79</ele>
        <time>2019-08-11T08:29:58Z</time>
      </trkpt>
      <trkpt lat="50.48635" lon="1.83972">
        <ele>79</ele>
        <time>2019-08-11T08:30:00Z</time>
      </trkpt>
      <trkpt lat="50.48643" lon="1.83958">
        <ele>79</ele>
        <time>2019-08-11T08:30:03Z</time>
      </trkpt>
      <trkpt lat="50.48652" lon="1.83943">
        <ele>79</ele>
        <time>2019-08-11T08:30:06Z</time>
      </trkpt>
      <trkpt lat="50.48658" lon="1.83933">
        <ele>79</ele>
        <time>2019-08-11T08:30:08Z</time>
      </trkpt>
      <trkpt lat="50.48664" lon="1.83923">
        <ele>79</ele>
        <time>2019-08-11T08:30:10Z</time>
      </trkpt>
      <trkpt lat="50.4867" lon="1.83914">
        <ele>80</ele>
        <time>2019-08-11T08:30:12Z</time>
      </trkpt>
      <trkpt lat="50.48679" lon="1.83899">
        <ele>80</ele>
        <time>2019-08-11T08:30:15Z</time>
      </trkpt>
      <trkpt lat="50.48689" lon="1.83885">
        <ele>79</ele>
        <time>2019-08-11T08:30:18Z</time>
      </trkpt>
      <trkpt lat="50.48695" lon="1.83875">
        <ele>79</ele>
        <time>2019-08-11T08:30:20Z</time>
      </trkpt>
      <trkpt lat="50.48702" lon="1.83865">
        <ele>80</ele>
        <time>2019-08-11T08:30:22Z</time>
      </trkpt>
      <trkpt lat="50.48708" lon="1.83855">
        <ele>80</ele>
        <time>2019-08-11T08:30:24Z</time>
      </trkpt>
      <trkpt lat="50.48718" lon="1.83839">
        <ele>80</ele>
        <time>2019-08-11T08:30:27Z</time>
      </trkpt>
      <trkpt lat="50.48725" lon="1.83828">
        <ele>79</ele>
        <time>2019-08-11T08:30:29Z</time>
      </trkpt>
      <trkpt lat="50.48736" lon="1.8381">
        <ele>79</ele>
        <time>2019-08-11T08:30:32Z</time>
      </trkpt>
      <trkpt lat="50.48745" lon="1.83798">
        <ele>79</ele>
        <time>2019-08-11T08:30:34Z</time>
      </trkpt>
      <trkpt lat="50.48757" lon="1.83779">
        <ele>79</ele>
        <time>2019-08-11T08:30:37Z</time>
      </trkpt>
      <trkpt lat="50.48765" lon="1.83766">
        <ele>79</ele>
        <time>2019-08-11T08:30:39Z</time>
      </trkpt>
      <trkpt lat="50.48774" lon="1.83753">
        <ele>78</ele>
        <time>2019-08-11T08:30:41Z</time>
      </trkpt>
      <trkpt lat="50.48782" lon="1.83739">
        <ele>78</ele>
        <time>2019-08-11T08:30:43Z</time>
      </trkpt>
      <trkpt lat="50.48791" lon="1.83725">
        <ele>78</ele>
        <time>2019-08-11T08:30:45Z</time>
      </trkpt>
      <trkpt lat="50.48803" lon="1.83704">
        <ele>77</ele>
        <time>2019-08-11T08:30:48Z</time>
      </trkpt>
      <trkpt lat="50.48816" lon="1.83684">
        <ele>76</ele>
        <time>2019-08-11T08:30:51Z</time>
      </trkpt>
      <trkpt lat="50.48825" lon="1.83671">
        <ele>75</ele>
        <time>2019-08-11T08:30:53Z</time>
      </trkpt>
      <trkpt lat="50.48837" lon="1.83651">
        <ele>75</ele>
        <time>2019-08-11T08:30:56Z</time>
      </trkpt>
      <trkpt lat="50.48844" lon="1.83639">
        <ele>75</ele>
        <time>2019-08-11T08:30:58Z</time>
      </trkpt>
      <trkpt lat="50.48852" lon="1.83627">
        <ele>74</ele>
        <time>2019-08-11T08:31:00Z</time>
      </trkpt>
      <trkpt lat="50.48859" lon="1.83615">
        <ele>74</ele>
        <time>2019-08-11T08:31:02Z</time>
      </trkpt>
      <trkpt lat="50.48871" lon="1.83599">
        <ele>74</ele>
        <time>2019-08-11T08:31:05Z</time>
      </trkpt>
      <trkpt lat="50.48885" lon="1.83594">
        <ele>74</ele>
        <time>2019-08-11T08:31:08Z</time>
      </trkpt>
      <trkpt lat="50.48893" lon="1.836">
        <ele>74</ele>
        <time>2019-08-11T08:31:10Z</time>
      </trkpt>
      <trkpt lat="50.48899" lon="1.83609">
        <ele>74</ele>
        <time>2019-08-11T08:31:12Z</time>
      </trkpt>
      <trkpt lat="50.48908" lon="1.83622">
        <ele>74</ele>
        <time>2019-08-11T08:31:15Z</time>
      </trkpt>
      <trkpt lat="50.48914" lon="1.83631">
        <ele>75</ele>
        <time>2019-08-11T08:31:17Z</time>
      </trkpt>
      <trkpt lat="50.48924" lon="1.83642">
        <ele>74</ele>
        <time>2019-08-11T08:31:20Z</time>
      </trkpt>
      <trkpt lat="50.4893" lon="1.83651">
        <ele>74</ele>
        <time>2019-08-11T08:31:22Z</time>
      </trkpt>
      <trkpt lat="50.48936" lon="1.8366">
        <ele>74</ele>
        <time>2019-08-11T08:31:24Z</time>
      </trkpt>
      <trkpt lat="50.48947" lon="1.83673">
        <ele>75</ele>
        <time>2019-08-11T08:31:27Z</time>
      </trkpt>
      <trkpt lat="50.48958" lon="1.83687">
        <ele>75</ele>
        <time>2019-08-11T08:31:30Z</time>
      </trkpt>
      <trkpt lat="50.48969" lon="1.83701">
        <ele>75</ele>
        <time>2019-08-11T08:31:33Z</time>
      </trkpt>
      <trkpt lat="50.48977" lon="1.8371">
        <ele>75</ele>
        <time>2019-08-11T08:31:35Z</time>
      </trkpt>
      <trkpt lat="50.48984" lon="1.8372">
        <ele>75</ele>
        <time>2019-08-11T08:31:37Z</time>
      </trkpt>
      <trkpt lat="50.48995" lon="1.83735">
        <ele>75</ele>
        <time>2019-08-11T08:31:41Z</time>
      </trkpt>
      <trkpt lat="50.49007" lon="1.8375">
        <ele>75</ele>
        <time>2019-08-11T08:31:43Z</time>
      </trkpt>
      <trkpt lat="50.49019" lon="1.83767">
        <ele>75</ele>
        <time>2019-08-11T08:31:46Z</time>
      </trkpt>
      <trkpt lat="50.49028" lon="1.83777">
        <ele>74</ele>
        <time>2019-08-11T08:31:48Z</time>
      </trkpt>
      <trkpt lat="50.49041" lon="1.83795">
        <ele>74</ele>
        <time>2019-08-11T08:31:51Z</time>
      </trkpt>
      <trkpt lat="50.4905" lon="1.83809">
        <ele>74</ele>
        <time>2019-08-11T08:31:53Z</time>
      </trkpt>
      <trkpt lat="50.49061" lon="1.83824">
        <ele>73</ele>
        <time>2019-08-11T08:31:55Z</time>
      </trkpt>
      <trkpt lat="50.49077" lon="1.83844">
        <ele>73</ele>
        <time>2019-08-11T08:31:58Z</time>
      </trkpt>
      <trkpt lat="50.49086" lon="1.83856">
        <ele>73</ele>
        <time>2019-08-11T08:32:00Z</time>
      </trkpt>
      <trkpt lat="50.49099" lon="1.83873">
        <ele>73</ele>
        <time>2019-08-11T08:32:03Z</time>
      </trkpt>
      <trkpt lat="50.49112" lon="1.83889">
        <ele>74</ele>
        <time>2019-08-11T08:32:06Z</time>
      </trkpt>
      <trkpt lat="50.49123" lon="1.83905">
        <ele>75</ele>
        <time>2019-08-11T08:32:09Z</time>
      </trkpt>
      <trkpt lat="50.4913" lon="1.83914">
        <ele>76</ele>
        <time>2019-08-11T08:32:11Z</time>
      </trkpt>
      <trkpt lat="50.49137" lon="1.83923">
        <ele>76</ele>
        <time>2019-08-11T08:32:13Z</time>
      </trkpt>
      <trkpt lat="50.49147" lon="1.83937">
        <ele>76</ele>
        <time>2019-08-11T08:32:16Z</time>
      </trkpt>
      <trkpt lat="50.49154" lon="1.83946">
        <ele>76</ele>
        <time>2019-08-11T08:32:18Z</time>
      </trkpt>
      <trkpt lat="50.49161" lon="1.83956">
        <ele>76</ele>
        <time>2019-08-11T08:32:20Z</time>
      </trkpt>
      <trkpt lat="50.49172" lon="1.83969">
        <ele>77</ele>
        <time>2019-08-11T08:32:23Z</time>
      </trkpt>
      <trkpt lat="50.49178" lon="1.83978">
        <ele>77</ele>
        <time>2019-08-11T08:32:25Z</time>
      </trkpt>
      <trkpt lat="50.49187" lon="1.83989">
        <ele>77</ele>
        <time>2019-08-11T08:32:28Z</time>
      </trkpt>
      <trkpt lat="50.49192" lon="1.83996">
        <ele>77</ele>
        <time>2019-08-11T08:32:30Z</time>
      </trkpt>
      <trkpt lat="50.49198" lon="1.84005">
        <ele>77</ele>
        <time>2019-08-11T08:32:33Z</time>
      </trkpt>
      <trkpt lat="50.49205" lon="1.84013">
        <ele>76</ele>
        <time>2019-08-11T08:32:36Z</time>
      </trkpt>
      <trkpt lat="50.49215" lon="1.84016">
        <ele>76</ele>
        <time>2019-08-11T08:32:39Z</time>
      </trkpt>
      <trkpt lat="50.49225" lon="1.84007">
        <ele>76</ele>
        <time>2019-08-11T08:32:42Z</time>
      </trkpt>
      <trkpt lat="50.49232" lon="1.83995">
        <ele>76</ele>
        <time>2019-08-11T08:32:44Z</time>
      </trkpt>
      <trkpt lat="50.49243" lon="1.83973">
        <ele>75</ele>
        <time>2019-08-11T08:32:47Z</time>
      </trkpt>
      <trkpt lat="50.49252" lon="1.83956">
        <ele>74</ele>
        <time>2019-08-11T08:32:49Z</time>
      </trkpt>
      <trkpt lat="50.49265" lon="1.8393">
        <ele>74</ele>
        <time>2019-08-11T08:32:52Z</time>
      </trkpt>
      <trkpt lat="50.49276" lon="1.83906">
        <ele>73</ele>
        <time>2019-08-11T08:32:55Z</time>
      </trkpt>
      <trkpt lat="50.49284" lon="1.83892">
        <ele>73</ele>
        <time>2019-08-11T08:32:57Z</time>
      </trkpt>
      <trkpt lat="50.49294" lon="1.83871">
        <ele>72</ele>
        <time>2019-08-11T08:33:00Z</time>
      </trkpt>
      <trkpt lat="50.49301" lon="1.83857">
        <ele>73</ele>
        <time>2019-08-11T08:33:02Z</time>
      </trkpt>
      <trkpt lat="50.49308" lon="1.83843">
        <ele>73</ele>
        <time>2019-08-11T08:33:04Z</time>
      </trkpt>
      <trkpt lat="50.49315" lon="1.83828">
        <ele>74</ele>
        <time>2019-08-11T08:33:06Z</time>
      </trkpt>
      <trkpt lat="50.49326" lon="1.83806">
        <ele>75</ele>
        <time>2019-08-11T08:33:09Z</time>
      </trkpt>
      <trkpt lat="50.49333" lon="1.83791">
        <ele>75</ele>
        <time>2019-08-11T08:33:11Z</time>
      </trkpt>
      <trkpt lat="50.49345" lon="1.8377">
        <ele>76</ele>
        <time>2019-08-11T08:33:14Z</time>
      </trkpt>
      <trkpt lat="50.49352" lon="1.83755">
        <ele>76</ele>
        <time>2019-08-11T08:33:16Z</time>
      </trkpt>
      <trkpt lat="50.49359" lon="1.83741">
        <ele>77</ele>
        <time>2019-08-11T08:33:18Z</time>
      </trkpt>
      <trkpt lat="50.49369" lon="1.8372">
        <ele>78</ele>
        <time>2019-08-11T08:33:21Z</time>
      </trkpt>
      <trkpt lat="50.49377" lon="1.83706">
        <ele>78</ele>
        <time>2019-08-11T08:33:23Z</time>
      </trkpt>
      <trkpt lat="50.49384" lon="1.83692">
        <ele>79</ele>
        <time>2019-08-11T08:33:25Z</time>
      </trkpt>
      <trkpt lat="50.49395" lon="1.8367">
        <ele>79</ele>
        <time>2019-08-11T08:33:28Z</time>
      </trkpt>
      <trkpt lat="50.49406" lon="1.83649">
        <ele>79</ele>
        <time>2019-08-11T08:33:31Z</time>
      </trkpt>
      <trkpt lat="50.49413" lon="1.83635">
        <ele>80</ele>
        <time>2019-08-11T08:33:33Z</time>
      </trkpt>
      <trkpt lat="50.49424" lon="1.83611">
        <ele>80</ele>
        <time>2019-08-11T08:33:36Z</time>
      </trkpt>
      <trkpt lat="50.49432" lon="1.83595">
        <ele>79</ele>
        <time>2019-08-11T08:33:38Z</time>
      </trkpt>
      <trkpt lat="50.49445" lon="1.83569">
        <ele>79</ele>
        <time>2019-08-11T08:33:41Z</time>
      </trkpt>
      <trkpt lat="50.49459" lon="1.83541">
        <ele>78</ele>
        <time>2019-08-11T08:33:44Z</time>
      </trkpt>
      <trkpt lat="50.49469" lon="1.83521">
        <ele>77</ele>
        <time>2019-08-11T08:33:46Z</time>
      </trkpt>
      <trkpt lat="50.49486" lon="1.83488">
        <ele>76</ele>
        <time>2019-08-11T08:33:49Z</time>
      </trkpt>
      <trkpt lat="50.49496" lon="1.83462">
        <ele>75</ele>
        <time>2019-08-11T08:33:51Z</time>
      </trkpt>
      <trkpt lat="50.49501" lon="1.83433">
        <ele>73</ele>
        <time>2019-08-11T08:33:53Z</time>
      </trkpt>
      <trkpt lat="50.495" lon="1.8339">
        <ele>72</ele>
        <time>2019-08-11T08:33:56Z</time>
      </trkpt>
      <trkpt lat="50.49497" lon="1.83353">
        <ele>71</ele>
        <time>2019-08-11T08:33:59Z</time>
      </trkpt>
      <trkpt lat="50.49495" lon="1.83333">
        <ele>71</ele>
        <time>2019-08-11T08:34:01Z</time>
      </trkpt>
      <trkpt lat="50.49493" lon="1.83306">
        <ele>72</ele>
        <time>2019-08-11T08:34:04Z</time>
      </trkpt>
      <trkpt lat="50.49491" lon="1.83282">
        <ele>73</ele>
        <time>2019-08-11T08:34:07Z</time>
      </trkpt>
      <trkpt lat="50.4949" lon="1.83266">
        <ele>73</ele>
        <time>2019-08-11T08:34:09Z</time>
      </trkpt>
      <trkpt lat="50.49488" lon="1.83244">
        <ele>74</ele>
        <time>2019-08-11T08:34:12Z</time>
      </trkpt>
      <trkpt lat="50.49485" lon="1.83223">
        <ele>74</ele>
        <time>2019-08-11T08:34:15Z</time>
      </trkpt>
      <trkpt lat="50.49484" lon="1.83209">
        <ele>74</ele>
        <time>2019-08-11T08:34:17Z</time>
      </trkpt>
      <trkpt lat="50.49482" lon="1.83189">
        <ele>74</ele>
        <time>2019-08-11T08:34:20Z</time>
      </trkpt>
      <trkpt lat="50.49482" lon="1.83177">
        <ele>75</ele>
        <time>2019-08-11T08:34:22Z</time>
      </trkpt>
      <trkpt lat="50.4948" lon="1.83165">
        <ele>75</ele>
        <time>2019-08-11T08:34:24Z</time>
      </trkpt>
      <trkpt lat="50.4948" lon="1.83154">
        <ele>76</ele>
        <time>2019-08-11T08:34:26Z</time>
      </trkpt>
      <trkpt lat="50.49478" lon="1.83138">
        <ele>77</ele>
        <time>2019-08-11T08:34:29Z</time>
      </trkpt>
      <trkpt lat="50.49477" lon="1.83127">
        <ele>77</ele>
        <time>2019-08-11T08:34:31Z</time>
      </trkpt>
      <trkpt lat="50.49476" lon="1.8311">
        <ele>77</ele>
        <time>2019-08-11T08:34:34Z</time>
      </trkpt>
      <trkpt lat="50.49475" lon="1.83099">
        <ele>77</ele>
        <time>2019-08-11T08:34:36Z</time>
      </trkpt>
      <trkpt lat="50.49473" lon="1.83084">
        <ele>78</ele>
        <time>2019-08-11T08:34:39Z</time>
      </trkpt>
      <trkpt lat="50.49472" lon="1.83073">
        <ele>78</ele>
        <time>2019-08-11T08:34:41Z</time>
      </trkpt>
      <trkpt lat="50.49471" lon="1.83063">
        <ele>78</ele>
        <time>2019-08-11T08:34:43Z</time>
      </trkpt>
      <trkpt lat="50.4947" lon="1.83052">
        <ele>78</ele>
        <time>2019-08-11T08:34:45Z</time>
      </trkpt>
      <trkpt lat="50.49469" lon="1.83042">
        <ele>78</ele>
        <time>2019-08-11T08:34:47Z</time>
      </trkpt>
      <trkpt lat="50.49468" lon="1.83031">
        <ele>78</ele>
        <time>2019-08-11T08:34:49Z</time>
      </trkpt>
      <trkpt lat="50.49466" lon="1.8302">
        <ele>78</ele>
        <time>2019-08-11T08:34:51Z</time>
      </trkpt>
      <trkpt lat="50.49465" lon="1.83004">
        <ele>78</ele>
        <time>2019-08-11T08:34:54Z</time>
      </trkpt>
      <trkpt lat="50.49464" lon="1.82987">
        <ele>78</ele>
        <time>2019-08-11T08:34:57Z</time>
      </trkpt>
      <trkpt lat="50.49462" lon="1.82975">
        <ele>78</ele>
        <time>2019-08-11T08:34:59Z</time>
      </trkpt>
      <trkpt lat="50.49461" lon="1.82964">
        <ele>78</ele>
        <time>2019-08-11T08:35:01Z</time>
      </trkpt>
      <trkpt lat="50.4946" lon="1.82951">
        <ele>78</ele>
        <time>2019-08-11T08:35:03Z</time>
      </trkpt>
      <trkpt lat="50.49458" lon="1.82939">
        <ele>78</ele>
        <time>2019-08-11T08:35:05Z</time>
      </trkpt>
      <trkpt lat="50.49457" lon="1.82927">
        <ele>78</ele>
        <time>2019-08-11T08:35:07Z</time>
      </trkpt>
      <trkpt lat="50.49456" lon="1.82908">
        <ele>78</ele>
        <time>2019-08-11T08:35:10Z</time>
      </trkpt>
      <trkpt lat="50.49455" lon="1.82896">
        <ele>78</ele>
        <time>2019-08-11T08:35:12Z</time>
      </trkpt>
      <trkpt lat="50.49453" lon="1.82877">
        <ele>78</ele>
        <time>2019-08-11T08:35:15Z</time>
      </trkpt>
      <trkpt lat="50.49453" lon="1.82857">
        <ele>78</ele>
        <time>2019-08-11T08:35:18Z</time>
      </trkpt>
      <trkpt lat="50.49454" lon="1.82837">
        <ele>79</ele>
        <time>2019-08-11T08:35:21Z</time>
      </trkpt>
      <trkpt lat="50.49455" lon="1.82824">
        <ele>79</ele>
        <time>2019-08-11T08:35:23Z</time>
      </trkpt>
      <trkpt lat="50.49458" lon="1.82805">
        <ele>79</ele>
        <time>2019-08-11T08:35:26Z</time>
      </trkpt>
      <trkpt lat="50.49462" lon="1.82787">
        <ele>79</ele>
        <time>2019-08-11T08:35:29Z</time>
      </trkpt>
      <trkpt lat="50.49466" lon="1.82767">
        <ele>78</ele>
        <time>2019-08-11T08:35:32Z</time>
      </trkpt>
      <trkpt lat="50.4947" lon="1.82748">
        <ele>78</ele>
        <time>2019-08-11T08:35:35Z</time>
      </trkpt>
      <trkpt lat="50.49474" lon="1.82734">
        <ele>78</ele>
        <time>2019-08-11T08:35:37Z</time>
      </trkpt>
      <trkpt lat="50.49479" lon="1.82712">
        <ele>78</ele>
        <time>2019-08-11T08:35:40Z</time>
      </trkpt>
      <trkpt lat="50.49484" lon="1.82688">
        <ele>77</ele>
        <time>2019-08-11T08:35:43Z</time>
      </trkpt>
      <trkpt lat="50.49488" lon="1.82673">
        <ele>77</ele>
        <time>2019-08-11T08:35:45Z</time>
      </trkpt>
      <trkpt lat="50.49494" lon="1.82648">
        <ele>76</ele>
        <time>2019-08-11T08:35:48Z</time>
      </trkpt>
      <trkpt lat="50.49497" lon="1.82631">
        <ele>75</ele>
        <time>2019-08-11T08:35:50Z</time>
      </trkpt>
      <trkpt lat="50.49503" lon="1.82605">
        <ele>75</ele>
        <time>2019-08-11T08:35:53Z</time>
      </trkpt>
      <trkpt lat="50.49509" lon="1.82578">
        <ele>74</ele>
        <time>2019-08-11T08:35:56Z</time>
      </trkpt>
      <trkpt lat="50.49514" lon="1.82559">
        <ele>74</ele>
        <time>2019-08-11T08:35:58Z</time>
      </trkpt>
      <trkpt lat="50.49519" lon="1.82539">
        <ele>74</ele>
        <time>2019-08-11T08:36:00Z</time>
      </trkpt>
      <trkpt lat="50.49524" lon="1.82518">
        <ele>73</ele>
        <time>2019-08-11T08:36:02Z</time>
      </trkpt>
      <trkpt lat="50.49532" lon="1.82487">
        <ele>72</ele>
        <time>2019-08-11T08:36:05Z</time>
      </trkpt>
      <trkpt lat="50.4954" lon="1.82454">
        <ele>72</ele>
        <time>2019-08-11T08:36:08Z</time>
      </trkpt>
      <trkpt lat="50.49546" lon="1.82431">
        <ele>71</ele>
        <time>2019-08-11T08:36:10Z</time>
      </trkpt>
      <trkpt lat="50.49551" lon="1.82407">
        <ele>71</ele>
        <time>2019-08-11T08:36:12Z</time>
      </trkpt>
      <trkpt lat="50.4956" lon="1.8237">
        <ele>70</ele>
        <time>2019-08-11T08:36:15Z</time>
      </trkpt>
      <trkpt lat="50.49565" lon="1.82344">
        <ele>70</ele>
        <time>2019-08-11T08:36:17Z</time>
      </trkpt>
      <trkpt lat="50.49573" lon="1.82305">
        <ele>69</ele>
        <time>2019-08-11T08:36:20Z</time>
      </trkpt>
      <trkpt lat="50.49579" lon="1.82278">
        <ele>69</ele>
        <time>2019-08-11T08:36:22Z</time>
      </trkpt>
      <trkpt lat="50.49588" lon="1.82237">
        <ele>68</ele>
        <time>2019-08-11T08:36:25Z</time>
      </trkpt>
      <trkpt lat="50.49593" lon="1.82209">
        <ele>67</ele>
        <time>2019-08-11T08:36:27Z</time>
      </trkpt>
      <trkpt lat="50.49602" lon="1.82167">
        <ele>66</ele>
        <time>2019-08-11T08:36:30Z</time>
      </trkpt>
      <trkpt lat="50.49608" lon="1.82139">
        <ele>66</ele>
        <time>2019-08-11T08:36:32Z</time>
      </trkpt>
      <trkpt lat="50.49617" lon="1.82096">
        <ele>64</ele>
        <time>2019-08-11T08:36:35Z</time>
      </trkpt>
      <trkpt lat="50.49623" lon="1.82069">
        <ele>63</ele>
        <time>2019-08-11T08:36:37Z</time>
      </trkpt>
      <trkpt lat="50.49628" lon="1.82043">
        <ele>62</ele>
        <time>2019-08-11T08:36:39Z</time>
      </trkpt>
      <trkpt lat="50.49633" lon="1.82019">
        <ele>62</ele>
        <time>2019-08-11T08:36:41Z</time>
      </trkpt>
      <trkpt lat="50.49639" lon="1.8199">
        <ele>62</ele>
        <time>2019-08-11T08:36:44Z</time>
      </trkpt>
      <trkpt lat="50.49643" lon="1.81973">
        <ele>63</ele>
        <time>2019-08-11T08:36:46Z</time>
      </trkpt>
      <trkpt lat="50.49646" lon="1.81957">
        <ele>63</ele>
        <time>2019-08-11T08:36:48Z</time>
      </trkpt>
      <trkpt lat="50.49651" lon="1.81936">
        <ele>64</ele>
        <time>2019-08-11T08:36:51Z</time>
      </trkpt>
      <trkpt lat="50.49653" lon="1.81923">
        <ele>65</ele>
        <time>2019-08-11T08:36:53Z</time>
      </trkpt>
      <trkpt lat="50.49657" lon="1.81906">
        <ele>66</ele>
        <time>2019-08-11T08:36:56Z</time>
      </trkpt>
      <trkpt lat="50.49659" lon="1.81895">
        <ele>66</ele>
        <time>2019-08-11T08:36:58Z</time>
      </trkpt>
      <trkpt lat="50.49663" lon="1.81879">
        <ele>66</ele>
        <time>2019-08-11T08:37:02Z</time>
      </trkpt>
      <trkpt lat="50.49666" lon="1.81863">
        <ele>67</ele>
        <time>2019-08-11T08:37:04Z</time>
      </trkpt>
      <trkpt lat="50.4967" lon="1.81846">
        <ele>67</ele>
        <time>2019-08-11T08:37:07Z</time>
      </trkpt>
      <trkpt lat="50.49672" lon="1.81834">
        <ele>68</ele>
        <time>2019-08-11T08:37:09Z</time>
      </trkpt>
      <trkpt lat="50.49675" lon="1.81822">
        <ele>68</ele>
        <time>2019-08-11T08:37:11Z</time>
      </trkpt>
      <trkpt lat="50.49679" lon="1.81804">
        <ele>68</ele>
        <time>2019-08-11T08:37:14Z</time>
      </trkpt>
      <trkpt lat="50.49683" lon="1.81786">
        <ele>68</ele>
        <time>2019-08-11T08:37:17Z</time>
      </trkpt>
      <trkpt lat="50.49686" lon="1.81774">
        <ele>68</ele>
        <time>2019-08-11T08:37:19Z</time>
      </trkpt>
      <trkpt lat="50.49688" lon="1.81764">
        <ele>68</ele>
        <time>2019-08-11T08:37:21Z</time>
      </trkpt>
      <trkpt lat="50.49693" lon="1.81749">
        <ele>68</ele>
        <time>2019-08-11T08:37:24Z</time>
      </trkpt>
      <trkpt lat="50.49697" lon="1.81741">
        <ele>68</ele>
        <time>2019-08-11T08:37:26Z</time>
      </trkpt>
      <trkpt lat="50.49701" lon="1.81735">
        <ele>68</ele>
        <time>2019-08-11T08:37:28Z</time>
      </trkpt>
      <trkpt lat="50.49705" lon="1.81729">
        <ele>68</ele>
        <time>2019-08-11T08:37:30Z</time>
      </trkpt>
      <trkpt lat="50.49712" lon="1.81723">
        <ele>68</ele>
        <time>2019-08-11T08:37:33Z</time>
      </trkpt>
      <trkpt lat="50.49718" lon="1.8172">
        <ele>68</ele>
        <time>2019-08-11T08:37:36Z</time>
      </trkpt>
      <trkpt lat="50.49724" lon="1.81718">
        <ele>68</ele>
        <time>2019-08-11T08:37:38Z</time>
      </trkpt>
      <trkpt lat="50.49731" lon="1.81717">
        <ele>68</ele>
        <time>2019-08-11T08:37:40Z</time>
      </trkpt>
      <trkpt lat="50.49739" lon="1.81716">
        <ele>68</ele>
        <time>2019-08-11T08:37:42Z</time>
      </trkpt>
      <trkpt lat="50.49748" lon="1.81717">
        <ele>67</ele>
        <time>2019-08-11T08:37:44Z</time>
      </trkpt>
      <trkpt lat="50.49762" lon="1.81718">
        <ele>67</ele>
        <time>2019-08-11T08:37:47Z</time>
      </trkpt>
      <trkpt lat="50.49773" lon="1.81719">
        <ele>67</ele>
        <time>2019-08-11T08:37:49Z</time>
      </trkpt>
      <trkpt lat="50.49783" lon="1.8172">
        <ele>67</ele>
        <time>2019-08-11T08:37:51Z</time>
      </trkpt>
      <trkpt lat="50.49795" lon="1.81721">
        <ele>67</ele>
        <time>2019-08-11T08:37:53Z</time>
      </trkpt>
      <trkpt lat="50.49806" lon="1.81722">
        <ele>67</ele>
        <time>2019-08-11T08:37:55Z</time>
      </trkpt>
      <trkpt lat="50.49824" lon="1.81723">
        <ele>66</ele>
        <time>2019-08-11T08:37:58Z</time>
      </trkpt>
      <trkpt lat="50.49836" lon="1.81724">
        <ele>66</ele>
        <time>2019-08-11T08:38:00Z</time>
      </trkpt>
      <trkpt lat="50.49855" lon="1.81726">
        <ele>66</ele>
        <time>2019-08-11T08:38:03Z</time>
      </trkpt>
      <trkpt lat="50.4987" lon="1.81727">
        <ele>65</ele>
        <time>2019-08-11T08:38:05Z</time>
      </trkpt>
      <trkpt lat="50.49892" lon="1.81729">
        <ele>64</ele>
        <time>2019-08-11T08:38:08Z</time>
      </trkpt>
      <trkpt lat="50.49909" lon="1.81731">
        <ele>63</ele>
        <time>2019-08-11T08:38:10Z</time>
      </trkpt>
      <trkpt lat="50.49927" lon="1.81732">
        <ele>63</ele>
        <time>2019-08-11T08:38:12Z</time>
      </trkpt>
      <trkpt lat="50.49954" lon="1.81735">
        <ele>62</ele>
        <time>2019-08-11T08:38:15Z</time>
      </trkpt>
      <trkpt lat="50.49972" lon="1.81736">
        <ele>61</ele>
        <time>2019-08-11T08:38:17Z</time>
      </trkpt>
      <trkpt lat="50.49999" lon="1.81738">
        <ele>60</ele>
        <time>2019-08-11T08:38:20Z</time>
      </trkpt>
      <trkpt lat="50.50025" lon="1.81741">
        <ele>59</ele>
        <time>2019-08-11T08:38:23Z</time>
      </trkpt>
      <trkpt lat="50.5004" lon="1.81742">
        <ele>59</ele>
        <time>2019-08-11T08:38:25Z</time>
      </trkpt>
      <trkpt lat="50.50061" lon="1.81744">
        <ele>59</ele>
        <time>2019-08-11T08:38:28Z</time>
      </trkpt>
      <trkpt lat="50.50072" lon="1.81745">
        <ele>60</ele>
        <time>2019-08-11T08:38:30Z</time>
      </trkpt>
      <trkpt lat="50.50087" lon="1.81745">
        <ele>61</ele>
        <time>2019-08-11T08:38:33Z</time>
      </trkpt>
      <trkpt lat="50.50095" lon="1.81744">
        <ele>62</ele>
        <time>2019-08-11T08:38:35Z</time>
      </trkpt>
      <trkpt lat="50.50103" lon="1.8174">
        <ele>63</ele>
        <time>2019-08-11T08:38:37Z</time>
      </trkpt>
      <trkpt lat="50.50112" lon="1.81735">
        <ele>63</ele>
        <time>2019-08-11T08:38:39Z</time>
      </trkpt>
      <trkpt lat="50.50122" lon="1.81729">
        <ele>63</ele>
        <time>2019-08-11T08:38:41Z</time>
      </trkpt>
      <trkpt lat="50.50137" lon="1.81721">
        <ele>63</ele>
        <time>2019-08-11T08:38:44Z</time>
      </trkpt>
      <trkpt lat="50.50147" lon="1.81715">
        <ele>63</ele>
        <time>2019-08-11T08:38:46Z</time>
      </trkpt>
      <trkpt lat="50.50157" lon="1.81709">
        <ele>63</ele>
        <time>2019-08-11T08:38:48Z</time>
      </trkpt>
      <trkpt lat="50.50167" lon="1.81703">
        <ele>63</ele>
        <time>2019-08-11T08:38:50Z</time>
      </trkpt>
      <trkpt lat="50.50177" lon="1.81697">
        <ele>63</ele>
        <time>2019-08-11T08:38:52Z</time>
      </trkpt>
      <trkpt lat="50.50188" lon="1.8169">
        <ele>63</ele>
        <time>2019-08-11T08:38:54Z</time>
      </trkpt>
      <trkpt lat="50.50199" lon="1.81684">
        <ele>63</ele>
        <time>2019-08-11T08:38:56Z</time>
      </trkpt>
      <trkpt lat="50.50209" lon="1.81677">
        <ele>63</ele>
        <time>2019-08-11T08:38:58Z</time>
      </trkpt>
      <trkpt lat="50.50224" lon="1.81668">
        <ele>63</ele>
        <time>2019-08-11T08:39:01Z</time>
      </trkpt>
      <trkpt lat="50.50234" lon="1.81661">
        <ele>63</ele>
        <time>2019-08-11T08:39:03Z</time>
      </trkpt>
      <trkpt lat="50.50243" lon="1.81655">
        <ele>63</ele>
        <time>2019-08-11T08:39:05Z</time>
      </trkpt>
      <trkpt lat="50.50251" lon="1.8165">
        <ele>63</ele>
        <time>2019-08-11T08:39:07Z</time>
      </trkpt>
      <trkpt lat="50.50263" lon="1.81647">
        <ele>63</ele>
        <time>2019-08-11T08:39:10Z</time>
      </trkpt>
      <trkpt lat="50.50269" lon="1.81646">
        <ele>62</ele>
        <time>2019-08-11T08:39:12Z</time>
      </trkpt>
      <trkpt lat="50.50275" lon="1.81641">
        <ele>62</ele>
        <time>2019-08-11T08:39:15Z</time>
      </trkpt>
      <trkpt lat="50.50277" lon="1.81634">
        <ele>62</ele>
        <time>2019-08-11T08:39:17Z</time>
      </trkpt>
      <trkpt lat="50.50283" lon="1.8162">
        <ele>61</ele>
        <time>2019-08-11T08:39:20Z</time>
      </trkpt>
      <trkpt lat="50.50288" lon="1.81609">
        <ele>61</ele>
        <time>2019-08-11T08:39:22Z</time>
      </trkpt>
      <trkpt lat="50.50292" lon="1.81597">
        <ele>61</ele>
        <time>2019-08-11T08:39:24Z</time>
      </trkpt>
      <trkpt lat="50.50298" lon="1.81578">
        <ele>61</ele>
        <time>2019-08-11T08:39:27Z</time>
      </trkpt>
      <trkpt lat="50.50305" lon="1.8156">
        <ele>61</ele>
        <time>2019-08-11T08:39:30Z</time>
      </trkpt>
      <trkpt lat="50.5031" lon="1.81546">
        <ele>61</ele>
        <time>2019-08-11T08:39:32Z</time>
      </trkpt>
      <trkpt lat="50.50315" lon="1.81533">
        <ele>60</ele>
        <time>2019-08-11T08:39:34Z</time>
      </trkpt>
      <trkpt lat="50.5032" lon="1.81519">
        <ele>60</ele>
        <time>2019-08-11T08:39:36Z</time>
      </trkpt>
      <trkpt lat="50.50324" lon="1.81506">
        <ele>59</ele>
        <time>2019-08-11T08:39:38Z</time>
      </trkpt>
      <trkpt lat="50.50331" lon="1.81487">
        <ele>59</ele>
        <time>2019-08-11T08:39:41Z</time>
      </trkpt>
      <trkpt lat="50.50336" lon="1.81475">
        <ele>59</ele>
        <time>2019-08-11T08:39:43Z</time>
      </trkpt>
      <trkpt lat="50.50341" lon="1.81463">
        <ele>58</ele>
        <time>2019-08-11T08:39:45Z</time>
      </trkpt>
      <trkpt lat="50.50345" lon="1.8145">
        <ele>58</ele>
        <time>2019-08-11T08:39:47Z</time>
      </trkpt>
      <trkpt lat="50.50349" lon="1.81439">
        <ele>58</ele>
        <time>2019-08-11T08:39:49Z</time>
      </trkpt>
      <trkpt lat="50.50354" lon="1.81428">
        <ele>58</ele>
        <time>2019-08-11T08:39:51Z</time>
      </trkpt>
      <trkpt lat="50.50357" lon="1.81418">
        <ele>58</ele>
        <time>2019-08-11T08:39:53Z</time>
      </trkpt>
      <trkpt lat="50.50364" lon="1.81402">
        <ele>57</ele>
        <time>2019-08-11T08:39:56Z</time>
      </trkpt>
      <trkpt lat="50.50368" lon="1.81392">
        <ele>57</ele>
        <time>2019-08-11T08:39:58Z</time>
      </trkpt>
      <trkpt lat="50.50375" lon="1.81376">
        <ele>56</ele>
        <time>2019-08-11T08:40:01Z</time>
      </trkpt>
      <trkpt lat="50.50383" lon="1.81361">
        <ele>56</ele>
        <time>2019-08-11T08:40:04Z</time>
      </trkpt>
      <trkpt lat="50.50391" lon="1.81344">
        <ele>56</ele>
        <time>2019-08-11T08:40:07Z</time>
      </trkpt>
      <trkpt lat="50.50399" lon="1.81327">
        <ele>56</ele>
        <time>2019-08-11T08:40:10Z</time>
      </trkpt>
      <trkpt lat="50.50406" lon="1.81309">
        <ele>55</ele>
        <time>2019-08-11T08:40:13Z</time>
      </trkpt>
      <trkpt lat="50.50414" lon="1.8129">
        <ele>55</ele>
        <time>2019-08-11T08:40:16Z</time>
      </trkpt>
      <trkpt lat="50.50422" lon="1.81271">
        <ele>54</ele>
        <time>2019-08-11T08:40:19Z</time>
      </trkpt>
      <trkpt lat="50.50431" lon="1.81251">
        <ele>54</ele>
        <time>2019-08-11T08:40:22Z</time>
      </trkpt>
      <trkpt lat="50.50439" lon="1.81231">
        <ele>53</ele>
        <time>2019-08-11T08:40:25Z</time>
      </trkpt>
      <trkpt lat="50.50446" lon="1.81211">
        <ele>53</ele>
        <time>2019-08-11T08:40:28Z</time>
      </trkpt>
      <trkpt lat="50.50453" lon="1.8119">
        <ele>52</ele>
        <time>2019-08-11T08:40:31Z</time>
      </trkpt>
      <trkpt lat="50.50458" lon="1.81177">
        <ele>52</ele>
        <time>2019-08-11T08:40:33Z</time>
      </trkpt>
      <trkpt lat="50.50463" lon="1.81159">
        <ele>51</ele>
        <time>2019-08-11T08:40:36Z</time>
      </trkpt>
      <trkpt lat="50.50466" lon="1.8115">
        <ele>51</ele>
        <time>2019-08-11T08:40:38Z</time>
      </trkpt>
      <trkpt lat="50.5047" lon="1.81138">
        <ele>51</ele>
        <time>2019-08-11T08:40:41Z</time>
      </trkpt>
      <trkpt lat="50.50473" lon="1.8113">
        <ele>50</ele>
        <time>2019-08-11T08:40:43Z</time>
      </trkpt>
      <trkpt lat="50.50474" lon="1.81124">
        <ele>50</ele>
        <time>2019-08-11T08:40:45Z</time>
      </trkpt>
      <trkpt lat="50.50476" lon="1.81114">
        <ele>49</ele>
        <time>2019-08-11T08:40:48Z</time>
      </trkpt>
      <trkpt lat="50.50477" lon="1.8111">
        <ele>48</ele>
        <time>2019-08-11T08:40:51Z</time>
      </trkpt>
      <trkpt lat="50.50477" lon="1.81109">
        <ele>48</ele>
        <time>2019-08-11T08:40:53Z</time>
      </trkpt>
      <trkpt lat="50.50477" lon="1.81107">
        <ele>48</ele>
        <time>2019-08-11T08:40:56Z</time>
      </trkpt>
      <trkpt lat="50.50478" lon="1.81105">
        <ele>48</ele>
        <time>2019-08-11T08:40:59Z</time>
      </trkpt>
      <trkpt lat="50.50479" lon="1.81101">
        <ele>48</ele>
        <time>2019-08-11T08:41:02Z</time>
      </trkpt>
      <trkpt lat="50.5048" lon="1.81095">
        <ele>48</ele>
        <time>2019-08-11T08:41:05Z</time>
      </trkpt>
      <trkpt lat="50.50483" lon="1.8109">
        <ele>47</ele>
        <time>2019-08-11T08:41:08Z</time>
      </trkpt>
      <trkpt lat="50.50485" lon="1.81086">
        <ele>47</ele>
        <time>2019-08-11T08:41:10Z</time>
      </trkpt>
      <trkpt lat="50.50486" lon="1.81082">
        <ele>47</ele>
        <time>2019-08-11T08:41:12Z</time>
      </trkpt>
      <trkpt lat="50.50489" lon="1.81077">
        <ele>46</ele>
        <time>2019-08-11T08:41:15Z</time>
      </trkpt>
      <trkpt lat="50.50491" lon="1.81074">
        <ele>46</ele>
        <time>2019-08-11T08:41:18Z</time>
      </trkpt>
      <trkpt lat="50.50492" lon="1.81072">
        <ele>45</ele>
        <time>2019-08-11T08:41:20Z</time>
      </trkpt>
      <trkpt lat="50.50493" lon="1.8107">
        <ele>45</ele>
        <time>2019-08-11T08:41:23Z</time>
      </trkpt>
      <trkpt lat="50.50494" lon="1.81069">
        <ele>45</ele>
        <time>2019-08-11T08:41:25Z</time>
      </trkpt>
      <trkpt lat="50.50496" lon="1.81065">
        <ele>46</ele>
        <time>2019-08-11T08:41:28Z</time>
      </trkpt>
      <trkpt lat="50.50497" lon="1.81062">
        <ele>46</ele>
        <time>2019-08-11T08:41:31Z</time>
      </trkpt>
      <trkpt lat="50.50498" lon="1.81061">
        <ele>46</ele>
        <time>2019-08-11T08:41:33Z</time>
      </trkpt>
      <trkpt lat="50.50499" lon="1.8106">
        <ele>46</ele>
        <time>2019-08-11T08:41:36Z</time>
      </trkpt>
      <trkpt lat="50.50502" lon="1.81057">
        <ele>46</ele>
        <time>2019-08-11T08:41:38Z</time>
      </trkpt>
      <trkpt lat="50.50503" lon="1.81051">
        <ele>45</ele>
        <time>2019-08-11T08:41:41Z</time>
      </trkpt>
      <trkpt lat="50.50505" lon="1.81046">
        <ele>45</ele>
        <time>2019-08-11T08:41:43Z</time>
      </trkpt>
      <trkpt lat="50.50505" lon="1.81041">
        <ele>45</ele>
        <time>2019-08-11T08:41:45Z</time>
      </trkpt>
      <trkpt lat="50.50507" lon="1.81034">
        <ele>44</ele>
        <time>2019-08-11T08:41:48Z</time>
      </trkpt>
      <trkpt lat="50.50509" lon="1.81026">
        <ele>44</ele>
        <time>2019-08-11T08:41:51Z</time>
      </trkpt>
      <trkpt lat="50.5051" lon="1.81021">
        <ele>43</ele>
        <time>2019-08-11T08:41:53Z</time>
      </trkpt>
      <trkpt lat="50.50512" lon="1.81015">
        <ele>43</ele>
        <time>2019-08-11T08:41:55Z</time>
      </trkpt>
      <trkpt lat="50.50513" lon="1.81009">
        <ele>42</ele>
        <time>2019-08-11T08:41:57Z</time>
      </trkpt>
      <trkpt lat="50.50515" lon="1.81003">
        <ele>42</ele>
        <time>2019-08-11T08:41:59Z</time>
      </trkpt>
      <trkpt lat="50.50517" lon="1.80994">
        <ele>41</ele>
        <time>2019-08-11T08:42:02Z</time>
      </trkpt>
      <trkpt lat="50.50519" lon="1.80989">
        <ele>41</ele>
        <time>2019-08-11T08:42:04Z</time>
      </trkpt>
      <trkpt lat="50.50521" lon="1.80984">
        <ele>41</ele>
        <time>2019-08-11T08:42:06Z</time>
      </trkpt>
      <trkpt lat="50.50524" lon="1.80977">
        <ele>40</ele>
        <time>2019-08-11T08:42:09Z</time>
      </trkpt>
      <trkpt lat="50.50525" lon="1.80972">
        <ele>40</ele>
        <time>2019-08-11T08:42:12Z</time>
      </trkpt>
      <trkpt lat="50.50526" lon="1.80965">
        <ele>40</ele>
        <time>2019-08-11T08:42:15Z</time>
      </trkpt>
      <trkpt lat="50.50528" lon="1.80959">
        <ele>40</ele>
        <time>2019-08-11T08:42:18Z</time>
      </trkpt>
      <trkpt lat="50.50529" lon="1.80955">
        <ele>40</ele>
        <time>2019-08-11T08:42:20Z</time>
      </trkpt>
      <trkpt lat="50.50534" lon="1.80948">
        <ele>39</ele>
        <time>2019-08-11T08:42:23Z</time>
      </trkpt>
      <trkpt lat="50.50535" lon="1.80944">
        <ele>39</ele>
        <time>2019-08-11T08:42:25Z</time>
      </trkpt>
      <trkpt lat="50.50535" lon="1.80942">
        <ele>39</ele>
        <time>2019-08-11T08:42:27Z</time>
      </trkpt>
      <trkpt lat="50.50535" lon="1.8094">
        <ele>39</ele>
        <time>2019-08-11T08:42:29Z</time>
      </trkpt>
      <trkpt lat="50.50536" lon="1.80938">
        <ele>39</ele>
        <time>2019-08-11T08:42:32Z</time>
      </trkpt>
      <trkpt lat="50.50537" lon="1.80936">
        <ele>38</ele>
        <time>2019-08-11T08:42:34Z</time>
      </trkpt>
      <trkpt lat="50.50539" lon="1.80934">
        <ele>38</ele>
        <time>2019-08-11T08:42:36Z</time>
      </trkpt>
      <trkpt lat="50.50539" lon="1.80932">
        <ele>38</ele>
        <time>2019-08-11T08:42:39Z</time>
      </trkpt>
      <trkpt lat="50.50541" lon="1.80925">
        <ele>38</ele>
        <time>2019-08-11T08:42:42Z</time>
      </trkpt>
      <trkpt lat="50.50542" lon="1.80916">
        <ele>39</ele>
        <time>2019-08-11T08:42:45Z</time>
      </trkpt>
      <trkpt lat="50.50545" lon="1.80907">
        <ele>38</ele>
        <time>2019-08-11T08:42:48Z</time>
      </trkpt>
      <trkpt lat="50.50546" lon="1.80902">
        <ele>37</ele>
        <time>2019-08-11T08:42:50Z</time>
      </trkpt>
      <trkpt lat="50.50547" lon="1.80897">
        <ele>37</ele>
        <time>2019-08-11T08:42:52Z</time>
      </trkpt>
      <trkpt lat="50.5055" lon="1.8089">
        <ele>36</ele>
        <time>2019-08-11T08:42:55Z</time>
      </trkpt>
      <trkpt lat="50.50552" lon="1.80886">
        <ele>36</ele>
        <time>2019-08-11T08:42:57Z</time>
      </trkpt>
      <trkpt lat="50.50553" lon="1.80879">
        <ele>35</ele>
        <time>2019-08-11T08:43:00Z</time>
      </trkpt>
      <trkpt lat="50.50554" lon="1.80875">
        <ele>35</ele>
        <time>2019-08-11T08:43:02Z</time>
      </trkpt>
      <trkpt lat="50.50555" lon="1.80869">
        <ele>35</ele>
        <time>2019-08-11T08:43:05Z</time>
      </trkpt>
      <trkpt lat="50.50557" lon="1.80861">
        <ele>34</ele>
        <time>2019-08-11T08:43:08Z</time>
      </trkpt>
      <trkpt lat="50.50558" lon="1.80857">
        <ele>34</ele>
        <time>2019-08-11T08:43:11Z</time>
      </trkpt>
      <trkpt lat="50.50561" lon="1.8085">
        <ele>34</ele>
        <time>2019-08-11T08:43:14Z</time>
      </trkpt>
      <trkpt lat="50.50565" lon="1.80839">
        <ele>33</ele>
        <time>2019-08-11T08:43:17Z</time>
      </trkpt>
      <trkpt lat="50.50567" lon="1.80832">
        <ele>33</ele>
        <time>2019-08-11T08:43:19Z</time>
      </trkpt>
      <trkpt lat="50.50568" lon="1.80824">
        <ele>32</ele>
        <time>2019-08-11T08:43:21Z</time>
      </trkpt>
      <trkpt lat="50.50571" lon="1.80813">
        <ele>32</ele>
        <time>2019-08-11T08:43:24Z</time>
      </trkpt>
      <trkpt lat="50.50575" lon="1.80807">
        <ele>31</ele>
        <time>2019-08-11T08:43:27Z</time>
      </trkpt>
      <trkpt lat="50.50577" lon="1.808">
        <ele>31</ele>
        <time>2019-08-11T08:43:29Z</time>
      </trkpt>
      <trkpt lat="50.50579" lon="1.80793">
        <ele>31</ele>
        <time>2019-08-11T08:43:31Z</time>
      </trkpt>
      <trkpt lat="50.50583" lon="1.8078">
        <ele>30</ele>
        <time>2019-08-11T08:43:34Z</time>
      </trkpt>
      <trkpt lat="50.50585" lon="1.80773">
        <ele>30</ele>
        <time>2019-08-11T08:43:36Z</time>
      </trkpt>
      <trkpt lat="50.50587" lon="1.80765">
        <ele>29</ele>
        <time>2019-08-11T08:43:38Z</time>
      </trkpt>
      <trkpt lat="50.5059" lon="1.80755">
        <ele>29</ele>
        <time>2019-08-11T08:43:41Z</time>
      </trkpt>
      <trkpt lat="50.50591" lon="1.80747">
        <ele>28</ele>
        <time>2019-08-11T08:43:43Z</time>
      </trkpt>
      <trkpt lat="50.50592" lon="1.80734">
        <ele>27</ele>
        <time>2019-08-11T08:43:46Z</time>
      </trkpt>
      <trkpt lat="50.50591" lon="1.80723">
        <ele>27</ele>
        <time>2019-08-11T08:43:49Z</time>
      </trkpt>
      <trkpt lat="50.5059" lon="1.80717">
        <ele>27</ele>
        <time>2019-08-11T08:43:51Z</time>
      </trkpt>
      <trkpt lat="50.50588" lon="1.80709">
        <ele>26</ele>
        <time>2019-08-11T08:43:54Z</time>
      </trkpt>
      <trkpt lat="50.50588" lon="1.80704">
        <ele>26</ele>
        <time>2019-08-11T08:43:56Z</time>
      </trkpt>
      <trkpt lat="50.50585" lon="1.80694">
        <ele>25</ele>
        <time>2019-08-11T08:43:59Z</time>
      </trkpt>
      <trkpt lat="50.50583" lon="1.80683">
        <ele>24</ele>
        <time>2019-08-11T08:44:02Z</time>
      </trkpt>
      <trkpt lat="50.50581" lon="1.80676">
        <ele>23</ele>
        <time>2019-08-11T08:44:04Z</time>
      </trkpt>
      <trkpt lat="50.5058" lon="1.80668">
        <ele>23</ele>
        <time>2019-08-11T08:44:06Z</time>
      </trkpt>
      <trkpt lat="50.50578" lon="1.80658">
        <ele>22</ele>
        <time>2019-08-11T08:44:09Z</time>
      </trkpt>
      <trkpt lat="50.50575" lon="1.80646">
        <ele>22</ele>
        <time>2019-08-11T08:44:12Z</time>
      </trkpt>
      <trkpt lat="50.5057" lon="1.80632">
        <ele>21</ele>
        <time>2019-08-11T08:44:15Z</time>
      </trkpt>
      <trkpt lat="50.50566" lon="1.80617">
        <ele>20</ele>
        <time>2019-08-11T08:44:18Z</time>
      </trkpt>
      <trkpt lat="50.50563" lon="1.8061">
        <ele>19</ele>
        <time>2019-08-11T08:44:20Z</time>
      </trkpt>
      <trkpt lat="50.50558" lon="1.80596">
        <ele>19</ele>
        <time>2019-08-11T08:44:23Z</time>
      </trkpt>
      <trkpt lat="50.50555" lon="1.80583">
        <ele>18</ele>
        <time>2019-08-11T08:44:26Z</time>
      </trkpt>
      <trkpt lat="50.50552" lon="1.80575">
        <ele>18</ele>
        <time>2019-08-11T08:44:28Z</time>
      </trkpt>
      <trkpt lat="50.5055" lon="1.80567">
        <ele>18</ele>
        <time>2019-08-11T08:44:30Z</time>
      </trkpt>
      <trkpt lat="50.50549" lon="1.80556">
        <ele>18</ele>
        <time>2019-08-11T08:44:32Z</time>
      </trkpt>
      <trkpt lat="50.50548" lon="1.80543">
        <ele>17</ele>
        <time>2019-08-11T08:44:34Z</time>
      </trkpt>
      <trkpt lat="50.5055" lon="1.80529">
        <ele>17</ele>
        <time>2019-08-11T08:44:36Z</time>
      </trkpt>
      <trkpt lat="50.50554" lon="1.80515">
        <ele>17</ele>
        <time>2019-08-11T08:44:38Z</time>
      </trkpt>
      <trkpt lat="50.50559" lon="1.80491">
        <ele>16</ele>
        <time>2019-08-11T08:44:41Z</time>
      </trkpt>
      <trkpt lat="50.50564" lon="1.80475">
        <ele>15</ele>
        <time>2019-08-11T08:44:43Z</time>
      </trkpt>
      <trkpt lat="50.50571" lon="1.80452">
        <ele>15</ele>
        <time>2019-08-11T08:44:46Z</time>
      </trkpt>
      <trkpt lat="50.5058" lon="1.80429">
        <ele>14</ele>
        <time>2019-08-11T08:44:49Z</time>
      </trkpt>
      <trkpt lat="50.50589" lon="1.80404">
        <ele>14</ele>
        <time>2019-08-11T08:44:52Z</time>
      </trkpt>
      <trkpt lat="50.50594" lon="1.80389">
        <ele>13</ele>
        <time>2019-08-11T08:44:54Z</time>
      </trkpt>
      <trkpt lat="50.50601" lon="1.80374">
        <ele>13</ele>
        <time>2019-08-11T08:44:56Z</time>
      </trkpt>
      <trkpt lat="50.50609" lon="1.8035">
        <ele>13</ele>
        <time>2019-08-11T08:44:59Z</time>
      </trkpt>
      <trkpt lat="50.50615" lon="1.80335">
        <ele>12</ele>
        <time>2019-08-11T08:45:01Z</time>
      </trkpt>
      <trkpt lat="50.5062" lon="1.8032">
        <ele>12</ele>
        <time>2019-08-11T08:45:03Z</time>
      </trkpt>
      <trkpt lat="50.50625" lon="1.80306">
        <ele>12</ele>
        <time>2019-08-11T08:45:05Z</time>
      </trkpt>
      <trkpt lat="50.50632" lon="1.80286">
        <ele>11</ele>
        <time>2019-08-11T08:45:08Z</time>
      </trkpt>
      <trkpt lat="50.50638" lon="1.80266">
        <ele>10</ele>
        <time>2019-08-11T08:45:11Z</time>
      </trkpt>
      <trkpt lat="50.50642" lon="1.80252">
        <ele>10</ele>
        <time>2019-08-11T08:45:13Z</time>
      </trkpt>
      <trkpt lat="50.50645" lon="1.80237">
        <ele>9</ele>
        <time>2019-08-11T08:45:15Z</time>
      </trkpt>
      <trkpt lat="50.50649" lon="1.80222">
        <ele>9</ele>
        <time>2019-08-11T08:45:17Z</time>
      </trkpt>
      <trkpt lat="50.50654" lon="1.802">
        <ele>8</ele>
        <time>2019-08-11T08:45:20Z</time>
      </trkpt>
      <trkpt lat="50.50658" lon="1.80184">
        <ele>8</ele>
        <time>2019-08-11T08:45:22Z</time>
      </trkpt>
      <trkpt lat="50.50662" lon="1.80168">
        <ele>8</ele>
        <time>2019-08-11T08:45:24Z</time>
      </trkpt>
      <trkpt lat="50.50666" lon="1.80151">
        <ele>8</ele>
        <time>2019-08-11T08:45:26Z</time>
      </trkpt>
      <trkpt lat="50.50672" lon="1.80126">
        <ele>8</ele>
        <time>2019-08-11T08:45:29Z</time>
      </trkpt>
      <trkpt lat="50.50676" lon="1.8011">
        <ele>8</ele>
        <time>2019-08-11T08:45:32Z</time>
      </trkpt>
      <trkpt lat="50.50683" lon="1.80087">
        <ele>8</ele>
        <time>2019-08-11T08:45:34Z</time>
      </trkpt>
      <trkpt lat="50.50687" lon="1.80073">
        <ele>7</ele>
        <time>2019-08-11T08:45:36Z</time>
      </trkpt>
      <trkpt lat="50.5069" lon="1.8006">
        <ele>7</ele>
        <time>2019-08-11T08:45:38Z</time>
      </trkpt>
      <trkpt lat="50.50695" lon="1.80042">
        <ele>7</ele>
        <time>2019-08-11T08:45:41Z</time>
      </trkpt>
      <trkpt lat="50.50699" lon="1.80029">
        <ele>7</ele>
        <time>2019-08-11T08:45:43Z</time>
      </trkpt>
      <trkpt lat="50.50704" lon="1.80009">
        <ele>6</ele>
        <time>2019-08-11T08:45:46Z</time>
      </trkpt>
      <trkpt lat="50.5071" lon="1.79988">
        <ele>6</ele>
        <time>2019-08-11T08:45:49Z</time>
      </trkpt>
      <trkpt lat="50.50713" lon="1.79973">
        <ele>6</ele>
        <time>2019-08-11T08:45:51Z</time>
      </trkpt>
      <trkpt lat="50.50719" lon="1.79951">
        <ele>6</ele>
        <time>2019-08-11T08:45:54Z</time>
      </trkpt>
      <trkpt lat="50.50723" lon="1.79928">
        <ele>6</ele>
        <time>2019-08-11T08:45:57Z</time>
      </trkpt>
      <trkpt lat="50.50726" lon="1.79913">
        <ele>5</ele>
        <time>2019-08-11T08:45:59Z</time>
      </trkpt>
      <trkpt lat="50.50729" lon="1.7989">
        <ele>5</ele>
        <time>2019-08-11T08:46:02Z</time>
      </trkpt>
      <trkpt lat="50.50731" lon="1.79876">
        <ele>5</ele>
        <time>2019-08-11T08:46:04Z</time>
      </trkpt>
      <trkpt lat="50.50734" lon="1.79862">
        <ele>4</ele>
        <time>2019-08-11T08:46:06Z</time>
      </trkpt>
      <trkpt lat="50.50736" lon="1.79849">
        <ele>4</ele>
        <time>2019-08-11T08:46:08Z</time>
      </trkpt>
      <trkpt lat="50.50738" lon="1.79836">
        <ele>3</ele>
        <time>2019-08-11T08:46:10Z</time>
      </trkpt>
      <trkpt lat="50.5074" lon="1.79823">
        <ele>3</ele>
        <time>2019-08-11T08:46:12Z</time>
      </trkpt>
      <trkpt lat="50.50742" lon="1.79811">
        <ele>3</ele>
        <time>2019-08-11T08:46:14Z</time>
      </trkpt>
      <trkpt lat="50.50746" lon="1.79792">
        <ele>3</ele>
        <time>2019-08-11T08:46:17Z</time>
      </trkpt>
      <trkpt lat="50.50748" lon="1.79778">
        <ele>2</ele>
        <time>2019-08-11T08:46:19Z</time>
      </trkpt>
      <trkpt lat="50.5075" lon="1.79762">
        <ele>2</ele>
        <time>2019-08-11T08:46:21Z</time>
      </trkpt>
      <trkpt lat="50.50752" lon="1.79735">
        <ele>2</ele>
        <time>2019-08-11T08:46:24Z</time>
      </trkpt>
      <trkpt lat="50.50753" lon="1.79717">
        <ele>1</ele>
        <time>2019-08-11T08:46:26Z</time>
      </trkpt>
      <trkpt lat="50.50754" lon="1.79704">
        <ele>25.5</ele>
        <time>2019-08-11T08:46:28Z</time>
      </trkpt>
      <trkpt lat="50.50754" lon="1.79693">
        <ele>25.1</ele>
        <time>2019-08-11T08:46:31Z</time>
      </trkpt>
      <trkpt lat="50.50753" lon="1.79687">
        <ele>-1</ele>
        <time>2019-08-11T08:46:33Z</time>
      </trkpt>
      <trkpt lat="50.50751" lon="1.79678">
        <ele>-1</ele>
        <time>2019-08-11T08:46:35Z</time>
      </trkpt>
      <trkpt lat="50.50748" lon="1.79668">
        <ele>-1</ele>
        <time>2019-08-11T08:46:37Z</time>
      </trkpt>
      <trkpt lat="50.50747" lon="1.79658">
        <ele>-1</ele>
        <time>2019-08-11T08:46:39Z</time>
      </trkpt>
      <trkpt lat="50.50746" lon="1.79638">
        <ele>-2</ele>
        <time>2019-08-11T08:46:42Z</time>
      </trkpt>
      <trkpt lat="50.50745" lon="1.79623">
        <ele>-2</ele>
        <time>2019-08-11T08:46:44Z</time>
      </trkpt>
      <trkpt lat="50.50746" lon="1.79595">
        <ele>-3</ele>
        <time>2019-08-11T08:46:47Z</time>
      </trkpt>
      <trkpt lat="50.50749" lon="1.79573">
        <ele>-4</ele>
        <time>2019-08-11T08:46:49Z</time>
      </trkpt>
      <trkpt lat="50.50754" lon="1.79537">
        <ele>-4</ele>
        <time>2019-08-11T08:46:52Z</time>
      </trkpt>
      <trkpt lat="50.50755" lon="1.79513">
        <ele>-5</ele>
        <time>2019-08-11T08:46:54Z</time>
      </trkpt>
      <trkpt lat="50.50756" lon="1.79489">
        <ele>-6</ele>
        <time>2019-08-11T08:46:56Z</time>
      </trkpt>
      <trkpt lat="50.50756" lon="1.79465">
        <ele>-7</ele>
        <time>2019-08-11T08:46:58Z</time>
      </trkpt>
      <trkpt lat="50.50755" lon="1.79442">
        <ele>-7</ele>
        <time>2019-08-11T08:47:00Z</time>
      </trkpt>
      <trkpt lat="50.50753" lon="1.79409">
        <ele>-7</ele>
        <time>2019-08-11T08:47:03Z</time>
      </trkpt>
      <trkpt lat="50.50751" lon="1.79388">
        <ele>-8</ele>
        <time>2019-08-11T08:47:05Z</time>
      </trkpt>
      <trkpt lat="50.50749" lon="1.79357">
        <ele>-9</ele>
        <time>2019-08-11T08:47:08Z</time>
      </trkpt>
      <trkpt lat="50.50748" lon="1.79337">
        <ele>-9</ele>
        <time>2019-08-11T08:47:10Z</time>
      </trkpt>
      <trkpt lat="50.50746" lon="1.7931">
        <ele>-10</ele>
        <time>2019-08-11T08:47:13Z</time>
      </trkpt>
      <trkpt lat="50.50747" lon="1.79293">
        <ele>-10</ele>
        <time>2019-08-11T08:47:15Z</time>
      </trkpt>
      <trkpt lat="50.50742" lon="1.79275">
        <ele>-11</ele>
        <time>2019-08-11T08:47:18Z</time>
      </trkpt>
      <trkpt lat="50.50736" lon="1.79267">
        <ele>-11</ele>
        <time>2019-08-11T08:47:20Z</time>
      </trkpt>
      <trkpt lat="50.50728" lon="1.79261">
        <ele>-10</ele>
        <time>2019-08-11T08:47:22Z</time>
      </trkpt>
      <trkpt lat="50.5072" lon="1.79258">
        <ele>-11</ele>
        <time>2019-08-11T08:47:24Z</time>
      </trkpt>
      <trkpt lat="50.50712" lon="1.79256">
        <ele>-10</ele>
        <time>2019-08-11T08:47:26Z</time>
      </trkpt>
      <trkpt lat="50.50706" lon="1.79253">
        <ele>-11</ele>
        <time>2019-08-11T08:47:28Z</time>
      </trkpt>
      <trkpt lat="50.50703" lon="1.79248">
        <ele>-11</ele>
        <time>2019-08-11T08:47:30Z</time>
      </trkpt>
      <trkpt lat="50.50702" lon="1.79248">
        <ele>-11</ele>
        <time>2019-08-11T08:47:33Z</time>
      </trkpt>
      <trkpt lat="50.50702" lon="1.7925">
        <ele>-11</ele>
        <time>2019-08-11T08:47:35Z</time>
      </trkpt>
      <trkpt lat="50.50706" lon="1.79253">
        <ele>-11</ele>
        <time>2019-08-11T08:47:38Z</time>
      </trkpt>
      <trkpt lat="50.50712" lon="1.79257">
        <ele>-11</ele>
        <time>2019-08-11T08:47:41Z</time>
      </trkpt>
      <trkpt lat="50.50718" lon="1.79258">
        <ele>-11</ele>
        <time>2019-08-11T08:47:43Z</time>
      </trkpt>
      <trkpt lat="50.50724" lon="1.7926">
        <ele>-11</ele>
        <time>2019-08-11T08:47:45Z</time>
      </trkpt>
      <trkpt lat="50.5073" lon="1.79262">
        <ele>-11</ele>
        <time>2019-08-11T08:47:47Z</time>
      </trkpt>
      <trkpt lat="50.50738" lon="1.79269">
        <ele>-11</ele>
        <time>2019-08-11T08:47:50Z</time>
      </trkpt>
      <trkpt lat="50.50742" lon="1.79276">
        <ele>-11</ele>
        <time>2019-08-11T08:47:52Z</time>
      </trkpt>
      <trkpt lat="50.50745" lon="1.79284">
        <ele>-10</ele>
        <time>2019-08-11T08:47:54Z</time>
      </trkpt>
      <trkpt lat="50.50745" lon="1.79294">
        <ele>-10</ele>
        <time>2019-08-11T08:47:56Z</time>
      </trkpt>
      <trkpt lat="50.50745" lon="1.79309">
        <ele>-9</ele>
        <time>2019-08-11T08:47:59Z</time>
      </trkpt>
      <trkpt lat="50.50746" lon="1.79319">
        <ele>-9</ele>
        <time>2019-08-11T08:48:01Z</time>
      </trkpt>
      <trkpt lat="50.50747" lon="1.7933">
        <ele>-9</ele>
        <time>2019-08-11T08:48:03Z</time>
      </trkpt>
      <trkpt lat="50.50748" lon="1.79348">
        <ele>-9</ele>
        <time>2019-08-11T08:48:06Z</time>
      </trkpt>
      <trkpt lat="50.50749" lon="1.79358">
        <ele>-9</ele>
        <time>2019-08-11T08:48:08Z</time>
      </trkpt>
      <trkpt lat="50.5075" lon="1.79376">
        <ele>-9</ele>
        <time>2019-08-11T08:48:11Z</time>
      </trkpt>
      <trkpt lat="50.50751" lon="1.79388">
        <ele>-9</ele>
        <time>2019-08-11T08:48:13Z</time>
      </trkpt>
      <trkpt lat="50.50753" lon="1.79401">
        <ele>-9</ele>
        <time>2019-08-11T08:48:15Z</time>
      </trkpt>
      <trkpt lat="50.50754" lon="1.79418">
        <ele>-9</ele>
        <time>2019-08-11T08:48:18Z</time>
      </trkpt>
      <trkpt lat="50.50755" lon="1.79429">
        <ele>-9</ele>
        <time>2019-08-11T08:48:20Z</time>
      </trkpt>
      <trkpt lat="50.50755" lon="1.79441">
        <ele>-8</ele>
        <time>2019-08-11T08:48:22Z</time>
      </trkpt>
      <trkpt lat="50.50756" lon="1.79458">
        <ele>-8</ele>
        <time>2019-08-11T08:48:25Z</time>
      </trkpt>
      <trkpt lat="50.50756" lon="1.79475">
        <ele>-8</ele>
        <time>2019-08-11T08:48:28Z</time>
      </trkpt>
      <trkpt lat="50.50756" lon="1.79487">
        <ele>-7</ele>
        <time>2019-08-11T08:48:30Z</time>
      </trkpt>
      <trkpt lat="50.50756" lon="1.79505">
        <ele>-7</ele>
        <time>2019-08-11T08:48:33Z</time>
      </trkpt>
      <trkpt lat="50.50755" lon="1.79517">
        <ele>-7</ele>
        <time>2019-08-11T08:48:35Z</time>
      </trkpt>
      <trkpt lat="50.50755" lon="1.79529">
        <ele>-7</ele>
        <time>2019-08-11T08:48:37Z</time>
      </trkpt>
      <trkpt lat="50.50763" lon="1.7954">
        <ele>-7</ele>
        <time>2019-08-11T08:48:40Z</time>
      </trkpt>
      <trkpt lat="50.50771" lon="1.79539">
        <ele>-7</ele>
        <time>2019-08-11T08:48:42Z</time>
      </trkpt>
      <trkpt lat="50.50779" lon="1.79536">
        <ele>-7</ele>
        <time>2019-08-11T08:48:44Z</time>
      </trkpt>
      <trkpt lat="50.50789" lon="1.79534">
        <ele>-7</ele>
        <time>2019-08-11T08:48:46Z</time>
      </trkpt>
      <trkpt lat="50.50804" lon="1.79529">
        <ele>-7</ele>
        <time>2019-08-11T08:48:49Z</time>
      </trkpt>
      <trkpt lat="50.50821" lon="1.79525">
        <ele>-7</ele>
        <time>2019-08-11T08:48:52Z</time>
      </trkpt>
      <trkpt lat="50.50832" lon="1.79522">
        <ele>-7</ele>
        <time>2019-08-11T08:48:54Z</time>
      </trkpt>
      <trkpt lat="50.50843" lon="1.79519">
        <ele>-8</ele>
        <time>2019-08-11T08:48:57Z</time>
      </trkpt>
      <trkpt lat="50.50861" lon="1.79515">
        <ele>-8</ele>
        <time>2019-08-11T08:48:59Z</time>
      </trkpt>
      <trkpt lat="50.50878" lon="1.79511">
        <ele>-8</ele>
        <time>2019-08-11T08:49:02Z</time>
      </trkpt>
      <trkpt lat="50.5089" lon="1.79509">
        <ele>-8</ele>
        <time>2019-08-11T08:49:04Z</time>
      </trkpt>
      <trkpt lat="50.50903" lon="1.79505">
        <ele>-8</ele>
        <time>2019-08-11T08:49:06Z</time>
      </trkpt>
      <trkpt lat="50.50915" lon="1.79499">
        <ele>-8</ele>
        <time>2019-08-11T08:49:08Z</time>
      </trkpt>
      <trkpt lat="50.50927" lon="1.79491">
        <ele>-8</ele>
        <time>2019-08-11T08:49:10Z</time>
      </trkpt>
      <trkpt lat="50.50945" lon="1.7948">
        <ele>-8</ele>
        <time>2019-08-11T08:49:13Z</time>
      </trkpt>
      <trkpt lat="50.50957" lon="1.79473">
        <ele>-8</ele>
        <time>2019-08-11T08:49:15Z</time>
      </trkpt>
      <trkpt lat="50.5097" lon="1.79466">
        <ele>-8</ele>
        <time>2019-08-11T08:49:17Z</time>
      </trkpt>
      <trkpt lat="50.50982" lon="1.79459">
        <ele>-9</ele>
        <time>2019-08-11T08:49:19Z</time>
      </trkpt>
      <trkpt lat="50.50995" lon="1.79451">
        <ele>-9</ele>
        <time>2019-08-11T08:49:21Z</time>
      </trkpt>
      <trkpt lat="50.51007" lon="1.79443">
        <ele>-9</ele>
        <time>2019-08-11T08:49:23Z</time>
      </trkpt>
      <trkpt lat="50.51026" lon="1.79428">
        <ele>-10</ele>
        <time>2019-08-11T08:49:26Z</time>
      </trkpt>
      <trkpt lat="50.51043" lon="1.79408">
        <ele>-10</ele>
        <time>2019-08-11T08:49:29Z</time>
      </trkpt>
      <trkpt lat="50.51055" lon="1.79395">
        <ele>-10</ele>
        <time>2019-08-11T08:49:31Z</time>
      </trkpt>
      <trkpt lat="50.51066" lon="1.79384">
        <ele>-10</ele>
        <time>2019-08-11T08:49:33Z</time>
      </trkpt>
      <trkpt lat="50.51078" lon="1.79375">
        <ele>-10</ele>
        <time>2019-08-11T08:49:35Z</time>
      </trkpt>
      <trkpt lat="50.51093" lon="1.79358">
        <ele>-9</ele>
        <time>2019-08-11T08:49:38Z</time>
      </trkpt>
      <trkpt lat="50.51102" lon="1.79347">
        <ele>-9</ele>
        <time>2019-08-11T08:49:40Z</time>
      </trkpt>
      <trkpt lat="50.51111" lon="1.79335">
        <ele>-9</ele>
        <time>2019-08-11T08:49:42Z</time>
      </trkpt>
      <trkpt lat="50.51125" lon="1.79318">
        <ele>-9</ele>
        <time>2019-08-11T08:49:45Z</time>
      </trkpt>
      <trkpt lat="50.51134" lon="1.79308">
        <ele>-9</ele>
        <time>2019-08-11T08:49:47Z</time>
      </trkpt>
      <trkpt lat="50.51148" lon="1.79294">
        <ele>-10</ele>
        <time>2019-08-11T08:49:50Z</time>
      </trkpt>
      <trkpt lat="50.51157" lon="1.79286">
        <ele>-9</ele>
        <time>2019-08-11T08:49:52Z</time>
      </trkpt>
      <trkpt lat="50.5117" lon="1.79276">
        <ele>-9</ele>
        <time>2019-08-11T08:49:55Z</time>
      </trkpt>
      <trkpt lat="50.51179" lon="1.79271">
        <ele>-9</ele>
        <time>2019-08-11T08:49:57Z</time>
      </trkpt>
      <trkpt lat="50.5119" lon="1.79264">
        <ele>-8</ele>
        <time>2019-08-11T08:50:00Z</time>
      </trkpt>
      <trkpt lat="50.51197" lon="1.7926">
        <ele>-8</ele>
        <time>2019-08-11T08:50:02Z</time>
      </trkpt>
      <trkpt lat="50.51204" lon="1.79256">
        <ele>-8</ele>
        <time>2019-08-11T08:50:04Z</time>
      </trkpt>
      <trkpt lat="50.5121" lon="1.79253">
        <ele>-7</ele>
        <time>2019-08-11T08:50:06Z</time>
      </trkpt>
      <trkpt lat="50.51218" lon="1.79247">
        <ele>-7</ele>
        <time>2019-08-11T08:50:08Z</time>
      </trkpt>
      <trkpt lat="50.51229" lon="1.79238">
        <ele>-6</ele>
        <time>2019-08-11T08:50:11Z</time>
      </trkpt>
      <trkpt lat="50.51242" lon="1.79229">
        <ele>-6</ele>
        <time>2019-08-11T08:50:14Z</time>
      </trkpt>
      <trkpt lat="50.51252" lon="1.79224">
        <ele>-6</ele>
        <time>2019-08-11T08:50:16Z</time>
      </trkpt>
      <trkpt lat="50.51262" lon="1.7922">
        <ele>-6</ele>
        <time>2019-08-11T08:50:18Z</time>
      </trkpt>
      <trkpt lat="50.51277" lon="1.79213">
        <ele>-7</ele>
        <time>2019-08-11T08:50:21Z</time>
      </trkpt>
      <trkpt lat="50.51287" lon="1.79209">
        <ele>-7</ele>
        <time>2019-08-11T08:50:23Z</time>
      </trkpt>
      <trkpt lat="50.51297" lon="1.79205">
        <ele>-7</ele>
        <time>2019-08-11T08:50:25Z</time>
      </trkpt>
      <trkpt lat="50.51308" lon="1.79201">
        <ele>-7</ele>
        <time>2019-08-11T08:50:27Z</time>
      </trkpt>
      <trkpt lat="50.51319" lon="1.79197">
        <ele>-7</ele>
        <time>2019-08-11T08:50:29Z</time>
      </trkpt>
      <trkpt lat="50.51336" lon="1.79191">
        <ele>-8</ele>
        <time>2019-08-11T08:50:32Z</time>
      </trkpt>
      <trkpt lat="50.51347" lon="1.79186">
        <ele>-8</ele>
        <time>2019-08-11T08:50:34Z</time>
      </trkpt>
      <trkpt lat="50.5136" lon="1.79181">
        <ele>-8</ele>
        <time>2019-08-11T08:50:36Z</time>
      </trkpt>
      <trkpt lat="50.51371" lon="1.79176">
        <ele>-8</ele>
        <time>2019-08-11T08:50:38Z</time>
      </trkpt>
      <trkpt lat="50.51384" lon="1.79171">
        <ele>-9</ele>
        <time>2019-08-11T08:50:40Z</time>
      </trkpt>
      <trkpt lat="50.51395" lon="1.79166">
        <ele>-9</ele>
        <time>2019-08-11T08:50:42Z</time>
      </trkpt>
      <trkpt lat="50.51406" lon="1.79161">
        <ele>-9</ele>
        <time>2019-08-11T08:50:44Z</time>
      </trkpt>
      <trkpt lat="50.51418" lon="1.79155">
        <ele>-8</ele>
        <time>2019-08-11T08:50:46Z</time>
      </trkpt>
      <trkpt lat="50.51434" lon="1.79147">
        <ele>-8</ele>
        <time>2019-08-11T08:50:49Z</time>
      </trkpt>
      <trkpt lat="50.5145" lon="1.79138">
        <ele>-7</ele>
        <time>2019-08-11T08:50:52Z</time>
      </trkpt>
      <trkpt lat="50.5146" lon="1.79132">
        <ele>-7</ele>
        <time>2019-08-11T08:50:54Z</time>
      </trkpt>
      <trkpt lat="50.51476" lon="1.79122">
        <ele>-7</ele>
        <time>2019-08-11T08:50:57Z</time>
      </trkpt>
      <trkpt lat="50.51486" lon="1.79116">
        <ele>-7</ele>
        <time>2019-08-11T08:50:59Z</time>
      </trkpt>
      <trkpt lat="50.51496" lon="1.7911">
        <ele>-6</ele>
        <time>2019-08-11T08:51:01Z</time>
      </trkpt>
      <trkpt lat="50.51512" lon="1.79101">
        <ele>-6</ele>
        <time>2019-08-11T08:51:04Z</time>
      </trkpt>
      <trkpt lat="50.51523" lon="1.79095">
        <ele>-6</ele>
        <time>2019-08-11T08:51:06Z</time>
      </trkpt>
      <trkpt lat="50.51535" lon="1.79089">
        <ele>-6</ele>
        <time>2019-08-11T08:51:08Z</time>
      </trkpt>
      <trkpt lat="50.51546" lon="1.79084">
        <ele>-6</ele>
        <time>2019-08-11T08:51:10Z</time>
      </trkpt>
      <trkpt lat="50.51558" lon="1.79079">
        <ele>-6</ele>
        <time>2019-08-11T08:51:12Z</time>
      </trkpt>
      <trkpt lat="50.51571" lon="1.79075">
        <ele>-7</ele>
        <time>2019-08-11T08:51:14Z</time>
      </trkpt>
      <trkpt lat="50.51583" lon="1.79072">
        <ele>-7</ele>
        <time>2019-08-11T08:51:16Z</time>
      </trkpt>
      <trkpt lat="50.51603" lon="1.79069">
        <ele>-7</ele>
        <time>2019-08-11T08:51:19Z</time>
      </trkpt>
      <trkpt lat="50.51615" lon="1.79067">
        <ele>-6</ele>
        <time>2019-08-11T08:51:21Z</time>
      </trkpt>
      <trkpt lat="50.51628" lon="1.79067">
        <ele>-7</ele>
        <time>2019-08-11T08:51:23Z</time>
      </trkpt>
      <trkpt lat="50.51647" lon="1.79067">
        <ele>-7</ele>
        <time>2019-08-11T08:51:26Z</time>
      </trkpt>
      <trkpt lat="50.51659" lon="1.79067">
        <ele>-7</ele>
        <time>2019-08-11T08:51:28Z</time>
      </trkpt>
      <trkpt lat="50.51678" lon="1.79068">
        <ele>-7</ele>
        <time>2019-08-11T08:51:31Z</time>
      </trkpt>
      <trkpt lat="50.5169" lon="1.79069">
        <ele>-7</ele>
        <time>2019-08-11T08:51:33Z</time>
      </trkpt>
      <trkpt lat="50.51702" lon="1.79069">
        <ele>-7</ele>
        <time>2019-08-11T08:51:35Z</time>
      </trkpt>
      <trkpt lat="50.51721" lon="1.79069">
        <ele>-7</ele>
        <time>2019-08-11T08:51:38Z</time>
      </trkpt>
      <trkpt lat="50.5174" lon="1.79066">
        <ele>-7</ele>
        <time>2019-08-11T08:51:41Z</time>
      </trkpt>
      <trkpt lat="50.51752" lon="1.79062">
        <ele>-7</ele>
        <time>2019-08-11T08:51:43Z</time>
      </trkpt>
      <trkpt lat="50.51765" lon="1.79057">
        <ele>-7</ele>
        <time>2019-08-11T08:51:45Z</time>
      </trkpt>
      <trkpt lat="50.51777" lon="1.7905">
        <ele>-7</ele>
        <time>2019-08-11T08:51:47Z</time>
      </trkpt>
      <trkpt lat="50.51788" lon="1.79042">
        <ele>-7</ele>
        <time>2019-08-11T08:51:49Z</time>
      </trkpt>
      <trkpt lat="50.51805" lon="1.79029">
        <ele>-7</ele>
        <time>2019-08-11T08:51:52Z</time>
      </trkpt>
      <trkpt lat="50.51817" lon="1.79023">
        <ele>-7</ele>
        <time>2019-08-11T08:51:54Z</time>
      </trkpt>
      <trkpt lat="50.51835" lon="1.79017">
        <ele>-7</ele>
        <time>2019-08-11T08:51:57Z</time>
      </trkpt>
      <trkpt lat="50.51853" lon="1.79014">
        <ele>-7</ele>
        <time>2019-08-11T08:52:00Z</time>
      </trkpt>
      <trkpt lat="50.51864" lon="1.79014">
        <ele>-7</ele>
        <time>2019-08-11T08:52:02Z</time>
      </trkpt>
      <trkpt lat="50.51875" lon="1.79016">
        <ele>-6</ele>
        <time>2019-08-11T08:52:04Z</time>
      </trkpt>
      <trkpt lat="50.51885" lon="1.79018">
        <ele>-6</ele>
        <time>2019-08-11T08:52:06Z</time>
      </trkpt>
      <trkpt lat="50.51896" lon="1.79022">
        <ele>-5</ele>
        <time>2019-08-11T08:52:08Z</time>
      </trkpt>
      <trkpt lat="50.51911" lon="1.79031">
        <ele>-5</ele>
        <time>2019-08-11T08:52:11Z</time>
      </trkpt>
      <trkpt lat="50.51921" lon="1.79037">
        <ele>-5</ele>
        <time>2019-08-11T08:52:13Z</time>
      </trkpt>
      <trkpt lat="50.5193" lon="1.79043">
        <ele>-4</ele>
        <time>2019-08-11T08:52:15Z</time>
      </trkpt>
      <trkpt lat="50.51944" lon="1.79053">
        <ele>-3</ele>
        <time>2019-08-11T08:52:18Z</time>
      </trkpt>
      <trkpt lat="50.51957" lon="1.79061">
        <ele>-3</ele>
        <time>2019-08-11T08:52:21Z</time>
      </trkpt>
      <trkpt lat="50.51972" lon="1.7907">
        <ele>-3</ele>
        <time>2019-08-11T08:52:24Z</time>
      </trkpt>
      <trkpt lat="50.51988" lon="1.79077">
        <ele>-3</ele>
        <time>2019-08-11T08:52:27Z</time>
      </trkpt>
      <trkpt lat="50.52" lon="1.79082">
        <ele>-3</ele>
        <time>2019-08-11T08:52:29Z</time>
      </trkpt>
      <trkpt lat="50.52018" lon="1.79087">
        <ele>-3</ele>
        <time>2019-08-11T08:52:32Z</time>
      </trkpt>
      <trkpt lat="50.52037" lon="1.79088">
        <ele>-4</ele>
        <time>2019-08-11T08:52:35Z</time>
      </trkpt>
      <trkpt lat="50.52058" lon="1.79087">
        <ele>-5</ele>
        <time>2019-08-11T08:52:38Z</time>
      </trkpt>
      <trkpt lat="50.52079" lon="1.79085">
        <ele>-5</ele>
        <time>2019-08-11T08:52:41Z</time>
      </trkpt>
      <trkpt lat="50.52093" lon="1.79082">
        <ele>-5</ele>
        <time>2019-08-11T08:52:43Z</time>
      </trkpt>
      <trkpt lat="50.52111" lon="1.79068">
        <ele>-6</ele>
        <time>2019-08-11T08:52:46Z</time>
      </trkpt>
      <trkpt lat="50.52118" lon="1.79052">
        <ele>-6</ele>
        <time>2019-08-11T08:52:48Z</time>
      </trkpt>
      <trkpt lat="50.52122" lon="1.79025">
        <ele>-6</ele>
        <time>2019-08-11T08:52:51Z</time>
      </trkpt>
      <trkpt lat="50.52117" lon="1.79">
        <ele>-6</ele>
        <time>2019-08-11T08:52:54Z</time>
      </trkpt>
      <trkpt lat="50.52112" lon="1.78975">
        <ele>-6</ele>
        <time>2019-08-11T08:52:57Z</time>
      </trkpt>
      <trkpt lat="50.52107" lon="1.78949">
        <ele>-6</ele>
        <time>2019-08-11T08:53:00Z</time>
      </trkpt>
      <trkpt lat="50.52103" lon="1.78923">
        <ele>-5</ele>
        <time>2019-08-11T08:53:03Z</time>
      </trkpt>
      <trkpt lat="50.52098" lon="1.78898">
        <ele>-5</ele>
        <time>2019-08-11T08:53:06Z</time>
      </trkpt>
      <trkpt lat="50.52093" lon="1.78873">
        <ele>-6</ele>
        <time>2019-08-11T08:53:09Z</time>
      </trkpt>
      <trkpt lat="50.52088" lon="1.78849">
        <ele>-6</ele>
        <time>2019-08-11T08:53:12Z</time>
      </trkpt>
      <trkpt lat="50.52083" lon="1.78824">
        <ele>-6</ele>
        <time>2019-08-11T08:53:15Z</time>
      </trkpt>
      <trkpt lat="50.52079" lon="1.78799">
        <ele>-6</ele>
        <time>2019-08-11T08:53:18Z</time>
      </trkpt>
      <trkpt lat="50.52077" lon="1.78774">
        <ele>-6</ele>
        <time>2019-08-11T08:53:21Z</time>
      </trkpt>
      <trkpt lat="50.52077" lon="1.78758">
        <ele>-6</ele>
        <time>2019-08-11T08:53:23Z</time>
      </trkpt>
      <trkpt lat="50.52077" lon="1.78734">
        <ele>-7</ele>
        <time>2019-08-11T08:53:26Z</time>
      </trkpt>
      <trkpt lat="50.52077" lon="1.78719">
        <ele>-6</ele>
        <time>2019-08-11T08:53:28Z</time>
      </trkpt>
      <trkpt lat="50.52077" lon="1.78698">
        <ele>-6</ele>
        <time>2019-08-11T08:53:31Z</time>
      </trkpt>
      <trkpt lat="50.52079" lon="1.78679">
        <ele>-5</ele>
        <time>2019-08-11T08:53:34Z</time>
      </trkpt>
      <trkpt lat="50.52079" lon="1.78666">
        <ele>-5</ele>
        <time>2019-08-11T08:53:36Z</time>
      </trkpt>
      <trkpt lat="50.52079" lon="1.78653">
        <ele>-5</ele>
        <time>2019-08-11T08:53:38Z</time>
      </trkpt>
      <trkpt lat="50.52078" lon="1.78639">
        <ele>-4</ele>
        <time>2019-08-11T08:53:40Z</time>
      </trkpt>
      <trkpt lat="50.52074" lon="1.78616">
        <ele>-5</ele>
        <time>2019-08-11T08:53:43Z</time>
      </trkpt>
      <trkpt lat="50.52071" lon="1.78601">
        <ele>-5</ele>
        <time>2019-08-11T08:53:45Z</time>
      </trkpt>
      <trkpt lat="50.5207" lon="1.78585">
        <ele>-5</ele>
        <time>2019-08-11T08:53:47Z</time>
      </trkpt>
      <trkpt lat="50.5207" lon="1.78571">
        <ele>-5</ele>
        <time>2019-08-11T08:53:49Z</time>
      </trkpt>
      <trkpt lat="50.52071" lon="1.78558">
        <ele>-5</ele>
        <time>2019-08-11T08:53:51Z</time>
      </trkpt>
      <trkpt lat="50.52071" lon="1.78546">
        <ele>-4</ele>
        <time>2019-08-11T08:53:53Z</time>
      </trkpt>
      <trkpt lat="50.52071" lon="1.78533">
        <ele>-4</ele>
        <time>2019-08-11T08:53:55Z</time>
      </trkpt>
      <trkpt lat="50.52071" lon="1.78522">
        <ele>-4</ele>
        <time>2019-08-11T08:53:57Z</time>
      </trkpt>
      <trkpt lat="50.52072" lon="1.78511">
        <ele>-4</ele>
        <time>2019-08-11T08:53:59Z</time>
      </trkpt>
      <trkpt lat="50.52072" lon="1.78496">
        <ele>-4</ele>
        <time>2019-08-11T08:54:02Z</time>
      </trkpt>
      <trkpt lat="50.5207" lon="1.78487">
        <ele>-3</ele>
        <time>2019-08-11T08:54:04Z</time>
      </trkpt>
      <trkpt lat="50.52068" lon="1.78479">
        <ele>-3</ele>
        <time>2019-08-11T08:54:06Z</time>
      </trkpt>
      <trkpt lat="50.52065" lon="1.78471">
        <ele>-3</ele>
        <time>2019-08-11T08:54:08Z</time>
      </trkpt>
      <trkpt lat="50.52061" lon="1.78464">
        <ele>-3</ele>
        <time>2019-08-11T08:54:10Z</time>
      </trkpt>
      <trkpt lat="50.52055" lon="1.78462">
        <ele>-3</ele>
        <time>2019-08-11T08:54:12Z</time>
      </trkpt>
      <trkpt lat="50.52049" lon="1.7846">
        <ele>-2</ele>
        <time>2019-08-11T08:54:14Z</time>
      </trkpt>
      <trkpt lat="50.52041" lon="1.78453">
        <ele>-2</ele>
        <time>2019-08-11T08:54:17Z</time>
      </trkpt>
      <trkpt lat="50.52036" lon="1.78448">
        <ele>-2</ele>
        <time>2019-08-11T08:54:19Z</time>
      </trkpt>
      <trkpt lat="50.52031" lon="1.78442">
        <ele>-2</ele>
        <time>2019-08-11T08:54:21Z</time>
      </trkpt>
      <trkpt lat="50.52026" lon="1.78437">
        <ele>-1</ele>
        <time>2019-08-11T08:54:23Z</time>
      </trkpt>
      <trkpt lat="50.52018" lon="1.78429">
        <ele>24.7</ele>
        <time>2019-08-11T08:54:26Z</time>
      </trkpt>
      <trkpt lat="50.52009" lon="1.78423">
        <ele>24.5</ele>
        <time>2019-08-11T08:54:29Z</time>
      </trkpt>
      <trkpt lat="50.52002" lon="1.7842">
        <ele>24.1</ele>
        <time>2019-08-11T08:54:31Z</time>
      </trkpt>
      <trkpt lat="50.51993" lon="1.78413">
        <ele>-1</ele>
        <time>2019-08-11T08:54:34Z</time>
      </trkpt>
      <trkpt lat="50.51988" lon="1.78405">
        <ele>-1</ele>
        <time>2019-08-11T08:54:36Z</time>
      </trkpt>
      <trkpt lat="50.51985" lon="1.78398">
        <ele>-1</ele>
        <time>2019-08-11T08:54:38Z</time>
      </trkpt>
      <trkpt lat="50.51983" lon="1.7839">
        <ele>26.3</ele>
        <time>2019-08-11T08:54:40Z</time>
      </trkpt>
      <trkpt lat="50.51981" lon="1.78381">
        <ele>26.9</ele>
        <time>2019-08-11T08:54:42Z</time>
      </trkpt>
      <trkpt lat="50.51979" lon="1.7837">
        <ele>27.6</ele>
        <time>2019-08-11T08:54:45Z</time>
      </trkpt>
      <trkpt lat="50.51977" lon="1.78363">
        <ele>1</ele>
        <time>2019-08-11T08:54:47Z</time>
      </trkpt>
      <trkpt lat="50.51975" lon="1.78353">
        <ele>1</ele>
        <time>2019-08-11T08:54:50Z</time>
      </trkpt>
      <trkpt lat="50.51973" lon="1.78342">
        <ele>2</ele>
        <time>2019-08-11T08:54:53Z</time>
      </trkpt>
      <trkpt lat="50.51972" lon="1.78336">
        <ele>3</ele>
        <time>2019-08-11T08:54:55Z</time>
      </trkpt>
      <trkpt lat="50.5197" lon="1.78325">
        <ele>4</ele>
        <time>2019-08-11T08:54:58Z</time>
      </trkpt>
      <trkpt lat="50.51969" lon="1.78318">
        <ele>5</ele>
        <time>2019-08-11T08:55:00Z</time>
      </trkpt>
      <trkpt lat="50.51967" lon="1.78307">
        <ele>5</ele>
        <time>2019-08-11T08:55:03Z</time>
      </trkpt>
      <trkpt lat="50.51966" lon="1.783">
        <ele>6</ele>
        <time>2019-08-11T08:55:05Z</time>
      </trkpt>
      <trkpt lat="50.51964" lon="1.78289">
        <ele>7</ele>
        <time>2019-08-11T08:55:08Z</time>
      </trkpt>
      <trkpt lat="50.51963" lon="1.78282">
        <ele>8</ele>
        <time>2019-08-11T08:55:10Z</time>
      </trkpt>
      <trkpt lat="50.51961" lon="1.78272">
        <ele>9</ele>
        <time>2019-08-11T08:55:13Z</time>
      </trkpt>
      <trkpt lat="50.51959" lon="1.78262">
        <ele>10</ele>
        <time>2019-08-11T08:55:16Z</time>
      </trkpt>
      <trkpt lat="50.51958" lon="1.78256">
        <ele>11</ele>
        <time>2019-08-11T08:55:18Z</time>
      </trkpt>
      <trkpt lat="50.51957" lon="1.7825">
        <ele>11</ele>
        <time>2019-08-11T08:55:20Z</time>
      </trkpt>
      <trkpt lat="50.51956" lon="1.78242">
        <ele>12</ele>
        <time>2019-08-11T08:55:23Z</time>
      </trkpt>
      <trkpt lat="50.51954" lon="1.78234">
        <ele>13</ele>
        <time>2019-08-11T08:55:26Z</time>
      </trkpt>
      <trkpt lat="50.51952" lon="1.78225">
        <ele>14</ele>
        <time>2019-08-11T08:55:29Z</time>
      </trkpt>
      <trkpt lat="50.51951" lon="1.7822">
        <ele>14</ele>
        <time>2019-08-11T08:55:31Z</time>
      </trkpt>
      <trkpt lat="50.51948" lon="1.78213">
        <ele>15</ele>
        <time>2019-08-11T08:55:34Z</time>
      </trkpt>
      <trkpt lat="50.51947" lon="1.78209">
        <ele>15</ele>
        <time>2019-08-11T08:55:36Z</time>
      </trkpt>
      <trkpt lat="50.51944" lon="1.78203">
        <ele>16</ele>
        <time>2019-08-11T08:55:39Z</time>
      </trkpt>
      <trkpt lat="50.51942" lon="1.78199">
        <ele>16</ele>
        <time>2019-08-11T08:55:41Z</time>
      </trkpt>
      <trkpt lat="50.51941" lon="1.78193">
        <ele>16</ele>
        <time>2019-08-11T08:55:44Z</time>
      </trkpt>
      <trkpt lat="50.51939" lon="1.78189">
        <ele>17</ele>
        <time>2019-08-11T08:55:46Z</time>
      </trkpt>
      <trkpt lat="50.51937" lon="1.78183">
        <ele>18</ele>
        <time>2019-08-11T08:55:49Z</time>
      </trkpt>
      <trkpt lat="50.51936" lon="1.78179">
        <ele>18</ele>
        <time>2019-08-11T08:55:51Z</time>
      </trkpt>
      <trkpt lat="50.51933" lon="1.78173">
        <ele>19</ele>
        <time>2019-08-11T08:55:54Z</time>
      </trkpt>
      <trkpt lat="50.51931" lon="1.78167">
        <ele>20</ele>
        <time>2019-08-11T08:55:57Z</time>
      </trkpt>
      <trkpt lat="50.51929" lon="1.78163">
        <ele>20</ele>
        <time>2019-08-11T08:55:59Z</time>
      </trkpt>
      <trkpt lat="50.51927" lon="1.78157">
        <ele>21</ele>
        <time>2019-08-11T08:56:02Z</time>
      </trkpt>
      <trkpt lat="50.51924" lon="1.78151">
        <ele>22</ele>
        <time>2019-08-11T08:56:05Z</time>
      </trkpt>
      <trkpt lat="50.51922" lon="1.78145">
        <ele>22</ele>
        <time>2019-08-11T08:56:08Z</time>
      </trkpt>
      <trkpt lat="50.5192" lon="1.78141">
        <ele>22</ele>
        <time>2019-08-11T08:56:10Z</time>
      </trkpt>
      <trkpt lat="50.51918" lon="1.78135">
        <ele>23</ele>
        <time>2019-08-11T08:56:13Z</time>
      </trkpt>
      <trkpt lat="50.51916" lon="1.78132">
        <ele>24</ele>
        <time>2019-08-11T08:56:15Z</time>
      </trkpt>
      <trkpt lat="50.51913" lon="1.78126">
        <ele>24</ele>
        <time>2019-08-11T08:56:18Z</time>
      </trkpt>
      <trkpt lat="50.51912" lon="1.78122">
        <ele>24</ele>
        <time>2019-08-11T08:56:20Z</time>
      </trkpt>
      <trkpt lat="50.5191" lon="1.78118">
        <ele>24</ele>
        <time>2019-08-11T08:56:22Z</time>
      </trkpt>
      <trkpt lat="50.51908" lon="1.78112">
        <ele>25</ele>
        <time>2019-08-11T08:56:25Z</time>
      </trkpt>
      <trkpt lat="50.51907" lon="1.78109">
        <ele>25</ele>
        <time>2019-08-11T08:56:27Z</time>
      </trkpt>
      <trkpt lat="50.51905" lon="1.78103">
        <ele>26</ele>
        <time>2019-08-11T08:56:30Z</time>
      </trkpt>
      <trkpt lat="50.51902" lon="1.78098">
        <ele>27</ele>
        <time>2019-08-11T08:56:33Z</time>
      </trkpt>
      <trkpt lat="50.51901" lon="1.78094">
        <ele>27</ele>
        <time>2019-08-11T08:56:35Z</time>
      </trkpt>
      <trkpt lat="50.51898" lon="1.78089">
        <ele>28</ele>
        <time>2019-08-11T08:56:38Z</time>
      </trkpt>
      <trkpt lat="50.51897" lon="1.78085">
        <ele>28</ele>
        <time>2019-08-11T08:56:40Z</time>
      </trkpt>
      <trkpt lat="50.51894" lon="1.7808">
        <ele>29</ele>
        <time>2019-08-11T08:56:43Z</time>
      </trkpt>
      <trkpt lat="50.51892" lon="1.78075">
        <ele>29</ele>
        <time>2019-08-11T08:56:46Z</time>
      </trkpt>
      <trkpt lat="50.5189" lon="1.78071">
        <ele>30</ele>
        <time>2019-08-11T08:56:48Z</time>
      </trkpt>
      <trkpt lat="50.51889" lon="1.78068">
        <ele>30</ele>
        <time>2019-08-11T08:56:50Z</time>
      </trkpt>
      <trkpt lat="50.51887" lon="1.78063">
        <ele>30</ele>
        <time>2019-08-11T08:56:53Z</time>
      </trkpt>
      <trkpt lat="50.51885" lon="1.78058">
        <ele>31</ele>
        <time>2019-08-11T08:56:56Z</time>
      </trkpt>
      <trkpt lat="50.51883" lon="1.78054">
        <ele>31</ele>
        <time>2019-08-11T08:56:58Z</time>
      </trkpt>
      <trkpt lat="50.51882" lon="1.7805">
        <ele>32</ele>
        <time>2019-08-11T08:57:00Z</time>
      </trkpt>
      <trkpt lat="50.51879" lon="1.78045">
        <ele>32</ele>
        <time>2019-08-11T08:57:03Z</time>
      </trkpt>
      <trkpt lat="50.51878" lon="1.78041">
        <ele>33</ele>
        <time>2019-08-11T08:57:05Z</time>
      </trkpt>
      <trkpt lat="50.51876" lon="1.78035">
        <ele>34</ele>
        <time>2019-08-11T08:57:08Z</time>
      </trkpt>
      <trkpt lat="50.51873" lon="1.78029">
        <ele>34</ele>
        <time>2019-08-11T08:57:11Z</time>
      </trkpt>
      <trkpt lat="50.51871" lon="1.78025">
        <ele>35</ele>
        <time>2019-08-11T08:57:13Z</time>
      </trkpt>
      <trkpt lat="50.51868" lon="1.7802">
        <ele>35</ele>
        <time>2019-08-11T08:57:16Z</time>
      </trkpt>
      <trkpt lat="50.51866" lon="1.78014">
        <ele>36</ele>
        <time>2019-08-11T08:57:19Z</time>
      </trkpt>
      <trkpt lat="50.51864" lon="1.7801">
        <ele>36</ele>
        <time>2019-08-11T08:57:21Z</time>
      </trkpt>
      <trkpt lat="50.51862" lon="1.78005">
        <ele>37</ele>
        <time>2019-08-11T08:57:24Z</time>
      </trkpt>
      <trkpt lat="50.5186" lon="1.78001">
        <ele>37</ele>
        <time>2019-08-11T08:57:26Z</time>
      </trkpt>
      <trkpt lat="50.51858" lon="1.77996">
        <ele>37</ele>
        <time>2019-08-11T08:57:29Z</time>
      </trkpt>
      <trkpt lat="50.51857" lon="1.77992">
        <ele>38</ele>
        <time>2019-08-11T08:57:31Z</time>
      </trkpt>
      <trkpt lat="50.51854" lon="1.77987">
        <ele>38</ele>
        <time>2019-08-11T08:57:34Z</time>
      </trkpt>
      <trkpt lat="50.51852" lon="1.77981">
        <ele>39</ele>
        <time>2019-08-11T08:57:37Z</time>
      </trkpt>
      <trkpt lat="50.5185" lon="1.77977">
        <ele>39</ele>
        <time>2019-08-11T08:57:39Z</time>
      </trkpt>
      <trkpt lat="50.51847" lon="1.7797">
        <ele>40</ele>
        <time>2019-08-11T08:57:42Z</time>
      </trkpt>
      <trkpt lat="50.51845" lon="1.77966">
        <ele>40</ele>
        <time>2019-08-11T08:57:44Z</time>
      </trkpt>
      <trkpt lat="50.51843" lon="1.77959">
        <ele>41</ele>
        <time>2019-08-11T08:57:47Z</time>
      </trkpt>
      <trkpt lat="50.51841" lon="1.77955">
        <ele>41</ele>
        <time>2019-08-11T08:57:49Z</time>
      </trkpt>
      <trkpt lat="50.51838" lon="1.77948">
        <ele>42</ele>
        <time>2019-08-11T08:57:52Z</time>
      </trkpt>
      <trkpt lat="50.51836" lon="1.7794">
        <ele>42</ele>
        <time>2019-08-11T08:57:55Z</time>
      </trkpt>
      <trkpt lat="50.51834" lon="1.77935">
        <ele>43</ele>
        <time>2019-08-11T08:57:57Z</time>
      </trkpt>
      <trkpt lat="50.5183" lon="1.77926">
        <ele>43</ele>
        <time>2019-08-11T08:58:00Z</time>
      </trkpt>
      <trkpt lat="50.51826" lon="1.77915">
        <ele>44</ele>
        <time>2019-08-11T08:58:03Z</time>
      </trkpt>
      <trkpt lat="50.51821" lon="1.77901">
        <ele>44</ele>
        <time>2019-08-11T08:58:06Z</time>
      </trkpt>
      <trkpt lat="50.51816" lon="1.77888">
        <ele>45</ele>
        <time>2019-08-11T08:58:09Z</time>
      </trkpt>
      <trkpt lat="50.51813" lon="1.77879">
        <ele>45</ele>
        <time>2019-08-11T08:58:11Z</time>
      </trkpt>
      <trkpt lat="50.51807" lon="1.77866">
        <ele>46</ele>
        <time>2019-08-11T08:58:14Z</time>
      </trkpt>
      <trkpt lat="50.51804" lon="1.77857">
        <ele>46</ele>
        <time>2019-08-11T08:58:16Z</time>
      </trkpt>
      <trkpt lat="50.51801" lon="1.77848">
        <ele>46</ele>
        <time>2019-08-11T08:58:18Z</time>
      </trkpt>
      <trkpt lat="50.51795" lon="1.77834">
        <ele>47</ele>
        <time>2019-08-11T08:58:21Z</time>
      </trkpt>
      <trkpt lat="50.51791" lon="1.77825">
        <ele>47</ele>
        <time>2019-08-11T08:58:23Z</time>
      </trkpt>
      <trkpt lat="50.51786" lon="1.77812">
        <ele>47</ele>
        <time>2019-08-11T08:58:26Z</time>
      </trkpt>
      <trkpt lat="50.51781" lon="1.77796">
        <ele>48</ele>
        <time>2019-08-11T08:58:29Z</time>
      </trkpt>
      <trkpt lat="50.51776" lon="1.77785">
        <ele>48</ele>
        <time>2019-08-11T08:58:31Z</time>
      </trkpt>
      <trkpt lat="50.51768" lon="1.77772">
        <ele>48</ele>
        <time>2019-08-11T08:58:34Z</time>
      </trkpt>
      <trkpt lat="50.51761" lon="1.77766">
        <ele>48</ele>
        <time>2019-08-11T08:58:36Z</time>
      </trkpt>
      <trkpt lat="50.5175" lon="1.77763">
        <ele>49</ele>
        <time>2019-08-11T08:58:39Z</time>
      </trkpt>
      <trkpt lat="50.51742" lon="1.77763">
        <ele>49</ele>
        <time>2019-08-11T08:58:41Z</time>
      </trkpt>
      <trkpt lat="50.51731" lon="1.77759">
        <ele>49</ele>
        <time>2019-08-11T08:58:44Z</time>
      </trkpt>
      <trkpt lat="50.51727" lon="1.7775">
        <ele>49</ele>
        <time>2019-08-11T08:58:46Z</time>
      </trkpt>
      <trkpt lat="50.51725" lon="1.7774">
        <ele>49</ele>
        <time>2019-08-11T08:58:48Z</time>
      </trkpt>
      <trkpt lat="50.51722" lon="1.77729">
        <ele>50</ele>
        <time>2019-08-11T08:58:50Z</time>
      </trkpt>
      <trkpt lat="50.51719" lon="1.77711">
        <ele>50</ele>
        <time>2019-08-11T08:58:53Z</time>
      </trkpt>
      <trkpt lat="50.51715" lon="1.77691">
        <ele>50</ele>
        <time>2019-08-11T08:58:56Z</time>
      </trkpt>
      <trkpt lat="50.51714" lon="1.77679">
        <ele>50</ele>
        <time>2019-08-11T08:58:58Z</time>
      </trkpt>
      <trkpt lat="50.51711" lon="1.77666">
        <ele>50</ele>
        <time>2019-08-11T08:59:00Z</time>
      </trkpt>
      <trkpt lat="50.51708" lon="1.77655">
        <ele>50</ele>
        <time>2019-08-11T08:59:02Z</time>
      </trkpt>
      <trkpt lat="50.51706" lon="1.77642">
        <ele>50</ele>
        <time>2019-08-11T08:59:04Z</time>
      </trkpt>
      <trkpt lat="50.51702" lon="1.77621">
        <ele>50</ele>
        <time>2019-08-11T08:59:07Z</time>
      </trkpt>
      <trkpt lat="50.51697" lon="1.77599">
        <ele>50</ele>
        <time>2019-08-11T08:59:10Z</time>
      </trkpt>
      <trkpt lat="50.51694" lon="1.77585">
        <ele>50</ele>
        <time>2019-08-11T08:59:12Z</time>
      </trkpt>
      <trkpt lat="50.51691" lon="1.7757">
        <ele>50</ele>
        <time>2019-08-11T08:59:14Z</time>
      </trkpt>
      <trkpt lat="50.51689" lon="1.77556">
        <ele>50</ele>
        <time>2019-08-11T08:59:16Z</time>
      </trkpt>
      <trkpt lat="50.51684" lon="1.77533">
        <ele>51</ele>
        <time>2019-08-11T08:59:19Z</time>
      </trkpt>
      <trkpt lat="50.5168" lon="1.77514">
        <ele>51</ele>
        <time>2019-08-11T08:59:22Z</time>
      </trkpt>
      <trkpt lat="50.51676" lon="1.77495">
        <ele>52</ele>
        <time>2019-08-11T08:59:25Z</time>
      </trkpt>
      <trkpt lat="50.51671" lon="1.77483">
        <ele>52</ele>
        <time>2019-08-11T08:59:27Z</time>
      </trkpt>
      <trkpt lat="50.51665" lon="1.77472">
        <ele>52</ele>
        <time>2019-08-11T08:59:29Z</time>
      </trkpt>
      <trkpt lat="50.51659" lon="1.77462">
        <ele>53</ele>
        <time>2019-08-11T08:59:31Z</time>
      </trkpt>
      <trkpt lat="50.51652" lon="1.77453">
        <ele>53</ele>
        <time>2019-08-11T08:59:33Z</time>
      </trkpt>
      <trkpt lat="50.51641" lon="1.77439">
        <ele>53</ele>
        <time>2019-08-11T08:59:36Z</time>
      </trkpt>
      <trkpt lat="50.5163" lon="1.77426">
        <ele>52</ele>
        <time>2019-08-11T08:59:39Z</time>
      </trkpt>
      <trkpt lat="50.51622" lon="1.77417">
        <ele>52</ele>
        <time>2019-08-11T08:59:41Z</time>
      </trkpt>
      <trkpt lat="50.51615" lon="1.77408">
        <ele>52</ele>
        <time>2019-08-11T08:59:43Z</time>
      </trkpt>
      <trkpt lat="50.51603" lon="1.77394">
        <ele>53</ele>
        <time>2019-08-11T08:59:46Z</time>
      </trkpt>
      <trkpt lat="50.51591" lon="1.7738">
        <ele>53</ele>
        <time>2019-08-11T08:59:49Z</time>
      </trkpt>
      <trkpt lat="50.5158" lon="1.77367">
        <ele>53</ele>
        <time>2019-08-11T08:59:52Z</time>
      </trkpt>
      <trkpt lat="50.51568" lon="1.77354">
        <ele>53</ele>
        <time>2019-08-11T08:59:55Z</time>
      </trkpt>
      <trkpt lat="50.51561" lon="1.77345">
        <ele>53</ele>
        <time>2019-08-11T08:59:57Z</time>
      </trkpt>
      <trkpt lat="50.51549" lon="1.77331">
        <ele>53</ele>
        <time>2019-08-11T09:00:00Z</time>
      </trkpt>
      <trkpt lat="50.51537" lon="1.77317">
        <ele>52</ele>
        <time>2019-08-11T09:00:03Z</time>
      </trkpt>
      <trkpt lat="50.51528" lon="1.77307">
        <ele>52</ele>
        <time>2019-08-11T09:00:05Z</time>
      </trkpt>
      <trkpt lat="50.51519" lon="1.77296">
        <ele>51</ele>
        <time>2019-08-11T09:00:07Z</time>
      </trkpt>
      <trkpt lat="50.51509" lon="1.77285">
        <ele>51</ele>
        <time>2019-08-11T09:00:09Z</time>
      </trkpt>
      <trkpt lat="50.51495" lon="1.77268">
        <ele>50</ele>
        <time>2019-08-11T09:00:12Z</time>
      </trkpt>
      <trkpt lat="50.51482" lon="1.77252">
        <ele>50</ele>
        <time>2019-08-11T09:00:15Z</time>
      </trkpt>
      <trkpt lat="50.51469" lon="1.77237">
        <ele>50</ele>
        <time>2019-08-11T09:00:18Z</time>
      </trkpt>
      <trkpt lat="50.51456" lon="1.77222">
        <ele>49</ele>
        <time>2019-08-11T09:00:21Z</time>
      </trkpt>
      <trkpt lat="50.51443" lon="1.77207">
        <ele>49</ele>
        <time>2019-08-11T09:00:24Z</time>
      </trkpt>
      <trkpt lat="50.51434" lon="1.77197">
        <ele>49</ele>
        <time>2019-08-11T09:00:26Z</time>
      </trkpt>
      <trkpt lat="50.51425" lon="1.77187">
        <ele>50</ele>
        <time>2019-08-11T09:00:28Z</time>
      </trkpt>
      <trkpt lat="50.51413" lon="1.77172">
        <ele>50</ele>
        <time>2019-08-11T09:00:31Z</time>
      </trkpt>
      <trkpt lat="50.51401" lon="1.77158">
        <ele>50</ele>
        <time>2019-08-11T09:00:34Z</time>
      </trkpt>
      <trkpt lat="50.51393" lon="1.77149">
        <ele>51</ele>
        <time>2019-08-11T09:00:36Z</time>
      </trkpt>
      <trkpt lat="50.51386" lon="1.77141">
        <ele>51</ele>
        <time>2019-08-11T09:00:38Z</time>
      </trkpt>
      <trkpt lat="50.51379" lon="1.77132">
        <ele>52</ele>
        <time>2019-08-11T09:00:40Z</time>
      </trkpt>
      <trkpt lat="50.51367" lon="1.77119">
        <ele>52</ele>
        <time>2019-08-11T09:00:43Z</time>
      </trkpt>
      <trkpt lat="50.51356" lon="1.77105">
        <ele>53</ele>
        <time>2019-08-11T09:00:46Z</time>
      </trkpt>
      <trkpt lat="50.51349" lon="1.77098">
        <ele>53</ele>
        <time>2019-08-11T09:00:48Z</time>
      </trkpt>
      <trkpt lat="50.51344" lon="1.77092">
        <ele>53</ele>
        <time>2019-08-11T09:00:50Z</time>
      </trkpt>
      <trkpt lat="50.51338" lon="1.77085">
        <ele>53</ele>
        <time>2019-08-11T09:00:52Z</time>
      </trkpt>
      <trkpt lat="50.51329" lon="1.77074">
        <ele>54</ele>
        <time>2019-08-11T09:00:55Z</time>
      </trkpt>
      <trkpt lat="50.5132" lon="1.77064">
        <ele>55</ele>
        <time>2019-08-11T09:00:58Z</time>
      </trkpt>
      <trkpt lat="50.51314" lon="1.77057">
        <ele>55</ele>
        <time>2019-08-11T09:01:00Z</time>
      </trkpt>
      <trkpt lat="50.51308" lon="1.7705">
        <ele>55</ele>
        <time>2019-08-11T09:01:02Z</time>
      </trkpt>
      <trkpt lat="50.51302" lon="1.77043">
        <ele>56</ele>
        <time>2019-08-11T09:01:04Z</time>
      </trkpt>
      <trkpt lat="50.51293" lon="1.77033">
        <ele>56</ele>
        <time>2019-08-11T09:01:07Z</time>
      </trkpt>
      <trkpt lat="50.51288" lon="1.77027">
        <ele>56</ele>
        <time>2019-08-11T09:01:09Z</time>
      </trkpt>
      <trkpt lat="50.51282" lon="1.77021">
        <ele>56</ele>
        <time>2019-08-11T09:01:11Z</time>
      </trkpt>
      <trkpt lat="50.51277" lon="1.77015">
        <ele>56</ele>
        <time>2019-08-11T09:01:13Z</time>
      </trkpt>
      <trkpt lat="50.51272" lon="1.77009">
        <ele>56</ele>
        <time>2019-08-11T09:01:15Z</time>
      </trkpt>
      <trkpt lat="50.51266" lon="1.77002">
        <ele>55</ele>
        <time>2019-08-11T09:01:17Z</time>
      </trkpt>
      <trkpt lat="50.51261" lon="1.76996">
        <ele>56</ele>
        <time>2019-08-11T09:01:19Z</time>
      </trkpt>
      <trkpt lat="50.51255" lon="1.76989">
        <ele>56</ele>
        <time>2019-08-11T09:01:21Z</time>
      </trkpt>
      <trkpt lat="50.51247" lon="1.76979">
        <ele>56</ele>
        <time>2019-08-11T09:01:24Z</time>
      </trkpt>
      <trkpt lat="50.51241" lon="1.76973">
        <ele>56</ele>
        <time>2019-08-11T09:01:26Z</time>
      </trkpt>
      <trkpt lat="50.51236" lon="1.76967">
        <ele>55</ele>
        <time>2019-08-11T09:01:28Z</time>
      </trkpt>
      <trkpt lat="50.51231" lon="1.76961">
        <ele>55</ele>
        <time>2019-08-11T09:01:30Z</time>
      </trkpt>
      <trkpt lat="50.51227" lon="1.76956">
        <ele>55</ele>
        <time>2019-08-11T09:01:32Z</time>
      </trkpt>
      <trkpt lat="50.51223" lon="1.76952">
        <ele>55</ele>
        <time>2019-08-11T09:01:34Z</time>
      </trkpt>
      <trkpt lat="50.51218" lon="1.76946">
        <ele>55</ele>
        <time>2019-08-11T09:01:36Z</time>
      </trkpt>
      <trkpt lat="50.51212" lon="1.7694">
        <ele>55</ele>
        <time>2019-08-11T09:01:38Z</time>
      </trkpt>
      <trkpt lat="50.51203" lon="1.76929">
        <ele>55</ele>
        <time>2019-08-11T09:01:41Z</time>
      </trkpt>
      <trkpt lat="50.51197" lon="1.76921">
        <ele>55</ele>
        <time>2019-08-11T09:01:43Z</time>
      </trkpt>
      <trkpt lat="50.51191" lon="1.76914">
        <ele>55</ele>
        <time>2019-08-11T09:01:45Z</time>
      </trkpt>
      <trkpt lat="50.51184" lon="1.76906">
        <ele>56</ele>
        <time>2019-08-11T09:01:47Z</time>
      </trkpt>
      <trkpt lat="50.51178" lon="1.76898">
        <ele>56</ele>
        <time>2019-08-11T09:01:49Z</time>
      </trkpt>
      <trkpt lat="50.51171" lon="1.76891">
        <ele>56</ele>
        <time>2019-08-11T09:01:51Z</time>
      </trkpt>
      <trkpt lat="50.51164" lon="1.76883">
        <ele>56</ele>
        <time>2019-08-11T09:01:53Z</time>
      </trkpt>
      <trkpt lat="50.51156" lon="1.76874">
        <ele>56</ele>
        <time>2019-08-11T09:01:55Z</time>
      </trkpt>
      <trkpt lat="50.51145" lon="1.76861">
        <ele>55</ele>
        <time>2019-08-11T09:01:58Z</time>
      </trkpt>
      <trkpt lat="50.51137" lon="1.76852">
        <ele>56</ele>
        <time>2019-08-11T09:02:00Z</time>
      </trkpt>
      <trkpt lat="50.51125" lon="1.76839">
        <ele>57</ele>
        <time>2019-08-11T09:02:03Z</time>
      </trkpt>
      <trkpt lat="50.51114" lon="1.76824">
        <ele>58</ele>
        <time>2019-08-11T09:02:06Z</time>
      </trkpt>
      <trkpt lat="50.51105" lon="1.76815">
        <ele>57</ele>
        <time>2019-08-11T09:02:08Z</time>
      </trkpt>
      <trkpt lat="50.51097" lon="1.76805">
        <ele>57</ele>
        <time>2019-08-11T09:02:10Z</time>
      </trkpt>
      <trkpt lat="50.51085" lon="1.7679">
        <ele>56</ele>
        <time>2019-08-11T09:02:13Z</time>
      </trkpt>
      <trkpt lat="50.51075" lon="1.7678">
        <ele>55</ele>
        <time>2019-08-11T09:02:15Z</time>
      </trkpt>
      <trkpt lat="50.51061" lon="1.76763">
        <ele>56</ele>
        <time>2019-08-11T09:02:18Z</time>
      </trkpt>
      <trkpt lat="50.5105" lon="1.76751">
        <ele>56</ele>
        <time>2019-08-11T09:02:20Z</time>
      </trkpt>
      <trkpt lat="50.51038" lon="1.76737">
        <ele>55</ele>
        <time>2019-08-11T09:02:22Z</time>
      </trkpt>
      <trkpt lat="50.5102" lon="1.76717">
        <ele>55</ele>
        <time>2019-08-11T09:02:25Z</time>
      </trkpt>
      <trkpt lat="50.51003" lon="1.76696">
        <ele>54</ele>
        <time>2019-08-11T09:02:28Z</time>
      </trkpt>
      <trkpt lat="50.50991" lon="1.76682">
        <ele>54</ele>
        <time>2019-08-11T09:02:30Z</time>
      </trkpt>
      <trkpt lat="50.50973" lon="1.76662">
        <ele>53</ele>
        <time>2019-08-11T09:02:33Z</time>
      </trkpt>
      <trkpt lat="50.50961" lon="1.76649">
        <ele>53</ele>
        <time>2019-08-11T09:02:35Z</time>
      </trkpt>
      <trkpt lat="50.50948" lon="1.76635">
        <ele>53</ele>
        <time>2019-08-11T09:02:37Z</time>
      </trkpt>
      <trkpt lat="50.50935" lon="1.76622">
        <ele>51</ele>
        <time>2019-08-11T09:02:39Z</time>
      </trkpt>
      <trkpt lat="50.50922" lon="1.7661">
        <ele>51</ele>
        <time>2019-08-11T09:02:41Z</time>
      </trkpt>
      <trkpt lat="50.50901" lon="1.76593">
        <ele>50</ele>
        <time>2019-08-11T09:02:44Z</time>
      </trkpt>
      <trkpt lat="50.50879" lon="1.76576">
        <ele>49</ele>
        <time>2019-08-11T09:02:47Z</time>
      </trkpt>
      <trkpt lat="50.50856" lon="1.76558">
        <ele>49</ele>
        <time>2019-08-11T09:02:50Z</time>
      </trkpt>
      <trkpt lat="50.50834" lon="1.76541">
        <ele>48</ele>
        <time>2019-08-11T09:02:53Z</time>
      </trkpt>
      <trkpt lat="50.50819" lon="1.7653">
        <ele>46</ele>
        <time>2019-08-11T09:02:55Z</time>
      </trkpt>
      <trkpt lat="50.508" lon="1.76515">
        <ele>45</ele>
        <time>2019-08-11T09:02:58Z</time>
      </trkpt>
      <trkpt lat="50.50791" lon="1.76508">
        <ele>43</ele>
        <time>2019-08-11T09:03:00Z</time>
      </trkpt>
      <trkpt lat="50.50782" lon="1.76497">
        <ele>41</ele>
        <time>2019-08-11T09:03:03Z</time>
      </trkpt>
      <trkpt lat="50.50779" lon="1.76493">
        <ele>40</ele>
        <time>2019-08-11T09:03:05Z</time>
      </trkpt>
      <trkpt lat="50.50778" lon="1.76492">
        <ele>40</ele>
        <time>2019-08-11T09:03:08Z</time>
      </trkpt>
      <trkpt lat="50.50777" lon="1.76492">
        <ele>40</ele>
        <time>2019-08-11T09:03:11Z</time>
      </trkpt>
      <trkpt lat="50.50777" lon="1.7649">
        <ele>39</ele>
        <time>2019-08-11T09:03:13Z</time>
      </trkpt>
      <trkpt lat="50.50771" lon="1.76485">
        <ele>40</ele>
        <time>2019-08-11T09:03:16Z</time>
      </trkpt>
      <trkpt lat="50.50764" lon="1.76486">
        <ele>40</ele>
        <time>2019-08-11T09:03:18Z</time>
      </trkpt>
      <trkpt lat="50.50755" lon="1.76489">
        <ele>41</ele>
        <time>2019-08-11T09:03:20Z</time>
      </trkpt>
      <trkpt lat="50.5074" lon="1.76494">
        <ele>41</ele>
        <time>2019-08-11T09:03:23Z</time>
      </trkpt>
      <trkpt lat="50.50723" lon="1.76499">
        <ele>41</ele>
        <time>2019-08-11T09:03:26Z</time>
      </trkpt>
      <trkpt lat="50.50705" lon="1.76505">
        <ele>41</ele>
        <time>2019-08-11T09:03:29Z</time>
      </trkpt>
      <trkpt lat="50.50694" lon="1.76508">
        <ele>41</ele>
        <time>2019-08-11T09:03:31Z</time>
      </trkpt>
      <trkpt lat="50.50677" lon="1.76512">
        <ele>42</ele>
        <time>2019-08-11T09:03:34Z</time>
      </trkpt>
      <trkpt lat="50.50667" lon="1.76515">
        <ele>42</ele>
        <time>2019-08-11T09:03:36Z</time>
      </trkpt>
      <trkpt lat="50.50652" lon="1.76519">
        <ele>42</ele>
        <time>2019-08-11T09:03:39Z</time>
      </trkpt>
      <trkpt lat="50.50638" lon="1.76524">
        <ele>43</ele>
        <time>2019-08-11T09:03:42Z</time>
      </trkpt>
      <trkpt lat="50.50624" lon="1.76529">
        <ele>42</ele>
        <time>2019-08-11T09:03:45Z</time>
      </trkpt>
      <trkpt lat="50.50614" lon="1.76532">
        <ele>42</ele>
        <time>2019-08-11T09:03:47Z</time>
      </trkpt>
      <trkpt lat="50.50605" lon="1.76535">
        <ele>42</ele>
        <time>2019-08-11T09:03:49Z</time>
      </trkpt>
      <trkpt lat="50.50591" lon="1.76539">
        <ele>42</ele>
        <time>2019-08-11T09:03:52Z</time>
      </trkpt>
      <trkpt lat="50.50578" lon="1.76543">
        <ele>43</ele>
        <time>2019-08-11T09:03:55Z</time>
      </trkpt>
      <trkpt lat="50.50564" lon="1.76548">
        <ele>42</ele>
        <time>2019-08-11T09:03:58Z</time>
      </trkpt>
      <trkpt lat="50.50554" lon="1.76551">
        <ele>42</ele>
        <time>2019-08-11T09:04:00Z</time>
      </trkpt>
      <trkpt lat="50.50539" lon="1.76556">
        <ele>42</ele>
        <time>2019-08-11T09:04:03Z</time>
      </trkpt>
      <trkpt lat="50.50525" lon="1.76561">
        <ele>42</ele>
        <time>2019-08-11T09:04:06Z</time>
      </trkpt>
      <trkpt lat="50.50512" lon="1.76565">
        <ele>41</ele>
        <time>2019-08-11T09:04:09Z</time>
      </trkpt>
      <trkpt lat="50.50504" lon="1.76567">
        <ele>42</ele>
        <time>2019-08-11T09:04:11Z</time>
      </trkpt>
      <trkpt lat="50.50493" lon="1.7657">
        <ele>42</ele>
        <time>2019-08-11T09:04:14Z</time>
      </trkpt>
      <trkpt lat="50.50481" lon="1.76566">
        <ele>42</ele>
        <time>2019-08-11T09:04:17Z</time>
      </trkpt>
      <trkpt lat="50.5047" lon="1.76551">
        <ele>41</ele>
        <time>2019-08-11T09:04:20Z</time>
      </trkpt>
      <trkpt lat="50.5046" lon="1.76534">
        <ele>41</ele>
        <time>2019-08-11T09:04:23Z</time>
      </trkpt>
      <trkpt lat="50.50449" lon="1.76517">
        <ele>40</ele>
        <time>2019-08-11T09:04:26Z</time>
      </trkpt>
      <trkpt lat="50.50442" lon="1.76505">
        <ele>40</ele>
        <time>2019-08-11T09:04:28Z</time>
      </trkpt>
      <trkpt lat="50.50431" lon="1.76488">
        <ele>40</ele>
        <time>2019-08-11T09:04:31Z</time>
      </trkpt>
      <trkpt lat="50.5042" lon="1.7647">
        <ele>40</ele>
        <time>2019-08-11T09:04:34Z</time>
      </trkpt>
      <trkpt lat="50.50412" lon="1.76459">
        <ele>40</ele>
        <time>2019-08-11T09:04:36Z</time>
      </trkpt>
      <trkpt lat="50.504" lon="1.76441">
        <ele>39</ele>
        <time>2019-08-11T09:04:39Z</time>
      </trkpt>
      <trkpt lat="50.50391" lon="1.7643">
        <ele>39</ele>
        <time>2019-08-11T09:04:41Z</time>
      </trkpt>
      <trkpt lat="50.50378" lon="1.76414">
        <ele>39</ele>
        <time>2019-08-11T09:04:44Z</time>
      </trkpt>
      <trkpt lat="50.50369" lon="1.76404">
        <ele>38</ele>
        <time>2019-08-11T09:04:46Z</time>
      </trkpt>
      <trkpt lat="50.50359" lon="1.76393">
        <ele>38</ele>
        <time>2019-08-11T09:04:48Z</time>
      </trkpt>
      <trkpt lat="50.50349" lon="1.76382">
        <ele>36</ele>
        <time>2019-08-11T09:04:50Z</time>
      </trkpt>
      <trkpt lat="50.50334" lon="1.76365">
        <ele>35</ele>
        <time>2019-08-11T09:04:53Z</time>
      </trkpt>
      <trkpt lat="50.50324" lon="1.76354">
        <ele>35</ele>
        <time>2019-08-11T09:04:55Z</time>
      </trkpt>
      <trkpt lat="50.50308" lon="1.76336">
        <ele>35</ele>
        <time>2019-08-11T09:04:58Z</time>
      </trkpt>
      <trkpt lat="50.50297" lon="1.76326">
        <ele>35</ele>
        <time>2019-08-11T09:05:00Z</time>
      </trkpt>
      <trkpt lat="50.5028" lon="1.76314">
        <ele>34</ele>
        <time>2019-08-11T09:05:03Z</time>
      </trkpt>
      <trkpt lat="50.50264" lon="1.76304">
        <ele>34</ele>
        <time>2019-08-11T09:05:06Z</time>
      </trkpt>
      <trkpt lat="50.50254" lon="1.76297">
        <ele>33</ele>
        <time>2019-08-11T09:05:08Z</time>
      </trkpt>
      <trkpt lat="50.50238" lon="1.76288">
        <ele>33</ele>
        <time>2019-08-11T09:05:11Z</time>
      </trkpt>
      <trkpt lat="50.50228" lon="1.76281">
        <ele>33</ele>
        <time>2019-08-11T09:05:13Z</time>
      </trkpt>
      <trkpt lat="50.50213" lon="1.76272">
        <ele>33</ele>
        <time>2019-08-11T09:05:16Z</time>
      </trkpt>
      <trkpt lat="50.50199" lon="1.76263">
        <ele>33</ele>
        <time>2019-08-11T09:05:19Z</time>
      </trkpt>
      <trkpt lat="50.50185" lon="1.76255">
        <ele>33</ele>
        <time>2019-08-11T09:05:22Z</time>
      </trkpt>
      <trkpt lat="50.50177" lon="1.7625">
        <ele>33</ele>
        <time>2019-08-11T09:05:24Z</time>
      </trkpt>
      <trkpt lat="50.50164" lon="1.76241">
        <ele>33</ele>
        <time>2019-08-11T09:05:27Z</time>
      </trkpt>
      <trkpt lat="50.50155" lon="1.76235">
        <ele>33</ele>
        <time>2019-08-11T09:05:29Z</time>
      </trkpt>
      <trkpt lat="50.50146" lon="1.7623">
        <ele>33</ele>
        <time>2019-08-11T09:05:31Z</time>
      </trkpt>
      <trkpt lat="50.50134" lon="1.76221">
        <ele>33</ele>
        <time>2019-08-11T09:05:34Z</time>
      </trkpt>
      <trkpt lat="50.50125" lon="1.76215">
        <ele>33</ele>
        <time>2019-08-11T09:05:36Z</time>
      </trkpt>
      <trkpt lat="50.50111" lon="1.76207">
        <ele>34</ele>
        <time>2019-08-11T09:05:39Z</time>
      </trkpt>
      <trkpt lat="50.50103" lon="1.762">
        <ele>33</ele>
        <time>2019-08-11T09:05:41Z</time>
      </trkpt>
      <trkpt lat="50.50095" lon="1.76195">
        <ele>34</ele>
        <time>2019-08-11T09:05:43Z</time>
      </trkpt>
      <trkpt lat="50.50082" lon="1.76186">
        <ele>34</ele>
        <time>2019-08-11T09:05:46Z</time>
      </trkpt>
      <trkpt lat="50.50074" lon="1.7618">
        <ele>34</ele>
        <time>2019-08-11T09:05:48Z</time>
      </trkpt>
      <trkpt lat="50.50065" lon="1.76174">
        <ele>34</ele>
        <time>2019-08-11T09:05:50Z</time>
      </trkpt>
      <trkpt lat="50.50056" lon="1.76168">
        <ele>34</ele>
        <time>2019-08-11T09:05:52Z</time>
      </trkpt>
      <trkpt lat="50.50048" lon="1.76161">
        <ele>33</ele>
        <time>2019-08-11T09:05:54Z</time>
      </trkpt>
      <trkpt lat="50.50035" lon="1.76152">
        <ele>33</ele>
        <time>2019-08-11T09:05:57Z</time>
      </trkpt>
      <trkpt lat="50.50023" lon="1.76142">
        <ele>33</ele>
        <time>2019-08-11T09:06:00Z</time>
      </trkpt>
      <trkpt lat="50.50011" lon="1.76131">
        <ele>33</ele>
        <time>2019-08-11T09:06:03Z</time>
      </trkpt>
      <trkpt lat="50.49999" lon="1.7612">
        <ele>34</ele>
        <time>2019-08-11T09:06:06Z</time>
      </trkpt>
      <trkpt lat="50.49989" lon="1.76107">
        <ele>33</ele>
        <time>2019-08-11T09:06:09Z</time>
      </trkpt>
      <trkpt lat="50.49982" lon="1.76098">
        <ele>33</ele>
        <time>2019-08-11T09:06:11Z</time>
      </trkpt>
      <trkpt lat="50.49975" lon="1.76088">
        <ele>34</ele>
        <time>2019-08-11T09:06:13Z</time>
      </trkpt>
      <trkpt lat="50.49968" lon="1.76079">
        <ele>34</ele>
        <time>2019-08-11T09:06:15Z</time>
      </trkpt>
      <trkpt lat="50.49961" lon="1.76069">
        <ele>34</ele>
        <time>2019-08-11T09:06:17Z</time>
      </trkpt>
      <trkpt lat="50.49954" lon="1.7606">
        <ele>34</ele>
        <time>2019-08-11T09:06:19Z</time>
      </trkpt>
      <trkpt lat="50.49947" lon="1.76051">
        <ele>34</ele>
        <time>2019-08-11T09:06:21Z</time>
      </trkpt>
      <trkpt lat="50.4994" lon="1.76041">
        <ele>34</ele>
        <time>2019-08-11T09:06:23Z</time>
      </trkpt>
      <trkpt lat="50.4993" lon="1.76026">
        <ele>34</ele>
        <time>2019-08-11T09:06:26Z</time>
      </trkpt>
      <trkpt lat="50.49923" lon="1.76017">
        <ele>34</ele>
        <time>2019-08-11T09:06:28Z</time>
      </trkpt>
      <trkpt lat="50.49916" lon="1.76007">
        <ele>34</ele>
        <time>2019-08-11T09:06:30Z</time>
      </trkpt>
      <trkpt lat="50.49909" lon="1.75998">
        <ele>34</ele>
        <time>2019-08-11T09:06:32Z</time>
      </trkpt>
      <trkpt lat="50.49902" lon="1.75988">
        <ele>34</ele>
        <time>2019-08-11T09:06:34Z</time>
      </trkpt>
      <trkpt lat="50.49894" lon="1.75978">
        <ele>34</ele>
        <time>2019-08-11T09:06:36Z</time>
      </trkpt>
      <trkpt lat="50.49884" lon="1.75964">
        <ele>34</ele>
        <time>2019-08-11T09:06:39Z</time>
      </trkpt>
      <trkpt lat="50.49873" lon="1.7595">
        <ele>35</ele>
        <time>2019-08-11T09:06:42Z</time>
      </trkpt>
      <trkpt lat="50.49862" lon="1.75937">
        <ele>35</ele>
        <time>2019-08-11T09:06:45Z</time>
      </trkpt>
      <trkpt lat="50.49851" lon="1.75923">
        <ele>35</ele>
        <time>2019-08-11T09:06:48Z</time>
      </trkpt>
      <trkpt lat="50.4984" lon="1.7591">
        <ele>35</ele>
        <time>2019-08-11T09:06:51Z</time>
      </trkpt>
      <trkpt lat="50.49833" lon="1.75902">
        <ele>35</ele>
        <time>2019-08-11T09:06:53Z</time>
      </trkpt>
      <trkpt lat="50.49823" lon="1.75889">
        <ele>35</ele>
        <time>2019-08-11T09:06:56Z</time>
      </trkpt>
      <trkpt lat="50.49816" lon="1.75881">
        <ele>36</ele>
        <time>2019-08-11T09:06:58Z</time>
      </trkpt>
      <trkpt lat="50.49809" lon="1.75872">
        <ele>36</ele>
        <time>2019-08-11T09:07:00Z</time>
      </trkpt>
      <trkpt lat="50.49799" lon="1.75861">
        <ele>36</ele>
        <time>2019-08-11T09:07:03Z</time>
      </trkpt>
      <trkpt lat="50.49792" lon="1.75853">
        <ele>36</ele>
        <time>2019-08-11T09:07:05Z</time>
      </trkpt>
      <trkpt lat="50.49785" lon="1.75846">
        <ele>36</ele>
        <time>2019-08-11T09:07:07Z</time>
      </trkpt>
      <trkpt lat="50.49775" lon="1.75836">
        <ele>36</ele>
        <time>2019-08-11T09:07:10Z</time>
      </trkpt>
      <trkpt lat="50.49768" lon="1.75829">
        <ele>37</ele>
        <time>2019-08-11T09:07:12Z</time>
      </trkpt>
      <trkpt lat="50.49762" lon="1.75823">
        <ele>37</ele>
        <time>2019-08-11T09:07:14Z</time>
      </trkpt>
      <trkpt lat="50.49752" lon="1.75814">
        <ele>38</ele>
        <time>2019-08-11T09:07:17Z</time>
      </trkpt>
      <trkpt lat="50.49746" lon="1.75809">
        <ele>37</ele>
        <time>2019-08-11T09:07:19Z</time>
      </trkpt>
      <trkpt lat="50.49741" lon="1.75803">
        <ele>37</ele>
        <time>2019-08-11T09:07:21Z</time>
      </trkpt>
      <trkpt lat="50.49732" lon="1.75795">
        <ele>37</ele>
        <time>2019-08-11T09:07:24Z</time>
      </trkpt>
      <trkpt lat="50.49724" lon="1.75787">
        <ele>38</ele>
        <time>2019-08-11T09:07:27Z</time>
      </trkpt>
      <trkpt lat="50.49718" lon="1.75782">
        <ele>38</ele>
        <time>2019-08-11T09:07:29Z</time>
      </trkpt>
      <trkpt lat="50.49713" lon="1.75776">
        <ele>38</ele>
        <time>2019-08-11T09:07:31Z</time>
      </trkpt>
      <trkpt lat="50.49705" lon="1.75767">
        <ele>38</ele>
        <time>2019-08-11T09:07:34Z</time>
      </trkpt>
      <trkpt lat="50.497" lon="1.75761">
        <ele>39</ele>
        <time>2019-08-11T09:07:36Z</time>
      </trkpt>
      <trkpt lat="50.49695" lon="1.75755">
        <ele>39</ele>
        <time>2019-08-11T09:07:38Z</time>
      </trkpt>
      <trkpt lat="50.49689" lon="1.75748">
        <ele>40</ele>
        <time>2019-08-11T09:07:40Z</time>
      </trkpt>
      <trkpt lat="50.49684" lon="1.75741">
        <ele>40</ele>
        <time>2019-08-11T09:07:42Z</time>
      </trkpt>
      <trkpt lat="50.49678" lon="1.75734">
        <ele>40</ele>
        <time>2019-08-11T09:07:44Z</time>
      </trkpt>
      <trkpt lat="50.49672" lon="1.75726">
        <ele>39</ele>
        <time>2019-08-11T09:07:46Z</time>
      </trkpt>
      <trkpt lat="50.49661" lon="1.75712">
        <ele>39</ele>
        <time>2019-08-11T09:07:49Z</time>
      </trkpt>
      <trkpt lat="50.4965" lon="1.75697">
        <ele>39</ele>
        <time>2019-08-11T09:07:52Z</time>
      </trkpt>
      <trkpt lat="50.49641" lon="1.75685">
        <ele>39</ele>
        <time>2019-08-11T09:07:54Z</time>
      </trkpt>
      <trkpt lat="50.49633" lon="1.75672">
        <ele>38</ele>
        <time>2019-08-11T09:07:56Z</time>
      </trkpt>
      <trkpt lat="50.4962" lon="1.75652">
        <ele>38</ele>
        <time>2019-08-11T09:07:59Z</time>
      </trkpt>
      <trkpt lat="50.49611" lon="1.75638">
        <ele>38</ele>
        <time>2019-08-11T09:08:01Z</time>
      </trkpt>
      <trkpt lat="50.49602" lon="1.75625">
        <ele>38</ele>
        <time>2019-08-11T09:08:03Z</time>
      </trkpt>
      <trkpt lat="50.49593" lon="1.75611">
        <ele>38</ele>
        <time>2019-08-11T09:08:05Z</time>
      </trkpt>
      <trkpt lat="50.49584" lon="1.75597">
        <ele>37</ele>
        <time>2019-08-11T09:08:07Z</time>
      </trkpt>
      <trkpt lat="50.49575" lon="1.75583">
        <ele>37</ele>
        <time>2019-08-11T09:08:09Z</time>
      </trkpt>
      <trkpt lat="50.49566" lon="1.7557">
        <ele>35</ele>
        <time>2019-08-11T09:08:11Z</time>
      </trkpt>
      <trkpt lat="50.49556" lon="1.75557">
        <ele>35</ele>
        <time>2019-08-11T09:08:13Z</time>
      </trkpt>
      <trkpt lat="50.49543" lon="1.75536">
        <ele>34</ele>
        <time>2019-08-11T09:08:16Z</time>
      </trkpt>
      <trkpt lat="50.49534" lon="1.75522">
        <ele>33</ele>
        <time>2019-08-11T09:08:18Z</time>
      </trkpt>
      <trkpt lat="50.49521" lon="1.75502">
        <ele>33</ele>
        <time>2019-08-11T09:08:21Z</time>
      </trkpt>
      <trkpt lat="50.49508" lon="1.75482">
        <ele>33</ele>
        <time>2019-08-11T09:08:24Z</time>
      </trkpt>
      <trkpt lat="50.49499" lon="1.75469">
        <ele>33</ele>
        <time>2019-08-11T09:08:26Z</time>
      </trkpt>
      <trkpt lat="50.4949" lon="1.75455">
        <ele>33</ele>
        <time>2019-08-11T09:08:28Z</time>
      </trkpt>
      <trkpt lat="50.49482" lon="1.75443">
        <ele>33</ele>
        <time>2019-08-11T09:08:30Z</time>
      </trkpt>
      <trkpt lat="50.49469" lon="1.75423">
        <ele>33</ele>
        <time>2019-08-11T09:08:33Z</time>
      </trkpt>
      <trkpt lat="50.49461" lon="1.75411">
        <ele>34</ele>
        <time>2019-08-11T09:08:35Z</time>
      </trkpt>
      <trkpt lat="50.49453" lon="1.75399">
        <ele>33</ele>
        <time>2019-08-11T09:08:37Z</time>
      </trkpt>
      <trkpt lat="50.49445" lon="1.75387">
        <ele>32</ele>
        <time>2019-08-11T09:08:39Z</time>
      </trkpt>
      <trkpt lat="50.49434" lon="1.7537">
        <ele>31</ele>
        <time>2019-08-11T09:08:42Z</time>
      </trkpt>
      <trkpt lat="50.49426" lon="1.75358">
        <ele>31</ele>
        <time>2019-08-11T09:08:44Z</time>
      </trkpt>
      <trkpt lat="50.49418" lon="1.75346">
        <ele>31</ele>
        <time>2019-08-11T09:08:46Z</time>
      </trkpt>
      <trkpt lat="50.49406" lon="1.75328">
        <ele>30</ele>
        <time>2019-08-11T09:08:49Z</time>
      </trkpt>
      <trkpt lat="50.49398" lon="1.75316">
        <ele>30</ele>
        <time>2019-08-11T09:08:51Z</time>
      </trkpt>
      <trkpt lat="50.49386" lon="1.75298">
        <ele>30</ele>
        <time>2019-08-11T09:08:54Z</time>
      </trkpt>
      <trkpt lat="50.49374" lon="1.7528">
        <ele>30</ele>
        <time>2019-08-11T09:08:57Z</time>
      </trkpt>
      <trkpt lat="50.49366" lon="1.75268">
        <ele>30</ele>
        <time>2019-08-11T09:08:59Z</time>
      </trkpt>
      <trkpt lat="50.49353" lon="1.7525">
        <ele>30</ele>
        <time>2019-08-11T09:09:02Z</time>
      </trkpt>
      <trkpt lat="50.49346" lon="1.75238">
        <ele>29</ele>
        <time>2019-08-11T09:09:04Z</time>
      </trkpt>
      <trkpt lat="50.49335" lon="1.75222">
        <ele>29</ele>
        <time>2019-08-11T09:09:07Z</time>
      </trkpt>
      <trkpt lat="50.49325" lon="1.75207">
        <ele>29</ele>
        <time>2019-08-11T09:09:10Z</time>
      </trkpt>
      <trkpt lat="50.49318" lon="1.75198">
        <ele>29</ele>
        <time>2019-08-11T09:09:12Z</time>
      </trkpt>
      <trkpt lat="50.4931" lon="1.75185">
        <ele>29</ele>
        <time>2019-08-11T09:09:15Z</time>
      </trkpt>
      <trkpt lat="50.49305" lon="1.75177">
        <ele>29</ele>
        <time>2019-08-11T09:09:17Z</time>
      </trkpt>
      <trkpt lat="50.49296" lon="1.75165">
        <ele>29</ele>
        <time>2019-08-11T09:09:20Z</time>
      </trkpt>
      <trkpt lat="50.4929" lon="1.75156">
        <ele>29</ele>
        <time>2019-08-11T09:09:22Z</time>
      </trkpt>
      <trkpt lat="50.49281" lon="1.75142">
        <ele>29</ele>
        <time>2019-08-11T09:09:25Z</time>
      </trkpt>
      <trkpt lat="50.49271" lon="1.75128">
        <ele>30</ele>
        <time>2019-08-11T09:09:28Z</time>
      </trkpt>
      <trkpt lat="50.4926" lon="1.75115">
        <ele>29</ele>
        <time>2019-08-11T09:09:31Z</time>
      </trkpt>
      <trkpt lat="50.49253" lon="1.75105">
        <ele>29</ele>
        <time>2019-08-11T09:09:33Z</time>
      </trkpt>
      <trkpt lat="50.49246" lon="1.75096">
        <ele>29</ele>
        <time>2019-08-11T09:09:35Z</time>
      </trkpt>
      <trkpt lat="50.49236" lon="1.75082">
        <ele>29</ele>
        <time>2019-08-11T09:09:38Z</time>
      </trkpt>
      <trkpt lat="50.49226" lon="1.75069">
        <ele>29</ele>
        <time>2019-08-11T09:09:41Z</time>
      </trkpt>
      <trkpt lat="50.49215" lon="1.75056">
        <ele>28</ele>
        <time>2019-08-11T09:09:44Z</time>
      </trkpt>
      <trkpt lat="50.49205" lon="1.75042">
        <ele>28</ele>
        <time>2019-08-11T09:09:47Z</time>
      </trkpt>
      <trkpt lat="50.49198" lon="1.75034">
        <ele>29</ele>
        <time>2019-08-11T09:09:49Z</time>
      </trkpt>
      <trkpt lat="50.49189" lon="1.75021">
        <ele>28</ele>
        <time>2019-08-11T09:09:52Z</time>
      </trkpt>
      <trkpt lat="50.49183" lon="1.75013">
        <ele>28</ele>
        <time>2019-08-11T09:09:54Z</time>
      </trkpt>
      <trkpt lat="50.49177" lon="1.75005">
        <ele>28</ele>
        <time>2019-08-11T09:09:56Z</time>
      </trkpt>
      <trkpt lat="50.49168" lon="1.74995">
        <ele>27</ele>
        <time>2019-08-11T09:09:59Z</time>
      </trkpt>
      <trkpt lat="50.4916" lon="1.74985">
        <ele>27</ele>
        <time>2019-08-11T09:10:02Z</time>
      </trkpt>
      <trkpt lat="50.4915" lon="1.74975">
        <ele>27</ele>
        <time>2019-08-11T09:10:05Z</time>
      </trkpt>
      <trkpt lat="50.49139" lon="1.74963">
        <ele>27</ele>
        <time>2019-08-11T09:10:08Z</time>
      </trkpt>
      <trkpt lat="50.49125" lon="1.74956">
        <ele>27</ele>
        <time>2019-08-11T09:10:11Z</time>
      </trkpt>
      <trkpt lat="50.49116" lon="1.7495">
        <ele>27</ele>
        <time>2019-08-11T09:10:13Z</time>
      </trkpt>
      <trkpt lat="50.49101" lon="1.74943">
        <ele>28</ele>
        <time>2019-08-11T09:10:16Z</time>
      </trkpt>
      <trkpt lat="50.49091" lon="1.74938">
        <ele>27</ele>
        <time>2019-08-11T09:10:18Z</time>
      </trkpt>
      <trkpt lat="50.49081" lon="1.74934">
        <ele>27</ele>
        <time>2019-08-11T09:10:20Z</time>
      </trkpt>
      <trkpt lat="50.49071" lon="1.74929">
        <ele>27</ele>
        <time>2019-08-11T09:10:22Z</time>
      </trkpt>
      <trkpt lat="50.4906" lon="1.74924">
        <ele>26</ele>
        <time>2019-08-11T09:10:24Z</time>
      </trkpt>
      <trkpt lat="50.49049" lon="1.74919">
        <ele>26</ele>
        <time>2019-08-11T09:10:26Z</time>
      </trkpt>
      <trkpt lat="50.49038" lon="1.74914">
        <ele>26</ele>
        <time>2019-08-11T09:10:28Z</time>
      </trkpt>
      <trkpt lat="50.49026" lon="1.74909">
        <ele>26</ele>
        <time>2019-08-11T09:10:30Z</time>
      </trkpt>
      <trkpt lat="50.49015" lon="1.74904">
        <ele>25</ele>
        <time>2019-08-11T09:10:32Z</time>
      </trkpt>
      <trkpt lat="50.48995" lon="1.74894">
        <ele>25</ele>
        <time>2019-08-11T09:10:35Z</time>
      </trkpt>
      <trkpt lat="50.48982" lon="1.74883">
        <ele>24</ele>
        <time>2019-08-11T09:10:37Z</time>
      </trkpt>
      <trkpt lat="50.48964" lon="1.74856">
        <ele>23</ele>
        <time>2019-08-11T09:10:40Z</time>
      </trkpt>
      <trkpt lat="50.48954" lon="1.74832">
        <ele>21</ele>
        <time>2019-08-11T09:10:42Z</time>
      </trkpt>
      <trkpt lat="50.48943" lon="1.74806">
        <ele>19</ele>
        <time>2019-08-11T09:10:44Z</time>
      </trkpt>
      <trkpt lat="50.48924" lon="1.74765">
        <ele>17</ele>
        <time>2019-08-11T09:10:47Z</time>
      </trkpt>
      <trkpt lat="50.48904" lon="1.74723">
        <ele>15</ele>
        <time>2019-08-11T09:10:50Z</time>
      </trkpt>
      <trkpt lat="50.4889" lon="1.74694">
        <ele>14</ele>
        <time>2019-08-11T09:10:52Z</time>
      </trkpt>
      <trkpt lat="50.48866" lon="1.7465">
        <ele>9</ele>
        <time>2019-08-11T09:10:55Z</time>
      </trkpt>
      <trkpt lat="50.48848" lon="1.74619">
        <ele>3</ele>
        <time>2019-08-11T09:10:58Z</time>
      </trkpt>
      <trkpt lat="50.48839" lon="1.74605">
        <ele>23.3</ele>
        <time>2019-08-11T09:11:00Z</time>
      </trkpt>
      <trkpt lat="50.48832" lon="1.74593">
        <ele>-2</ele>
        <time>2019-08-11T09:11:02Z</time>
      </trkpt>
      <trkpt lat="50.48826" lon="1.74582">
        <ele>-5</ele>
        <time>2019-08-11T09:11:05Z</time>
      </trkpt>
      <trkpt lat="50.48824" lon="1.74579">
        <ele>-7</ele>
        <time>2019-08-11T09:11:08Z</time>
      </trkpt>
      <trkpt lat="50.48824" lon="1.74577">
        <ele>-9</ele>
        <time>2019-08-11T09:11:11Z</time>
      </trkpt>
      <trkpt lat="50.48823" lon="1.74576">
        <ele>-9</ele>
        <time>2019-08-11T09:11:13Z</time>
      </trkpt>
      <trkpt lat="50.48822" lon="1.74575">
        <ele>-9</ele>
        <time>2019-08-11T09:11:16Z</time>
      </trkpt>
      <trkpt lat="50.48822" lon="1.74574">
        <ele>-9</ele>
        <time>2019-08-11T09:11:19Z</time>
      </trkpt>
      <trkpt lat="50.48821" lon="1.74574">
        <ele>-9</ele>
        <time>2019-08-11T09:11:21Z</time>
      </trkpt>
      <trkpt lat="50.4882" lon="1.74572">
        <ele>-9</ele>
        <time>2019-08-11T09:11:24Z</time>
      </trkpt>
      <trkpt lat="50.48817" lon="1.74568">
        <ele>-9</ele>
        <time>2019-08-11T09:11:26Z</time>
      </trkpt>
      <trkpt lat="50.48811" lon="1.74563">
        <ele>-9</ele>
        <time>2019-08-11T09:11:28Z</time>
      </trkpt>
      <trkpt lat="50.48804" lon="1.74554">
        <ele>-9</ele>
        <time>2019-08-11T09:11:30Z</time>
      </trkpt>
      <trkpt lat="50.48794" lon="1.74544">
        <ele>-10</ele>
        <time>2019-08-11T09:11:32Z</time>
      </trkpt>
      <trkpt lat="50.48783" lon="1.74534">
        <ele>-10</ele>
        <time>2019-08-11T09:11:34Z</time>
      </trkpt>
      <trkpt lat="50.48764" lon="1.74519">
        <ele>-11</ele>
        <time>2019-08-11T09:11:37Z</time>
      </trkpt>
      <trkpt lat="50.4875" lon="1.74508">
        <ele>-12</ele>
        <time>2019-08-11T09:11:39Z</time>
      </trkpt>
      <trkpt lat="50.48737" lon="1.74498">
        <ele>-12</ele>
        <time>2019-08-11T09:11:41Z</time>
      </trkpt>
      <trkpt lat="50.48725" lon="1.74488">
        <ele>-13</ele>
        <time>2019-08-11T09:11:44Z</time>
      </trkpt>
      <trkpt lat="50.4872" lon="1.74486">
        <ele>-14</ele>
        <time>2019-08-11T09:11:46Z</time>
      </trkpt>
      <trkpt lat="50.48718" lon="1.74487">
        <ele>-15</ele>
        <time>2019-08-11T09:11:48Z</time>
      </trkpt>
      <trkpt lat="50.48716" lon="1.74487">
        <ele>-16</ele>
        <time>2019-08-11T09:11:51Z</time>
      </trkpt>
      <trkpt lat="50.48713" lon="1.74489">
        <ele>-17</ele>
        <time>2019-08-11T09:11:53Z</time>
      </trkpt>
      <trkpt lat="50.48711" lon="1.74496">
        <ele>-17</ele>
        <time>2019-08-11T09:11:55Z</time>
      </trkpt>
      <trkpt lat="50.48709" lon="1.74504">
        <ele>-17</ele>
        <time>2019-08-11T09:11:57Z</time>
      </trkpt>
      <trkpt lat="50.48704" lon="1.74518">
        <ele>-16</ele>
        <time>2019-08-11T09:12:00Z</time>
      </trkpt>
      <trkpt lat="50.487" lon="1.74528">
        <ele>-16</ele>
        <time>2019-08-11T09:12:02Z</time>
      </trkpt>
      <trkpt lat="50.48695" lon="1.74538">
        <ele>-16</ele>
        <time>2019-08-11T09:12:04Z</time>
      </trkpt>
      <trkpt lat="50.48688" lon="1.74553">
        <ele>-15</ele>
        <time>2019-08-11T09:12:07Z</time>
      </trkpt>
      <trkpt lat="50.48681" lon="1.74567">
        <ele>-15</ele>
        <time>2019-08-11T09:12:10Z</time>
      </trkpt>
      <trkpt lat="50.48675" lon="1.74581">
        <ele>-14</ele>
        <time>2019-08-11T09:12:13Z</time>
      </trkpt>
      <trkpt lat="50.48671" lon="1.74591">
        <ele>-14</ele>
        <time>2019-08-11T09:12:15Z</time>
      </trkpt>
      <trkpt lat="50.48666" lon="1.74601">
        <ele>-14</ele>
        <time>2019-08-11T09:12:17Z</time>
      </trkpt>
      <trkpt lat="50.48659" lon="1.74617">
        <ele>-14</ele>
        <time>2019-08-11T09:12:20Z</time>
      </trkpt>
      <trkpt lat="50.48652" lon="1.74634">
        <ele>-14</ele>
        <time>2019-08-11T09:12:23Z</time>
      </trkpt>
      <trkpt lat="50.48648" lon="1.74645">
        <ele>-14</ele>
        <time>2019-08-11T09:12:25Z</time>
      </trkpt>
      <trkpt lat="50.48643" lon="1.74655">
        <ele>-14</ele>
        <time>2019-08-11T09:12:27Z</time>
      </trkpt>
      <trkpt lat="50.48636" lon="1.74671">
        <ele>-14</ele>
        <time>2019-08-11T09:12:30Z</time>
      </trkpt>
      <trkpt lat="50.4863" lon="1.74688">
        <ele>-14</ele>
        <time>2019-08-11T09:12:33Z</time>
      </trkpt>
      <trkpt lat="50.48625" lon="1.74697">
        <ele>-14</ele>
        <time>2019-08-11T09:12:35Z</time>
      </trkpt>
      <trkpt lat="50.48614" lon="1.74697">
        <ele>-14</ele>
        <time>2019-08-11T09:12:38Z</time>
      </trkpt>
      <trkpt lat="50.48603" lon="1.74684">
        <ele>-15</ele>
        <time>2019-08-11T09:12:41Z</time>
      </trkpt>
      <trkpt lat="50.48591" lon="1.74671">
        <ele>-15</ele>
        <time>2019-08-11T09:12:44Z</time>
      </trkpt>
      <trkpt lat="50.48577" lon="1.74658">
        <ele>-15</ele>
        <time>2019-08-11T09:12:47Z</time>
      </trkpt>
      <trkpt lat="50.48562" lon="1.74643">
        <ele>-15</ele>
        <time>2019-08-11T09:12:50Z</time>
      </trkpt>
      <trkpt lat="50.48545" lon="1.74632">
        <ele>-16</ele>
        <time>2019-08-11T09:12:53Z</time>
      </trkpt>
      <trkpt lat="50.48528" lon="1.74622">
        <ele>-17</ele>
        <time>2019-08-11T09:12:56Z</time>
      </trkpt>
      <trkpt lat="50.48516" lon="1.74616">
        <ele>-18</ele>
        <time>2019-08-11T09:12:58Z</time>
      </trkpt>
      <trkpt lat="50.485" lon="1.74606">
        <ele>-19</ele>
        <time>2019-08-11T09:13:01Z</time>
      </trkpt>
      <trkpt lat="50.48491" lon="1.74595">
        <ele>-19</ele>
        <time>2019-08-11T09:13:03Z</time>
      </trkpt>
      <trkpt lat="50.48484" lon="1.74588">
        <ele>-20</ele>
        <time>2019-08-11T09:13:05Z</time>
      </trkpt>
      <trkpt lat="50.48474" lon="1.74591">
        <ele>-20</ele>
        <time>2019-08-11T09:13:08Z</time>
      </trkpt>
      <trkpt lat="50.48463" lon="1.74604">
        <ele>-21</ele>
        <time>2019-08-11T09:13:11Z</time>
      </trkpt>
      <trkpt lat="50.48453" lon="1.74619">
        <ele>-21</ele>
        <time>2019-08-11T09:13:14Z</time>
      </trkpt>
      <trkpt lat="50.48446" lon="1.7463">
        <ele>-21</ele>
        <time>2019-08-11T09:13:16Z</time>
      </trkpt>
      <trkpt lat="50.48435" lon="1.74646">
        <ele>-21</ele>
        <time>2019-08-11T09:13:19Z</time>
      </trkpt>
      <trkpt lat="50.48424" lon="1.74661">
        <ele>-21</ele>
        <time>2019-08-11T09:13:22Z</time>
      </trkpt>
      <trkpt lat="50.48413" lon="1.74677">
        <ele>-20</ele>
        <time>2019-08-11T09:13:25Z</time>
      </trkpt>
      <trkpt lat="50.48402" lon="1.74694">
        <ele>-20</ele>
        <time>2019-08-11T09:13:28Z</time>
      </trkpt>
      <trkpt lat="50.48393" lon="1.74711">
        <ele>-21</ele>
        <time>2019-08-11T09:13:31Z</time>
      </trkpt>
      <trkpt lat="50.48383" lon="1.74726">
        <ele>-21</ele>
        <time>2019-08-11T09:13:34Z</time>
      </trkpt>
      <trkpt lat="50.48374" lon="1.74744">
        <ele>-21</ele>
        <time>2019-08-11T09:13:37Z</time>
      </trkpt>
      <trkpt lat="50.48368" lon="1.74755">
        <ele>-21</ele>
        <time>2019-08-11T09:13:39Z</time>
      </trkpt>
      <trkpt lat="50.48359" lon="1.74772">
        <ele>-20</ele>
        <time>2019-08-11T09:13:42Z</time>
      </trkpt>
      <trkpt lat="50.4835" lon="1.74789">
        <ele>-21</ele>
        <time>2019-08-11T09:13:45Z</time>
      </trkpt>
      <trkpt lat="50.48342" lon="1.74806">
        <ele>-21</ele>
        <time>2019-08-11T09:13:48Z</time>
      </trkpt>
      <trkpt lat="50.48336" lon="1.74819">
        <ele>-21</ele>
        <time>2019-08-11T09:13:50Z</time>
      </trkpt>
      <trkpt lat="50.4833" lon="1.74831">
        <ele>-21</ele>
        <time>2019-08-11T09:13:52Z</time>
      </trkpt>
      <trkpt lat="50.48322" lon="1.7485">
        <ele>-21</ele>
        <time>2019-08-11T09:13:55Z</time>
      </trkpt>
      <trkpt lat="50.48315" lon="1.74862">
        <ele>-21</ele>
        <time>2019-08-11T09:13:57Z</time>
      </trkpt>
      <trkpt lat="50.48309" lon="1.74875">
        <ele>-21</ele>
        <time>2019-08-11T09:13:59Z</time>
      </trkpt>
      <trkpt lat="50.48303" lon="1.74889">
        <ele>-21</ele>
        <time>2019-08-11T09:14:01Z</time>
      </trkpt>
      <trkpt lat="50.48296" lon="1.74901">
        <ele>-21</ele>
        <time>2019-08-11T09:14:03Z</time>
      </trkpt>
      <trkpt lat="50.4829" lon="1.74913">
        <ele>-21</ele>
        <time>2019-08-11T09:14:05Z</time>
      </trkpt>
      <trkpt lat="50.48281" lon="1.74931">
        <ele>-21</ele>
        <time>2019-08-11T09:14:08Z</time>
      </trkpt>
      <trkpt lat="50.48275" lon="1.74944">
        <ele>-21</ele>
        <time>2019-08-11T09:14:10Z</time>
      </trkpt>
      <trkpt lat="50.48267" lon="1.74962">
        <ele>-22</ele>
        <time>2019-08-11T09:14:13Z</time>
      </trkpt>
      <trkpt lat="50.48263" lon="1.74975">
        <ele>-22</ele>
        <time>2019-08-11T09:14:15Z</time>
      </trkpt>
      <trkpt lat="50.48261" lon="1.74986">
        <ele>-22</ele>
        <time>2019-08-11T09:14:17Z</time>
      </trkpt>
      <trkpt lat="50.48259" lon="1.74998">
        <ele>-22</ele>
        <time>2019-08-11T09:14:19Z</time>
      </trkpt>
      <trkpt lat="50.48257" lon="1.75011">
        <ele>-22</ele>
        <time>2019-08-11T09:14:21Z</time>
      </trkpt>
      <trkpt lat="50.48254" lon="1.75024">
        <ele>-22</ele>
        <time>2019-08-11T09:14:23Z</time>
      </trkpt>
      <trkpt lat="50.48248" lon="1.75029">
        <ele>-22</ele>
        <time>2019-08-11T09:14:25Z</time>
      </trkpt>
      <trkpt lat="50.48242" lon="1.75026">
        <ele>-22</ele>
        <time>2019-08-11T09:14:27Z</time>
      </trkpt>
      <trkpt lat="50.48236" lon="1.75019">
        <ele>-22</ele>
        <time>2019-08-11T09:14:29Z</time>
      </trkpt>
      <trkpt lat="50.48227" lon="1.75008">
        <ele>-22</ele>
        <time>2019-08-11T09:14:32Z</time>
      </trkpt>
      <trkpt lat="50.48217" lon="1.74997">
        <ele>-22</ele>
        <time>2019-08-11T09:14:35Z</time>
      </trkpt>
      <trkpt lat="50.4821" lon="1.7499">
        <ele>-23</ele>
        <time>2019-08-11T09:14:37Z</time>
      </trkpt>
      <trkpt lat="50.48204" lon="1.74984">
        <ele>-23</ele>
        <time>2019-08-11T09:14:39Z</time>
      </trkpt>
      <trkpt lat="50.48197" lon="1.74976">
        <ele>-22</ele>
        <time>2019-08-11T09:14:41Z</time>
      </trkpt>
      <trkpt lat="50.4819" lon="1.74969">
        <ele>-23</ele>
        <time>2019-08-11T09:14:43Z</time>
      </trkpt>
      <trkpt lat="50.48183" lon="1.74962">
        <ele>-23</ele>
        <time>2019-08-11T09:14:45Z</time>
      </trkpt>
      <trkpt lat="50.48176" lon="1.74955">
        <ele>-23</ele>
        <time>2019-08-11T09:14:47Z</time>
      </trkpt>
      <trkpt lat="50.48169" lon="1.74947">
        <ele>-23</ele>
        <time>2019-08-11T09:14:49Z</time>
      </trkpt>
      <trkpt lat="50.48162" lon="1.74938">
        <ele>-23</ele>
        <time>2019-08-11T09:14:51Z</time>
      </trkpt>
      <trkpt lat="50.48152" lon="1.74926">
        <ele>-23</ele>
        <time>2019-08-11T09:14:54Z</time>
      </trkpt>
      <trkpt lat="50.48145" lon="1.74918">
        <ele>-23</ele>
        <time>2019-08-11T09:14:56Z</time>
      </trkpt>
      <trkpt lat="50.48138" lon="1.74912">
        <ele>-23</ele>
        <time>2019-08-11T09:14:58Z</time>
      </trkpt>
      <trkpt lat="50.4813" lon="1.74902">
        <ele>-23</ele>
        <time>2019-08-11T09:15:01Z</time>
      </trkpt>
      <trkpt lat="50.48122" lon="1.74893">
        <ele>-23</ele>
        <time>2019-08-11T09:15:04Z</time>
      </trkpt>
      <trkpt lat="50.48116" lon="1.74887">
        <ele>-23</ele>
        <time>2019-08-11T09:15:06Z</time>
      </trkpt>
      <trkpt lat="50.4811" lon="1.74881">
        <ele>-23</ele>
        <time>2019-08-11T09:15:08Z</time>
      </trkpt>
      <trkpt lat="50.48104" lon="1.74874">
        <ele>-23</ele>
        <time>2019-08-11T09:15:10Z</time>
      </trkpt>
      <trkpt lat="50.48098" lon="1.74868">
        <ele>-23</ele>
        <time>2019-08-11T09:15:12Z</time>
      </trkpt>
      <trkpt lat="50.48088" lon="1.74858">
        <ele>-23</ele>
        <time>2019-08-11T09:15:15Z</time>
      </trkpt>
      <trkpt lat="50.48077" lon="1.7485">
        <ele>-23</ele>
        <time>2019-08-11T09:15:18Z</time>
      </trkpt>
      <trkpt lat="50.4807" lon="1.74846">
        <ele>-23</ele>
        <time>2019-08-11T09:15:20Z</time>
      </trkpt>
      <trkpt lat="50.48063" lon="1.74841">
        <ele>-24</ele>
        <time>2019-08-11T09:15:22Z</time>
      </trkpt>
      <trkpt lat="50.48051" lon="1.74834">
        <ele>-23</ele>
        <time>2019-08-11T09:15:25Z</time>
      </trkpt>
      <trkpt lat="50.48039" lon="1.74827">
        <ele>-23</ele>
        <time>2019-08-11T09:15:28Z</time>
      </trkpt>
      <trkpt lat="50.48031" lon="1.74822">
        <ele>-23</ele>
        <time>2019-08-11T09:15:30Z</time>
      </trkpt>
      <trkpt lat="50.48024" lon="1.74818">
        <ele>-23</ele>
        <time>2019-08-11T09:15:32Z</time>
      </trkpt>
      <trkpt lat="50.48013" lon="1.74812">
        <ele>-23</ele>
        <time>2019-08-11T09:15:35Z</time>
      </trkpt>
      <trkpt lat="50.48005" lon="1.7481">
        <ele>-23</ele>
        <time>2019-08-11T09:15:37Z</time>
      </trkpt>
      <trkpt lat="50.47993" lon="1.74809">
        <ele>-23</ele>
        <time>2019-08-11T09:15:40Z</time>
      </trkpt>
      <trkpt lat="50.47986" lon="1.74813">
        <ele>-23</ele>
        <time>2019-08-11T09:15:42Z</time>
      </trkpt>
      <trkpt lat="50.47975" lon="1.74822">
        <ele>-23</ele>
        <time>2019-08-11T09:15:45Z</time>
      </trkpt>
      <trkpt lat="50.47967" lon="1.74829">
        <ele>-23</ele>
        <time>2019-08-11T09:15:47Z</time>
      </trkpt>
      <trkpt lat="50.47954" lon="1.74838">
        <ele>-22</ele>
        <time>2019-08-11T09:15:50Z</time>
      </trkpt>
      <trkpt lat="50.47941" lon="1.74846">
        <ele>-22</ele>
        <time>2019-08-11T09:15:53Z</time>
      </trkpt>
      <trkpt lat="50.47927" lon="1.74854">
        <ele>-22</ele>
        <time>2019-08-11T09:15:56Z</time>
      </trkpt>
      <trkpt lat="50.47917" lon="1.74859">
        <ele>-22</ele>
        <time>2019-08-11T09:15:58Z</time>
      </trkpt>
      <trkpt lat="50.47903" lon="1.74868">
        <ele>-21</ele>
        <time>2019-08-11T09:16:01Z</time>
      </trkpt>
      <trkpt lat="50.47889" lon="1.74877">
        <ele>-21</ele>
        <time>2019-08-11T09:16:04Z</time>
      </trkpt>
      <trkpt lat="50.4788" lon="1.74881">
        <ele>-21</ele>
        <time>2019-08-11T09:16:06Z</time>
      </trkpt>
      <trkpt lat="50.47867" lon="1.74889">
        <ele>-21</ele>
        <time>2019-08-11T09:16:09Z</time>
      </trkpt>
      <trkpt lat="50.47858" lon="1.74893">
        <ele>-21</ele>
        <time>2019-08-11T09:16:11Z</time>
      </trkpt>
      <trkpt lat="50.47845" lon="1.74895">
        <ele>-22</ele>
        <time>2019-08-11T09:16:14Z</time>
      </trkpt>
      <trkpt lat="50.47839" lon="1.74897">
        <ele>-22</ele>
        <time>2019-08-11T09:16:16Z</time>
      </trkpt>
      <trkpt lat="50.47833" lon="1.74899">
        <ele>-22</ele>
        <time>2019-08-11T09:16:18Z</time>
      </trkpt>
      <trkpt lat="50.47828" lon="1.74898">
        <ele>-22</ele>
        <time>2019-08-11T09:16:21Z</time>
      </trkpt>
      <trkpt lat="50.47824" lon="1.7489">
        <ele>-21</ele>
        <time>2019-08-11T09:16:24Z</time>
      </trkpt>
      <trkpt lat="50.47822" lon="1.74884">
        <ele>-21</ele>
        <time>2019-08-11T09:16:26Z</time>
      </trkpt>
      <trkpt lat="50.4782" lon="1.74878">
        <ele>-21</ele>
        <time>2019-08-11T09:16:28Z</time>
      </trkpt>
      <trkpt lat="50.47816" lon="1.74868">
        <ele>-21</ele>
        <time>2019-08-11T09:16:31Z</time>
      </trkpt>
      <trkpt lat="50.47815" lon="1.74864">
        <ele>-21</ele>
        <time>2019-08-11T09:16:33Z</time>
      </trkpt>
      <trkpt lat="50.47813" lon="1.74857">
        <ele>-22</ele>
        <time>2019-08-11T09:16:36Z</time>
      </trkpt>
      <trkpt lat="50.47808" lon="1.74859">
        <ele>-22</ele>
        <time>2019-08-11T09:16:38Z</time>
      </trkpt>
      <trkpt lat="50.47802" lon="1.74868">
        <ele>-23</ele>
        <time>2019-08-11T09:16:41Z</time>
      </trkpt>
      <trkpt lat="50.47793" lon="1.74875">
        <ele>-23</ele>
        <time>2019-08-11T09:16:44Z</time>
      </trkpt>
      <trkpt lat="50.47786" lon="1.74879">
        <ele>-23</ele>
        <time>2019-08-11T09:16:46Z</time>
      </trkpt>
      <trkpt lat="50.47778" lon="1.74884">
        <ele>-23</ele>
        <time>2019-08-11T09:16:48Z</time>
      </trkpt>
      <trkpt lat="50.4777" lon="1.7489">
        <ele>-23</ele>
        <time>2019-08-11T09:16:50Z</time>
      </trkpt>
      <trkpt lat="50.47762" lon="1.74894">
        <ele>-23</ele>
        <time>2019-08-11T09:16:52Z</time>
      </trkpt>
      <trkpt lat="50.47749" lon="1.74902">
        <ele>-23</ele>
        <time>2019-08-11T09:16:55Z</time>
      </trkpt>
      <trkpt lat="50.47741" lon="1.74908">
        <ele>-23</ele>
        <time>2019-08-11T09:16:57Z</time>
      </trkpt>
      <trkpt lat="50.47728" lon="1.74918">
        <ele>-23</ele>
        <time>2019-08-11T09:17:00Z</time>
      </trkpt>
      <trkpt lat="50.4772" lon="1.74927">
        <ele>-23</ele>
        <time>2019-08-11T09:17:02Z</time>
      </trkpt>
      <trkpt lat="50.47713" lon="1.74935">
        <ele>-22</ele>
        <time>2019-08-11T09:17:04Z</time>
      </trkpt>
      <trkpt lat="50.47704" lon="1.74952">
        <ele>-23</ele>
        <time>2019-08-11T09:17:07Z</time>
      </trkpt>
      <trkpt lat="50.47699" lon="1.74965">
        <ele>-23</ele>
        <time>2019-08-11T09:17:09Z</time>
      </trkpt>
      <trkpt lat="50.47694" lon="1.74986">
        <ele>-23</ele>
        <time>2019-08-11T09:17:12Z</time>
      </trkpt>
      <trkpt lat="50.4769" lon="1.75008">
        <ele>-22</ele>
        <time>2019-08-11T09:17:15Z</time>
      </trkpt>
      <trkpt lat="50.47687" lon="1.75031">
        <ele>-22</ele>
        <time>2019-08-11T09:17:18Z</time>
      </trkpt>
      <trkpt lat="50.47683" lon="1.75055">
        <ele>-22</ele>
        <time>2019-08-11T09:17:21Z</time>
      </trkpt>
      <trkpt lat="50.47682" lon="1.75069">
        <ele>-23</ele>
        <time>2019-08-11T09:17:23Z</time>
      </trkpt>
      <trkpt lat="50.4768" lon="1.75092">
        <ele>-23</ele>
        <time>2019-08-11T09:17:26Z</time>
      </trkpt>
      <trkpt lat="50.47678" lon="1.75108">
        <ele>-22</ele>
        <time>2019-08-11T09:17:28Z</time>
      </trkpt>
      <trkpt lat="50.47675" lon="1.75131">
        <ele>-23</ele>
        <time>2019-08-11T09:17:31Z</time>
      </trkpt>
      <trkpt lat="50.47671" lon="1.75155">
        <ele>-22</ele>
        <time>2019-08-11T09:17:34Z</time>
      </trkpt>
      <trkpt lat="50.47666" lon="1.7517">
        <ele>-22</ele>
        <time>2019-08-11T09:17:36Z</time>
      </trkpt>
      <trkpt lat="50.47659" lon="1.75191">
        <ele>-22</ele>
        <time>2019-08-11T09:17:39Z</time>
      </trkpt>
      <trkpt lat="50.47653" lon="1.75205">
        <ele>-22</ele>
        <time>2019-08-11T09:17:41Z</time>
      </trkpt>
      <trkpt lat="50.47646" lon="1.75218">
        <ele>-22</ele>
        <time>2019-08-11T09:17:43Z</time>
      </trkpt>
      <trkpt lat="50.4764" lon="1.75231">
        <ele>-22</ele>
        <time>2019-08-11T09:17:45Z</time>
      </trkpt>
      <trkpt lat="50.4763" lon="1.75249">
        <ele>-22</ele>
        <time>2019-08-11T09:17:48Z</time>
      </trkpt>
      <trkpt lat="50.47623" lon="1.7526">
        <ele>-22</ele>
        <time>2019-08-11T09:17:50Z</time>
      </trkpt>
      <trkpt lat="50.47615" lon="1.7527">
        <ele>-22</ele>
        <time>2019-08-11T09:17:52Z</time>
      </trkpt>
      <trkpt lat="50.47607" lon="1.75279">
        <ele>-22</ele>
        <time>2019-08-11T09:17:54Z</time>
      </trkpt>
      <trkpt lat="50.47594" lon="1.75293">
        <ele>-22</ele>
        <time>2019-08-11T09:17:57Z</time>
      </trkpt>
      <trkpt lat="50.47585" lon="1.75301">
        <ele>-22</ele>
        <time>2019-08-11T09:17:59Z</time>
      </trkpt>
      <trkpt lat="50.47576" lon="1.7531">
        <ele>-22</ele>
        <time>2019-08-11T09:18:01Z</time>
      </trkpt>
      <trkpt lat="50.47567" lon="1.7532">
        <ele>-22</ele>
        <time>2019-08-11T09:18:03Z</time>
      </trkpt>
      <trkpt lat="50.47558" lon="1.75339">
        <ele>-22</ele>
        <time>2019-08-11T09:18:06Z</time>
      </trkpt>
      <trkpt lat="50.47551" lon="1.75361">
        <ele>-22</ele>
        <time>2019-08-11T09:18:09Z</time>
      </trkpt>
      <trkpt lat="50.47548" lon="1.75376">
        <ele>-22</ele>
        <time>2019-08-11T09:18:11Z</time>
      </trkpt>
      <trkpt lat="50.47545" lon="1.75392">
        <ele>-22</ele>
        <time>2019-08-11T09:18:13Z</time>
      </trkpt>
      <trkpt lat="50.47541" lon="1.75406">
        <ele>-22</ele>
        <time>2019-08-11T09:18:15Z</time>
      </trkpt>
      <trkpt lat="50.47533" lon="1.75417">
        <ele>-22</ele>
        <time>2019-08-11T09:18:17Z</time>
      </trkpt>
      <trkpt lat="50.47524" lon="1.75421">
        <ele>-22</ele>
        <time>2019-08-11T09:18:19Z</time>
      </trkpt>
      <trkpt lat="50.47509" lon="1.75424">
        <ele>-22</ele>
        <time>2019-08-11T09:18:22Z</time>
      </trkpt>
      <trkpt lat="50.47499" lon="1.75424">
        <ele>-22</ele>
        <time>2019-08-11T09:18:24Z</time>
      </trkpt>
      <trkpt lat="50.47489" lon="1.75425">
        <ele>-22</ele>
        <time>2019-08-11T09:18:26Z</time>
      </trkpt>
      <trkpt lat="50.47473" lon="1.75425">
        <ele>-21</ele>
        <time>2019-08-11T09:18:29Z</time>
      </trkpt>
      <trkpt lat="50.47456" lon="1.75425">
        <ele>-22</ele>
        <time>2019-08-11T09:18:32Z</time>
      </trkpt>
      <trkpt lat="50.47445" lon="1.75425">
        <ele>-22</ele>
        <time>2019-08-11T09:18:34Z</time>
      </trkpt>
      <trkpt lat="50.47428" lon="1.75425">
        <ele>-22</ele>
        <time>2019-08-11T09:18:37Z</time>
      </trkpt>
      <trkpt lat="50.47416" lon="1.75425">
        <ele>-23</ele>
        <time>2019-08-11T09:18:39Z</time>
      </trkpt>
      <trkpt lat="50.47398" lon="1.75426">
        <ele>-23</ele>
        <time>2019-08-11T09:18:42Z</time>
      </trkpt>
      <trkpt lat="50.47381" lon="1.75428">
        <ele>-22</ele>
        <time>2019-08-11T09:18:45Z</time>
      </trkpt>
      <trkpt lat="50.47363" lon="1.75429">
        <ele>-22</ele>
        <time>2019-08-11T09:18:48Z</time>
      </trkpt>
      <trkpt lat="50.47351" lon="1.75428">
        <ele>-22</ele>
        <time>2019-08-11T09:18:50Z</time>
      </trkpt>
      <trkpt lat="50.47333" lon="1.75429">
        <ele>-22</ele>
        <time>2019-08-11T09:18:53Z</time>
      </trkpt>
      <trkpt lat="50.47321" lon="1.7543">
        <ele>-22</ele>
        <time>2019-08-11T09:18:55Z</time>
      </trkpt>
      <trkpt lat="50.47304" lon="1.7543">
        <ele>-23</ele>
        <time>2019-08-11T09:18:58Z</time>
      </trkpt>
      <trkpt lat="50.47286" lon="1.75429">
        <ele>-23</ele>
        <time>2019-08-11T09:19:01Z</time>
      </trkpt>
      <trkpt lat="50.47271" lon="1.75429">
        <ele>-23</ele>
        <time>2019-08-11T09:19:04Z</time>
      </trkpt>
      <trkpt lat="50.47261" lon="1.7543">
        <ele>-23</ele>
        <time>2019-08-11T09:19:06Z</time>
      </trkpt>
      <trkpt lat="50.47251" lon="1.75429">
        <ele>-23</ele>
        <time>2019-08-11T09:19:08Z</time>
      </trkpt>
      <trkpt lat="50.47242" lon="1.75429">
        <ele>-23</ele>
        <time>2019-08-11T09:19:10Z</time>
      </trkpt>
      <trkpt lat="50.47229" lon="1.75429">
        <ele>-24</ele>
        <time>2019-08-11T09:19:13Z</time>
      </trkpt>
      <trkpt lat="50.47218" lon="1.75428">
        <ele>-24</ele>
        <time>2019-08-11T09:19:16Z</time>
      </trkpt>
      <trkpt lat="50.47211" lon="1.75428">
        <ele>-24</ele>
        <time>2019-08-11T09:19:18Z</time>
      </trkpt>
      <trkpt lat="50.47203" lon="1.75427">
        <ele>-24</ele>
        <time>2019-08-11T09:19:20Z</time>
      </trkpt>
      <trkpt lat="50.47187" lon="1.75426">
        <ele>-23</ele>
        <time>2019-08-11T09:19:23Z</time>
      </trkpt>
      <trkpt lat="50.47171" lon="1.75427">
        <ele>-22</ele>
        <time>2019-08-11T09:19:26Z</time>
      </trkpt>
      <trkpt lat="50.47154" lon="1.75429">
        <ele>-22</ele>
        <time>2019-08-11T09:19:29Z</time>
      </trkpt>
      <trkpt lat="50.47144" lon="1.75435">
        <ele>-22</ele>
        <time>2019-08-11T09:19:31Z</time>
      </trkpt>
      <trkpt lat="50.47134" lon="1.75444">
        <ele>-22</ele>
        <time>2019-08-11T09:19:33Z</time>
      </trkpt>
      <trkpt lat="50.47123" lon="1.7546">
        <ele>-22</ele>
        <time>2019-08-11T09:19:36Z</time>
      </trkpt>
      <trkpt lat="50.47114" lon="1.75468">
        <ele>-22</ele>
        <time>2019-08-11T09:19:38Z</time>
      </trkpt>
      <trkpt lat="50.47104" lon="1.75472">
        <ele>-22</ele>
        <time>2019-08-11T09:19:40Z</time>
      </trkpt>
      <trkpt lat="50.47089" lon="1.7547">
        <ele>-22</ele>
        <time>2019-08-11T09:19:43Z</time>
      </trkpt>
      <trkpt lat="50.47074" lon="1.75467">
        <ele>-22</ele>
        <time>2019-08-11T09:19:46Z</time>
      </trkpt>
      <trkpt lat="50.47065" lon="1.75467">
        <ele>-23</ele>
        <time>2019-08-11T09:19:48Z</time>
      </trkpt>
      <trkpt lat="50.47055" lon="1.75465">
        <ele>-23</ele>
        <time>2019-08-11T09:19:50Z</time>
      </trkpt>
      <trkpt lat="50.47042" lon="1.75461">
        <ele>-23</ele>
        <time>2019-08-11T09:19:53Z</time>
      </trkpt>
      <trkpt lat="50.47031" lon="1.75457">
        <ele>-23</ele>
        <time>2019-08-11T09:19:56Z</time>
      </trkpt>
      <trkpt lat="50.47025" lon="1.7545">
        <ele>-23</ele>
        <time>2019-08-11T09:19:58Z</time>
      </trkpt>
      <trkpt lat="50.47018" lon="1.75436">
        <ele>-22</ele>
        <time>2019-08-11T09:20:01Z</time>
      </trkpt>
      <trkpt lat="50.47015" lon="1.75425">
        <ele>-22</ele>
        <time>2019-08-11T09:20:03Z</time>
      </trkpt>
      <trkpt lat="50.47012" lon="1.7541">
        <ele>-21</ele>
        <time>2019-08-11T09:20:06Z</time>
      </trkpt>
      <trkpt lat="50.47008" lon="1.75403">
        <ele>-21</ele>
        <time>2019-08-11T09:20:08Z</time>
      </trkpt>
      <trkpt lat="50.47003" lon="1.75401">
        <ele>-21</ele>
        <time>2019-08-11T09:20:10Z</time>
      </trkpt>
      <trkpt lat="50.46998" lon="1.75401">
        <ele>-21</ele>
        <time>2019-08-11T09:20:12Z</time>
      </trkpt>
      <trkpt lat="50.4699" lon="1.75406">
        <ele>-20</ele>
        <time>2019-08-11T09:20:15Z</time>
      </trkpt>
      <trkpt lat="50.46983" lon="1.7541">
        <ele>-20</ele>
        <time>2019-08-11T09:20:18Z</time>
      </trkpt>
      <trkpt lat="50.46979" lon="1.75412">
        <ele>-20</ele>
        <time>2019-08-11T09:20:20Z</time>
      </trkpt>
      <trkpt lat="50.46973" lon="1.75416">
        <ele>-19</ele>
        <time>2019-08-11T09:20:23Z</time>
      </trkpt>
      <trkpt lat="50.4697" lon="1.75419">
        <ele>-18</ele>
        <time>2019-08-11T09:20:25Z</time>
      </trkpt>
      <trkpt lat="50.46967" lon="1.75421">
        <ele>-17</ele>
        <time>2019-08-11T09:20:27Z</time>
      </trkpt>
      <trkpt lat="50.46963" lon="1.75424">
        <ele>-17</ele>
        <time>2019-08-11T09:20:29Z</time>
      </trkpt>
      <trkpt lat="50.46957" lon="1.75428">
        <ele>-16</ele>
        <time>2019-08-11T09:20:32Z</time>
      </trkpt>
      <trkpt lat="50.46952" lon="1.75433">
        <ele>-16</ele>
        <time>2019-08-11T09:20:35Z</time>
      </trkpt>
      <trkpt lat="50.46947" lon="1.75438">
        <ele>-15</ele>
        <time>2019-08-11T09:20:38Z</time>
      </trkpt>
      <trkpt lat="50.46942" lon="1.75444">
        <ele>-14</ele>
        <time>2019-08-11T09:20:41Z</time>
      </trkpt>
      <trkpt lat="50.46938" lon="1.7545">
        <ele>-13</ele>
        <time>2019-08-11T09:20:44Z</time>
      </trkpt>
      <trkpt lat="50.46934" lon="1.75456">
        <ele>-13</ele>
        <time>2019-08-11T09:20:47Z</time>
      </trkpt>
      <trkpt lat="50.4693" lon="1.75462">
        <ele>-11</ele>
        <time>2019-08-11T09:20:50Z</time>
      </trkpt>
      <trkpt lat="50.46925" lon="1.75469">
        <ele>-11</ele>
        <time>2019-08-11T09:20:53Z</time>
      </trkpt>
      <trkpt lat="50.4692" lon="1.75475">
        <ele>-10</ele>
        <time>2019-08-11T09:20:56Z</time>
      </trkpt>
      <trkpt lat="50.46917" lon="1.75478">
        <ele>-10</ele>
        <time>2019-08-11T09:20:58Z</time>
      </trkpt>
      <trkpt lat="50.46912" lon="1.75483">
        <ele>-9</ele>
        <time>2019-08-11T09:21:01Z</time>
      </trkpt>
      <trkpt lat="50.46909" lon="1.75486">
        <ele>-9</ele>
        <time>2019-08-11T09:21:03Z</time>
      </trkpt>
      <trkpt lat="50.46904" lon="1.75491">
        <ele>-8</ele>
        <time>2019-08-11T09:21:06Z</time>
      </trkpt>
      <trkpt lat="50.469" lon="1.75495">
        <ele>-8</ele>
        <time>2019-08-11T09:21:08Z</time>
      </trkpt>
      <trkpt lat="50.46895" lon="1.75502">
        <ele>-8</ele>
        <time>2019-08-11T09:21:11Z</time>
      </trkpt>
      <trkpt lat="50.46893" lon="1.75508">
        <ele>-7</ele>
        <time>2019-08-11T09:21:13Z</time>
      </trkpt>
      <trkpt lat="50.46891" lon="1.75515">
        <ele>-7</ele>
        <time>2019-08-11T09:21:15Z</time>
      </trkpt>
      <trkpt lat="50.4689" lon="1.75527">
        <ele>-7</ele>
        <time>2019-08-11T09:21:18Z</time>
      </trkpt>
      <trkpt lat="50.46888" lon="1.75534">
        <ele>-7</ele>
        <time>2019-08-11T09:21:20Z</time>
      </trkpt>
      <trkpt lat="50.46887" lon="1.75541">
        <ele>-7</ele>
        <time>2019-08-11T09:21:22Z</time>
      </trkpt>
      <trkpt lat="50.46886" lon="1.75549">
        <ele>-7</ele>
        <time>2019-08-11T09:21:24Z</time>
      </trkpt>
      <trkpt lat="50.46884" lon="1.75559">
        <ele>-7</ele>
        <time>2019-08-11T09:21:27Z</time>
      </trkpt>
      <trkpt lat="50.46883" lon="1.75566">
        <ele>-6</ele>
        <time>2019-08-11T09:21:29Z</time>
      </trkpt>
      <trkpt lat="50.46881" lon="1.75573">
        <ele>-6</ele>
        <time>2019-08-11T09:21:31Z</time>
      </trkpt>
      <trkpt lat="50.4688" lon="1.75582">
        <ele>-6</ele>
        <time>2019-08-11T09:21:34Z</time>
      </trkpt>
      <trkpt lat="50.46878" lon="1.75588">
        <ele>-6</ele>
        <time>2019-08-11T09:21:36Z</time>
      </trkpt>
      <trkpt lat="50.46876" lon="1.75597">
        <ele>-5</ele>
        <time>2019-08-11T09:21:39Z</time>
      </trkpt>
      <trkpt lat="50.46876" lon="1.75603">
        <ele>-5</ele>
        <time>2019-08-11T09:21:41Z</time>
      </trkpt>
      <trkpt lat="50.46874" lon="1.75612">
        <ele>-4</ele>
        <time>2019-08-11T09:21:44Z</time>
      </trkpt>
      <trkpt lat="50.46872" lon="1.75618">
        <ele>-4</ele>
        <time>2019-08-11T09:21:46Z</time>
      </trkpt>
      <trkpt lat="50.46867" lon="1.75624">
        <ele>-3</ele>
        <time>2019-08-11T09:21:49Z</time>
      </trkpt>
      <trkpt lat="50.46862" lon="1.75629">
        <ele>-2</ele>
        <time>2019-08-11T09:21:52Z</time>
      </trkpt>
      <trkpt lat="50.46859" lon="1.75633">
        <ele>-2</ele>
        <time>2019-08-11T09:21:54Z</time>
      </trkpt>
      <trkpt lat="50.46853" lon="1.75639">
        <ele>-2</ele>
        <time>2019-08-11T09:21:57Z</time>
      </trkpt>
      <trkpt lat="50.46849" lon="1.75643">
        <ele>-1</ele>
        <time>2019-08-11T09:21:59Z</time>
      </trkpt>
      <trkpt lat="50.46845" lon="1.75647">
        <ele>-1</ele>
        <time>2019-08-11T09:22:01Z</time>
      </trkpt>
      <trkpt lat="50.4684" lon="1.75652">
        <ele>-1</ele>
        <time>2019-08-11T09:22:04Z</time>
      </trkpt>
      <trkpt lat="50.46834" lon="1.75657">
        <ele>27.3</ele>
        <time>2019-08-11T09:22:07Z</time>
      </trkpt>
      <trkpt lat="50.46828" lon="1.75663">
        <ele>27.7</ele>
        <time>2019-08-11T09:22:10Z</time>
      </trkpt>
      <trkpt lat="50.46825" lon="1.75666">
        <ele>28</ele>
        <time>2019-08-11T09:22:12Z</time>
      </trkpt>
      <trkpt lat="50.4682" lon="1.75672">
        <ele>1</ele>
        <time>2019-08-11T09:22:15Z</time>
      </trkpt>
      <trkpt lat="50.46816" lon="1.75675">
        <ele>1</ele>
        <time>2019-08-11T09:22:17Z</time>
      </trkpt>
      <trkpt lat="50.46811" lon="1.7568">
        <ele>1</ele>
        <time>2019-08-11T09:22:20Z</time>
      </trkpt>
      <trkpt lat="50.46807" lon="1.75684">
        <ele>2</ele>
        <time>2019-08-11T09:22:22Z</time>
      </trkpt>
      <trkpt lat="50.46801" lon="1.75689">
        <ele>2</ele>
        <time>2019-08-11T09:22:25Z</time>
      </trkpt>
      <trkpt lat="50.46796" lon="1.75695">
        <ele>2</ele>
        <time>2019-08-11T09:22:28Z</time>
      </trkpt>
      <trkpt lat="50.46793" lon="1.75699">
        <ele>3</ele>
        <time>2019-08-11T09:22:30Z</time>
      </trkpt>
      <trkpt lat="50.46788" lon="1.75704">
        <ele>3</ele>
        <time>2019-08-11T09:22:33Z</time>
      </trkpt>
      <trkpt lat="50.46784" lon="1.75707">
        <ele>4</ele>
        <time>2019-08-11T09:22:35Z</time>
      </trkpt>
      <trkpt lat="50.4678" lon="1.75711">
        <ele>5</ele>
        <time>2019-08-11T09:22:37Z</time>
      </trkpt>
      <trkpt lat="50.46775" lon="1.75717">
        <ele>5</ele>
        <time>2019-08-11T09:22:40Z</time>
      </trkpt>
      <trkpt lat="50.46772" lon="1.7572">
        <ele>6</ele>
        <time>2019-08-11T09:22:42Z</time>
      </trkpt>
      <trkpt lat="50.46767" lon="1.75725">
        <ele>6</ele>
        <time>2019-08-11T09:22:45Z</time>
      </trkpt>
      <trkpt lat="50.46763" lon="1.75729">
        <ele>7</ele>
        <time>2019-08-11T09:22:47Z</time>
      </trkpt>
      <trkpt lat="50.46758" lon="1.75734">
        <ele>7</ele>
        <time>2019-08-11T09:22:50Z</time>
      </trkpt>
      <trkpt lat="50.46753" lon="1.75739">
        <ele>8</ele>
        <time>2019-08-11T09:22:53Z</time>
      </trkpt>
      <trkpt lat="50.4675" lon="1.75743">
        <ele>8</ele>
        <time>2019-08-11T09:22:55Z</time>
      </trkpt>
      <trkpt lat="50.46744" lon="1.75749">
        <ele>9</ele>
        <time>2019-08-11T09:22:58Z</time>
      </trkpt>
      <trkpt lat="50.46738" lon="1.75751">
        <ele>9</ele>
        <time>2019-08-11T09:23:01Z</time>
      </trkpt>
      <trkpt lat="50.46731" lon="1.75749">
        <ele>9</ele>
        <time>2019-08-11T09:23:04Z</time>
      </trkpt>
      <trkpt lat="50.46726" lon="1.75745">
        <ele>8</ele>
        <time>2019-08-11T09:23:06Z</time>
      </trkpt>
      <trkpt lat="50.46718" lon="1.75737">
        <ele>8</ele>
        <time>2019-08-11T09:23:09Z</time>
      </trkpt>
      <trkpt lat="50.46709" lon="1.75728">
        <ele>7</ele>
        <time>2019-08-11T09:23:12Z</time>
      </trkpt>
      <trkpt lat="50.46703" lon="1.75721">
        <ele>7</ele>
        <time>2019-08-11T09:23:14Z</time>
      </trkpt>
      <trkpt lat="50.46694" lon="1.75712">
        <ele>6</ele>
        <time>2019-08-11T09:23:17Z</time>
      </trkpt>
      <trkpt lat="50.46687" lon="1.75714">
        <ele>5</ele>
        <time>2019-08-11T09:23:20Z</time>
      </trkpt>
      <trkpt lat="50.46684" lon="1.75721">
        <ele>5</ele>
        <time>2019-08-11T09:23:22Z</time>
      </trkpt>
      <trkpt lat="50.46684" lon="1.75739">
        <ele>5</ele>
        <time>2019-08-11T09:23:25Z</time>
      </trkpt>
      <trkpt lat="50.4668" lon="1.75749">
        <ele>4</ele>
        <time>2019-08-11T09:23:27Z</time>
      </trkpt>
      <trkpt lat="50.46672" lon="1.75768">
        <ele>5</ele>
        <time>2019-08-11T09:23:30Z</time>
      </trkpt>
      <trkpt lat="50.46667" lon="1.75782">
        <ele>4</ele>
        <time>2019-08-11T09:23:32Z</time>
      </trkpt>
      <trkpt lat="50.46661" lon="1.75794">
        <ele>3</ele>
        <time>2019-08-11T09:23:34Z</time>
      </trkpt>
      <trkpt lat="50.46657" lon="1.75809">
        <ele>3</ele>
        <time>2019-08-11T09:23:37Z</time>
      </trkpt>
      <trkpt lat="50.46655" lon="1.75817">
        <ele>2</ele>
        <time>2019-08-11T09:23:39Z</time>
      </trkpt>
      <trkpt lat="50.46654" lon="1.75828">
        <ele>2</ele>
        <time>2019-08-11T09:23:42Z</time>
      </trkpt>
      <trkpt lat="50.46653" lon="1.75836">
        <ele>2</ele>
        <time>2019-08-11T09:23:44Z</time>
      </trkpt>
      <trkpt lat="50.4665" lon="1.75845">
        <ele>2</ele>
        <time>2019-08-11T09:23:47Z</time>
      </trkpt>
      <trkpt lat="50.46647" lon="1.75848">
        <ele>3</ele>
        <time>2019-08-11T09:23:49Z</time>
      </trkpt>
      <trkpt lat="50.4664" lon="1.75854">
        <ele>4</ele>
        <time>2019-08-11T09:23:52Z</time>
      </trkpt>
      <trkpt lat="50.46635" lon="1.7586">
        <ele>5</ele>
        <time>2019-08-11T09:23:55Z</time>
      </trkpt>
      <trkpt lat="50.46628" lon="1.75865">
        <ele>5</ele>
        <time>2019-08-11T09:23:58Z</time>
      </trkpt>
      <trkpt lat="50.46624" lon="1.75868">
        <ele>6</ele>
        <time>2019-08-11T09:24:00Z</time>
      </trkpt>
      <trkpt lat="50.46618" lon="1.75873">
        <ele>7</ele>
        <time>2019-08-11T09:24:03Z</time>
      </trkpt>
      <trkpt lat="50.46614" lon="1.75875">
        <ele>7</ele>
        <time>2019-08-11T09:24:05Z</time>
      </trkpt>
      <trkpt lat="50.46609" lon="1.7588">
        <ele>8</ele>
        <time>2019-08-11T09:24:08Z</time>
      </trkpt>
      <trkpt lat="50.46606" lon="1.75883">
        <ele>8</ele>
        <time>2019-08-11T09:24:10Z</time>
      </trkpt>
      <trkpt lat="50.46601" lon="1.75886">
        <ele>9</ele>
        <time>2019-08-11T09:24:13Z</time>
      </trkpt>
      <trkpt lat="50.46595" lon="1.7589">
        <ele>10</ele>
        <time>2019-08-11T09:24:16Z</time>
      </trkpt>
      <trkpt lat="50.46592" lon="1.75893">
        <ele>11</ele>
        <time>2019-08-11T09:24:18Z</time>
      </trkpt>
      <trkpt lat="50.46587" lon="1.75897">
        <ele>11</ele>
        <time>2019-08-11T09:24:21Z</time>
      </trkpt>
      <trkpt lat="50.46584" lon="1.759">
        <ele>11</ele>
        <time>2019-08-11T09:24:23Z</time>
      </trkpt>
      <trkpt lat="50.46581" lon="1.75902">
        <ele>12</ele>
        <time>2019-08-11T09:24:25Z</time>
      </trkpt>
      <trkpt lat="50.46576" lon="1.75906">
        <ele>12</ele>
        <time>2019-08-11T09:24:28Z</time>
      </trkpt>
      <trkpt lat="50.46572" lon="1.75909">
        <ele>13</ele>
        <time>2019-08-11T09:24:30Z</time>
      </trkpt>
      <trkpt lat="50.46569" lon="1.75912">
        <ele>13</ele>
        <time>2019-08-11T09:24:32Z</time>
      </trkpt>
      <trkpt lat="50.46565" lon="1.75917">
        <ele>14</ele>
        <time>2019-08-11T09:24:35Z</time>
      </trkpt>
      <trkpt lat="50.46561" lon="1.7592">
        <ele>14</ele>
        <time>2019-08-11T09:24:37Z</time>
      </trkpt>
      <trkpt lat="50.46558" lon="1.75923">
        <ele>14</ele>
        <time>2019-08-11T09:24:39Z</time>
      </trkpt>
      <trkpt lat="50.46553" lon="1.75928">
        <ele>14</ele>
        <time>2019-08-11T09:24:42Z</time>
      </trkpt>
      <trkpt lat="50.4655" lon="1.75932">
        <ele>15</ele>
        <time>2019-08-11T09:24:44Z</time>
      </trkpt>
      <trkpt lat="50.46549" lon="1.75938">
        <ele>15</ele>
        <time>2019-08-11T09:24:47Z</time>
      </trkpt>
      <trkpt lat="50.46549" lon="1.75938">
        <ele>15</ele>
        <time>2019-08-11T09:24:50Z</time>
      </trkpt>
      <trkpt lat="50.46551" lon="1.75939">
        <ele>16</ele>
        <time>2019-08-11T09:24:53Z</time>
      </trkpt>
      <trkpt lat="50.46552" lon="1.75937">
        <ele>17</ele>
        <time>2019-08-11T09:24:56Z</time>
      </trkpt>
      <trkpt lat="50.46552" lon="1.75937">
        <ele>18</ele>
        <time>2019-08-11T09:24:58Z</time>
      </trkpt>
      <trkpt lat="50.46554" lon="1.75936">
        <ele>18</ele>
        <time>2019-08-11T09:25:01Z</time>
      </trkpt>
      <trkpt lat="50.46554" lon="1.75936">
        <ele>18</ele>
        <time>2019-08-11T09:25:03Z</time>
      </trkpt>
      <trkpt lat="50.46555" lon="1.75937">
        <ele>19</ele>
        <time>2019-08-11T09:25:05Z</time>
      </trkpt>
      <trkpt lat="50.46555" lon="1.75938">
        <ele>19</ele>
        <time>2019-08-11T09:25:08Z</time>
      </trkpt>
      <trkpt lat="50.46556" lon="1.7594">
        <ele>19</ele>
        <time>2019-08-11T09:25:10Z</time>
      </trkpt>
      <trkpt lat="50.46558" lon="1.75944">
        <ele>20</ele>
        <time>2019-08-11T09:25:12Z</time>
      </trkpt>
      <trkpt lat="50.46561" lon="1.7595">
        <ele>20</ele>
        <time>2019-08-11T09:25:14Z</time>
      </trkpt>
      <trkpt lat="50.46565" lon="1.75955">
        <ele>20</ele>
        <time>2019-08-11T09:25:16Z</time>
      </trkpt>
      <trkpt lat="50.46571" lon="1.75963">
        <ele>20</ele>
        <time>2019-08-11T09:25:19Z</time>
      </trkpt>
      <trkpt lat="50.46578" lon="1.75965">
        <ele>20</ele>
        <time>2019-08-11T09:25:21Z</time>
      </trkpt>
      <trkpt lat="50.46585" lon="1.75968">
        <ele>20</ele>
        <time>2019-08-11T09:25:23Z</time>
      </trkpt>
      <trkpt lat="50.46593" lon="1.75975">
        <ele>19</ele>
        <time>2019-08-11T09:25:26Z</time>
      </trkpt>
      <trkpt lat="50.46598" lon="1.7598">
        <ele>19</ele>
        <time>2019-08-11T09:25:28Z</time>
      </trkpt>
      <trkpt lat="50.46601" lon="1.75987">
        <ele>19</ele>
        <time>2019-08-11T09:25:30Z</time>
      </trkpt>
      <trkpt lat="50.46603" lon="1.75995">
        <ele>19</ele>
        <time>2019-08-11T09:25:32Z</time>
      </trkpt>
      <trkpt lat="50.46606" lon="1.76007">
        <ele>19</ele>
        <time>2019-08-11T09:25:35Z</time>
      </trkpt>
      <trkpt lat="50.46606" lon="1.76016">
        <ele>19</ele>
        <time>2019-08-11T09:25:37Z</time>
      </trkpt>
      <trkpt lat="50.46601" lon="1.76029">
        <ele>19</ele>
        <time>2019-08-11T09:25:40Z</time>
      </trkpt>
      <trkpt lat="50.46593" lon="1.76035">
        <ele>19</ele>
        <time>2019-08-11T09:25:43Z</time>
      </trkpt>
      <trkpt lat="50.46584" lon="1.76039">
        <ele>19</ele>
        <time>2019-08-11T09:25:46Z</time>
      </trkpt>
      <trkpt lat="50.46578" lon="1.76042">
        <ele>19</ele>
        <time>2019-08-11T09:25:48Z</time>
      </trkpt>
      <trkpt lat="50.46568" lon="1.76048">
        <ele>19</ele>
        <time>2019-08-11T09:25:51Z</time>
      </trkpt>
      <trkpt lat="50.46561" lon="1.76051">
        <ele>19</ele>
        <time>2019-08-11T09:25:53Z</time>
      </trkpt>
      <trkpt lat="50.46554" lon="1.76055">
        <ele>18</ele>
        <time>2019-08-11T09:25:55Z</time>
      </trkpt>
      <trkpt lat="50.46543" lon="1.76058">
        <ele>18</ele>
        <time>2019-08-11T09:25:58Z</time>
      </trkpt>
      <trkpt lat="50.46535" lon="1.76061">
        <ele>18</ele>
        <time>2019-08-11T09:26:00Z</time>
      </trkpt>
      <trkpt lat="50.46528" lon="1.76062">
        <ele>18</ele>
        <time>2019-08-11T09:26:02Z</time>
      </trkpt>
      <trkpt lat="50.46521" lon="1.76062">
        <ele>18</ele>
        <time>2019-08-11T09:26:04Z</time>
      </trkpt>
      <trkpt lat="50.46515" lon="1.76063">
        <ele>18</ele>
        <time>2019-08-11T09:26:06Z</time>
      </trkpt>
      <trkpt lat="50.46505" lon="1.76065">
        <ele>19</ele>
        <time>2019-08-11T09:26:09Z</time>
      </trkpt>
      <trkpt lat="50.46496" lon="1.76067">
        <ele>19</ele>
        <time>2019-08-11T09:26:12Z</time>
      </trkpt>
      <trkpt lat="50.46487" lon="1.76068">
        <ele>20</ele>
        <time>2019-08-11T09:26:15Z</time>
      </trkpt>
      <trkpt lat="50.46478" lon="1.7607">
        <ele>19</ele>
        <time>2019-08-11T09:26:18Z</time>
      </trkpt>
      <trkpt lat="50.46473" lon="1.76072">
        <ele>19</ele>
        <time>2019-08-11T09:26:20Z</time>
      </trkpt>
      <trkpt lat="50.46463" lon="1.76074">
        <ele>19</ele>
        <time>2019-08-11T09:26:23Z</time>
      </trkpt>
      <trkpt lat="50.46454" lon="1.76077">
        <ele>19</ele>
        <time>2019-08-11T09:26:26Z</time>
      </trkpt>
      <trkpt lat="50.46444" lon="1.76081">
        <ele>19</ele>
        <time>2019-08-11T09:26:29Z</time>
      </trkpt>
      <trkpt lat="50.46438" lon="1.76084">
        <ele>19</ele>
        <time>2019-08-11T09:26:31Z</time>
      </trkpt>
      <trkpt lat="50.46434" lon="1.76087">
        <ele>19</ele>
        <time>2019-08-11T09:26:33Z</time>
      </trkpt>
      <trkpt lat="50.46432" lon="1.7609">
        <ele>19</ele>
        <time>2019-08-11T09:26:35Z</time>
      </trkpt>
      <trkpt lat="50.46431" lon="1.76093">
        <ele>19</ele>
        <time>2019-08-11T09:26:37Z</time>
      </trkpt>
      <trkpt lat="50.4643" lon="1.76098">
        <ele>19</ele>
        <time>2019-08-11T09:26:39Z</time>
      </trkpt>
      <trkpt lat="50.46428" lon="1.76103">
        <ele>18</ele>
        <time>2019-08-11T09:26:41Z</time>
      </trkpt>
      <trkpt lat="50.46423" lon="1.76111">
        <ele>18</ele>
        <time>2019-08-11T09:26:44Z</time>
      </trkpt>
      <trkpt lat="50.46416" lon="1.76118">
        <ele>19</ele>
        <time>2019-08-11T09:26:47Z</time>
      </trkpt>
      <trkpt lat="50.46412" lon="1.76125">
        <ele>19</ele>
        <time>2019-08-11T09:26:49Z</time>
      </trkpt>
      <trkpt lat="50.46405" lon="1.76136">
        <ele>19</ele>
        <time>2019-08-11T09:26:52Z</time>
      </trkpt>
      <trkpt lat="50.46398" lon="1.76145">
        <ele>19</ele>
        <time>2019-08-11T09:26:55Z</time>
      </trkpt>
      <trkpt lat="50.46392" lon="1.76155">
        <ele>19</ele>
        <time>2019-08-11T09:26:58Z</time>
      </trkpt>
      <trkpt lat="50.46396" lon="1.76165">
        <ele>19</ele>
        <time>2019-08-11T09:27:00Z</time>
      </trkpt>
      <trkpt lat="50.46403" lon="1.76175">
        <ele>19</ele>
        <time>2019-08-11T09:27:03Z</time>
      </trkpt>
      <trkpt lat="50.46406" lon="1.76181">
        <ele>19</ele>
        <time>2019-08-11T09:27:05Z</time>
      </trkpt>
      <trkpt lat="50.46408" lon="1.76191">
        <ele>20</ele>
        <time>2019-08-11T09:27:08Z</time>
      </trkpt>
      <trkpt lat="50.46407" lon="1.76199">
        <ele>20</ele>
        <time>2019-08-11T09:27:10Z</time>
      </trkpt>
      <trkpt lat="50.46407" lon="1.76208">
        <ele>21</ele>
        <time>2019-08-11T09:27:12Z</time>
      </trkpt>
      <trkpt lat="50.46405" lon="1.76222">
        <ele>21</ele>
        <time>2019-08-11T09:27:15Z</time>
      </trkpt>
      <trkpt lat="50.46402" lon="1.76235">
        <ele>20</ele>
        <time>2019-08-11T09:27:18Z</time>
      </trkpt>
      <trkpt lat="50.464" lon="1.76246">
        <ele>20</ele>
        <time>2019-08-11T09:27:20Z</time>
      </trkpt>
      <trkpt lat="50.46395" lon="1.76262">
        <ele>20</ele>
        <time>2019-08-11T09:27:23Z</time>
      </trkpt>
      <trkpt lat="50.46397" lon="1.76279">
        <ele>20</ele>
        <time>2019-08-11T09:27:26Z</time>
      </trkpt>
      <trkpt lat="50.46406" lon="1.7629">
        <ele>19</ele>
        <time>2019-08-11T09:27:29Z</time>
      </trkpt>
      <trkpt lat="50.46411" lon="1.763">
        <ele>19</ele>
        <time>2019-08-11T09:27:31Z</time>
      </trkpt>
      <trkpt lat="50.46415" lon="1.7631">
        <ele>20</ele>
        <time>2019-08-11T09:27:33Z</time>
      </trkpt>
      <trkpt lat="50.4642" lon="1.76327">
        <ele>20</ele>
        <time>2019-08-11T09:27:36Z</time>
      </trkpt>
      <trkpt lat="50.46424" lon="1.76337">
        <ele>20</ele>
        <time>2019-08-11T09:27:38Z</time>
      </trkpt>
      <trkpt lat="50.46429" lon="1.76347">
        <ele>20</ele>
        <time>2019-08-11T09:27:40Z</time>
      </trkpt>
      <trkpt lat="50.46433" lon="1.76355">
        <ele>20</ele>
        <time>2019-08-11T09:27:42Z</time>
      </trkpt>
      <trkpt lat="50.46436" lon="1.76364">
        <ele>20</ele>
        <time>2019-08-11T09:27:44Z</time>
      </trkpt>
      <trkpt lat="50.4644" lon="1.76377">
        <ele>20</ele>
        <time>2019-08-11T09:27:47Z</time>
      </trkpt>
      <trkpt lat="50.46442" lon="1.76386">
        <ele>19</ele>
        <time>2019-08-11T09:27:49Z</time>
      </trkpt>
      <trkpt lat="50.46444" lon="1.76399">
        <ele>20</ele>
        <time>2019-08-11T09:27:52Z</time>
      </trkpt>
      <trkpt lat="50.46445" lon="1.76409">
        <ele>19</ele>
        <time>2019-08-11T09:27:54Z</time>
      </trkpt>
      <trkpt lat="50.46442" lon="1.76423">
        <ele>20</ele>
        <time>2019-08-11T09:27:57Z</time>
      </trkpt>
      <trkpt lat="50.46438" lon="1.76434">
        <ele>19</ele>
        <time>2019-08-11T09:27:59Z</time>
      </trkpt>
      <trkpt lat="50.46432" lon="1.76451">
        <ele>19</ele>
        <time>2019-08-11T09:28:02Z</time>
      </trkpt>
      <trkpt lat="50.46429" lon="1.76462">
        <ele>19</ele>
        <time>2019-08-11T09:28:04Z</time>
      </trkpt>
      <trkpt lat="50.46425" lon="1.76472">
        <ele>19</ele>
        <time>2019-08-11T09:28:06Z</time>
      </trkpt>
      <trkpt lat="50.4642" lon="1.76487">
        <ele>19</ele>
        <time>2019-08-11T09:28:09Z</time>
      </trkpt>
      <trkpt lat="50.46416" lon="1.76496">
        <ele>19</ele>
        <time>2019-08-11T09:28:11Z</time>
      </trkpt>
      <trkpt lat="50.46411" lon="1.76505">
        <ele>19</ele>
        <time>2019-08-11T09:28:13Z</time>
      </trkpt>
      <trkpt lat="50.46409" lon="1.76516">
        <ele>19</ele>
        <time>2019-08-11T09:28:15Z</time>
      </trkpt>
      <trkpt lat="50.46413" lon="1.76525">
        <ele>19</ele>
        <time>2019-08-11T09:28:17Z</time>
      </trkpt>
      <trkpt lat="50.46417" lon="1.76532">
        <ele>19</ele>
        <time>2019-08-11T09:28:19Z</time>
      </trkpt>
      <trkpt lat="50.46422" lon="1.76541">
        <ele>18</ele>
        <time>2019-08-11T09:28:21Z</time>
      </trkpt>
      <trkpt lat="50.46428" lon="1.76558">
        <ele>18</ele>
        <time>2019-08-11T09:28:24Z</time>
      </trkpt>
      <trkpt lat="50.46432" lon="1.76568">
        <ele>18</ele>
        <time>2019-08-11T09:28:26Z</time>
      </trkpt>
      <trkpt lat="50.46434" lon="1.7658">
        <ele>18</ele>
        <time>2019-08-11T09:28:28Z</time>
      </trkpt>
      <trkpt lat="50.46431" lon="1.76598">
        <ele>18</ele>
        <time>2019-08-11T09:28:31Z</time>
      </trkpt>
      <trkpt lat="50.46431" lon="1.7661">
        <ele>19</ele>
        <time>2019-08-11T09:28:33Z</time>
      </trkpt>
      <trkpt lat="50.46431" lon="1.76621">
        <ele>18</ele>
        <time>2019-08-11T09:28:35Z</time>
      </trkpt>
      <trkpt lat="50.46434" lon="1.76635">
        <ele>18</ele>
        <time>2019-08-11T09:28:38Z</time>
      </trkpt>
      <trkpt lat="50.46437" lon="1.76651">
        <ele>18</ele>
        <time>2019-08-11T09:28:41Z</time>
      </trkpt>
      <trkpt lat="50.46434" lon="1.76664">
        <ele>17</ele>
        <time>2019-08-11T09:28:43Z</time>
      </trkpt>
      <trkpt lat="50.46428" lon="1.76686">
        <ele>17</ele>
        <time>2019-08-11T09:28:46Z</time>
      </trkpt>
      <trkpt lat="50.46426" lon="1.767">
        <ele>16</ele>
        <time>2019-08-11T09:28:48Z</time>
      </trkpt>
      <trkpt lat="50.46431" lon="1.76713">
        <ele>15</ele>
        <time>2019-08-11T09:28:50Z</time>
      </trkpt>
      <trkpt lat="50.46444" lon="1.76719">
        <ele>14</ele>
        <time>2019-08-11T09:28:53Z</time>
      </trkpt>
      <trkpt lat="50.46456" lon="1.76724">
        <ele>14</ele>
        <time>2019-08-11T09:28:56Z</time>
      </trkpt>
      <trkpt lat="50.46463" lon="1.76727">
        <ele>14</ele>
        <time>2019-08-11T09:28:58Z</time>
      </trkpt>
      <trkpt lat="50.46475" lon="1.76729">
        <ele>14</ele>
        <time>2019-08-11T09:29:01Z</time>
      </trkpt>
      <trkpt lat="50.46486" lon="1.7673">
        <ele>13</ele>
        <time>2019-08-11T09:29:04Z</time>
      </trkpt>
      <trkpt lat="50.46498" lon="1.76728">
        <ele>13</ele>
        <time>2019-08-11T09:29:07Z</time>
      </trkpt>
      <trkpt lat="50.46505" lon="1.76728">
        <ele>13</ele>
        <time>2019-08-11T09:29:09Z</time>
      </trkpt>
      <trkpt lat="50.4651" lon="1.76733">
        <ele>12</ele>
        <time>2019-08-11T09:29:11Z</time>
      </trkpt>
      <trkpt lat="50.46512" lon="1.76746">
        <ele>12</ele>
        <time>2019-08-11T09:29:14Z</time>
      </trkpt>
      <trkpt lat="50.46516" lon="1.76755">
        <ele>12</ele>
        <time>2019-08-11T09:29:16Z</time>
      </trkpt>
      <trkpt lat="50.46524" lon="1.76753">
        <ele>12</ele>
        <time>2019-08-11T09:29:19Z</time>
      </trkpt>
      <trkpt lat="50.46528" lon="1.76747">
        <ele>12</ele>
        <time>2019-08-11T09:29:21Z</time>
      </trkpt>
      <trkpt lat="50.46532" lon="1.76736">
        <ele>12</ele>
        <time>2019-08-11T09:29:24Z</time>
      </trkpt>
      <trkpt lat="50.46537" lon="1.76729">
        <ele>12</ele>
        <time>2019-08-11T09:29:26Z</time>
      </trkpt>
      <trkpt lat="50.46543" lon="1.76722">
        <ele>12</ele>
        <time>2019-08-11T09:29:28Z</time>
      </trkpt>
      <trkpt lat="50.46548" lon="1.76715">
        <ele>11</ele>
        <time>2019-08-11T09:29:30Z</time>
      </trkpt>
      <trkpt lat="50.46555" lon="1.76705">
        <ele>11</ele>
        <time>2019-08-11T09:29:33Z</time>
      </trkpt>
      <trkpt lat="50.46565" lon="1.76696">
        <ele>11</ele>
        <time>2019-08-11T09:29:36Z</time>
      </trkpt>
      <trkpt lat="50.46574" lon="1.76685">
        <ele>11</ele>
        <time>2019-08-11T09:29:39Z</time>
      </trkpt>
      <trkpt lat="50.4658" lon="1.76675">
        <ele>11</ele>
        <time>2019-08-11T09:29:42Z</time>
      </trkpt>
      <trkpt lat="50.46588" lon="1.76666">
        <ele>12</ele>
        <time>2019-08-11T09:29:45Z</time>
      </trkpt>
      <trkpt lat="50.46597" lon="1.76655">
        <ele>11</ele>
        <time>2019-08-11T09:29:48Z</time>
      </trkpt>
      <trkpt lat="50.46606" lon="1.76644">
        <ele>11</ele>
        <time>2019-08-11T09:29:51Z</time>
      </trkpt>
      <trkpt lat="50.46614" lon="1.76631">
        <ele>11</ele>
        <time>2019-08-11T09:29:54Z</time>
      </trkpt>
      <trkpt lat="50.46617" lon="1.7662">
        <ele>11</ele>
        <time>2019-08-11T09:29:56Z</time>
      </trkpt>
      <trkpt lat="50.46623" lon="1.76605">
        <ele>12</ele>
        <time>2019-08-11T09:29:59Z</time>
      </trkpt>
      <trkpt lat="50.46626" lon="1.76594">
        <ele>12</ele>
        <time>2019-08-11T09:30:01Z</time>
      </trkpt>
      <trkpt lat="50.46628" lon="1.76576">
        <ele>11</ele>
        <time>2019-08-11T09:30:03Z</time>
      </trkpt>
      <trkpt lat="50.46629" lon="1.76561">
        <ele>11</ele>
        <time>2019-08-11T09:30:06Z</time>
      </trkpt>
      <trkpt lat="50.4663" lon="1.76541">
        <ele>10</ele>
        <time>2019-08-11T09:30:08Z</time>
      </trkpt>
      <trkpt lat="50.4663" lon="1.76519">
        <ele>9</ele>
        <time>2019-08-11T09:30:10Z</time>
      </trkpt>
      <trkpt lat="50.4663" lon="1.76494">
        <ele>8</ele>
        <time>2019-08-11T09:30:13Z</time>
      </trkpt>
      <trkpt lat="50.46631" lon="1.76474">
        <ele>5</ele>
        <time>2019-08-11T09:30:16Z</time>
      </trkpt>
      <trkpt lat="50.46634" lon="1.76466">
        <ele>4</ele>
        <time>2019-08-11T09:30:18Z</time>
      </trkpt>
      <trkpt lat="50.46638" lon="1.76465">
        <ele>3</ele>
        <time>2019-08-11T09:30:20Z</time>
      </trkpt>
      <trkpt lat="50.46641" lon="1.7647">
        <ele>2</ele>
        <time>2019-08-11T09:30:22Z</time>
      </trkpt>
      <trkpt lat="50.46642" lon="1.76475">
        <ele>2</ele>
        <time>2019-08-11T09:30:25Z</time>
      </trkpt>
      <trkpt lat="50.46651" lon="1.76494">
        <ele>2</ele>
        <time>2019-08-11T09:30:32Z</time>
      </trkpt>
      <trkpt lat="50.46654" lon="1.76505">
        <ele>2</ele>
        <time>2019-08-11T09:30:34Z</time>
      </trkpt>
      <trkpt lat="50.46657" lon="1.76524">
        <ele>1</ele>
        <time>2019-08-11T09:30:37Z</time>
      </trkpt>
      <trkpt lat="50.46663" lon="1.76531">
        <ele>1</ele>
        <time>2019-08-11T09:30:39Z</time>
      </trkpt>
      <trkpt lat="50.46668" lon="1.76528">
        <ele>24.8</ele>
        <time>2019-08-11T09:30:41Z</time>
      </trkpt>
      <trkpt lat="50.46668" lon="1.76515">
        <ele>25.2</ele>
        <time>2019-08-11T09:30:43Z</time>
      </trkpt>
      <trkpt lat="50.46668" lon="1.76498">
        <ele>25.8</ele>
        <time>2019-08-11T09:30:45Z</time>
      </trkpt>
      <trkpt lat="50.46672" lon="1.76482">
        <ele>-1</ele>
        <time>2019-08-11T09:30:48Z</time>
      </trkpt>
      <trkpt lat="50.4668" lon="1.76486">
        <ele>-2</ele>
        <time>2019-08-11T09:30:50Z</time>
      </trkpt>
      <trkpt lat="50.46696" lon="1.76502">
        <ele>-3</ele>
        <time>2019-08-11T09:30:53Z</time>
      </trkpt>
      <trkpt lat="50.46709" lon="1.76525">
        <ele>-5</ele>
        <time>2019-08-11T09:30:55Z</time>
      </trkpt>
      <trkpt lat="50.46715" lon="1.76547">
        <ele>-5</ele>
        <time>2019-08-11T09:30:58Z</time>
      </trkpt>
      <trkpt lat="50.4672" lon="1.76589">
        <ele>-6</ele>
        <time>2019-08-11T09:31:00Z</time>
      </trkpt>
      <trkpt lat="50.46722" lon="1.7662">
        <ele>-7</ele>
        <time>2019-08-11T09:31:03Z</time>
      </trkpt>
      <trkpt lat="50.46727" lon="1.76661">
        <ele>-11</ele>
        <time>2019-08-11T09:31:05Z</time>
      </trkpt>
      <trkpt lat="50.46732" lon="1.7668">
        <ele>-13</ele>
        <time>2019-08-11T09:31:08Z</time>
      </trkpt>
      <trkpt lat="50.46735" lon="1.76713">
        <ele>-16</ele>
        <time>2019-08-11T09:31:10Z</time>
      </trkpt>
      <trkpt lat="50.46737" lon="1.76733">
        <ele>-18</ele>
        <time>2019-08-11T09:31:12Z</time>
      </trkpt>
      <trkpt lat="50.46742" lon="1.76747">
        <ele>-18</ele>
        <time>2019-08-11T09:31:15Z</time>
      </trkpt>
      <trkpt lat="50.46756" lon="1.76761">
        <ele>-19</ele>
        <time>2019-08-11T09:31:17Z</time>
      </trkpt>
      <trkpt lat="50.46765" lon="1.76769">
        <ele>-19</ele>
        <time>2019-08-11T09:31:20Z</time>
      </trkpt>
      <trkpt lat="50.46778" lon="1.76784">
        <ele>-20</ele>
        <time>2019-08-11T09:31:22Z</time>
      </trkpt>
      <trkpt lat="50.46787" lon="1.76793">
        <ele>-20</ele>
        <time>2019-08-11T09:31:25Z</time>
      </trkpt>
      <trkpt lat="50.46791" lon="1.76804">
        <ele>-20</ele>
        <time>2019-08-11T09:31:27Z</time>
      </trkpt>
      <trkpt lat="50.46784" lon="1.76818">
        <ele>-20</ele>
        <time>2019-08-11T09:31:30Z</time>
      </trkpt>
      <trkpt lat="50.46774" lon="1.7683">
        <ele>-20</ele>
        <time>2019-08-11T09:31:33Z</time>
      </trkpt>
      <trkpt lat="50.46763" lon="1.76844">
        <ele>-20</ele>
        <time>2019-08-11T09:31:35Z</time>
      </trkpt>
      <trkpt lat="50.46755" lon="1.76854">
        <ele>-20</ele>
        <time>2019-08-11T09:31:38Z</time>
      </trkpt>
      <trkpt lat="50.46748" lon="1.76863">
        <ele>-20</ele>
        <time>2019-08-11T09:31:40Z</time>
      </trkpt>
      <trkpt lat="50.46737" lon="1.76875">
        <ele>-20</ele>
        <time>2019-08-11T09:31:43Z</time>
      </trkpt>
      <trkpt lat="50.46726" lon="1.76886">
        <ele>-20</ele>
        <time>2019-08-11T09:31:46Z</time>
      </trkpt>
      <trkpt lat="50.46717" lon="1.76898">
        <ele>-21</ele>
        <time>2019-08-11T09:31:49Z</time>
      </trkpt>
      <trkpt lat="50.46707" lon="1.76908">
        <ele>-20</ele>
        <time>2019-08-11T09:31:52Z</time>
      </trkpt>
      <trkpt lat="50.46697" lon="1.76916">
        <ele>-20</ele>
        <time>2019-08-11T09:31:55Z</time>
      </trkpt>
      <trkpt lat="50.46688" lon="1.76927">
        <ele>-20</ele>
        <time>2019-08-11T09:31:57Z</time>
      </trkpt>
      <trkpt lat="50.46683" lon="1.76934">
        <ele>-20</ele>
        <time>2019-08-11T09:32:00Z</time>
      </trkpt>
      <trkpt lat="50.46674" lon="1.76945">
        <ele>-20</ele>
        <time>2019-08-11T09:32:03Z</time>
      </trkpt>
      <trkpt lat="50.46669" lon="1.76954">
        <ele>-20</ele>
        <time>2019-08-11T09:32:05Z</time>
      </trkpt>
      <trkpt lat="50.4666" lon="1.76967">
        <ele>-20</ele>
        <time>2019-08-11T09:32:07Z</time>
      </trkpt>
      <trkpt lat="50.46653" lon="1.76976">
        <ele>-20</ele>
        <time>2019-08-11T09:32:10Z</time>
      </trkpt>
      <trkpt lat="50.46645" lon="1.76989">
        <ele>-20</ele>
        <time>2019-08-11T09:32:13Z</time>
      </trkpt>
      <trkpt lat="50.46634" lon="1.77001">
        <ele>-20</ele>
        <time>2019-08-11T09:32:15Z</time>
      </trkpt>
      <trkpt lat="50.46627" lon="1.77008">
        <ele>-20</ele>
        <time>2019-08-11T09:32:18Z</time>
      </trkpt>
      <trkpt lat="50.46616" lon="1.77019">
        <ele>-20</ele>
        <time>2019-08-11T09:32:20Z</time>
      </trkpt>
      <trkpt lat="50.46609" lon="1.77026">
        <ele>-20</ele>
        <time>2019-08-11T09:32:23Z</time>
      </trkpt>
      <trkpt lat="50.46603" lon="1.77033">
        <ele>-20</ele>
        <time>2019-08-11T09:32:25Z</time>
      </trkpt>
      <trkpt lat="50.46593" lon="1.77042">
        <ele>-21</ele>
        <time>2019-08-11T09:32:27Z</time>
      </trkpt>
      <trkpt lat="50.46587" lon="1.77049">
        <ele>-20</ele>
        <time>2019-08-11T09:32:30Z</time>
      </trkpt>
      <trkpt lat="50.46581" lon="1.77056">
        <ele>-20</ele>
        <time>2019-08-11T09:32:32Z</time>
      </trkpt>
      <trkpt lat="50.46571" lon="1.77065">
        <ele>-20</ele>
        <time>2019-08-11T09:32:34Z</time>
      </trkpt>
      <trkpt lat="50.46564" lon="1.77072">
        <ele>-21</ele>
        <time>2019-08-11T09:32:36Z</time>
      </trkpt>
      <trkpt lat="50.46558" lon="1.77078">
        <ele>-21</ele>
        <time>2019-08-11T09:32:39Z</time>
      </trkpt>
      <trkpt lat="50.46548" lon="1.77089">
        <ele>-20</ele>
        <time>2019-08-11T09:32:41Z</time>
      </trkpt>
      <trkpt lat="50.46538" lon="1.77101">
        <ele>-20</ele>
        <time>2019-08-11T09:32:44Z</time>
      </trkpt>
      <trkpt lat="50.46532" lon="1.7711">
        <ele>-20</ele>
        <time>2019-08-11T09:32:47Z</time>
      </trkpt>
      <trkpt lat="50.46524" lon="1.77122">
        <ele>-20</ele>
        <time>2019-08-11T09:32:49Z</time>
      </trkpt>
      <trkpt lat="50.46519" lon="1.77131">
        <ele>-20</ele>
        <time>2019-08-11T09:32:51Z</time>
      </trkpt>
      <trkpt lat="50.46515" lon="1.77139">
        <ele>-20</ele>
        <time>2019-08-11T09:32:53Z</time>
      </trkpt>
      <trkpt lat="50.4651" lon="1.77146">
        <ele>-21</ele>
        <time>2019-08-11T09:32:56Z</time>
      </trkpt>
      <trkpt lat="50.46508" lon="1.7715">
        <ele>-21</ele>
        <time>2019-08-11T09:32:58Z</time>
      </trkpt>
      <trkpt lat="50.46508" lon="1.77149">
        <ele>-21</ele>
        <time>2019-08-11T09:33:00Z</time>
      </trkpt>
      <trkpt lat="50.46508" lon="1.7715">
        <ele>-21</ele>
        <time>2019-08-11T09:33:03Z</time>
      </trkpt>
      <trkpt lat="50.46508" lon="1.7715">
        <ele>-22</ele>
        <time>2019-08-11T09:33:05Z</time>
      </trkpt>
      <trkpt lat="50.46508" lon="1.77151">
        <ele>-22</ele>
        <time>2019-08-11T09:33:08Z</time>
      </trkpt>
      <trkpt lat="50.46508" lon="1.77151">
        <ele>-22</ele>
        <time>2019-08-11T09:33:13Z</time>
      </trkpt>
      <trkpt lat="50.46507" lon="1.77152">
        <ele>-22</ele>
        <time>2019-08-11T09:33:15Z</time>
      </trkpt>
      <trkpt lat="50.46507" lon="1.77153">
        <ele>-21</ele>
        <time>2019-08-11T09:33:17Z</time>
      </trkpt>
      <trkpt lat="50.46506" lon="1.77154">
        <ele>-21</ele>
        <time>2019-08-11T09:33:20Z</time>
      </trkpt>
      <trkpt lat="50.46504" lon="1.77156">
        <ele>-20</ele>
        <time>2019-08-11T09:33:22Z</time>
      </trkpt>
      <trkpt lat="50.46503" lon="1.77157">
        <ele>-20</ele>
        <time>2019-08-11T09:33:25Z</time>
      </trkpt>
      <trkpt lat="50.46502" lon="1.77159">
        <ele>-20</ele>
        <time>2019-08-11T09:33:27Z</time>
      </trkpt>
      <trkpt lat="50.46501" lon="1.7716">
        <ele>-21</ele>
        <time>2019-08-11T09:33:29Z</time>
      </trkpt>
      <trkpt lat="50.465" lon="1.77161">
        <ele>-21</ele>
        <time>2019-08-11T09:33:31Z</time>
      </trkpt>
      <trkpt lat="50.46495" lon="1.77165">
        <ele>-21</ele>
        <time>2019-08-11T09:33:35Z</time>
      </trkpt>
      <trkpt lat="50.4649" lon="1.77172">
        <ele>-22</ele>
        <time>2019-08-11T09:33:38Z</time>
      </trkpt>
      <trkpt lat="50.46484" lon="1.77178">
        <ele>-21</ele>
        <time>2019-08-11T09:33:41Z</time>
      </trkpt>
      <trkpt lat="50.4648" lon="1.77183">
        <ele>-21</ele>
        <time>2019-08-11T09:33:43Z</time>
      </trkpt>
      <trkpt lat="50.46477" lon="1.77188">
        <ele>-21</ele>
        <time>2019-08-11T09:33:45Z</time>
      </trkpt>
      <trkpt lat="50.46473" lon="1.77194">
        <ele>-21</ele>
        <time>2019-08-11T09:33:47Z</time>
      </trkpt>
      <trkpt lat="50.4647" lon="1.77199">
        <ele>-21</ele>
        <time>2019-08-11T09:33:49Z</time>
      </trkpt>
      <trkpt lat="50.46466" lon="1.77209">
        <ele>-21</ele>
        <time>2019-08-11T09:33:52Z</time>
      </trkpt>
      <trkpt lat="50.46464" lon="1.77218">
        <ele>-21</ele>
        <time>2019-08-11T09:33:55Z</time>
      </trkpt>
      <trkpt lat="50.46462" lon="1.7722">
        <ele>-21</ele>
        <time>2019-08-11T09:33:57Z</time>
      </trkpt>
      <trkpt lat="50.4646" lon="1.77224">
        <ele>-21</ele>
        <time>2019-08-11T09:34:00Z</time>
      </trkpt>
      <trkpt lat="50.46458" lon="1.77231">
        <ele>-21</ele>
        <time>2019-08-11T09:34:02Z</time>
      </trkpt>
      <trkpt lat="50.46455" lon="1.77243">
        <ele>-21</ele>
        <time>2019-08-11T09:34:05Z</time>
      </trkpt>
      <trkpt lat="50.46452" lon="1.77251">
        <ele>-21</ele>
        <time>2019-08-11T09:34:07Z</time>
      </trkpt>
      <trkpt lat="50.4645" lon="1.77262">
        <ele>-21</ele>
        <time>2019-08-11T09:34:09Z</time>
      </trkpt>
      <trkpt lat="50.46449" lon="1.77275">
        <ele>-21</ele>
        <time>2019-08-11T09:34:12Z</time>
      </trkpt>
      <trkpt lat="50.46448" lon="1.77288">
        <ele>-21</ele>
        <time>2019-08-11T09:34:15Z</time>
      </trkpt>
      <trkpt lat="50.46448" lon="1.77301">
        <ele>-21</ele>
        <time>2019-08-11T09:34:19Z</time>
      </trkpt>
      <trkpt lat="50.46448" lon="1.77314">
        <ele>-21</ele>
        <time>2019-08-11T09:34:22Z</time>
      </trkpt>
      <trkpt lat="50.46448" lon="1.77325">
        <ele>-21</ele>
        <time>2019-08-11T09:34:25Z</time>
      </trkpt>
      <trkpt lat="50.46446" lon="1.77336">
        <ele>-21</ele>
        <time>2019-08-11T09:34:28Z</time>
      </trkpt>
      <trkpt lat="50.46444" lon="1.77346">
        <ele>-21</ele>
        <time>2019-08-11T09:34:31Z</time>
      </trkpt>
      <trkpt lat="50.46444" lon="1.77353">
        <ele>-21</ele>
        <time>2019-08-11T09:34:33Z</time>
      </trkpt>
      <trkpt lat="50.46444" lon="1.77358">
        <ele>-21</ele>
        <time>2019-08-11T09:34:36Z</time>
      </trkpt>
      <trkpt lat="50.46442" lon="1.77368">
        <ele>-22</ele>
        <time>2019-08-11T09:34:39Z</time>
      </trkpt>
      <trkpt lat="50.4644" lon="1.77381">
        <ele>-21</ele>
        <time>2019-08-11T09:34:42Z</time>
      </trkpt>
      <trkpt lat="50.46439" lon="1.77391">
        <ele>-21</ele>
        <time>2019-08-11T09:34:44Z</time>
      </trkpt>
      <trkpt lat="50.46437" lon="1.77406">
        <ele>-21</ele>
        <time>2019-08-11T09:34:47Z</time>
      </trkpt>
      <trkpt lat="50.46436" lon="1.77421">
        <ele>-21</ele>
        <time>2019-08-11T09:34:49Z</time>
      </trkpt>
      <trkpt lat="50.46435" lon="1.77431">
        <ele>-21</ele>
        <time>2019-08-11T09:34:51Z</time>
      </trkpt>
      <trkpt lat="50.46435" lon="1.77441">
        <ele>-21</ele>
        <time>2019-08-11T09:34:53Z</time>
      </trkpt>
      <trkpt lat="50.46435" lon="1.7745">
        <ele>-21</ele>
        <time>2019-08-11T09:34:55Z</time>
      </trkpt>
      <trkpt lat="50.46435" lon="1.77459">
        <ele>-21</ele>
        <time>2019-08-11T09:34:57Z</time>
      </trkpt>
      <trkpt lat="50.46436" lon="1.7747">
        <ele>-21</ele>
        <time>2019-08-11T09:34:59Z</time>
      </trkpt>
      <trkpt lat="50.46436" lon="1.77481">
        <ele>-21</ele>
        <time>2019-08-11T09:35:01Z</time>
      </trkpt>
      <trkpt lat="50.46436" lon="1.77491">
        <ele>-21</ele>
        <time>2019-08-11T09:35:03Z</time>
      </trkpt>
      <trkpt lat="50.46437" lon="1.775">
        <ele>-21</ele>
        <time>2019-08-11T09:35:06Z</time>
      </trkpt>
      <trkpt lat="50.46439" lon="1.7751">
        <ele>-21</ele>
        <time>2019-08-11T09:35:08Z</time>
      </trkpt>
      <trkpt lat="50.46439" lon="1.77526">
        <ele>-21</ele>
        <time>2019-08-11T09:35:10Z</time>
      </trkpt>
      <trkpt lat="50.46437" lon="1.77539">
        <ele>-21</ele>
        <time>2019-08-11T09:35:12Z</time>
      </trkpt>
      <trkpt lat="50.46438" lon="1.77552">
        <ele>-21</ele>
        <time>2019-08-11T09:35:14Z</time>
      </trkpt>
      <trkpt lat="50.46439" lon="1.77564">
        <ele>-21</ele>
        <time>2019-08-11T09:35:16Z</time>
      </trkpt>
      <trkpt lat="50.46444" lon="1.77573">
        <ele>-21</ele>
        <time>2019-08-11T09:35:18Z</time>
      </trkpt>
      <trkpt lat="50.46451" lon="1.77577">
        <ele>-21</ele>
        <time>2019-08-11T09:35:21Z</time>
      </trkpt>
      <trkpt lat="50.46463" lon="1.7758">
        <ele>-21</ele>
        <time>2019-08-11T09:35:23Z</time>
      </trkpt>
      <trkpt lat="50.46472" lon="1.77581">
        <ele>-21</ele>
        <time>2019-08-11T09:35:26Z</time>
      </trkpt>
      <trkpt lat="50.46483" lon="1.77587">
        <ele>-21</ele>
        <time>2019-08-11T09:35:28Z</time>
      </trkpt>
      <trkpt lat="50.46484" lon="1.77598">
        <ele>-21</ele>
        <time>2019-08-11T09:35:30Z</time>
      </trkpt>
      <trkpt lat="50.46481" lon="1.7761">
        <ele>-21</ele>
        <time>2019-08-11T09:35:32Z</time>
      </trkpt>
      <trkpt lat="50.46478" lon="1.77623">
        <ele>-21</ele>
        <time>2019-08-11T09:35:35Z</time>
      </trkpt>
      <trkpt lat="50.46472" lon="1.77644">
        <ele>-21</ele>
        <time>2019-08-11T09:35:37Z</time>
      </trkpt>
      <trkpt lat="50.46467" lon="1.77664">
        <ele>-21</ele>
        <time>2019-08-11T09:35:40Z</time>
      </trkpt>
      <trkpt lat="50.46463" lon="1.77678">
        <ele>-21</ele>
        <time>2019-08-11T09:35:42Z</time>
      </trkpt>
      <trkpt lat="50.4646" lon="1.77692">
        <ele>-21</ele>
        <time>2019-08-11T09:35:45Z</time>
      </trkpt>
      <trkpt lat="50.46454" lon="1.77714">
        <ele>-21</ele>
        <time>2019-08-11T09:35:47Z</time>
      </trkpt>
      <trkpt lat="50.4645" lon="1.77728">
        <ele>-21</ele>
        <time>2019-08-11T09:35:49Z</time>
      </trkpt>
      <trkpt lat="50.46446" lon="1.77743">
        <ele>-21</ele>
        <time>2019-08-11T09:35:51Z</time>
      </trkpt>
      <trkpt lat="50.46442" lon="1.77758">
        <ele>-21</ele>
        <time>2019-08-11T09:35:54Z</time>
      </trkpt>
      <trkpt lat="50.46435" lon="1.7778">
        <ele>-21</ele>
        <time>2019-08-11T09:35:56Z</time>
      </trkpt>
      <trkpt lat="50.46431" lon="1.77796">
        <ele>-21</ele>
        <time>2019-08-11T09:35:58Z</time>
      </trkpt>
      <trkpt lat="50.46427" lon="1.77811">
        <ele>-21</ele>
        <time>2019-08-11T09:36:01Z</time>
      </trkpt>
      <trkpt lat="50.46424" lon="1.77834">
        <ele>-21</ele>
        <time>2019-08-11T09:36:03Z</time>
      </trkpt>
      <trkpt lat="50.46424" lon="1.77849">
        <ele>-21</ele>
        <time>2019-08-11T09:36:06Z</time>
      </trkpt>
      <trkpt lat="50.46426" lon="1.7787">
        <ele>-21</ele>
        <time>2019-08-11T09:36:09Z</time>
      </trkpt>
      <trkpt lat="50.46429" lon="1.77886">
        <ele>-21</ele>
        <time>2019-08-11T09:36:11Z</time>
      </trkpt>
      <trkpt lat="50.46432" lon="1.77901">
        <ele>-21</ele>
        <time>2019-08-11T09:36:13Z</time>
      </trkpt>
      <trkpt lat="50.46437" lon="1.77923">
        <ele>-21</ele>
        <time>2019-08-11T09:36:15Z</time>
      </trkpt>
      <trkpt lat="50.46441" lon="1.77938">
        <ele>-21</ele>
        <time>2019-08-11T09:36:18Z</time>
      </trkpt>
      <trkpt lat="50.46446" lon="1.77961">
        <ele>-21</ele>
        <time>2019-08-11T09:36:21Z</time>
      </trkpt>
      <trkpt lat="50.46449" lon="1.77984">
        <ele>-21</ele>
        <time>2019-08-11T09:36:24Z</time>
      </trkpt>
      <trkpt lat="50.4645" lon="1.78001">
        <ele>-21</ele>
        <time>2019-08-11T09:36:26Z</time>
      </trkpt>
      <trkpt lat="50.46449" lon="1.78024">
        <ele>-21</ele>
        <time>2019-08-11T09:36:28Z</time>
      </trkpt>
      <trkpt lat="50.46446" lon="1.78047">
        <ele>-21</ele>
        <time>2019-08-11T09:36:32Z</time>
      </trkpt>
      <trkpt lat="50.46441" lon="1.78068">
        <ele>-21</ele>
        <time>2019-08-11T09:36:35Z</time>
      </trkpt>
      <trkpt lat="50.46435" lon="1.78089">
        <ele>-21</ele>
        <time>2019-08-11T09:36:37Z</time>
      </trkpt>
      <trkpt lat="50.46429" lon="1.78103">
        <ele>-21</ele>
        <time>2019-08-11T09:36:39Z</time>
      </trkpt>
      <trkpt lat="50.46423" lon="1.78116">
        <ele>-21</ele>
        <time>2019-08-11T09:36:41Z</time>
      </trkpt>
      <trkpt lat="50.46418" lon="1.78128">
        <ele>-21</ele>
        <time>2019-08-11T09:36:43Z</time>
      </trkpt>
      <trkpt lat="50.46412" lon="1.78141">
        <ele>-20</ele>
        <time>2019-08-11T09:36:45Z</time>
      </trkpt>
      <trkpt lat="50.46405" lon="1.78152">
        <ele>-21</ele>
        <time>2019-08-11T09:36:48Z</time>
      </trkpt>
      <trkpt lat="50.46394" lon="1.78169">
        <ele>-21</ele>
        <time>2019-08-11T09:36:50Z</time>
      </trkpt>
      <trkpt lat="50.46383" lon="1.78184">
        <ele>-21</ele>
        <time>2019-08-11T09:36:53Z</time>
      </trkpt>
      <trkpt lat="50.46375" lon="1.78193">
        <ele>-21</ele>
        <time>2019-08-11T09:36:55Z</time>
      </trkpt>
      <trkpt lat="50.46366" lon="1.78201">
        <ele>-21</ele>
        <time>2019-08-11T09:36:58Z</time>
      </trkpt>
      <trkpt lat="50.46358" lon="1.78208">
        <ele>-20</ele>
        <time>2019-08-11T09:37:00Z</time>
      </trkpt>
      <trkpt lat="50.46345" lon="1.78218">
        <ele>-21</ele>
        <time>2019-08-11T09:37:02Z</time>
      </trkpt>
      <trkpt lat="50.46333" lon="1.78227">
        <ele>-21</ele>
        <time>2019-08-11T09:37:06Z</time>
      </trkpt>
      <trkpt lat="50.46321" lon="1.78239">
        <ele>-20</ele>
        <time>2019-08-11T09:37:08Z</time>
      </trkpt>
      <trkpt lat="50.46314" lon="1.78249">
        <ele>-20</ele>
        <time>2019-08-11T09:37:10Z</time>
      </trkpt>
      <trkpt lat="50.46309" lon="1.78262">
        <ele>-20</ele>
        <time>2019-08-11T09:37:12Z</time>
      </trkpt>
      <trkpt lat="50.46304" lon="1.78284">
        <ele>-20</ele>
        <time>2019-08-11T09:37:15Z</time>
      </trkpt>
      <trkpt lat="50.463" lon="1.78298">
        <ele>-21</ele>
        <time>2019-08-11T09:37:17Z</time>
      </trkpt>
      <trkpt lat="50.46294" lon="1.78321">
        <ele>-21</ele>
        <time>2019-08-11T09:37:20Z</time>
      </trkpt>
      <trkpt lat="50.46289" lon="1.78335">
        <ele>-22</ele>
        <time>2019-08-11T09:37:23Z</time>
      </trkpt>
      <trkpt lat="50.46283" lon="1.78357">
        <ele>-22</ele>
        <time>2019-08-11T09:37:25Z</time>
      </trkpt>
      <trkpt lat="50.46277" lon="1.78379">
        <ele>-22</ele>
        <time>2019-08-11T09:37:28Z</time>
      </trkpt>
      <trkpt lat="50.46273" lon="1.78393">
        <ele>-22</ele>
        <time>2019-08-11T09:37:30Z</time>
      </trkpt>
      <trkpt lat="50.4627" lon="1.78408">
        <ele>-22</ele>
        <time>2019-08-11T09:37:32Z</time>
      </trkpt>
      <trkpt lat="50.46265" lon="1.78422">
        <ele>-21</ele>
        <time>2019-08-11T09:37:34Z</time>
      </trkpt>
      <trkpt lat="50.46262" lon="1.78436">
        <ele>-21</ele>
        <time>2019-08-11T09:37:37Z</time>
      </trkpt>
      <trkpt lat="50.46255" lon="1.78459">
        <ele>-21</ele>
        <time>2019-08-11T09:37:39Z</time>
      </trkpt>
      <trkpt lat="50.4625" lon="1.78483">
        <ele>-21</ele>
        <time>2019-08-11T09:37:42Z</time>
      </trkpt>
      <trkpt lat="50.46246" lon="1.78499">
        <ele>-21</ele>
        <time>2019-08-11T09:37:44Z</time>
      </trkpt>
      <trkpt lat="50.46239" lon="1.78524">
        <ele>-21</ele>
        <time>2019-08-11T09:37:47Z</time>
      </trkpt>
      <trkpt lat="50.46233" lon="1.78548">
        <ele>-22</ele>
        <time>2019-08-11T09:37:50Z</time>
      </trkpt>
      <trkpt lat="50.46227" lon="1.78571">
        <ele>-22</ele>
        <time>2019-08-11T09:37:53Z</time>
      </trkpt>
      <trkpt lat="50.46221" lon="1.78594">
        <ele>-22</ele>
        <time>2019-08-11T09:37:56Z</time>
      </trkpt>
      <trkpt lat="50.46217" lon="1.78609">
        <ele>-22</ele>
        <time>2019-08-11T09:37:59Z</time>
      </trkpt>
      <trkpt lat="50.46211" lon="1.78631">
        <ele>-22</ele>
        <time>2019-08-11T09:38:01Z</time>
      </trkpt>
      <trkpt lat="50.46205" lon="1.78653">
        <ele>-22</ele>
        <time>2019-08-11T09:38:04Z</time>
      </trkpt>
      <trkpt lat="50.46199" lon="1.78675">
        <ele>-21</ele>
        <time>2019-08-11T09:38:07Z</time>
      </trkpt>
      <trkpt lat="50.46195" lon="1.7869">
        <ele>-21</ele>
        <time>2019-08-11T09:38:09Z</time>
      </trkpt>
      <trkpt lat="50.46191" lon="1.78705">
        <ele>-21</ele>
        <time>2019-08-11T09:38:12Z</time>
      </trkpt>
      <trkpt lat="50.46186" lon="1.78727">
        <ele>-21</ele>
        <time>2019-08-11T09:38:14Z</time>
      </trkpt>
      <trkpt lat="50.46181" lon="1.78748">
        <ele>-21</ele>
        <time>2019-08-11T09:38:17Z</time>
      </trkpt>
      <trkpt lat="50.46177" lon="1.78762">
        <ele>-21</ele>
        <time>2019-08-11T09:38:19Z</time>
      </trkpt>
      <trkpt lat="50.46171" lon="1.78784">
        <ele>-21</ele>
        <time>2019-08-11T09:38:22Z</time>
      </trkpt>
      <trkpt lat="50.46167" lon="1.78798">
        <ele>-21</ele>
        <time>2019-08-11T09:38:25Z</time>
      </trkpt>
      <trkpt lat="50.46162" lon="1.78819">
        <ele>-21</ele>
        <time>2019-08-11T09:38:27Z</time>
      </trkpt>
      <trkpt lat="50.46156" lon="1.78839">
        <ele>-22</ele>
        <time>2019-08-11T09:38:30Z</time>
      </trkpt>
      <trkpt lat="50.46154" lon="1.78852">
        <ele>-21</ele>
        <time>2019-08-11T09:38:32Z</time>
      </trkpt>
      <trkpt lat="50.46152" lon="1.78865">
        <ele>-21</ele>
        <time>2019-08-11T09:38:34Z</time>
      </trkpt>
      <trkpt lat="50.4615" lon="1.78876">
        <ele>-21</ele>
        <time>2019-08-11T09:38:36Z</time>
      </trkpt>
      <trkpt lat="50.46151" lon="1.78888">
        <ele>-21</ele>
        <time>2019-08-11T09:38:39Z</time>
      </trkpt>
      <trkpt lat="50.46152" lon="1.78899">
        <ele>-21</ele>
        <time>2019-08-11T09:38:41Z</time>
      </trkpt>
      <trkpt lat="50.46151" lon="1.78915">
        <ele>-21</ele>
        <time>2019-08-11T09:38:43Z</time>
      </trkpt>
      <trkpt lat="50.4615" lon="1.78927">
        <ele>-21</ele>
        <time>2019-08-11T09:38:45Z</time>
      </trkpt>
      <trkpt lat="50.46147" lon="1.78945">
        <ele>-21</ele>
        <time>2019-08-11T09:38:48Z</time>
      </trkpt>
      <trkpt lat="50.46142" lon="1.78962">
        <ele>-21</ele>
        <time>2019-08-11T09:38:51Z</time>
      </trkpt>
      <trkpt lat="50.46138" lon="1.78971">
        <ele>-22</ele>
        <time>2019-08-11T09:38:53Z</time>
      </trkpt>
      <trkpt lat="50.46133" lon="1.78981">
        <ele>-22</ele>
        <time>2019-08-11T09:38:56Z</time>
      </trkpt>
      <trkpt lat="50.46127" lon="1.78996">
        <ele>-21</ele>
        <time>2019-08-11T09:38:58Z</time>
      </trkpt>
      <trkpt lat="50.46123" lon="1.79006">
        <ele>-21</ele>
        <time>2019-08-11T09:39:00Z</time>
      </trkpt>
      <trkpt lat="50.46119" lon="1.79014">
        <ele>-21</ele>
        <time>2019-08-11T09:39:02Z</time>
      </trkpt>
      <trkpt lat="50.46115" lon="1.79023">
        <ele>-21</ele>
        <time>2019-08-11T09:39:04Z</time>
      </trkpt>
      <trkpt lat="50.46111" lon="1.79032">
        <ele>-21</ele>
        <time>2019-08-11T09:39:06Z</time>
      </trkpt>
      <trkpt lat="50.46106" lon="1.79042">
        <ele>-21</ele>
        <time>2019-08-11T09:39:08Z</time>
      </trkpt>
      <trkpt lat="50.46101" lon="1.79053">
        <ele>-21</ele>
        <time>2019-08-11T09:39:10Z</time>
      </trkpt>
      <trkpt lat="50.46096" lon="1.79063">
        <ele>-21</ele>
        <time>2019-08-11T09:39:12Z</time>
      </trkpt>
      <trkpt lat="50.4609" lon="1.79073">
        <ele>-20</ele>
        <time>2019-08-11T09:39:15Z</time>
      </trkpt>
      <trkpt lat="50.46082" lon="1.7909">
        <ele>-20</ele>
        <time>2019-08-11T09:39:17Z</time>
      </trkpt>
      <trkpt lat="50.46077" lon="1.79101">
        <ele>-20</ele>
        <time>2019-08-11T09:39:19Z</time>
      </trkpt>
      <trkpt lat="50.46072" lon="1.79112">
        <ele>-20</ele>
        <time>2019-08-11T09:39:21Z</time>
      </trkpt>
      <trkpt lat="50.46069" lon="1.79121">
        <ele>-20</ele>
        <time>2019-08-11T09:39:23Z</time>
      </trkpt>
      <trkpt lat="50.46063" lon="1.79135">
        <ele>-20</ele>
        <time>2019-08-11T09:39:26Z</time>
      </trkpt>
      <trkpt lat="50.4606" lon="1.79144">
        <ele>-21</ele>
        <time>2019-08-11T09:39:29Z</time>
      </trkpt>
      <trkpt lat="50.46056" lon="1.7916">
        <ele>-21</ele>
        <time>2019-08-11T09:39:31Z</time>
      </trkpt>
      <trkpt lat="50.46053" lon="1.79171">
        <ele>-21</ele>
        <time>2019-08-11T09:39:33Z</time>
      </trkpt>
      <trkpt lat="50.46051" lon="1.79182">
        <ele>-21</ele>
        <time>2019-08-11T09:39:35Z</time>
      </trkpt>
      <trkpt lat="50.46049" lon="1.79194">
        <ele>-21</ele>
        <time>2019-08-11T09:39:37Z</time>
      </trkpt>
      <trkpt lat="50.46046" lon="1.79212">
        <ele>-21</ele>
        <time>2019-08-11T09:39:40Z</time>
      </trkpt>
      <trkpt lat="50.46045" lon="1.79223">
        <ele>-21</ele>
        <time>2019-08-11T09:39:42Z</time>
      </trkpt>
      <trkpt lat="50.46044" lon="1.79235">
        <ele>-21</ele>
        <time>2019-08-11T09:39:44Z</time>
      </trkpt>
      <trkpt lat="50.46043" lon="1.79246">
        <ele>-21</ele>
        <time>2019-08-11T09:39:47Z</time>
      </trkpt>
      <trkpt lat="50.46042" lon="1.79256">
        <ele>-20</ele>
        <time>2019-08-11T09:39:49Z</time>
      </trkpt>
      <trkpt lat="50.4604" lon="1.79273">
        <ele>-20</ele>
        <time>2019-08-11T09:39:51Z</time>
      </trkpt>
      <trkpt lat="50.46039" lon="1.79288">
        <ele>-20</ele>
        <time>2019-08-11T09:39:54Z</time>
      </trkpt>
      <trkpt lat="50.46038" lon="1.79299">
        <ele>-20</ele>
        <time>2019-08-11T09:39:56Z</time>
      </trkpt>
      <trkpt lat="50.46037" lon="1.79316">
        <ele>-21</ele>
        <time>2019-08-11T09:39:59Z</time>
      </trkpt>
      <trkpt lat="50.46035" lon="1.79326">
        <ele>-21</ele>
        <time>2019-08-11T09:40:01Z</time>
      </trkpt>
      <trkpt lat="50.46033" lon="1.79335">
        <ele>-21</ele>
        <time>2019-08-11T09:40:04Z</time>
      </trkpt>
      <trkpt lat="50.46029" lon="1.79352">
        <ele>-21</ele>
        <time>2019-08-11T09:40:06Z</time>
      </trkpt>
      <trkpt lat="50.46027" lon="1.79364">
        <ele>-21</ele>
        <time>2019-08-11T09:40:08Z</time>
      </trkpt>
      <trkpt lat="50.46022" lon="1.79381">
        <ele>-21</ele>
        <time>2019-08-11T09:40:11Z</time>
      </trkpt>
      <trkpt lat="50.46019" lon="1.79396">
        <ele>-21</ele>
        <time>2019-08-11T09:40:14Z</time>
      </trkpt>
      <trkpt lat="50.46017" lon="1.79412">
        <ele>-21</ele>
        <time>2019-08-11T09:40:17Z</time>
      </trkpt>
      <trkpt lat="50.46014" lon="1.79428">
        <ele>-21</ele>
        <time>2019-08-11T09:40:20Z</time>
      </trkpt>
      <trkpt lat="50.46011" lon="1.79438">
        <ele>-21</ele>
        <time>2019-08-11T09:40:22Z</time>
      </trkpt>
      <trkpt lat="50.46009" lon="1.79449">
        <ele>-21</ele>
        <time>2019-08-11T09:40:24Z</time>
      </trkpt>
      <trkpt lat="50.46006" lon="1.79466">
        <ele>-21</ele>
        <time>2019-08-11T09:40:27Z</time>
      </trkpt>
      <trkpt lat="50.46003" lon="1.79478">
        <ele>-21</ele>
        <time>2019-08-11T09:40:30Z</time>
      </trkpt>
      <trkpt lat="50.46" lon="1.79494">
        <ele>-21</ele>
        <time>2019-08-11T09:40:32Z</time>
      </trkpt>
      <trkpt lat="50.45996" lon="1.79511">
        <ele>-21</ele>
        <time>2019-08-11T09:40:35Z</time>
      </trkpt>
      <trkpt lat="50.45994" lon="1.79525">
        <ele>-21</ele>
        <time>2019-08-11T09:40:38Z</time>
      </trkpt>
      <trkpt lat="50.45991" lon="1.79536">
        <ele>-21</ele>
        <time>2019-08-11T09:40:40Z</time>
      </trkpt>
      <trkpt lat="50.45987" lon="1.79553">
        <ele>-21</ele>
        <time>2019-08-11T09:40:43Z</time>
      </trkpt>
      <trkpt lat="50.45984" lon="1.79564">
        <ele>-21</ele>
        <time>2019-08-11T09:40:45Z</time>
      </trkpt>
      <trkpt lat="50.45982" lon="1.79575">
        <ele>-21</ele>
        <time>2019-08-11T09:40:47Z</time>
      </trkpt>
      <trkpt lat="50.45979" lon="1.79593">
        <ele>-20</ele>
        <time>2019-08-11T09:40:50Z</time>
      </trkpt>
      <trkpt lat="50.45975" lon="1.79609">
        <ele>-21</ele>
        <time>2019-08-11T09:40:53Z</time>
      </trkpt>
      <trkpt lat="50.45974" lon="1.79621">
        <ele>-21</ele>
        <time>2019-08-11T09:40:56Z</time>
      </trkpt>
      <trkpt lat="50.45971" lon="1.79639">
        <ele>-21</ele>
        <time>2019-08-11T09:40:58Z</time>
      </trkpt>
      <trkpt lat="50.45969" lon="1.79656">
        <ele>-22</ele>
        <time>2019-08-11T09:41:01Z</time>
      </trkpt>
      <trkpt lat="50.45966" lon="1.79673">
        <ele>-21</ele>
        <time>2019-08-11T09:41:04Z</time>
      </trkpt>
      <trkpt lat="50.45965" lon="1.79683">
        <ele>-21</ele>
        <time>2019-08-11T09:41:06Z</time>
      </trkpt>
      <trkpt lat="50.45963" lon="1.79697">
        <ele>-21</ele>
        <time>2019-08-11T09:41:09Z</time>
      </trkpt>
      <trkpt lat="50.45961" lon="1.79713">
        <ele>-21</ele>
        <time>2019-08-11T09:41:12Z</time>
      </trkpt>
      <trkpt lat="50.45958" lon="1.7973">
        <ele>-21</ele>
        <time>2019-08-11T09:41:15Z</time>
      </trkpt>
      <trkpt lat="50.45955" lon="1.79746">
        <ele>-21</ele>
        <time>2019-08-11T09:41:18Z</time>
      </trkpt>
      <trkpt lat="50.45953" lon="1.79756">
        <ele>-21</ele>
        <time>2019-08-11T09:41:20Z</time>
      </trkpt>
      <trkpt lat="50.45952" lon="1.79765">
        <ele>-21</ele>
        <time>2019-08-11T09:41:22Z</time>
      </trkpt>
      <trkpt lat="50.4595" lon="1.7978">
        <ele>-21</ele>
        <time>2019-08-11T09:41:25Z</time>
      </trkpt>
      <trkpt lat="50.45947" lon="1.79794">
        <ele>-21</ele>
        <time>2019-08-11T09:41:28Z</time>
      </trkpt>
      <trkpt lat="50.45945" lon="1.79805">
        <ele>-21</ele>
        <time>2019-08-11T09:41:30Z</time>
      </trkpt>
      <trkpt lat="50.45942" lon="1.7982">
        <ele>-21</ele>
        <time>2019-08-11T09:41:33Z</time>
      </trkpt>
      <trkpt lat="50.45941" lon="1.79828">
        <ele>-21</ele>
        <time>2019-08-11T09:41:36Z</time>
      </trkpt>
      <trkpt lat="50.45939" lon="1.79841">
        <ele>-22</ele>
        <time>2019-08-11T09:41:38Z</time>
      </trkpt>
      <trkpt lat="50.45936" lon="1.79854">
        <ele>-22</ele>
        <time>2019-08-11T09:41:41Z</time>
      </trkpt>
      <trkpt lat="50.45934" lon="1.79862">
        <ele>-22</ele>
        <time>2019-08-11T09:41:43Z</time>
      </trkpt>
      <trkpt lat="50.45932" lon="1.7987">
        <ele>-22</ele>
        <time>2019-08-11T09:41:45Z</time>
      </trkpt>
      <trkpt lat="50.45931" lon="1.79879">
        <ele>-21</ele>
        <time>2019-08-11T09:41:48Z</time>
      </trkpt>
      <trkpt lat="50.45928" lon="1.79893">
        <ele>-21</ele>
        <time>2019-08-11T09:41:50Z</time>
      </trkpt>
      <trkpt lat="50.45927" lon="1.79902">
        <ele>-21</ele>
        <time>2019-08-11T09:41:52Z</time>
      </trkpt>
      <trkpt lat="50.45925" lon="1.7991">
        <ele>-21</ele>
        <time>2019-08-11T09:41:54Z</time>
      </trkpt>
      <trkpt lat="50.45924" lon="1.79921">
        <ele>-22</ele>
        <time>2019-08-11T09:41:57Z</time>
      </trkpt>
      <trkpt lat="50.45924" lon="1.79933">
        <ele>-22</ele>
        <time>2019-08-11T09:42:00Z</time>
      </trkpt>
      <trkpt lat="50.45922" lon="1.79945">
        <ele>-22</ele>
        <time>2019-08-11T09:42:03Z</time>
      </trkpt>
      <trkpt lat="50.4592" lon="1.79954">
        <ele>-21</ele>
        <time>2019-08-11T09:42:06Z</time>
      </trkpt>
      <trkpt lat="50.45919" lon="1.79957">
        <ele>-22</ele>
        <time>2019-08-11T09:42:08Z</time>
      </trkpt>
      <trkpt lat="50.45918" lon="1.79958">
        <ele>-22</ele>
        <time>2019-08-11T09:42:10Z</time>
      </trkpt>
      <trkpt lat="50.45916" lon="1.79959">
        <ele>-22</ele>
        <time>2019-08-11T09:42:13Z</time>
      </trkpt>
      <trkpt lat="50.45913" lon="1.7996">
        <ele>-21</ele>
        <time>2019-08-11T09:42:16Z</time>
      </trkpt>
      <trkpt lat="50.45909" lon="1.7996">
        <ele>-20</ele>
        <time>2019-08-11T09:42:19Z</time>
      </trkpt>
      <trkpt lat="50.45906" lon="1.79959">
        <ele>-20</ele>
        <time>2019-08-11T09:42:22Z</time>
      </trkpt>
      <trkpt lat="50.45903" lon="1.79959">
        <ele>-20</ele>
        <time>2019-08-11T09:42:24Z</time>
      </trkpt>
      <trkpt lat="50.45899" lon="1.79958">
        <ele>-20</ele>
        <time>2019-08-11T09:42:27Z</time>
      </trkpt>
      <trkpt lat="50.45898" lon="1.79958">
        <ele>-20</ele>
        <time>2019-08-11T09:42:30Z</time>
      </trkpt>
      <trkpt lat="50.45896" lon="1.79958">
        <ele>-20</ele>
        <time>2019-08-11T09:42:32Z</time>
      </trkpt>
      <trkpt lat="50.45895" lon="1.79958">
        <ele>-20</ele>
        <time>2019-08-11T09:42:34Z</time>
      </trkpt>
      <trkpt lat="50.45894" lon="1.79958">
        <ele>-20</ele>
        <time>2019-08-11T09:42:37Z</time>
      </trkpt>
      <trkpt lat="50.45893" lon="1.79958">
        <ele>-21</ele>
        <time>2019-08-11T09:42:39Z</time>
      </trkpt>
      <trkpt lat="50.45892" lon="1.79958">
        <ele>-21</ele>
        <time>2019-08-11T09:42:42Z</time>
      </trkpt>
      <trkpt lat="50.45891" lon="1.79957">
        <ele>-21</ele>
        <time>2019-08-11T09:42:44Z</time>
      </trkpt>
      <trkpt lat="50.45888" lon="1.79955">
        <ele>-21</ele>
        <time>2019-08-11T09:42:47Z</time>
      </trkpt>
      <trkpt lat="50.45885" lon="1.79953">
        <ele>-21</ele>
        <time>2019-08-11T09:42:49Z</time>
      </trkpt>
      <trkpt lat="50.45879" lon="1.79949">
        <ele>-21</ele>
        <time>2019-08-11T09:42:51Z</time>
      </trkpt>
      <trkpt lat="50.45872" lon="1.79944">
        <ele>-21</ele>
        <time>2019-08-11T09:42:54Z</time>
      </trkpt>
      <trkpt lat="50.45866" lon="1.7994">
        <ele>-22</ele>
        <time>2019-08-11T09:42:56Z</time>
      </trkpt>
      <trkpt lat="50.45856" lon="1.79935">
        <ele>-21</ele>
        <time>2019-08-11T09:42:59Z</time>
      </trkpt>
      <trkpt lat="50.45846" lon="1.79928">
        <ele>-21</ele>
        <time>2019-08-11T09:43:02Z</time>
      </trkpt>
      <trkpt lat="50.45839" lon="1.79922">
        <ele>-21</ele>
        <time>2019-08-11T09:43:04Z</time>
      </trkpt>
      <trkpt lat="50.45832" lon="1.79917">
        <ele>-21</ele>
        <time>2019-08-11T09:43:07Z</time>
      </trkpt>
      <trkpt lat="50.45821" lon="1.79908">
        <ele>-21</ele>
        <time>2019-08-11T09:43:09Z</time>
      </trkpt>
      <trkpt lat="50.4581" lon="1.799">
        <ele>-21</ele>
        <time>2019-08-11T09:43:12Z</time>
      </trkpt>
      <trkpt lat="50.45803" lon="1.79894">
        <ele>-20</ele>
        <time>2019-08-11T09:43:14Z</time>
      </trkpt>
      <trkpt lat="50.45792" lon="1.79886">
        <ele>-20</ele>
        <time>2019-08-11T09:43:17Z</time>
      </trkpt>
      <trkpt lat="50.45785" lon="1.7988">
        <ele>-20</ele>
        <time>2019-08-11T09:43:20Z</time>
      </trkpt>
      <trkpt lat="50.45775" lon="1.79872">
        <ele>-20</ele>
        <time>2019-08-11T09:43:22Z</time>
      </trkpt>
      <trkpt lat="50.45764" lon="1.79864">
        <ele>-21</ele>
        <time>2019-08-11T09:43:25Z</time>
      </trkpt>
      <trkpt lat="50.45757" lon="1.79859">
        <ele>-21</ele>
        <time>2019-08-11T09:43:27Z</time>
      </trkpt>
      <trkpt lat="50.45749" lon="1.79853">
        <ele>-21</ele>
        <time>2019-08-11T09:43:29Z</time>
      </trkpt>
      <trkpt lat="50.45742" lon="1.79848">
        <ele>-21</ele>
        <time>2019-08-11T09:43:32Z</time>
      </trkpt>
      <trkpt lat="50.45731" lon="1.7984">
        <ele>-20</ele>
        <time>2019-08-11T09:43:34Z</time>
      </trkpt>
      <trkpt lat="50.45725" lon="1.79835">
        <ele>-20</ele>
        <time>2019-08-11T09:43:36Z</time>
      </trkpt>
      <trkpt lat="50.4572" lon="1.79832">
        <ele>-20</ele>
        <time>2019-08-11T09:43:38Z</time>
      </trkpt>
      <trkpt lat="50.45713" lon="1.79827">
        <ele>-20</ele>
        <time>2019-08-11T09:43:41Z</time>
      </trkpt>
      <trkpt lat="50.45708" lon="1.79823">
        <ele>-20</ele>
        <time>2019-08-11T09:43:43Z</time>
      </trkpt>
      <trkpt lat="50.45699" lon="1.79816">
        <ele>-20</ele>
        <time>2019-08-11T09:43:46Z</time>
      </trkpt>
      <trkpt lat="50.45692" lon="1.79811">
        <ele>-20</ele>
        <time>2019-08-11T09:43:48Z</time>
      </trkpt>
      <trkpt lat="50.45683" lon="1.79804">
        <ele>-20</ele>
        <time>2019-08-11T09:43:51Z</time>
      </trkpt>
      <trkpt lat="50.45677" lon="1.79799">
        <ele>-21</ele>
        <time>2019-08-11T09:43:54Z</time>
      </trkpt>
      <trkpt lat="50.45673" lon="1.798">
        <ele>-21</ele>
        <time>2019-08-11T09:43:56Z</time>
      </trkpt>
      <trkpt lat="50.45668" lon="1.79799">
        <ele>-20</ele>
        <time>2019-08-11T09:43:59Z</time>
      </trkpt>
      <trkpt lat="50.45663" lon="1.79799">
        <ele>-20</ele>
        <time>2019-08-11T09:44:01Z</time>
      </trkpt>
      <trkpt lat="50.45658" lon="1.79805">
        <ele>-20</ele>
        <time>2019-08-11T09:44:03Z</time>
      </trkpt>
      <trkpt lat="50.4565" lon="1.79817">
        <ele>-19</ele>
        <time>2019-08-11T09:44:06Z</time>
      </trkpt>
      <trkpt lat="50.45645" lon="1.79826">
        <ele>-19</ele>
        <time>2019-08-11T09:44:08Z</time>
      </trkpt>
      <trkpt lat="50.45639" lon="1.79834">
        <ele>-19</ele>
        <time>2019-08-11T09:44:10Z</time>
      </trkpt>
      <trkpt lat="50.45629" lon="1.79849">
        <ele>-19</ele>
        <time>2019-08-11T09:44:13Z</time>
      </trkpt>
      <trkpt lat="50.45623" lon="1.79859">
        <ele>-19</ele>
        <time>2019-08-11T09:44:15Z</time>
      </trkpt>
      <trkpt lat="50.45615" lon="1.79869">
        <ele>-19</ele>
        <time>2019-08-11T09:44:18Z</time>
      </trkpt>
      <trkpt lat="50.45604" lon="1.79884">
        <ele>-19</ele>
        <time>2019-08-11T09:44:20Z</time>
      </trkpt>
      <trkpt lat="50.45596" lon="1.79892">
        <ele>-19</ele>
        <time>2019-08-11T09:44:22Z</time>
      </trkpt>
      <trkpt lat="50.45584" lon="1.79904">
        <ele>-19</ele>
        <time>2019-08-11T09:44:25Z</time>
      </trkpt>
      <trkpt lat="50.45572" lon="1.79916">
        <ele>-18</ele>
        <time>2019-08-11T09:44:28Z</time>
      </trkpt>
      <trkpt lat="50.45564" lon="1.79924">
        <ele>-18</ele>
        <time>2019-08-11T09:44:30Z</time>
      </trkpt>
      <trkpt lat="50.45551" lon="1.79936">
        <ele>-18</ele>
        <time>2019-08-11T09:44:33Z</time>
      </trkpt>
      <trkpt lat="50.45543" lon="1.79945">
        <ele>-18</ele>
        <time>2019-08-11T09:44:36Z</time>
      </trkpt>
      <trkpt lat="50.45533" lon="1.79963">
        <ele>-18</ele>
        <time>2019-08-11T09:44:38Z</time>
      </trkpt>
      <trkpt lat="50.45523" lon="1.79984">
        <ele>-18</ele>
        <time>2019-08-11T09:44:41Z</time>
      </trkpt>
      <trkpt lat="50.45518" lon="1.79999">
        <ele>-18</ele>
        <time>2019-08-11T09:44:43Z</time>
      </trkpt>
      <trkpt lat="50.45514" lon="1.80016">
        <ele>-18</ele>
        <time>2019-08-11T09:44:45Z</time>
      </trkpt>
      <trkpt lat="50.45506" lon="1.80041">
        <ele>-19</ele>
        <time>2019-08-11T09:44:48Z</time>
      </trkpt>
      <trkpt lat="50.45498" lon="1.80067">
        <ele>-19</ele>
        <time>2019-08-11T09:44:51Z</time>
      </trkpt>
      <trkpt lat="50.45493" lon="1.80084">
        <ele>-19</ele>
        <time>2019-08-11T09:44:53Z</time>
      </trkpt>
      <trkpt lat="50.45484" lon="1.80111">
        <ele>-19</ele>
        <time>2019-08-11T09:44:56Z</time>
      </trkpt>
      <trkpt lat="50.45477" lon="1.80128">
        <ele>-20</ele>
        <time>2019-08-11T09:44:58Z</time>
      </trkpt>
      <trkpt lat="50.45471" lon="1.80145">
        <ele>-20</ele>
        <time>2019-08-11T09:45:00Z</time>
      </trkpt>
      <trkpt lat="50.45464" lon="1.80162">
        <ele>-20</ele>
        <time>2019-08-11T09:45:03Z</time>
      </trkpt>
      <trkpt lat="50.45454" lon="1.80188">
        <ele>-20</ele>
        <time>2019-08-11T09:45:05Z</time>
      </trkpt>
      <trkpt lat="50.45446" lon="1.80204">
        <ele>-20</ele>
        <time>2019-08-11T09:45:08Z</time>
      </trkpt>
      <trkpt lat="50.45433" lon="1.80228">
        <ele>-20</ele>
        <time>2019-08-11T09:45:11Z</time>
      </trkpt>
      <trkpt lat="50.4542" lon="1.80252">
        <ele>-20</ele>
        <time>2019-08-11T09:45:13Z</time>
      </trkpt>
      <trkpt lat="50.45407" lon="1.80275">
        <ele>-20</ele>
        <time>2019-08-11T09:45:16Z</time>
      </trkpt>
      <trkpt lat="50.45393" lon="1.80299">
        <ele>-20</ele>
        <time>2019-08-11T09:45:19Z</time>
      </trkpt>
      <trkpt lat="50.45385" lon="1.80315">
        <ele>-20</ele>
        <time>2019-08-11T09:45:21Z</time>
      </trkpt>
      <trkpt lat="50.45371" lon="1.80338">
        <ele>-20</ele>
        <time>2019-08-11T09:45:24Z</time>
      </trkpt>
      <trkpt lat="50.45362" lon="1.80354">
        <ele>-20</ele>
        <time>2019-08-11T09:45:26Z</time>
      </trkpt>
      <trkpt lat="50.45353" lon="1.8037">
        <ele>-20</ele>
        <time>2019-08-11T09:45:28Z</time>
      </trkpt>
      <trkpt lat="50.45345" lon="1.80385">
        <ele>-20</ele>
        <time>2019-08-11T09:45:30Z</time>
      </trkpt>
      <trkpt lat="50.45332" lon="1.80407">
        <ele>-20</ele>
        <time>2019-08-11T09:45:33Z</time>
      </trkpt>
      <trkpt lat="50.45324" lon="1.80421">
        <ele>-20</ele>
        <time>2019-08-11T09:45:35Z</time>
      </trkpt>
      <trkpt lat="50.45315" lon="1.80436">
        <ele>-20</ele>
        <time>2019-08-11T09:45:37Z</time>
      </trkpt>
      <trkpt lat="50.45307" lon="1.80451">
        <ele>-20</ele>
        <time>2019-08-11T09:45:39Z</time>
      </trkpt>
      <trkpt lat="50.45295" lon="1.80473">
        <ele>-20</ele>
        <time>2019-08-11T09:45:42Z</time>
      </trkpt>
      <trkpt lat="50.45283" lon="1.80494">
        <ele>-19</ele>
        <time>2019-08-11T09:45:45Z</time>
      </trkpt>
      <trkpt lat="50.45271" lon="1.80516">
        <ele>-19</ele>
        <time>2019-08-11T09:45:48Z</time>
      </trkpt>
      <trkpt lat="50.45264" lon="1.80531">
        <ele>-19</ele>
        <time>2019-08-11T09:45:50Z</time>
      </trkpt>
      <trkpt lat="50.45257" lon="1.80544">
        <ele>-18</ele>
        <time>2019-08-11T09:45:52Z</time>
      </trkpt>
      <trkpt lat="50.45251" lon="1.80558">
        <ele>-18</ele>
        <time>2019-08-11T09:45:55Z</time>
      </trkpt>
      <trkpt lat="50.45243" lon="1.80578">
        <ele>-18</ele>
        <time>2019-08-11T09:45:57Z</time>
      </trkpt>
      <trkpt lat="50.45238" lon="1.8059">
        <ele>-18</ele>
        <time>2019-08-11T09:45:59Z</time>
      </trkpt>
      <trkpt lat="50.45234" lon="1.80601">
        <ele>-18</ele>
        <time>2019-08-11T09:46:01Z</time>
      </trkpt>
      <trkpt lat="50.45228" lon="1.80618">
        <ele>-17</ele>
        <time>2019-08-11T09:46:04Z</time>
      </trkpt>
      <trkpt lat="50.45224" lon="1.80629">
        <ele>-17</ele>
        <time>2019-08-11T09:46:06Z</time>
      </trkpt>
      <trkpt lat="50.45221" lon="1.8064">
        <ele>-17</ele>
        <time>2019-08-11T09:46:08Z</time>
      </trkpt>
      <trkpt lat="50.45216" lon="1.80656">
        <ele>-16</ele>
        <time>2019-08-11T09:46:11Z</time>
      </trkpt>
      <trkpt lat="50.45211" lon="1.80672">
        <ele>-16</ele>
        <time>2019-08-11T09:46:14Z</time>
      </trkpt>
      <trkpt lat="50.45208" lon="1.80684">
        <ele>-15</ele>
        <time>2019-08-11T09:46:16Z</time>
      </trkpt>
      <trkpt lat="50.45203" lon="1.80702">
        <ele>-15</ele>
        <time>2019-08-11T09:46:19Z</time>
      </trkpt>
      <trkpt lat="50.452" lon="1.80715">
        <ele>-15</ele>
        <time>2019-08-11T09:46:21Z</time>
      </trkpt>
      <trkpt lat="50.45194" lon="1.80735">
        <ele>-15</ele>
        <time>2019-08-11T09:46:24Z</time>
      </trkpt>
      <trkpt lat="50.4519" lon="1.80749">
        <ele>-15</ele>
        <time>2019-08-11T09:46:26Z</time>
      </trkpt>
      <trkpt lat="50.45184" lon="1.80773">
        <ele>-15</ele>
        <time>2019-08-11T09:46:29Z</time>
      </trkpt>
      <trkpt lat="50.4518" lon="1.80789">
        <ele>-15</ele>
        <time>2019-08-11T09:46:31Z</time>
      </trkpt>
      <trkpt lat="50.45173" lon="1.80814">
        <ele>-15</ele>
        <time>2019-08-11T09:46:34Z</time>
      </trkpt>
      <trkpt lat="50.45169" lon="1.80831">
        <ele>-15</ele>
        <time>2019-08-11T09:46:37Z</time>
      </trkpt>
      <trkpt lat="50.45162" lon="1.80858">
        <ele>-16</ele>
        <time>2019-08-11T09:46:39Z</time>
      </trkpt>
      <trkpt lat="50.45155" lon="1.80884">
        <ele>-16</ele>
        <time>2019-08-11T09:46:42Z</time>
      </trkpt>
      <trkpt lat="50.45148" lon="1.8091">
        <ele>-16</ele>
        <time>2019-08-11T09:46:45Z</time>
      </trkpt>
      <trkpt lat="50.45141" lon="1.80937">
        <ele>-15</ele>
        <time>2019-08-11T09:46:48Z</time>
      </trkpt>
      <trkpt lat="50.45136" lon="1.80954">
        <ele>-16</ele>
        <time>2019-08-11T09:46:50Z</time>
      </trkpt>
      <trkpt lat="50.45128" lon="1.80981">
        <ele>-16</ele>
        <time>2019-08-11T09:46:53Z</time>
      </trkpt>
      <trkpt lat="50.4512" lon="1.81008">
        <ele>-16</ele>
        <time>2019-08-11T09:46:56Z</time>
      </trkpt>
      <trkpt lat="50.45115" lon="1.81025">
        <ele>-16</ele>
        <time>2019-08-11T09:46:58Z</time>
      </trkpt>
      <trkpt lat="50.4511" lon="1.81043">
        <ele>-16</ele>
        <time>2019-08-11T09:47:00Z</time>
      </trkpt>
      <trkpt lat="50.45102" lon="1.81067">
        <ele>-16</ele>
        <time>2019-08-11T09:47:03Z</time>
      </trkpt>
      <trkpt lat="50.45097" lon="1.81082">
        <ele>-16</ele>
        <time>2019-08-11T09:47:05Z</time>
      </trkpt>
      <trkpt lat="50.4509" lon="1.81105">
        <ele>-16</ele>
        <time>2019-08-11T09:47:08Z</time>
      </trkpt>
      <trkpt lat="50.45084" lon="1.81128">
        <ele>-16</ele>
        <time>2019-08-11T09:47:11Z</time>
      </trkpt>
      <trkpt lat="50.45079" lon="1.81142">
        <ele>-15</ele>
        <time>2019-08-11T09:47:13Z</time>
      </trkpt>
      <trkpt lat="50.45075" lon="1.81158">
        <ele>-15</ele>
        <time>2019-08-11T09:47:15Z</time>
      </trkpt>
      <trkpt lat="50.45071" lon="1.81173">
        <ele>-15</ele>
        <time>2019-08-11T09:47:17Z</time>
      </trkpt>
      <trkpt lat="50.45067" lon="1.81187">
        <ele>-15</ele>
        <time>2019-08-11T09:47:19Z</time>
      </trkpt>
      <trkpt lat="50.45063" lon="1.81202">
        <ele>-14</ele>
        <time>2019-08-11T09:47:21Z</time>
      </trkpt>
      <trkpt lat="50.45057" lon="1.81224">
        <ele>-14</ele>
        <time>2019-08-11T09:47:24Z</time>
      </trkpt>
      <trkpt lat="50.45053" lon="1.8124">
        <ele>-14</ele>
        <time>2019-08-11T09:47:27Z</time>
      </trkpt>
      <trkpt lat="50.45048" lon="1.81264">
        <ele>-14</ele>
        <time>2019-08-11T09:47:29Z</time>
      </trkpt>
      <trkpt lat="50.45044" lon="1.8128">
        <ele>-14</ele>
        <time>2019-08-11T09:47:31Z</time>
      </trkpt>
      <trkpt lat="50.45039" lon="1.81305">
        <ele>-14</ele>
        <time>2019-08-11T09:47:34Z</time>
      </trkpt>
      <trkpt lat="50.45035" lon="1.81321">
        <ele>-14</ele>
        <time>2019-08-11T09:47:36Z</time>
      </trkpt>
      <trkpt lat="50.45031" lon="1.81337">
        <ele>-14</ele>
        <time>2019-08-11T09:47:38Z</time>
      </trkpt>
      <trkpt lat="50.45027" lon="1.81354">
        <ele>-14</ele>
        <time>2019-08-11T09:47:40Z</time>
      </trkpt>
      <trkpt lat="50.45024" lon="1.8137">
        <ele>-14</ele>
        <time>2019-08-11T09:47:42Z</time>
      </trkpt>
      <trkpt lat="50.4502" lon="1.81386">
        <ele>-14</ele>
        <time>2019-08-11T09:47:45Z</time>
      </trkpt>
      <trkpt lat="50.45015" lon="1.81411">
        <ele>-14</ele>
        <time>2019-08-11T09:47:48Z</time>
      </trkpt>
      <trkpt lat="50.4501" lon="1.81435">
        <ele>-13</ele>
        <time>2019-08-11T09:47:51Z</time>
      </trkpt>
      <trkpt lat="50.45004" lon="1.81459">
        <ele>-12</ele>
        <time>2019-08-11T09:47:53Z</time>
      </trkpt>
      <trkpt lat="50.45" lon="1.81475">
        <ele>-12</ele>
        <time>2019-08-11T09:47:55Z</time>
      </trkpt>
      <trkpt lat="50.44995" lon="1.81498">
        <ele>-11</ele>
        <time>2019-08-11T09:47:58Z</time>
      </trkpt>
      <trkpt lat="50.44992" lon="1.81512">
        <ele>-11</ele>
        <time>2019-08-11T09:48:01Z</time>
      </trkpt>
      <trkpt lat="50.44986" lon="1.81533">
        <ele>-11</ele>
        <time>2019-08-11T09:48:03Z</time>
      </trkpt>
      <trkpt lat="50.44983" lon="1.81546">
        <ele>-11</ele>
        <time>2019-08-11T09:48:05Z</time>
      </trkpt>
      <trkpt lat="50.4498" lon="1.8156">
        <ele>-11</ele>
        <time>2019-08-11T09:48:07Z</time>
      </trkpt>
      <trkpt lat="50.44976" lon="1.81573">
        <ele>-10</ele>
        <time>2019-08-11T09:48:09Z</time>
      </trkpt>
      <trkpt lat="50.44973" lon="1.81586">
        <ele>-10</ele>
        <time>2019-08-11T09:48:11Z</time>
      </trkpt>
      <trkpt lat="50.44969" lon="1.81599">
        <ele>-10</ele>
        <time>2019-08-11T09:48:13Z</time>
      </trkpt>
      <trkpt lat="50.44966" lon="1.81612">
        <ele>-9</ele>
        <time>2019-08-11T09:48:15Z</time>
      </trkpt>
      <trkpt lat="50.44963" lon="1.81625">
        <ele>-9</ele>
        <time>2019-08-11T09:48:18Z</time>
      </trkpt>
      <trkpt lat="50.44957" lon="1.81644">
        <ele>-9</ele>
        <time>2019-08-11T09:48:20Z</time>
      </trkpt>
      <trkpt lat="50.44955" lon="1.81657">
        <ele>-8</ele>
        <time>2019-08-11T09:48:22Z</time>
      </trkpt>
      <trkpt lat="50.4495" lon="1.81675">
        <ele>-8</ele>
        <time>2019-08-11T09:48:25Z</time>
      </trkpt>
      <trkpt lat="50.44947" lon="1.81688">
        <ele>-7</ele>
        <time>2019-08-11T09:48:27Z</time>
      </trkpt>
      <trkpt lat="50.44944" lon="1.817">
        <ele>-7</ele>
        <time>2019-08-11T09:48:29Z</time>
      </trkpt>
      <trkpt lat="50.44938" lon="1.8172">
        <ele>-7</ele>
        <time>2019-08-11T09:48:32Z</time>
      </trkpt>
      <trkpt lat="50.44935" lon="1.81733">
        <ele>-7</ele>
        <time>2019-08-11T09:48:35Z</time>
      </trkpt>
      <trkpt lat="50.44929" lon="1.81754">
        <ele>-7</ele>
        <time>2019-08-11T09:48:37Z</time>
      </trkpt>
      <trkpt lat="50.44922" lon="1.81776">
        <ele>-7</ele>
        <time>2019-08-11T09:48:40Z</time>
      </trkpt>
      <trkpt lat="50.44917" lon="1.81791">
        <ele>-7</ele>
        <time>2019-08-11T09:48:42Z</time>
      </trkpt>
      <trkpt lat="50.44911" lon="1.81807">
        <ele>-7</ele>
        <time>2019-08-11T09:48:44Z</time>
      </trkpt>
      <trkpt lat="50.44901" lon="1.81832">
        <ele>-7</ele>
        <time>2019-08-11T09:48:47Z</time>
      </trkpt>
      <trkpt lat="50.44894" lon="1.81849">
        <ele>-7</ele>
        <time>2019-08-11T09:48:49Z</time>
      </trkpt>
      <trkpt lat="50.44887" lon="1.81867">
        <ele>-7</ele>
        <time>2019-08-11T09:48:51Z</time>
      </trkpt>
      <trkpt lat="50.4488" lon="1.81886">
        <ele>-7</ele>
        <time>2019-08-11T09:48:53Z</time>
      </trkpt>
      <trkpt lat="50.44868" lon="1.81915">
        <ele>-8</ele>
        <time>2019-08-11T09:48:56Z</time>
      </trkpt>
      <trkpt lat="50.44856" lon="1.81947">
        <ele>-9</ele>
        <time>2019-08-11T09:48:59Z</time>
      </trkpt>
      <trkpt lat="50.44843" lon="1.81982">
        <ele>-10</ele>
        <time>2019-08-11T09:49:02Z</time>
      </trkpt>
      <trkpt lat="50.44833" lon="1.82007">
        <ele>-10</ele>
        <time>2019-08-11T09:49:04Z</time>
      </trkpt>
      <trkpt lat="50.44819" lon="1.82045">
        <ele>-12</ele>
        <time>2019-08-11T09:49:07Z</time>
      </trkpt>
      <trkpt lat="50.44809" lon="1.8207">
        <ele>-13</ele>
        <time>2019-08-11T09:49:09Z</time>
      </trkpt>
      <trkpt lat="50.44796" lon="1.82106">
        <ele>-14</ele>
        <time>2019-08-11T09:49:12Z</time>
      </trkpt>
      <trkpt lat="50.44787" lon="1.82128">
        <ele>-15</ele>
        <time>2019-08-11T09:49:15Z</time>
      </trkpt>
      <trkpt lat="50.44776" lon="1.82158">
        <ele>-15</ele>
        <time>2019-08-11T09:49:17Z</time>
      </trkpt>
      <trkpt lat="50.44766" lon="1.82185">
        <ele>-15</ele>
        <time>2019-08-11T09:49:20Z</time>
      </trkpt>
      <trkpt lat="50.44758" lon="1.82208">
        <ele>-14</ele>
        <time>2019-08-11T09:49:23Z</time>
      </trkpt>
      <trkpt lat="50.4475" lon="1.82229">
        <ele>-14</ele>
        <time>2019-08-11T09:49:26Z</time>
      </trkpt>
      <trkpt lat="50.44743" lon="1.82247">
        <ele>-13</ele>
        <time>2019-08-11T09:49:29Z</time>
      </trkpt>
      <trkpt lat="50.44736" lon="1.82266">
        <ele>-13</ele>
        <time>2019-08-11T09:49:32Z</time>
      </trkpt>
      <trkpt lat="50.4473" lon="1.82285">
        <ele>-12</ele>
        <time>2019-08-11T09:49:35Z</time>
      </trkpt>
      <trkpt lat="50.44723" lon="1.82304">
        <ele>-11</ele>
        <time>2019-08-11T09:49:38Z</time>
      </trkpt>
      <trkpt lat="50.44719" lon="1.82316">
        <ele>-11</ele>
        <time>2019-08-11T09:49:41Z</time>
      </trkpt>
      <trkpt lat="50.44712" lon="1.82334">
        <ele>-10</ele>
        <time>2019-08-11T09:49:43Z</time>
      </trkpt>
      <trkpt lat="50.44706" lon="1.82353">
        <ele>-9</ele>
        <time>2019-08-11T09:49:46Z</time>
      </trkpt>
      <trkpt lat="50.44702" lon="1.82364">
        <ele>-9</ele>
        <time>2019-08-11T09:49:48Z</time>
      </trkpt>
      <trkpt lat="50.44698" lon="1.82376">
        <ele>-9</ele>
        <time>2019-08-11T09:49:50Z</time>
      </trkpt>
      <trkpt lat="50.44691" lon="1.82394">
        <ele>-9</ele>
        <time>2019-08-11T09:49:53Z</time>
      </trkpt>
      <trkpt lat="50.44685" lon="1.82412">
        <ele>-9</ele>
        <time>2019-08-11T09:49:56Z</time>
      </trkpt>
      <trkpt lat="50.4468" lon="1.82425">
        <ele>-9</ele>
        <time>2019-08-11T09:49:58Z</time>
      </trkpt>
      <trkpt lat="50.44674" lon="1.82443">
        <ele>-8</ele>
        <time>2019-08-11T09:50:01Z</time>
      </trkpt>
      <trkpt lat="50.44669" lon="1.82456">
        <ele>-8</ele>
        <time>2019-08-11T09:50:03Z</time>
      </trkpt>
      <trkpt lat="50.44662" lon="1.82475">
        <ele>-8</ele>
        <time>2019-08-11T09:50:06Z</time>
      </trkpt>
      <trkpt lat="50.44656" lon="1.82497">
        <ele>-9</ele>
        <time>2019-08-11T09:50:09Z</time>
      </trkpt>
      <trkpt lat="50.44651" lon="1.82512">
        <ele>-8</ele>
        <time>2019-08-11T09:50:11Z</time>
      </trkpt>
      <trkpt lat="50.44645" lon="1.82535">
        <ele>-8</ele>
        <time>2019-08-11T09:50:14Z</time>
      </trkpt>
      <trkpt lat="50.44641" lon="1.82551">
        <ele>-7</ele>
        <time>2019-08-11T09:50:16Z</time>
      </trkpt>
      <trkpt lat="50.44637" lon="1.82568">
        <ele>-7</ele>
        <time>2019-08-11T09:50:18Z</time>
      </trkpt>
      <trkpt lat="50.44633" lon="1.82586">
        <ele>-7</ele>
        <time>2019-08-11T09:50:21Z</time>
      </trkpt>
      <trkpt lat="50.44627" lon="1.82614">
        <ele>-7</ele>
        <time>2019-08-11T09:50:23Z</time>
      </trkpt>
      <trkpt lat="50.44623" lon="1.82634">
        <ele>-8</ele>
        <time>2019-08-11T09:50:25Z</time>
      </trkpt>
      <trkpt lat="50.44619" lon="1.82653">
        <ele>-8</ele>
        <time>2019-08-11T09:50:27Z</time>
      </trkpt>
      <trkpt lat="50.44615" lon="1.82673">
        <ele>-8</ele>
        <time>2019-08-11T09:50:29Z</time>
      </trkpt>
      <trkpt lat="50.44608" lon="1.82702">
        <ele>-7</ele>
        <time>2019-08-11T09:50:32Z</time>
      </trkpt>
      <trkpt lat="50.44602" lon="1.82732">
        <ele>-7</ele>
        <time>2019-08-11T09:50:35Z</time>
      </trkpt>
      <trkpt lat="50.44598" lon="1.82752">
        <ele>-7</ele>
        <time>2019-08-11T09:50:37Z</time>
      </trkpt>
      <trkpt lat="50.44592" lon="1.82782">
        <ele>-8</ele>
        <time>2019-08-11T09:50:40Z</time>
      </trkpt>
      <trkpt lat="50.44585" lon="1.82813">
        <ele>-9</ele>
        <time>2019-08-11T09:50:43Z</time>
      </trkpt>
      <trkpt lat="50.44579" lon="1.82833">
        <ele>-9</ele>
        <time>2019-08-11T09:50:45Z</time>
      </trkpt>
      <trkpt lat="50.44574" lon="1.82852">
        <ele>-9</ele>
        <time>2019-08-11T09:50:47Z</time>
      </trkpt>
      <trkpt lat="50.44563" lon="1.8288">
        <ele>-9</ele>
        <time>2019-08-11T09:50:50Z</time>
      </trkpt>
      <trkpt lat="50.44552" lon="1.82906">
        <ele>-9</ele>
        <time>2019-08-11T09:50:53Z</time>
      </trkpt>
      <trkpt lat="50.4454" lon="1.8293">
        <ele>-9</ele>
        <time>2019-08-11T09:50:56Z</time>
      </trkpt>
      <trkpt lat="50.44532" lon="1.82945">
        <ele>-8</ele>
        <time>2019-08-11T09:50:59Z</time>
      </trkpt>
      <trkpt lat="50.44521" lon="1.82967">
        <ele>-8</ele>
        <time>2019-08-11T09:51:01Z</time>
      </trkpt>
      <trkpt lat="50.44513" lon="1.82982">
        <ele>-8</ele>
        <time>2019-08-11T09:51:03Z</time>
      </trkpt>
      <trkpt lat="50.44505" lon="1.82996">
        <ele>-8</ele>
        <time>2019-08-11T09:51:05Z</time>
      </trkpt>
      <trkpt lat="50.44498" lon="1.83009">
        <ele>-7</ele>
        <time>2019-08-11T09:51:07Z</time>
      </trkpt>
      <trkpt lat="50.44491" lon="1.83023">
        <ele>-7</ele>
        <time>2019-08-11T09:51:09Z</time>
      </trkpt>
      <trkpt lat="50.44484" lon="1.83036">
        <ele>-7</ele>
        <time>2019-08-11T09:51:11Z</time>
      </trkpt>
      <trkpt lat="50.44474" lon="1.83055">
        <ele>-6</ele>
        <time>2019-08-11T09:51:14Z</time>
      </trkpt>
      <trkpt lat="50.44464" lon="1.83074">
        <ele>-6</ele>
        <time>2019-08-11T09:51:17Z</time>
      </trkpt>
      <trkpt lat="50.44458" lon="1.83088">
        <ele>-5</ele>
        <time>2019-08-11T09:51:19Z</time>
      </trkpt>
      <trkpt lat="50.44452" lon="1.83101">
        <ele>-5</ele>
        <time>2019-08-11T09:51:21Z</time>
      </trkpt>
      <trkpt lat="50.44447" lon="1.83114">
        <ele>-5</ele>
        <time>2019-08-11T09:51:23Z</time>
      </trkpt>
      <trkpt lat="50.44439" lon="1.83136">
        <ele>-5</ele>
        <time>2019-08-11T09:51:26Z</time>
      </trkpt>
      <trkpt lat="50.44435" lon="1.83152">
        <ele>-6</ele>
        <time>2019-08-11T09:51:28Z</time>
      </trkpt>
      <trkpt lat="50.44431" lon="1.83169">
        <ele>-6</ele>
        <time>2019-08-11T09:51:31Z</time>
      </trkpt>
      <trkpt lat="50.44425" lon="1.83197">
        <ele>-6</ele>
        <time>2019-08-11T09:51:33Z</time>
      </trkpt>
      <trkpt lat="50.44419" lon="1.83228">
        <ele>-6</ele>
        <time>2019-08-11T09:51:36Z</time>
      </trkpt>
      <trkpt lat="50.44414" lon="1.83249">
        <ele>-7</ele>
        <time>2019-08-11T09:51:38Z</time>
      </trkpt>
      <trkpt lat="50.4441" lon="1.83271">
        <ele>-7</ele>
        <time>2019-08-11T09:51:40Z</time>
      </trkpt>
      <trkpt lat="50.44404" lon="1.83293">
        <ele>-8</ele>
        <time>2019-08-11T09:51:42Z</time>
      </trkpt>
      <trkpt lat="50.44394" lon="1.83326">
        <ele>-9</ele>
        <time>2019-08-11T09:51:45Z</time>
      </trkpt>
      <trkpt lat="50.44383" lon="1.83361">
        <ele>-9</ele>
        <time>2019-08-11T09:51:48Z</time>
      </trkpt>
      <trkpt lat="50.44376" lon="1.83385">
        <ele>-9</ele>
        <time>2019-08-11T09:51:50Z</time>
      </trkpt>
      <trkpt lat="50.44369" lon="1.83409">
        <ele>-9</ele>
        <time>2019-08-11T09:51:52Z</time>
      </trkpt>
      <trkpt lat="50.44364" lon="1.83433">
        <ele>-9</ele>
        <time>2019-08-11T09:51:54Z</time>
      </trkpt>
      <trkpt lat="50.44361" lon="1.83459">
        <ele>-9</ele>
        <time>2019-08-11T09:51:56Z</time>
      </trkpt>
      <trkpt lat="50.44358" lon="1.83486">
        <ele>-9</ele>
        <time>2019-08-11T09:51:58Z</time>
      </trkpt>
      <trkpt lat="50.4435" lon="1.83523">
        <ele>-10</ele>
        <time>2019-08-11T09:52:01Z</time>
      </trkpt>
      <trkpt lat="50.44341" lon="1.83558">
        <ele>-10</ele>
        <time>2019-08-11T09:52:04Z</time>
      </trkpt>
      <trkpt lat="50.44331" lon="1.83591">
        <ele>-10</ele>
        <time>2019-08-11T09:52:07Z</time>
      </trkpt>
      <trkpt lat="50.44321" lon="1.83623">
        <ele>-10</ele>
        <time>2019-08-11T09:52:10Z</time>
      </trkpt>
      <trkpt lat="50.44313" lon="1.83644">
        <ele>-10</ele>
        <time>2019-08-11T09:52:12Z</time>
      </trkpt>
      <trkpt lat="50.44305" lon="1.83664">
        <ele>-10</ele>
        <time>2019-08-11T09:52:14Z</time>
      </trkpt>
      <trkpt lat="50.44292" lon="1.83693">
        <ele>-11</ele>
        <time>2019-08-11T09:52:17Z</time>
      </trkpt>
      <trkpt lat="50.44283" lon="1.83712">
        <ele>-11</ele>
        <time>2019-08-11T09:52:19Z</time>
      </trkpt>
      <trkpt lat="50.44274" lon="1.83731">
        <ele>-11</ele>
        <time>2019-08-11T09:52:22Z</time>
      </trkpt>
      <trkpt lat="50.4426" lon="1.83759">
        <ele>-11</ele>
        <time>2019-08-11T09:52:24Z</time>
      </trkpt>
      <trkpt lat="50.4425" lon="1.83777">
        <ele>-10</ele>
        <time>2019-08-11T09:52:26Z</time>
      </trkpt>
      <trkpt lat="50.4424" lon="1.83795">
        <ele>-11</ele>
        <time>2019-08-11T09:52:28Z</time>
      </trkpt>
      <trkpt lat="50.44226" lon="1.83823">
        <ele>-11</ele>
        <time>2019-08-11T09:52:31Z</time>
      </trkpt>
      <trkpt lat="50.44212" lon="1.8385">
        <ele>-12</ele>
        <time>2019-08-11T09:52:34Z</time>
      </trkpt>
      <trkpt lat="50.44202" lon="1.83868">
        <ele>-12</ele>
        <time>2019-08-11T09:52:36Z</time>
      </trkpt>
      <trkpt lat="50.44194" lon="1.83886">
        <ele>-11</ele>
        <time>2019-08-11T09:52:39Z</time>
      </trkpt>
      <trkpt lat="50.44179" lon="1.83913">
        <ele>-11</ele>
        <time>2019-08-11T09:52:41Z</time>
      </trkpt>
      <trkpt lat="50.44164" lon="1.83938">
        <ele>-11</ele>
        <time>2019-08-11T09:52:44Z</time>
      </trkpt>
      <trkpt lat="50.44155" lon="1.83955">
        <ele>-11</ele>
        <time>2019-08-11T09:52:46Z</time>
      </trkpt>
      <trkpt lat="50.44147" lon="1.83972">
        <ele>-12</ele>
        <time>2019-08-11T09:52:48Z</time>
      </trkpt>
      <trkpt lat="50.44139" lon="1.83988">
        <ele>-12</ele>
        <time>2019-08-11T09:52:50Z</time>
      </trkpt>
      <trkpt lat="50.44132" lon="1.84005">
        <ele>-11</ele>
        <time>2019-08-11T09:52:52Z</time>
      </trkpt>
      <trkpt lat="50.44125" lon="1.84021">
        <ele>-11</ele>
        <time>2019-08-11T09:52:55Z</time>
      </trkpt>
      <trkpt lat="50.44115" lon="1.84046">
        <ele>-11</ele>
        <time>2019-08-11T09:52:57Z</time>
      </trkpt>
      <trkpt lat="50.44109" lon="1.84061">
        <ele>-10</ele>
        <time>2019-08-11T09:52:59Z</time>
      </trkpt>
      <trkpt lat="50.441" lon="1.84085">
        <ele>-10</ele>
        <time>2019-08-11T09:53:02Z</time>
      </trkpt>
      <trkpt lat="50.4409" lon="1.84109">
        <ele>-11</ele>
        <time>2019-08-11T09:53:05Z</time>
      </trkpt>
      <trkpt lat="50.44084" lon="1.84125">
        <ele>-11</ele>
        <time>2019-08-11T09:53:08Z</time>
      </trkpt>
      <trkpt lat="50.44073" lon="1.84151">
        <ele>-11</ele>
        <time>2019-08-11T09:53:10Z</time>
      </trkpt>
      <trkpt lat="50.44062" lon="1.84178">
        <ele>-11</ele>
        <time>2019-08-11T09:53:13Z</time>
      </trkpt>
      <trkpt lat="50.44055" lon="1.84196">
        <ele>-11</ele>
        <time>2019-08-11T09:53:15Z</time>
      </trkpt>
      <trkpt lat="50.44048" lon="1.84214">
        <ele>-11</ele>
        <time>2019-08-11T09:53:17Z</time>
      </trkpt>
      <trkpt lat="50.44041" lon="1.84231">
        <ele>-10</ele>
        <time>2019-08-11T09:53:19Z</time>
      </trkpt>
      <trkpt lat="50.44034" lon="1.84248">
        <ele>-10</ele>
        <time>2019-08-11T09:53:22Z</time>
      </trkpt>
      <trkpt lat="50.44024" lon="1.84274">
        <ele>-10</ele>
        <time>2019-08-11T09:53:24Z</time>
      </trkpt>
      <trkpt lat="50.44014" lon="1.84301">
        <ele>-10</ele>
        <time>2019-08-11T09:53:27Z</time>
      </trkpt>
      <trkpt lat="50.44007" lon="1.84318">
        <ele>-11</ele>
        <time>2019-08-11T09:53:29Z</time>
      </trkpt>
      <trkpt lat="50.43997" lon="1.84345">
        <ele>-12</ele>
        <time>2019-08-11T09:53:32Z</time>
      </trkpt>
      <trkpt lat="50.43991" lon="1.84363">
        <ele>-13</ele>
        <time>2019-08-11T09:53:34Z</time>
      </trkpt>
      <trkpt lat="50.4398" lon="1.8439">
        <ele>-13</ele>
        <time>2019-08-11T09:53:37Z</time>
      </trkpt>
      <trkpt lat="50.4397" lon="1.84417">
        <ele>-13</ele>
        <time>2019-08-11T09:53:40Z</time>
      </trkpt>
      <trkpt lat="50.43961" lon="1.84443">
        <ele>-13</ele>
        <time>2019-08-11T09:53:43Z</time>
      </trkpt>
      <trkpt lat="50.43955" lon="1.8446">
        <ele>-12</ele>
        <time>2019-08-11T09:53:45Z</time>
      </trkpt>
      <trkpt lat="50.43946" lon="1.84485">
        <ele>-12</ele>
        <time>2019-08-11T09:53:48Z</time>
      </trkpt>
      <trkpt lat="50.43937" lon="1.84509">
        <ele>-12</ele>
        <time>2019-08-11T09:53:51Z</time>
      </trkpt>
      <trkpt lat="50.43929" lon="1.84532">
        <ele>-14</ele>
        <time>2019-08-11T09:53:54Z</time>
      </trkpt>
      <trkpt lat="50.43924" lon="1.84548">
        <ele>-14</ele>
        <time>2019-08-11T09:53:56Z</time>
      </trkpt>
      <trkpt lat="50.43919" lon="1.84564">
        <ele>-14</ele>
        <time>2019-08-11T09:53:59Z</time>
      </trkpt>
      <trkpt lat="50.43911" lon="1.84587">
        <ele>-14</ele>
        <time>2019-08-11T09:54:01Z</time>
      </trkpt>
      <trkpt lat="50.43905" lon="1.84602">
        <ele>-14</ele>
        <time>2019-08-11T09:54:03Z</time>
      </trkpt>
      <trkpt lat="50.43898" lon="1.84624">
        <ele>-14</ele>
        <time>2019-08-11T09:54:06Z</time>
      </trkpt>
      <trkpt lat="50.43891" lon="1.84644">
        <ele>-14</ele>
        <time>2019-08-11T09:54:09Z</time>
      </trkpt>
      <trkpt lat="50.43887" lon="1.84659">
        <ele>-14</ele>
        <time>2019-08-11T09:54:11Z</time>
      </trkpt>
      <trkpt lat="50.43882" lon="1.8468">
        <ele>-13</ele>
        <time>2019-08-11T09:54:14Z</time>
      </trkpt>
      <trkpt lat="50.43876" lon="1.84701">
        <ele>-13</ele>
        <time>2019-08-11T09:54:17Z</time>
      </trkpt>
      <trkpt lat="50.4387" lon="1.84713">
        <ele>-13</ele>
        <time>2019-08-11T09:54:19Z</time>
      </trkpt>
      <trkpt lat="50.43863" lon="1.84734">
        <ele>-13</ele>
        <time>2019-08-11T09:54:22Z</time>
      </trkpt>
      <trkpt lat="50.43858" lon="1.84749">
        <ele>-13</ele>
        <time>2019-08-11T09:54:24Z</time>
      </trkpt>
      <trkpt lat="50.43853" lon="1.84764">
        <ele>-13</ele>
        <time>2019-08-11T09:54:27Z</time>
      </trkpt>
      <trkpt lat="50.43846" lon="1.84788">
        <ele>-13</ele>
        <time>2019-08-11T09:54:29Z</time>
      </trkpt>
      <trkpt lat="50.4384" lon="1.84804">
        <ele>-13</ele>
        <time>2019-08-11T09:54:31Z</time>
      </trkpt>
      <trkpt lat="50.43832" lon="1.8483">
        <ele>-13</ele>
        <time>2019-08-11T09:54:34Z</time>
      </trkpt>
      <trkpt lat="50.43826" lon="1.84847">
        <ele>-13</ele>
        <time>2019-08-11T09:54:36Z</time>
      </trkpt>
      <trkpt lat="50.4382" lon="1.84864">
        <ele>-13</ele>
        <time>2019-08-11T09:54:38Z</time>
      </trkpt>
      <trkpt lat="50.43814" lon="1.84881">
        <ele>-13</ele>
        <time>2019-08-11T09:54:41Z</time>
      </trkpt>
      <trkpt lat="50.43806" lon="1.84906">
        <ele>-13</ele>
        <time>2019-08-11T09:54:43Z</time>
      </trkpt>
      <trkpt lat="50.43801" lon="1.84922">
        <ele>-13</ele>
        <time>2019-08-11T09:54:45Z</time>
      </trkpt>
      <trkpt lat="50.43793" lon="1.84947">
        <ele>-13</ele>
        <time>2019-08-11T09:54:48Z</time>
      </trkpt>
      <trkpt lat="50.43787" lon="1.84964">
        <ele>-13</ele>
        <time>2019-08-11T09:54:50Z</time>
      </trkpt>
      <trkpt lat="50.43781" lon="1.84981">
        <ele>-13</ele>
        <time>2019-08-11T09:54:52Z</time>
      </trkpt>
      <trkpt lat="50.43772" lon="1.85008">
        <ele>-14</ele>
        <time>2019-08-11T09:54:55Z</time>
      </trkpt>
      <trkpt lat="50.43763" lon="1.85035">
        <ele>-14</ele>
        <time>2019-08-11T09:54:58Z</time>
      </trkpt>
      <trkpt lat="50.43757" lon="1.85053">
        <ele>-13</ele>
        <time>2019-08-11T09:55:00Z</time>
      </trkpt>
      <trkpt lat="50.4375" lon="1.85071">
        <ele>-13</ele>
        <time>2019-08-11T09:55:02Z</time>
      </trkpt>
      <trkpt lat="50.43744" lon="1.85089">
        <ele>-13</ele>
        <time>2019-08-11T09:55:05Z</time>
      </trkpt>
      <trkpt lat="50.43735" lon="1.85117">
        <ele>-14</ele>
        <time>2019-08-11T09:55:07Z</time>
      </trkpt>
      <trkpt lat="50.43729" lon="1.85135">
        <ele>-14</ele>
        <time>2019-08-11T09:55:09Z</time>
      </trkpt>
      <trkpt lat="50.43719" lon="1.85162">
        <ele>-13</ele>
        <time>2019-08-11T09:55:12Z</time>
      </trkpt>
      <trkpt lat="50.43713" lon="1.85179">
        <ele>-13</ele>
        <time>2019-08-11T09:55:14Z</time>
      </trkpt>
      <trkpt lat="50.43708" lon="1.85197">
        <ele>-13</ele>
        <time>2019-08-11T09:55:17Z</time>
      </trkpt>
      <trkpt lat="50.43699" lon="1.85223">
        <ele>-13</ele>
        <time>2019-08-11T09:55:19Z</time>
      </trkpt>
      <trkpt lat="50.4369" lon="1.85249">
        <ele>-13</ele>
        <time>2019-08-11T09:55:22Z</time>
      </trkpt>
      <trkpt lat="50.43685" lon="1.85266">
        <ele>-14</ele>
        <time>2019-08-11T09:55:24Z</time>
      </trkpt>
      <trkpt lat="50.43677" lon="1.85289">
        <ele>-14</ele>
        <time>2019-08-11T09:55:27Z</time>
      </trkpt>
      <trkpt lat="50.43672" lon="1.85305">
        <ele>-14</ele>
        <time>2019-08-11T09:55:30Z</time>
      </trkpt>
      <trkpt lat="50.43664" lon="1.85328">
        <ele>-14</ele>
        <time>2019-08-11T09:55:32Z</time>
      </trkpt>
      <trkpt lat="50.43656" lon="1.8535">
        <ele>-14</ele>
        <time>2019-08-11T09:55:35Z</time>
      </trkpt>
      <trkpt lat="50.43651" lon="1.85365">
        <ele>-14</ele>
        <time>2019-08-11T09:55:37Z</time>
      </trkpt>
      <trkpt lat="50.43646" lon="1.8538">
        <ele>-14</ele>
        <time>2019-08-11T09:55:39Z</time>
      </trkpt>
      <trkpt lat="50.43641" lon="1.85394">
        <ele>-14</ele>
        <time>2019-08-11T09:55:41Z</time>
      </trkpt>
      <trkpt lat="50.43634" lon="1.85416">
        <ele>-13</ele>
        <time>2019-08-11T09:55:44Z</time>
      </trkpt>
      <trkpt lat="50.43629" lon="1.85431">
        <ele>-13</ele>
        <time>2019-08-11T09:55:46Z</time>
      </trkpt>
      <trkpt lat="50.43622" lon="1.85452">
        <ele>-13</ele>
        <time>2019-08-11T09:55:49Z</time>
      </trkpt>
      <trkpt lat="50.43617" lon="1.85467">
        <ele>-13</ele>
        <time>2019-08-11T09:55:51Z</time>
      </trkpt>
      <trkpt lat="50.4361" lon="1.85487">
        <ele>-12</ele>
        <time>2019-08-11T09:55:54Z</time>
      </trkpt>
      <trkpt lat="50.43604" lon="1.85508">
        <ele>-12</ele>
        <time>2019-08-11T09:55:57Z</time>
      </trkpt>
      <trkpt lat="50.43597" lon="1.85529">
        <ele>-12</ele>
        <time>2019-08-11T09:56:00Z</time>
      </trkpt>
      <trkpt lat="50.43591" lon="1.85549">
        <ele>-12</ele>
        <time>2019-08-11T09:56:03Z</time>
      </trkpt>
      <trkpt lat="50.43585" lon="1.8557">
        <ele>-11</ele>
        <time>2019-08-11T09:56:06Z</time>
      </trkpt>
      <trkpt lat="50.43579" lon="1.85591">
        <ele>-11</ele>
        <time>2019-08-11T09:56:09Z</time>
      </trkpt>
      <trkpt lat="50.43574" lon="1.85612">
        <ele>-11</ele>
        <time>2019-08-11T09:56:12Z</time>
      </trkpt>
      <trkpt lat="50.43569" lon="1.85633">
        <ele>-10</ele>
        <time>2019-08-11T09:56:15Z</time>
      </trkpt>
      <trkpt lat="50.43565" lon="1.85648">
        <ele>-10</ele>
        <time>2019-08-11T09:56:17Z</time>
      </trkpt>
      <trkpt lat="50.43561" lon="1.8567">
        <ele>-10</ele>
        <time>2019-08-11T09:56:20Z</time>
      </trkpt>
      <trkpt lat="50.43557" lon="1.85686">
        <ele>-10</ele>
        <time>2019-08-11T09:56:22Z</time>
      </trkpt>
      <trkpt lat="50.43552" lon="1.8571">
        <ele>-10</ele>
        <time>2019-08-11T09:56:25Z</time>
      </trkpt>
      <trkpt lat="50.43547" lon="1.85734">
        <ele>-10</ele>
        <time>2019-08-11T09:56:28Z</time>
      </trkpt>
      <trkpt lat="50.43544" lon="1.85751">
        <ele>-10</ele>
        <time>2019-08-11T09:56:31Z</time>
      </trkpt>
      <trkpt lat="50.43538" lon="1.85775">
        <ele>-10</ele>
        <time>2019-08-11T09:56:33Z</time>
      </trkpt>
      <trkpt lat="50.43535" lon="1.85792">
        <ele>-10</ele>
        <time>2019-08-11T09:56:35Z</time>
      </trkpt>
      <trkpt lat="50.4353" lon="1.85816">
        <ele>-10</ele>
        <time>2019-08-11T09:56:38Z</time>
      </trkpt>
      <trkpt lat="50.43526" lon="1.85833">
        <ele>-10</ele>
        <time>2019-08-11T09:56:40Z</time>
      </trkpt>
      <trkpt lat="50.43522" lon="1.85858">
        <ele>-10</ele>
        <time>2019-08-11T09:56:43Z</time>
      </trkpt>
      <trkpt lat="50.43518" lon="1.85875">
        <ele>-10</ele>
        <time>2019-08-11T09:56:45Z</time>
      </trkpt>
      <trkpt lat="50.43515" lon="1.85894">
        <ele>-10</ele>
        <time>2019-08-11T09:56:47Z</time>
      </trkpt>
      <trkpt lat="50.43509" lon="1.85923">
        <ele>-11</ele>
        <time>2019-08-11T09:56:50Z</time>
      </trkpt>
      <trkpt lat="50.43505" lon="1.85942">
        <ele>-12</ele>
        <time>2019-08-11T09:56:52Z</time>
      </trkpt>
      <trkpt lat="50.43501" lon="1.85961">
        <ele>-12</ele>
        <time>2019-08-11T09:56:54Z</time>
      </trkpt>
      <trkpt lat="50.43496" lon="1.85991">
        <ele>-12</ele>
        <time>2019-08-11T09:56:57Z</time>
      </trkpt>
      <trkpt lat="50.43492" lon="1.8601">
        <ele>-12</ele>
        <time>2019-08-11T09:56:59Z</time>
      </trkpt>
      <trkpt lat="50.43486" lon="1.86038">
        <ele>-13</ele>
        <time>2019-08-11T09:57:02Z</time>
      </trkpt>
      <trkpt lat="50.43483" lon="1.86057">
        <ele>-13</ele>
        <time>2019-08-11T09:57:04Z</time>
      </trkpt>
      <trkpt lat="50.43478" lon="1.86084">
        <ele>-13</ele>
        <time>2019-08-11T09:57:07Z</time>
      </trkpt>
      <trkpt lat="50.43471" lon="1.8611">
        <ele>-13</ele>
        <time>2019-08-11T09:57:10Z</time>
      </trkpt>
      <trkpt lat="50.43462" lon="1.86135">
        <ele>-13</ele>
        <time>2019-08-11T09:57:13Z</time>
      </trkpt>
      <trkpt lat="50.43456" lon="1.86151">
        <ele>-13</ele>
        <time>2019-08-11T09:57:15Z</time>
      </trkpt>
      <trkpt lat="50.43446" lon="1.86174">
        <ele>-13</ele>
        <time>2019-08-11T09:57:18Z</time>
      </trkpt>
      <trkpt lat="50.4344" lon="1.86189">
        <ele>-13</ele>
        <time>2019-08-11T09:57:20Z</time>
      </trkpt>
      <trkpt lat="50.43433" lon="1.86204">
        <ele>-13</ele>
        <time>2019-08-11T09:57:23Z</time>
      </trkpt>
      <trkpt lat="50.43423" lon="1.86226">
        <ele>-13</ele>
        <time>2019-08-11T09:57:25Z</time>
      </trkpt>
      <trkpt lat="50.43413" lon="1.86248">
        <ele>-13</ele>
        <time>2019-08-11T09:57:28Z</time>
      </trkpt>
      <trkpt lat="50.43407" lon="1.86263">
        <ele>-13</ele>
        <time>2019-08-11T09:57:30Z</time>
      </trkpt>
      <trkpt lat="50.43397" lon="1.86285">
        <ele>-13</ele>
        <time>2019-08-11T09:57:33Z</time>
      </trkpt>
      <trkpt lat="50.43391" lon="1.86301">
        <ele>-13</ele>
        <time>2019-08-11T09:57:35Z</time>
      </trkpt>
      <trkpt lat="50.43386" lon="1.86316">
        <ele>-13</ele>
        <time>2019-08-11T09:57:37Z</time>
      </trkpt>
      <trkpt lat="50.43378" lon="1.86339">
        <ele>-13</ele>
        <time>2019-08-11T09:57:40Z</time>
      </trkpt>
      <trkpt lat="50.43373" lon="1.86355">
        <ele>-13</ele>
        <time>2019-08-11T09:57:43Z</time>
      </trkpt>
      <trkpt lat="50.43366" lon="1.86378">
        <ele>-13</ele>
        <time>2019-08-11T09:57:46Z</time>
      </trkpt>
      <trkpt lat="50.43359" lon="1.86402">
        <ele>-12</ele>
        <time>2019-08-11T09:57:48Z</time>
      </trkpt>
      <trkpt lat="50.43352" lon="1.86425">
        <ele>-12</ele>
        <time>2019-08-11T09:57:51Z</time>
      </trkpt>
      <trkpt lat="50.43348" lon="1.86441">
        <ele>-12</ele>
        <time>2019-08-11T09:57:53Z</time>
      </trkpt>
      <trkpt lat="50.43341" lon="1.86464">
        <ele>-12</ele>
        <time>2019-08-11T09:57:56Z</time>
      </trkpt>
      <trkpt lat="50.43334" lon="1.86487">
        <ele>-12</ele>
        <time>2019-08-11T09:57:59Z</time>
      </trkpt>
      <trkpt lat="50.43328" lon="1.8651">
        <ele>-12</ele>
        <time>2019-08-11T09:58:02Z</time>
      </trkpt>
      <trkpt lat="50.43322" lon="1.86533">
        <ele>-12</ele>
        <time>2019-08-11T09:58:05Z</time>
      </trkpt>
      <trkpt lat="50.43316" lon="1.86556">
        <ele>-12</ele>
        <time>2019-08-11T09:58:08Z</time>
      </trkpt>
      <trkpt lat="50.43311" lon="1.86571">
        <ele>-12</ele>
        <time>2019-08-11T09:58:10Z</time>
      </trkpt>
      <trkpt lat="50.43308" lon="1.86585">
        <ele>-12</ele>
        <time>2019-08-11T09:58:13Z</time>
      </trkpt>
      <trkpt lat="50.43302" lon="1.86608">
        <ele>-11</ele>
        <time>2019-08-11T09:58:15Z</time>
      </trkpt>
      <trkpt lat="50.43298" lon="1.86622">
        <ele>-11</ele>
        <time>2019-08-11T09:58:17Z</time>
      </trkpt>
      <trkpt lat="50.43294" lon="1.86637">
        <ele>-11</ele>
        <time>2019-08-11T09:58:19Z</time>
      </trkpt>
      <trkpt lat="50.4329" lon="1.86652">
        <ele>-10</ele>
        <time>2019-08-11T09:58:21Z</time>
      </trkpt>
      <trkpt lat="50.43286" lon="1.86666">
        <ele>-11</ele>
        <time>2019-08-11T09:58:23Z</time>
      </trkpt>
      <trkpt lat="50.43282" lon="1.86681">
        <ele>-10</ele>
        <time>2019-08-11T09:58:25Z</time>
      </trkpt>
      <trkpt lat="50.43276" lon="1.86703">
        <ele>-10</ele>
        <time>2019-08-11T09:58:28Z</time>
      </trkpt>
      <trkpt lat="50.43272" lon="1.86717">
        <ele>-10</ele>
        <time>2019-08-11T09:58:30Z</time>
      </trkpt>
      <trkpt lat="50.43266" lon="1.86739">
        <ele>-10</ele>
        <time>2019-08-11T09:58:33Z</time>
      </trkpt>
      <trkpt lat="50.43261" lon="1.86753">
        <ele>-10</ele>
        <time>2019-08-11T09:58:35Z</time>
      </trkpt>
      <trkpt lat="50.43257" lon="1.86768">
        <ele>-10</ele>
        <time>2019-08-11T09:58:37Z</time>
      </trkpt>
      <trkpt lat="50.4325" lon="1.86792">
        <ele>-10</ele>
        <time>2019-08-11T09:58:40Z</time>
      </trkpt>
      <trkpt lat="50.43245" lon="1.86808">
        <ele>-10</ele>
        <time>2019-08-11T09:58:42Z</time>
      </trkpt>
      <trkpt lat="50.43237" lon="1.86833">
        <ele>-10</ele>
        <time>2019-08-11T09:58:45Z</time>
      </trkpt>
      <trkpt lat="50.43231" lon="1.86849">
        <ele>-10</ele>
        <time>2019-08-11T09:58:47Z</time>
      </trkpt>
      <trkpt lat="50.43225" lon="1.86867">
        <ele>-11</ele>
        <time>2019-08-11T09:58:49Z</time>
      </trkpt>
      <trkpt lat="50.43216" lon="1.86893">
        <ele>-11</ele>
        <time>2019-08-11T09:58:52Z</time>
      </trkpt>
      <trkpt lat="50.43207" lon="1.86919">
        <ele>-11</ele>
        <time>2019-08-11T09:58:55Z</time>
      </trkpt>
      <trkpt lat="50.43201" lon="1.86937">
        <ele>-11</ele>
        <time>2019-08-11T09:58:57Z</time>
      </trkpt>
      <trkpt lat="50.43192" lon="1.86962">
        <ele>-11</ele>
        <time>2019-08-11T09:59:00Z</time>
      </trkpt>
      <trkpt lat="50.43185" lon="1.86978">
        <ele>-11</ele>
        <time>2019-08-11T09:59:02Z</time>
      </trkpt>
      <trkpt lat="50.43178" lon="1.86994">
        <ele>-11</ele>
        <time>2019-08-11T09:59:04Z</time>
      </trkpt>
      <trkpt lat="50.43171" lon="1.87009">
        <ele>-11</ele>
        <time>2019-08-11T09:59:07Z</time>
      </trkpt>
      <trkpt lat="50.43161" lon="1.87031">
        <ele>-11</ele>
        <time>2019-08-11T09:59:09Z</time>
      </trkpt>
      <trkpt lat="50.43153" lon="1.87045">
        <ele>-11</ele>
        <time>2019-08-11T09:59:11Z</time>
      </trkpt>
      <trkpt lat="50.43146" lon="1.87059">
        <ele>-11</ele>
        <time>2019-08-11T09:59:13Z</time>
      </trkpt>
      <trkpt lat="50.43139" lon="1.87073">
        <ele>-11</ele>
        <time>2019-08-11T09:59:15Z</time>
      </trkpt>
      <trkpt lat="50.43132" lon="1.87086">
        <ele>-11</ele>
        <time>2019-08-11T09:59:17Z</time>
      </trkpt>
      <trkpt lat="50.43121" lon="1.87107">
        <ele>-11</ele>
        <time>2019-08-11T09:59:20Z</time>
      </trkpt>
      <trkpt lat="50.4311" lon="1.87126">
        <ele>-11</ele>
        <time>2019-08-11T09:59:23Z</time>
      </trkpt>
      <trkpt lat="50.43103" lon="1.87139">
        <ele>-11</ele>
        <time>2019-08-11T09:59:26Z</time>
      </trkpt>
      <trkpt lat="50.43093" lon="1.87159">
        <ele>-11</ele>
        <time>2019-08-11T09:59:28Z</time>
      </trkpt>
      <trkpt lat="50.43083" lon="1.87179">
        <ele>-11</ele>
        <time>2019-08-11T09:59:31Z</time>
      </trkpt>
      <trkpt lat="50.43077" lon="1.87192">
        <ele>-11</ele>
        <time>2019-08-11T09:59:33Z</time>
      </trkpt>
      <trkpt lat="50.43071" lon="1.87205">
        <ele>-12</ele>
        <time>2019-08-11T09:59:35Z</time>
      </trkpt>
      <trkpt lat="50.43061" lon="1.87224">
        <ele>-12</ele>
        <time>2019-08-11T09:59:38Z</time>
      </trkpt>
      <trkpt lat="50.43055" lon="1.87238">
        <ele>-12</ele>
        <time>2019-08-11T09:59:40Z</time>
      </trkpt>
      <trkpt lat="50.43049" lon="1.8725">
        <ele>-12</ele>
        <time>2019-08-11T09:59:42Z</time>
      </trkpt>
      <trkpt lat="50.43042" lon="1.87262">
        <ele>-11</ele>
        <time>2019-08-11T09:59:45Z</time>
      </trkpt>
      <trkpt lat="50.43033" lon="1.87281">
        <ele>-11</ele>
        <time>2019-08-11T09:59:47Z</time>
      </trkpt>
      <trkpt lat="50.43026" lon="1.87294">
        <ele>-11</ele>
        <time>2019-08-11T09:59:49Z</time>
      </trkpt>
      <trkpt lat="50.43019" lon="1.87308">
        <ele>-11</ele>
        <time>2019-08-11T09:59:51Z</time>
      </trkpt>
      <trkpt lat="50.43012" lon="1.87321">
        <ele>-11</ele>
        <time>2019-08-11T09:59:53Z</time>
      </trkpt>
      <trkpt lat="50.43004" lon="1.87335">
        <ele>-11</ele>
        <time>2019-08-11T09:59:55Z</time>
      </trkpt>
      <trkpt lat="50.42997" lon="1.87347">
        <ele>-10</ele>
        <time>2019-08-11T09:59:57Z</time>
      </trkpt>
      <trkpt lat="50.4299" lon="1.8736">
        <ele>-10</ele>
        <time>2019-08-11T09:59:59Z</time>
      </trkpt>
      <trkpt lat="50.42982" lon="1.87373">
        <ele>-10</ele>
        <time>2019-08-11T10:00:01Z</time>
      </trkpt>
      <trkpt lat="50.42975" lon="1.87385">
        <ele>-10</ele>
        <time>2019-08-11T10:00:04Z</time>
      </trkpt>
      <trkpt lat="50.42964" lon="1.87405">
        <ele>-9</ele>
        <time>2019-08-11T10:00:06Z</time>
      </trkpt>
      <trkpt lat="50.42953" lon="1.87424">
        <ele>-9</ele>
        <time>2019-08-11T10:00:09Z</time>
      </trkpt>
      <trkpt lat="50.42945" lon="1.87436">
        <ele>-9</ele>
        <time>2019-08-11T10:00:11Z</time>
      </trkpt>
      <trkpt lat="50.42938" lon="1.87449">
        <ele>-9</ele>
        <time>2019-08-11T10:00:13Z</time>
      </trkpt>
      <trkpt lat="50.42931" lon="1.87461">
        <ele>-9</ele>
        <time>2019-08-11T10:00:15Z</time>
      </trkpt>
      <trkpt lat="50.42919" lon="1.8748">
        <ele>-10</ele>
        <time>2019-08-11T10:00:18Z</time>
      </trkpt>
      <trkpt lat="50.42912" lon="1.87493">
        <ele>-10</ele>
        <time>2019-08-11T10:00:20Z</time>
      </trkpt>
      <trkpt lat="50.429" lon="1.87513">
        <ele>-10</ele>
        <time>2019-08-11T10:00:23Z</time>
      </trkpt>
      <trkpt lat="50.42893" lon="1.87526">
        <ele>-10</ele>
        <time>2019-08-11T10:00:26Z</time>
      </trkpt>
      <trkpt lat="50.42882" lon="1.87545">
        <ele>-10</ele>
        <time>2019-08-11T10:00:28Z</time>
      </trkpt>
      <trkpt lat="50.42871" lon="1.87564">
        <ele>-10</ele>
        <time>2019-08-11T10:00:31Z</time>
      </trkpt>
      <trkpt lat="50.42864" lon="1.87577">
        <ele>-10</ele>
        <time>2019-08-11T10:00:33Z</time>
      </trkpt>
      <trkpt lat="50.42852" lon="1.87595">
        <ele>-10</ele>
        <time>2019-08-11T10:00:36Z</time>
      </trkpt>
      <trkpt lat="50.42841" lon="1.87612">
        <ele>-10</ele>
        <time>2019-08-11T10:00:39Z</time>
      </trkpt>
      <trkpt lat="50.42833" lon="1.87623">
        <ele>-9</ele>
        <time>2019-08-11T10:00:41Z</time>
      </trkpt>
      <trkpt lat="50.42821" lon="1.87639">
        <ele>-9</ele>
        <time>2019-08-11T10:00:44Z</time>
      </trkpt>
      <trkpt lat="50.4281" lon="1.87654">
        <ele>-9</ele>
        <time>2019-08-11T10:00:47Z</time>
      </trkpt>
      <trkpt lat="50.42798" lon="1.87668">
        <ele>-9</ele>
        <time>2019-08-11T10:00:50Z</time>
      </trkpt>
      <trkpt lat="50.42791" lon="1.87678">
        <ele>-9</ele>
        <time>2019-08-11T10:00:52Z</time>
      </trkpt>
      <trkpt lat="50.4278" lon="1.87692">
        <ele>-9</ele>
        <time>2019-08-11T10:00:55Z</time>
      </trkpt>
      <trkpt lat="50.42772" lon="1.87701">
        <ele>-9</ele>
        <time>2019-08-11T10:00:57Z</time>
      </trkpt>
      <trkpt lat="50.42765" lon="1.8771">
        <ele>-9</ele>
        <time>2019-08-11T10:00:59Z</time>
      </trkpt>
      <trkpt lat="50.42755" lon="1.87724">
        <ele>-8</ele>
        <time>2019-08-11T10:01:02Z</time>
      </trkpt>
      <trkpt lat="50.42749" lon="1.87734">
        <ele>-8</ele>
        <time>2019-08-11T10:01:04Z</time>
      </trkpt>
      <trkpt lat="50.42742" lon="1.87745">
        <ele>-8</ele>
        <time>2019-08-11T10:01:06Z</time>
      </trkpt>
      <trkpt lat="50.42735" lon="1.87756">
        <ele>-8</ele>
        <time>2019-08-11T10:01:08Z</time>
      </trkpt>
      <trkpt lat="50.42729" lon="1.87767">
        <ele>-8</ele>
        <time>2019-08-11T10:01:10Z</time>
      </trkpt>
      <trkpt lat="50.42722" lon="1.87778">
        <ele>-8</ele>
        <time>2019-08-11T10:01:12Z</time>
      </trkpt>
      <trkpt lat="50.42713" lon="1.87796">
        <ele>-8</ele>
        <time>2019-08-11T10:01:15Z</time>
      </trkpt>
      <trkpt lat="50.42707" lon="1.87808">
        <ele>-8</ele>
        <time>2019-08-11T10:01:17Z</time>
      </trkpt>
      <trkpt lat="50.427" lon="1.87819">
        <ele>-8</ele>
        <time>2019-08-11T10:01:20Z</time>
      </trkpt>
      <trkpt lat="50.4269" lon="1.87838">
        <ele>-8</ele>
        <time>2019-08-11T10:01:22Z</time>
      </trkpt>
      <trkpt lat="50.42679" lon="1.87857">
        <ele>-9</ele>
        <time>2019-08-11T10:01:25Z</time>
      </trkpt>
      <trkpt lat="50.42667" lon="1.87878">
        <ele>-9</ele>
        <time>2019-08-11T10:01:28Z</time>
      </trkpt>
      <trkpt lat="50.42659" lon="1.87892">
        <ele>-9</ele>
        <time>2019-08-11T10:01:30Z</time>
      </trkpt>
      <trkpt lat="50.42651" lon="1.87907">
        <ele>-9</ele>
        <time>2019-08-11T10:01:32Z</time>
      </trkpt>
      <trkpt lat="50.42641" lon="1.87922">
        <ele>-9</ele>
        <time>2019-08-11T10:01:34Z</time>
      </trkpt>
      <trkpt lat="50.42632" lon="1.87937">
        <ele>-9</ele>
        <time>2019-08-11T10:01:36Z</time>
      </trkpt>
      <trkpt lat="50.42616" lon="1.8796">
        <ele>-10</ele>
        <time>2019-08-11T10:01:39Z</time>
      </trkpt>
      <trkpt lat="50.426" lon="1.87981">
        <ele>-10</ele>
        <time>2019-08-11T10:01:42Z</time>
      </trkpt>
      <trkpt lat="50.4259" lon="1.87995">
        <ele>-10</ele>
        <time>2019-08-11T10:01:44Z</time>
      </trkpt>
      <trkpt lat="50.4258" lon="1.88008">
        <ele>-10</ele>
        <time>2019-08-11T10:01:46Z</time>
      </trkpt>
      <trkpt lat="50.4257" lon="1.88021">
        <ele>-11</ele>
        <time>2019-08-11T10:01:48Z</time>
      </trkpt>
      <trkpt lat="50.42561" lon="1.88034">
        <ele>-10</ele>
        <time>2019-08-11T10:01:50Z</time>
      </trkpt>
      <trkpt lat="50.42553" lon="1.88047">
        <ele>-11</ele>
        <time>2019-08-11T10:01:52Z</time>
      </trkpt>
      <trkpt lat="50.42545" lon="1.88061">
        <ele>-10</ele>
        <time>2019-08-11T10:01:54Z</time>
      </trkpt>
      <trkpt lat="50.42534" lon="1.88082">
        <ele>-10</ele>
        <time>2019-08-11T10:01:57Z</time>
      </trkpt>
      <trkpt lat="50.42527" lon="1.88096">
        <ele>-10</ele>
        <time>2019-08-11T10:01:59Z</time>
      </trkpt>
      <trkpt lat="50.42521" lon="1.8811">
        <ele>-10</ele>
        <time>2019-08-11T10:02:01Z</time>
      </trkpt>
      <trkpt lat="50.42512" lon="1.8813">
        <ele>-10</ele>
        <time>2019-08-11T10:02:04Z</time>
      </trkpt>
      <trkpt lat="50.42506" lon="1.88144">
        <ele>-10</ele>
        <time>2019-08-11T10:02:06Z</time>
      </trkpt>
      <trkpt lat="50.425" lon="1.88156">
        <ele>-10</ele>
        <time>2019-08-11T10:02:08Z</time>
      </trkpt>
      <trkpt lat="50.4249" lon="1.88175">
        <ele>-10</ele>
        <time>2019-08-11T10:02:11Z</time>
      </trkpt>
      <trkpt lat="50.42479" lon="1.88193">
        <ele>-9</ele>
        <time>2019-08-11T10:02:14Z</time>
      </trkpt>
      <trkpt lat="50.42471" lon="1.88205">
        <ele>-9</ele>
        <time>2019-08-11T10:02:16Z</time>
      </trkpt>
      <trkpt lat="50.42464" lon="1.88216">
        <ele>-9</ele>
        <time>2019-08-11T10:02:18Z</time>
      </trkpt>
      <trkpt lat="50.42456" lon="1.88228">
        <ele>-9</ele>
        <time>2019-08-11T10:02:20Z</time>
      </trkpt>
      <trkpt lat="50.42448" lon="1.88239">
        <ele>-9</ele>
        <time>2019-08-11T10:02:22Z</time>
      </trkpt>
      <trkpt lat="50.4244" lon="1.88249">
        <ele>-8</ele>
        <time>2019-08-11T10:02:24Z</time>
      </trkpt>
      <trkpt lat="50.42433" lon="1.8826">
        <ele>-8</ele>
        <time>2019-08-11T10:02:26Z</time>
      </trkpt>
      <trkpt lat="50.42421" lon="1.88276">
        <ele>-8</ele>
        <time>2019-08-11T10:02:29Z</time>
      </trkpt>
      <trkpt lat="50.42413" lon="1.88287">
        <ele>-8</ele>
        <time>2019-08-11T10:02:32Z</time>
      </trkpt>
      <trkpt lat="50.42401" lon="1.88304">
        <ele>-8</ele>
        <time>2019-08-11T10:02:34Z</time>
      </trkpt>
      <trkpt lat="50.42389" lon="1.88321">
        <ele>-8</ele>
        <time>2019-08-11T10:02:37Z</time>
      </trkpt>
      <trkpt lat="50.42377" lon="1.88338">
        <ele>-7</ele>
        <time>2019-08-11T10:02:40Z</time>
      </trkpt>
      <trkpt lat="50.4237" lon="1.88348">
        <ele>-7</ele>
        <time>2019-08-11T10:02:42Z</time>
      </trkpt>
      <trkpt lat="50.42363" lon="1.88359">
        <ele>-7</ele>
        <time>2019-08-11T10:02:44Z</time>
      </trkpt>
      <trkpt lat="50.42355" lon="1.88369">
        <ele>-7</ele>
        <time>2019-08-11T10:02:46Z</time>
      </trkpt>
      <trkpt lat="50.42348" lon="1.8838">
        <ele>-7</ele>
        <time>2019-08-11T10:02:48Z</time>
      </trkpt>
      <trkpt lat="50.42337" lon="1.88394">
        <ele>-7</ele>
        <time>2019-08-11T10:02:51Z</time>
      </trkpt>
      <trkpt lat="50.42327" lon="1.88409">
        <ele>-7</ele>
        <time>2019-08-11T10:02:54Z</time>
      </trkpt>
      <trkpt lat="50.4232" lon="1.88419">
        <ele>-7</ele>
        <time>2019-08-11T10:02:56Z</time>
      </trkpt>
      <trkpt lat="50.42313" lon="1.88429">
        <ele>-7</ele>
        <time>2019-08-11T10:02:58Z</time>
      </trkpt>
      <trkpt lat="50.42306" lon="1.88438">
        <ele>-6</ele>
        <time>2019-08-11T10:03:00Z</time>
      </trkpt>
      <trkpt lat="50.42296" lon="1.88452">
        <ele>-6</ele>
        <time>2019-08-11T10:03:03Z</time>
      </trkpt>
      <trkpt lat="50.42289" lon="1.88461">
        <ele>-6</ele>
        <time>2019-08-11T10:03:05Z</time>
      </trkpt>
      <trkpt lat="50.42283" lon="1.88471">
        <ele>-6</ele>
        <time>2019-08-11T10:03:07Z</time>
      </trkpt>
      <trkpt lat="50.42273" lon="1.88487">
        <ele>-5</ele>
        <time>2019-08-11T10:03:10Z</time>
      </trkpt>
      <trkpt lat="50.42267" lon="1.88497">
        <ele>-5</ele>
        <time>2019-08-11T10:03:12Z</time>
      </trkpt>
      <trkpt lat="50.42261" lon="1.88508">
        <ele>-5</ele>
        <time>2019-08-11T10:03:14Z</time>
      </trkpt>
      <trkpt lat="50.42255" lon="1.88519">
        <ele>-5</ele>
        <time>2019-08-11T10:03:17Z</time>
      </trkpt>
      <trkpt lat="50.42247" lon="1.88536">
        <ele>-5</ele>
        <time>2019-08-11T10:03:19Z</time>
      </trkpt>
      <trkpt lat="50.42239" lon="1.88555">
        <ele>-5</ele>
        <time>2019-08-11T10:03:22Z</time>
      </trkpt>
      <trkpt lat="50.42229" lon="1.88575">
        <ele>-5</ele>
        <time>2019-08-11T10:03:25Z</time>
      </trkpt>
      <trkpt lat="50.42221" lon="1.88597">
        <ele>-5</ele>
        <time>2019-08-11T10:03:28Z</time>
      </trkpt>
      <trkpt lat="50.42213" lon="1.8862">
        <ele>-5</ele>
        <time>2019-08-11T10:03:31Z</time>
      </trkpt>
      <trkpt lat="50.42208" lon="1.88634">
        <ele>-5</ele>
        <time>2019-08-11T10:03:33Z</time>
      </trkpt>
      <trkpt lat="50.42201" lon="1.88655">
        <ele>-5</ele>
        <time>2019-08-11T10:03:36Z</time>
      </trkpt>
      <trkpt lat="50.42195" lon="1.88675">
        <ele>-5</ele>
        <time>2019-08-11T10:03:39Z</time>
      </trkpt>
      <trkpt lat="50.42189" lon="1.88693">
        <ele>-5</ele>
        <time>2019-08-11T10:03:42Z</time>
      </trkpt>
      <trkpt lat="50.42186" lon="1.88705">
        <ele>-5</ele>
        <time>2019-08-11T10:03:44Z</time>
      </trkpt>
      <trkpt lat="50.4218" lon="1.88723">
        <ele>-6</ele>
        <time>2019-08-11T10:03:47Z</time>
      </trkpt>
      <trkpt lat="50.42176" lon="1.88736">
        <ele>-6</ele>
        <time>2019-08-11T10:03:49Z</time>
      </trkpt>
      <trkpt lat="50.4217" lon="1.88758">
        <ele>-6</ele>
        <time>2019-08-11T10:03:52Z</time>
      </trkpt>
      <trkpt lat="50.42165" lon="1.88772">
        <ele>-7</ele>
        <time>2019-08-11T10:03:54Z</time>
      </trkpt>
      <trkpt lat="50.42157" lon="1.88794">
        <ele>-6</ele>
        <time>2019-08-11T10:03:57Z</time>
      </trkpt>
      <trkpt lat="50.42152" lon="1.88809">
        <ele>-6</ele>
        <time>2019-08-11T10:03:59Z</time>
      </trkpt>
      <trkpt lat="50.42144" lon="1.88834">
        <ele>-7</ele>
        <time>2019-08-11T10:04:02Z</time>
      </trkpt>
      <trkpt lat="50.42135" lon="1.88859">
        <ele>-7</ele>
        <time>2019-08-11T10:04:05Z</time>
      </trkpt>
      <trkpt lat="50.42128" lon="1.88875">
        <ele>-8</ele>
        <time>2019-08-11T10:04:07Z</time>
      </trkpt>
      <trkpt lat="50.4212" lon="1.8889">
        <ele>-8</ele>
        <time>2019-08-11T10:04:09Z</time>
      </trkpt>
      <trkpt lat="50.42105" lon="1.88905">
        <ele>-8</ele>
        <time>2019-08-11T10:04:12Z</time>
      </trkpt>
      <trkpt lat="50.42097" lon="1.88916">
        <ele>-8</ele>
        <time>2019-08-11T10:04:14Z</time>
      </trkpt>
      <trkpt lat="50.42093" lon="1.88933">
        <ele>-9</ele>
        <time>2019-08-11T10:04:16Z</time>
      </trkpt>
      <trkpt lat="50.42096" lon="1.8895">
        <ele>-9</ele>
        <time>2019-08-11T10:04:18Z</time>
      </trkpt>
      <trkpt lat="50.42104" lon="1.88962">
        <ele>-9</ele>
        <time>2019-08-11T10:04:20Z</time>
      </trkpt>
      <trkpt lat="50.42115" lon="1.88973">
        <ele>-9</ele>
        <time>2019-08-11T10:04:22Z</time>
      </trkpt>
      <trkpt lat="50.42124" lon="1.88989">
        <ele>-10</ele>
        <time>2019-08-11T10:04:24Z</time>
      </trkpt>
      <trkpt lat="50.42135" lon="1.89017">
        <ele>-10</ele>
        <time>2019-08-11T10:04:27Z</time>
      </trkpt>
      <trkpt lat="50.42141" lon="1.89038">
        <ele>-10</ele>
        <time>2019-08-11T10:04:29Z</time>
      </trkpt>
      <trkpt lat="50.42147" lon="1.89058">
        <ele>-10</ele>
        <time>2019-08-11T10:04:31Z</time>
      </trkpt>
      <trkpt lat="50.42152" lon="1.89078">
        <ele>-10</ele>
        <time>2019-08-11T10:04:33Z</time>
      </trkpt>
      <trkpt lat="50.42158" lon="1.89098">
        <ele>-9</ele>
        <time>2019-08-11T10:04:35Z</time>
      </trkpt>
      <trkpt lat="50.42167" lon="1.89127">
        <ele>-10</ele>
        <time>2019-08-11T10:04:38Z</time>
      </trkpt>
      <trkpt lat="50.42173" lon="1.89147">
        <ele>-11</ele>
        <time>2019-08-11T10:04:40Z</time>
      </trkpt>
      <trkpt lat="50.42179" lon="1.89167">
        <ele>-11</ele>
        <time>2019-08-11T10:04:42Z</time>
      </trkpt>
      <trkpt lat="50.42189" lon="1.89195">
        <ele>-11</ele>
        <time>2019-08-11T10:04:45Z</time>
      </trkpt>
      <trkpt lat="50.42199" lon="1.89222">
        <ele>-11</ele>
        <time>2019-08-11T10:04:48Z</time>
      </trkpt>
      <trkpt lat="50.42207" lon="1.89239">
        <ele>-11</ele>
        <time>2019-08-11T10:04:50Z</time>
      </trkpt>
      <trkpt lat="50.42215" lon="1.89255">
        <ele>-10</ele>
        <time>2019-08-11T10:04:52Z</time>
      </trkpt>
      <trkpt lat="50.42223" lon="1.89271">
        <ele>-11</ele>
        <time>2019-08-11T10:04:54Z</time>
      </trkpt>
      <trkpt lat="50.42232" lon="1.89286">
        <ele>-11</ele>
        <time>2019-08-11T10:04:56Z</time>
      </trkpt>
      <trkpt lat="50.42246" lon="1.89309">
        <ele>-11</ele>
        <time>2019-08-11T10:04:59Z</time>
      </trkpt>
      <trkpt lat="50.42255" lon="1.89323">
        <ele>-11</ele>
        <time>2019-08-11T10:05:01Z</time>
      </trkpt>
      <trkpt lat="50.42269" lon="1.89346">
        <ele>-12</ele>
        <time>2019-08-11T10:05:04Z</time>
      </trkpt>
      <trkpt lat="50.42278" lon="1.89361">
        <ele>-12</ele>
        <time>2019-08-11T10:05:06Z</time>
      </trkpt>
      <trkpt lat="50.42287" lon="1.89376">
        <ele>-12</ele>
        <time>2019-08-11T10:05:08Z</time>
      </trkpt>
      <trkpt lat="50.42301" lon="1.89399">
        <ele>-12</ele>
        <time>2019-08-11T10:05:11Z</time>
      </trkpt>
      <trkpt lat="50.42315" lon="1.89421">
        <ele>-12</ele>
        <time>2019-08-11T10:05:14Z</time>
      </trkpt>
      <trkpt lat="50.42323" lon="1.89435">
        <ele>-12</ele>
        <time>2019-08-11T10:05:16Z</time>
      </trkpt>
      <trkpt lat="50.42331" lon="1.89448">
        <ele>-12</ele>
        <time>2019-08-11T10:05:18Z</time>
      </trkpt>
      <trkpt lat="50.42337" lon="1.89463">
        <ele>-12</ele>
        <time>2019-08-11T10:05:20Z</time>
      </trkpt>
      <trkpt lat="50.42337" lon="1.89481">
        <ele>-12</ele>
        <time>2019-08-11T10:05:22Z</time>
      </trkpt>
      <trkpt lat="50.42329" lon="1.89505">
        <ele>-13</ele>
        <time>2019-08-11T10:05:25Z</time>
      </trkpt>
      <trkpt lat="50.42324" lon="1.89522">
        <ele>-13</ele>
        <time>2019-08-11T10:05:27Z</time>
      </trkpt>
      <trkpt lat="50.42318" lon="1.89538">
        <ele>-12</ele>
        <time>2019-08-11T10:05:29Z</time>
      </trkpt>
      <trkpt lat="50.4231" lon="1.89561">
        <ele>-12</ele>
        <time>2019-08-11T10:05:32Z</time>
      </trkpt>
      <trkpt lat="50.42305" lon="1.89576">
        <ele>-12</ele>
        <time>2019-08-11T10:05:34Z</time>
      </trkpt>
      <trkpt lat="50.42297" lon="1.89602">
        <ele>-12</ele>
        <time>2019-08-11T10:05:37Z</time>
      </trkpt>
      <trkpt lat="50.42295" lon="1.8962">
        <ele>-12</ele>
        <time>2019-08-11T10:05:39Z</time>
      </trkpt>
      <trkpt lat="50.42294" lon="1.89649">
        <ele>-13</ele>
        <time>2019-08-11T10:05:42Z</time>
      </trkpt>
      <trkpt lat="50.42294" lon="1.89668">
        <ele>-13</ele>
        <time>2019-08-11T10:05:44Z</time>
      </trkpt>
      <trkpt lat="50.42294" lon="1.89688">
        <ele>-13</ele>
        <time>2019-08-11T10:05:47Z</time>
      </trkpt>
      <trkpt lat="50.42297" lon="1.89718">
        <ele>-13</ele>
        <time>2019-08-11T10:05:49Z</time>
      </trkpt>
      <trkpt lat="50.42299" lon="1.89739">
        <ele>-13</ele>
        <time>2019-08-11T10:05:51Z</time>
      </trkpt>
      <trkpt lat="50.42301" lon="1.8976">
        <ele>-13</ele>
        <time>2019-08-11T10:05:53Z</time>
      </trkpt>
      <trkpt lat="50.42303" lon="1.89781">
        <ele>-14</ele>
        <time>2019-08-11T10:05:55Z</time>
      </trkpt>
      <trkpt lat="50.42306" lon="1.89812">
        <ele>-13</ele>
        <time>2019-08-11T10:05:58Z</time>
      </trkpt>
      <trkpt lat="50.42306" lon="1.89832">
        <ele>-13</ele>
        <time>2019-08-11T10:06:00Z</time>
      </trkpt>
      <trkpt lat="50.42306" lon="1.89862">
        <ele>-13</ele>
        <time>2019-08-11T10:06:03Z</time>
      </trkpt>
      <trkpt lat="50.42303" lon="1.8989">
        <ele>-13</ele>
        <time>2019-08-11T10:06:06Z</time>
      </trkpt>
      <trkpt lat="50.42299" lon="1.89909">
        <ele>-13</ele>
        <time>2019-08-11T10:06:08Z</time>
      </trkpt>
      <trkpt lat="50.42296" lon="1.89927">
        <ele>-13</ele>
        <time>2019-08-11T10:06:10Z</time>
      </trkpt>
      <trkpt lat="50.42293" lon="1.89944">
        <ele>-13</ele>
        <time>2019-08-11T10:06:12Z</time>
      </trkpt>
      <trkpt lat="50.4229" lon="1.89962">
        <ele>-13</ele>
        <time>2019-08-11T10:06:14Z</time>
      </trkpt>
      <trkpt lat="50.42287" lon="1.89979">
        <ele>-13</ele>
        <time>2019-08-11T10:06:16Z</time>
      </trkpt>
      <trkpt lat="50.42283" lon="1.90003">
        <ele>-13</ele>
        <time>2019-08-11T10:06:19Z</time>
      </trkpt>
      <trkpt lat="50.4228" lon="1.90019">
        <ele>-14</ele>
        <time>2019-08-11T10:06:21Z</time>
      </trkpt>
      <trkpt lat="50.42278" lon="1.90034">
        <ele>-13</ele>
        <time>2019-08-11T10:06:23Z</time>
      </trkpt>
      <trkpt lat="50.42276" lon="1.90049">
        <ele>-13</ele>
        <time>2019-08-11T10:06:25Z</time>
      </trkpt>
      <trkpt lat="50.42273" lon="1.90071">
        <ele>-13</ele>
        <time>2019-08-11T10:06:28Z</time>
      </trkpt>
      <trkpt lat="50.42271" lon="1.90094">
        <ele>-13</ele>
        <time>2019-08-11T10:06:31Z</time>
      </trkpt>
      <trkpt lat="50.42269" lon="1.90117">
        <ele>-13</ele>
        <time>2019-08-11T10:06:34Z</time>
      </trkpt>
      <trkpt lat="50.42271" lon="1.9013">
        <ele>-13</ele>
        <time>2019-08-11T10:06:36Z</time>
      </trkpt>
      <trkpt lat="50.42274" lon="1.90142">
        <ele>-13</ele>
        <time>2019-08-11T10:06:38Z</time>
      </trkpt>
      <trkpt lat="50.42279" lon="1.90153">
        <ele>-13</ele>
        <time>2019-08-11T10:06:40Z</time>
      </trkpt>
      <trkpt lat="50.42285" lon="1.90161">
        <ele>-13</ele>
        <time>2019-08-11T10:06:42Z</time>
      </trkpt>
      <trkpt lat="50.42285" lon="1.90161">
        <ele>-13</ele>
        <time>2019-08-11T10:06:43Z</time>
      </trkpt>
    </trkseg>
  </trk>
</gpx>